<?xml version='1.0' encoding='UTF-8'?><gpx version="1.1" creator="JPX - https://github.com/jenetics/jpx" xmlns="http://www.topografix.com/GPX/1/1"><trk><trkseg><trkpt lat="38.177245" lon="12.7317917"><ele>11.0</ele><time>2026-04-20T07:58:30.834Z</time></trkpt><trkpt lat="38.1772667" lon="12.7318833"><ele>11.0</ele><time>2026-04-20T07:58:33.828Z</time></trkpt><trkpt lat="38.1772667" lon="12.7319683"><ele>11.0</ele><time>2026-04-20T07:58:36.83Z</time></trkpt><trkpt lat="38.1772" lon="12.7320217"><ele>11.0</ele><time>2026-04-20T07:58:39.831Z</time></trkpt><trkpt lat="38.1770967" lon="12.7320467"><ele>11.0</ele><time>2026-04-20T07:58:41.832Z</time></trkpt><trkpt lat="38.1770233" lon="12.7320567"><ele>11.0</ele><time>2026-04-20T07:58:42.843Z</time></trkpt><trkpt lat="38.1769433" lon="12.732065"><ele>10.8</ele><time>2026-04-20T07:58:43.83Z</time></trkpt><trkpt lat="38.1768533" lon="12.73207"><ele>10.600000000000001</ele><time>2026-04-20T07:58:44.834Z</time></trkpt><trkpt lat="38.17675" lon="12.7320767"><ele>10.4</ele><time>2026-04-20T07:58:45.833Z</time></trkpt><trkpt lat="38.1766383" lon="12.7320867"><ele>10.2</ele><time>2026-04-20T07:58:46.835Z</time></trkpt><trkpt lat="38.1765217" lon="12.7321"><ele>10.0</ele><time>2026-04-20T07:58:47.836Z</time></trkpt><trkpt lat="38.1764033" lon="12.7321167"><ele>10.0</ele><time>2026-04-20T07:58:48.832Z</time></trkpt><trkpt lat="38.1762883" lon="12.7321333"><ele>10.0</ele><time>2026-04-20T07:58:49.833Z</time></trkpt><trkpt lat="38.176175" lon="12.7321467"><ele>10.0</ele><time>2026-04-20T07:58:50.831Z</time></trkpt><trkpt lat="38.1760633" lon="12.7321583"><ele>10.0</ele><time>2026-04-20T07:58:51.827Z</time></trkpt><trkpt lat="38.1759567" lon="12.7321733"><ele>10.0</ele><time>2026-04-20T07:58:52.827Z</time></trkpt><trkpt lat="38.1758517" lon="12.732185"><ele>10.0</ele><time>2026-04-20T07:58:53.835Z</time></trkpt><trkpt lat="38.175755" lon="12.7322"><ele>10.0</ele><time>2026-04-20T07:58:54.831Z</time></trkpt><trkpt lat="38.1756667" lon="12.7322033"><ele>10.0</ele><time>2026-04-20T07:58:55.834Z</time></trkpt><trkpt lat="38.175585" lon="12.732215"><ele>10.0</ele><time>2026-04-20T07:58:56.83Z</time></trkpt><trkpt lat="38.1755033" lon="12.732225"><ele>10.0</ele><time>2026-04-20T07:58:57.828Z</time></trkpt><trkpt lat="38.1754317" lon="12.7322367"><ele>10.0</ele><time>2026-04-20T07:58:58.83Z</time></trkpt><trkpt lat="38.17536" lon="12.7322433"><ele>10.285714285714285</ele><time>2026-04-20T07:58:59.833Z</time></trkpt><trkpt lat="38.1752933" lon="12.732255"><ele>10.571428571428571</ele><time>2026-04-20T07:59:00.83Z</time></trkpt><trkpt lat="38.175225" lon="12.732265"><ele>10.857142857142858</ele><time>2026-04-20T07:59:01.827Z</time></trkpt><trkpt lat="38.175155" lon="12.732275"><ele>11.142857142857142</ele><time>2026-04-20T07:59:02.829Z</time></trkpt><trkpt lat="38.1750833" lon="12.732285"><ele>11.428571428571429</ele><time>2026-04-20T07:59:03.831Z</time></trkpt><trkpt lat="38.17501" lon="12.732295"><ele>11.714285714285714</ele><time>2026-04-20T07:59:04.83Z</time></trkpt><trkpt lat="38.174935" lon="12.732305"><ele>12.0</ele><time>2026-04-20T07:59:05.83Z</time></trkpt><trkpt lat="38.1748583" lon="12.7323183"><ele>12.5</ele><time>2026-04-20T07:59:06.831Z</time></trkpt><trkpt lat="38.1747783" lon="12.7323267"><ele>13.0</ele><time>2026-04-20T07:59:07.832Z</time></trkpt><trkpt lat="38.1746967" lon="12.7323367"><ele>13.5</ele><time>2026-04-20T07:59:08.832Z</time></trkpt><trkpt lat="38.1746133" lon="12.732345"><ele>14.0</ele><time>2026-04-20T07:59:09.831Z</time></trkpt><trkpt lat="38.1745317" lon="12.7323533"><ele>14.5</ele><time>2026-04-20T07:59:10.832Z</time></trkpt><trkpt lat="38.1744583" lon="12.7323817"><ele>15.0</ele><time>2026-04-20T07:59:11.831Z</time></trkpt><trkpt lat="38.174405" lon="12.7324383"><ele>15.0</ele><time>2026-04-20T07:59:12.833Z</time></trkpt><trkpt lat="38.1742917" lon="12.7324767"><ele>15.0</ele><time>2026-04-20T07:59:13.835Z</time></trkpt><trkpt lat="38.1742267" lon="12.73249"><ele>15.0</ele><time>2026-04-20T07:59:14.832Z</time></trkpt><trkpt lat="38.1741517" lon="12.7324933"><ele>15.0</ele><time>2026-04-20T07:59:15.833Z</time></trkpt><trkpt lat="38.174035" lon="12.7325033"><ele>15.0</ele><time>2026-04-20T07:59:17.83Z</time></trkpt><trkpt lat="38.1739317" lon="12.7325017"><ele>15.5</ele><time>2026-04-20T07:59:18.844Z</time></trkpt><trkpt lat="38.17382" lon="12.732525"><ele>16.0</ele><time>2026-04-20T07:59:19.829Z</time></trkpt><trkpt lat="38.1737233" lon="12.73257"><ele>16.5</ele><time>2026-04-20T07:59:20.83Z</time></trkpt><trkpt lat="38.1735517" lon="12.7325667"><ele>17.0</ele><time>2026-04-20T07:59:22.835Z</time></trkpt><trkpt lat="38.173475" lon="12.7325717"><ele>17.0</ele><time>2026-04-20T07:59:23.836Z</time></trkpt><trkpt lat="38.1734" lon="12.73258"><ele>17.0</ele><time>2026-04-20T07:59:24.831Z</time></trkpt><trkpt lat="38.1733217" lon="12.73259"><ele>17.0</ele><time>2026-04-20T07:59:25.831Z</time></trkpt><trkpt lat="38.173235" lon="12.7326033"><ele>17.0</ele><time>2026-04-20T07:59:26.834Z</time></trkpt><trkpt lat="38.1731467" lon="12.732605"><ele>17.0</ele><time>2026-04-20T07:59:27.829Z</time></trkpt><trkpt lat="38.17307" lon="12.732595"><ele>17.0</ele><time>2026-04-20T07:59:28.828Z</time></trkpt><trkpt lat="38.1729867" lon="12.7325967"><ele>17.0</ele><time>2026-04-20T07:59:29.829Z</time></trkpt><trkpt lat="38.1729017" lon="12.7325983"><ele>17.0</ele><time>2026-04-20T07:59:30.828Z</time></trkpt><trkpt lat="38.172815" lon="12.7326"><ele>17.0</ele><time>2026-04-20T07:59:31.829Z</time></trkpt><trkpt lat="38.1727267" lon="12.7325983"><ele>17.0</ele><time>2026-04-20T07:59:32.83Z</time></trkpt><trkpt lat="38.1726417" lon="12.7325983"><ele>17.0</ele><time>2026-04-20T07:59:33.833Z</time></trkpt><trkpt lat="38.172555" lon="12.7326033"><ele>17.0</ele><time>2026-04-20T07:59:34.828Z</time></trkpt><trkpt lat="38.1724667" lon="12.7326117"><ele>17.0</ele><time>2026-04-20T07:59:35.828Z</time></trkpt><trkpt lat="38.1723817" lon="12.7326183"><ele>17.0</ele><time>2026-04-20T07:59:36.828Z</time></trkpt><trkpt lat="38.1722933" lon="12.7326283"><ele>17.0</ele><time>2026-04-20T07:59:37.835Z</time></trkpt><trkpt lat="38.1722033" lon="12.73264"><ele>17.0</ele><time>2026-04-20T07:59:38.829Z</time></trkpt><trkpt lat="38.1721117" lon="12.732655"><ele>17.0</ele><time>2026-04-20T07:59:39.828Z</time></trkpt><trkpt lat="38.1720233" lon="12.7326633"><ele>17.0</ele><time>2026-04-20T07:59:40.833Z</time></trkpt><trkpt lat="38.1719367" lon="12.73267"><ele>17.6</ele><time>2026-04-20T07:59:41.842Z</time></trkpt><trkpt lat="38.1717683" lon="12.732695"><ele>18.2</ele><time>2026-04-20T07:59:43.831Z</time></trkpt><trkpt lat="38.1716833" lon="12.7327083"><ele>18.8</ele><time>2026-04-20T07:59:44.83Z</time></trkpt><trkpt lat="38.1715983" lon="12.73272"><ele>19.4</ele><time>2026-04-20T07:59:45.828Z</time></trkpt><trkpt lat="38.1715117" lon="12.7327317"><ele>20.0</ele><time>2026-04-20T07:59:46.83Z</time></trkpt><trkpt lat="38.1714233" lon="12.7327433"><ele>20.0</ele><time>2026-04-20T07:59:47.828Z</time></trkpt><trkpt lat="38.1713333" lon="12.732755"><ele>20.0</ele><time>2026-04-20T07:59:48.833Z</time></trkpt><trkpt lat="38.1712433" lon="12.732765"><ele>20.0</ele><time>2026-04-20T07:59:49.828Z</time></trkpt><trkpt lat="38.1711517" lon="12.7327767"><ele>20.0</ele><time>2026-04-20T07:59:50.831Z</time></trkpt><trkpt lat="38.17106" lon="12.7327883"><ele>20.0</ele><time>2026-04-20T07:59:51.834Z</time></trkpt><trkpt lat="38.170965" lon="12.7328133"><ele>20.0</ele><time>2026-04-20T07:59:52.827Z</time></trkpt><trkpt lat="38.170875" lon="12.7328217"><ele>20.0</ele><time>2026-04-20T07:59:53.833Z</time></trkpt><trkpt lat="38.1707817" lon="12.7328267"><ele>20.0</ele><time>2026-04-20T07:59:54.833Z</time></trkpt><trkpt lat="38.1706833" lon="12.7328383"><ele>20.0</ele><time>2026-04-20T07:59:55.828Z</time></trkpt><trkpt lat="38.170585" lon="12.7328483"><ele>20.0</ele><time>2026-04-20T07:59:56.832Z</time></trkpt><trkpt lat="38.170485" lon="12.7328583"><ele>20.4</ele><time>2026-04-20T07:59:57.83Z</time></trkpt><trkpt lat="38.170385" lon="12.7328733"><ele>20.8</ele><time>2026-04-20T07:59:58.83Z</time></trkpt><trkpt lat="38.17028" lon="12.732885"><ele>21.200000000000003</ele><time>2026-04-20T07:59:59.831Z</time></trkpt><trkpt lat="38.1701767" lon="12.7328967"><ele>21.6</ele><time>2026-04-20T08:00:00.83Z</time></trkpt><trkpt lat="38.170075" lon="12.73291"><ele>22.0</ele><time>2026-04-20T08:00:01.831Z</time></trkpt><trkpt lat="38.16997" lon="12.732925"><ele>22.0</ele><time>2026-04-20T08:00:02.834Z</time></trkpt><trkpt lat="38.1698633" lon="12.7329383"><ele>22.0</ele><time>2026-04-20T08:00:03.829Z</time></trkpt><trkpt lat="38.169755" lon="12.7329533"><ele>22.0</ele><time>2026-04-20T08:00:04.83Z</time></trkpt><trkpt lat="38.169645" lon="12.73297"><ele>22.0</ele><time>2026-04-20T08:00:05.832Z</time></trkpt><trkpt lat="38.169535" lon="12.7329883"><ele>22.0</ele><time>2026-04-20T08:00:06.83Z</time></trkpt><trkpt lat="38.1694233" lon="12.7330033"><ele>22.75</ele><time>2026-04-20T08:00:07.829Z</time></trkpt><trkpt lat="38.1693083" lon="12.7330183"><ele>23.5</ele><time>2026-04-20T08:00:08.833Z</time></trkpt><trkpt lat="38.1691917" lon="12.7330317"><ele>24.25</ele><time>2026-04-20T08:00:09.838Z</time></trkpt><trkpt lat="38.1690717" lon="12.7330467"><ele>25.0</ele><time>2026-04-20T08:00:10.836Z</time></trkpt><trkpt lat="38.1689517" lon="12.73306"><ele>26.0</ele><time>2026-04-20T08:00:11.833Z</time></trkpt><trkpt lat="38.1688317" lon="12.733075"><ele>27.0</ele><time>2026-04-20T08:00:12.83Z</time></trkpt><trkpt lat="38.16871" lon="12.7330917"><ele>28.0</ele><time>2026-04-20T08:00:13.832Z</time></trkpt><trkpt lat="38.1685883" lon="12.7331067"><ele>29.0</ele><time>2026-04-20T08:00:14.83Z</time></trkpt><trkpt lat="38.1684667" lon="12.7331233"><ele>29.0</ele><time>2026-04-20T08:00:15.833Z</time></trkpt><trkpt lat="38.1683483" lon="12.7331417"><ele>29.0</ele><time>2026-04-20T08:00:16.831Z</time></trkpt><trkpt lat="38.1682317" lon="12.7331583"><ele>29.0</ele><time>2026-04-20T08:00:17.829Z</time></trkpt><trkpt lat="38.168115" lon="12.7331717"><ele>29.0</ele><time>2026-04-20T08:00:18.832Z</time></trkpt><trkpt lat="38.1680033" lon="12.7331867"><ele>29.6</ele><time>2026-04-20T08:00:19.829Z</time></trkpt><trkpt lat="38.1678917" lon="12.7332"><ele>30.2</ele><time>2026-04-20T08:00:20.834Z</time></trkpt><trkpt lat="38.1677833" lon="12.733215"><ele>30.800000000000004</ele><time>2026-04-20T08:00:21.833Z</time></trkpt><trkpt lat="38.1676817" lon="12.73323"><ele>31.400000000000002</ele><time>2026-04-20T08:00:22.832Z</time></trkpt><trkpt lat="38.1675783" lon="12.733245"><ele>32.0</ele><time>2026-04-20T08:00:23.838Z</time></trkpt><trkpt lat="38.1674717" lon="12.73326"><ele>32.0</ele><time>2026-04-20T08:00:24.83Z</time></trkpt><trkpt lat="38.1673633" lon="12.7332733"><ele>32.0</ele><time>2026-04-20T08:00:25.833Z</time></trkpt><trkpt lat="38.1672567" lon="12.73329"><ele>32.0</ele><time>2026-04-20T08:00:26.83Z</time></trkpt><trkpt lat="38.1671583" lon="12.7333033"><ele>32.0</ele><time>2026-04-20T08:00:27.827Z</time></trkpt><trkpt lat="38.167075" lon="12.733315"><ele>32.0</ele><time>2026-04-20T08:00:28.829Z</time></trkpt><trkpt lat="38.1670067" lon="12.733325"><ele>32.0</ele><time>2026-04-20T08:00:29.831Z</time></trkpt><trkpt lat="38.1669283" lon="12.7333317"><ele>32.0</ele><time>2026-04-20T08:00:31.833Z</time></trkpt><trkpt lat="38.166875" lon="12.7334117"><ele>32.0</ele><time>2026-04-20T08:00:34.83Z</time></trkpt><trkpt lat="38.1668967" lon="12.733565"><ele>32.0</ele><time>2026-04-20T08:00:36.829Z</time></trkpt><trkpt lat="38.1669283" lon="12.73367"><ele>32.0</ele><time>2026-04-20T08:00:37.833Z</time></trkpt><trkpt lat="38.1669633" lon="12.7337767"><ele>32.0</ele><time>2026-04-20T08:00:38.829Z</time></trkpt><trkpt lat="38.16701" lon="12.733905"><ele>32.0</ele><time>2026-04-20T08:00:39.829Z</time></trkpt><trkpt lat="38.167055" lon="12.7340467"><ele>32.0</ele><time>2026-04-20T08:00:40.83Z</time></trkpt><trkpt lat="38.1670983" lon="12.7342"><ele>32.0</ele><time>2026-04-20T08:00:41.831Z</time></trkpt><trkpt lat="38.1671333" lon="12.7343483"><ele>31.6</ele><time>2026-04-20T08:00:42.83Z</time></trkpt><trkpt lat="38.1671717" lon="12.73449"><ele>31.200000000000003</ele><time>2026-04-20T08:00:43.832Z</time></trkpt><trkpt lat="38.1672083" lon="12.734615"><ele>30.8</ele><time>2026-04-20T08:00:44.829Z</time></trkpt><trkpt lat="38.1672433" lon="12.7347267"><ele>30.4</ele><time>2026-04-20T08:00:45.831Z</time></trkpt><trkpt lat="38.1672667" lon="12.7348233"><ele>30.0</ele><time>2026-04-20T08:00:46.83Z</time></trkpt><trkpt lat="38.1672733" lon="12.7349067"><ele>30.0</ele><time>2026-04-20T08:00:47.83Z</time></trkpt><trkpt lat="38.1672283" lon="12.7350317"><ele>30.0</ele><time>2026-04-20T08:00:49.831Z</time></trkpt><trkpt lat="38.1671083" lon="12.73511"><ele>30.0</ele><time>2026-04-20T08:00:51.829Z</time></trkpt><trkpt lat="38.16702" lon="12.7351433"><ele>30.0</ele><time>2026-04-20T08:00:52.831Z</time></trkpt><trkpt lat="38.166905" lon="12.7351767"><ele>30.0</ele><time>2026-04-20T08:00:53.829Z</time></trkpt><trkpt lat="38.166765" lon="12.7352183"><ele>30.0</ele><time>2026-04-20T08:00:54.832Z</time></trkpt><trkpt lat="38.166615" lon="12.7352583"><ele>30.0</ele><time>2026-04-20T08:00:55.83Z</time></trkpt><trkpt lat="38.1664533" lon="12.735305"><ele>30.666666666666664</ele><time>2026-04-20T08:00:56.835Z</time></trkpt><trkpt lat="38.166285" lon="12.7353517"><ele>31.333333333333332</ele><time>2026-04-20T08:00:57.832Z</time></trkpt><trkpt lat="38.1661067" lon="12.7354017"><ele>32.0</ele><time>2026-04-20T08:00:58.828Z</time></trkpt><trkpt lat="38.16592" lon="12.7354567"><ele>32.0</ele><time>2026-04-20T08:00:59.833Z</time></trkpt><trkpt lat="38.1657283" lon="12.7355117"><ele>32.0</ele><time>2026-04-20T08:01:00.833Z</time></trkpt><trkpt lat="38.1655317" lon="12.7355633"><ele>32.0</ele><time>2026-04-20T08:01:01.83Z</time></trkpt><trkpt lat="38.1653317" lon="12.7356183"><ele>32.666666666666664</ele><time>2026-04-20T08:01:02.831Z</time></trkpt><trkpt lat="38.1651283" lon="12.7356733"><ele>33.333333333333336</ele><time>2026-04-20T08:01:03.827Z</time></trkpt><trkpt lat="38.1649233" lon="12.73573"><ele>34.0</ele><time>2026-04-20T08:01:04.833Z</time></trkpt><trkpt lat="38.1647117" lon="12.7357883"><ele>34.66666666666667</ele><time>2026-04-20T08:01:05.832Z</time></trkpt><trkpt lat="38.1645117" lon="12.735845"><ele>35.333333333333336</ele><time>2026-04-20T08:01:06.833Z</time></trkpt><trkpt lat="38.1643183" lon="12.7358983"><ele>36.0</ele><time>2026-04-20T08:01:07.834Z</time></trkpt><trkpt lat="38.1641367" lon="12.7359467"><ele>36.666666666666664</ele><time>2026-04-20T08:01:08.831Z</time></trkpt><trkpt lat="38.163965" lon="12.7359933"><ele>37.33333333333333</ele><time>2026-04-20T08:01:09.832Z</time></trkpt><trkpt lat="38.16381" lon="12.7360333"><ele>38.0</ele><time>2026-04-20T08:01:10.832Z</time></trkpt><trkpt lat="38.1636683" lon="12.73607"><ele>38.25</ele><time>2026-04-20T08:01:11.832Z</time></trkpt><trkpt lat="38.1635333" lon="12.736105"><ele>38.5</ele><time>2026-04-20T08:01:12.832Z</time></trkpt><trkpt lat="38.1633933" lon="12.7361433"><ele>38.75</ele><time>2026-04-20T08:01:13.831Z</time></trkpt><trkpt lat="38.1632467" lon="12.7361883"><ele>39.0</ele><time>2026-04-20T08:01:14.834Z</time></trkpt><trkpt lat="38.1630933" lon="12.7362417"><ele>40.0</ele><time>2026-04-20T08:01:15.836Z</time></trkpt><trkpt lat="38.1629317" lon="12.736295"><ele>41.0</ele><time>2026-04-20T08:01:16.83Z</time></trkpt><trkpt lat="38.1627633" lon="12.7363467"><ele>42.0</ele><time>2026-04-20T08:01:17.829Z</time></trkpt><trkpt lat="38.1625817" lon="12.7363983"><ele>42.0</ele><time>2026-04-20T08:01:18.833Z</time></trkpt><trkpt lat="38.1623917" lon="12.7364483"><ele>42.0</ele><time>2026-04-20T08:01:19.833Z</time></trkpt><trkpt lat="38.162195" lon="12.7365033"><ele>42.0</ele><time>2026-04-20T08:01:20.837Z</time></trkpt><trkpt lat="38.1619917" lon="12.73656"><ele>42.666666666666664</ele><time>2026-04-20T08:01:21.836Z</time></trkpt><trkpt lat="38.1617817" lon="12.7366167"><ele>43.33333333333333</ele><time>2026-04-20T08:01:22.835Z</time></trkpt><trkpt lat="38.161565" lon="12.7366783"><ele>44.0</ele><time>2026-04-20T08:01:23.835Z</time></trkpt><trkpt lat="38.1613483" lon="12.7367417"><ele>45.33333333333333</ele><time>2026-04-20T08:01:24.836Z</time></trkpt><trkpt lat="38.16113" lon="12.7368033"><ele>46.666666666666664</ele><time>2026-04-20T08:01:25.83Z</time></trkpt><trkpt lat="38.160915" lon="12.736865"><ele>48.0</ele><time>2026-04-20T08:01:26.843Z</time></trkpt><trkpt lat="38.1607033" lon="12.736925"><ele>49.33333333333333</ele><time>2026-04-20T08:01:27.834Z</time></trkpt><trkpt lat="38.1605017" lon="12.7369817"><ele>50.666666666666664</ele><time>2026-04-20T08:01:28.834Z</time></trkpt><trkpt lat="38.1603067" lon="12.7370367"><ele>52.0</ele><time>2026-04-20T08:01:29.835Z</time></trkpt><trkpt lat="38.1601183" lon="12.7370883"><ele>52.0</ele><time>2026-04-20T08:01:30.829Z</time></trkpt><trkpt lat="38.1599333" lon="12.7371367"><ele>52.0</ele><time>2026-04-20T08:01:31.83Z</time></trkpt><trkpt lat="38.1597517" lon="12.7371833"><ele>52.0</ele><time>2026-04-20T08:01:32.833Z</time></trkpt><trkpt lat="38.1595767" lon="12.73723"><ele>54.5</ele><time>2026-04-20T08:01:33.832Z</time></trkpt><trkpt lat="38.1594117" lon="12.7372767"><ele>57.0</ele><time>2026-04-20T08:01:34.834Z</time></trkpt><trkpt lat="38.1591" lon="12.7373633"><ele>57.5</ele><time>2026-04-20T08:01:36.836Z</time></trkpt><trkpt lat="38.158955" lon="12.7374033"><ele>58.0</ele><time>2026-04-20T08:01:37.829Z</time></trkpt><trkpt lat="38.1588233" lon="12.73744"><ele>58.5</ele><time>2026-04-20T08:01:38.833Z</time></trkpt><trkpt lat="38.158695" lon="12.7374717"><ele>59.0</ele><time>2026-04-20T08:01:39.834Z</time></trkpt><trkpt lat="38.1585667" lon="12.7375067"><ele>59.0</ele><time>2026-04-20T08:01:40.828Z</time></trkpt><trkpt lat="38.1584383" lon="12.7375417"><ele>59.0</ele><time>2026-04-20T08:01:41.83Z</time></trkpt><trkpt lat="38.1583083" lon="12.7375783"><ele>59.0</ele><time>2026-04-20T08:01:42.83Z</time></trkpt><trkpt lat="38.158175" lon="12.73761"><ele>59.0</ele><time>2026-04-20T08:01:43.831Z</time></trkpt><trkpt lat="38.1580417" lon="12.73764"><ele>60.5</ele><time>2026-04-20T08:01:44.83Z</time></trkpt><trkpt lat="38.1579117" lon="12.7376617"><ele>62.0</ele><time>2026-04-20T08:01:45.833Z</time></trkpt><trkpt lat="38.1577833" lon="12.7376733"><ele>63.5</ele><time>2026-04-20T08:01:46.833Z</time></trkpt><trkpt lat="38.1576567" lon="12.7376767"><ele>65.0</ele><time>2026-04-20T08:01:47.83Z</time></trkpt><trkpt lat="38.157535" lon="12.737675"><ele>65.0</ele><time>2026-04-20T08:01:48.831Z</time></trkpt><trkpt lat="38.1574217" lon="12.7376683"><ele>65.0</ele><time>2026-04-20T08:01:49.828Z</time></trkpt><trkpt lat="38.15731" lon="12.7376633"><ele>65.0</ele><time>2026-04-20T08:01:50.833Z</time></trkpt><trkpt lat="38.1571933" lon="12.73765"><ele>65.0</ele><time>2026-04-20T08:01:51.836Z</time></trkpt><trkpt lat="38.157075" lon="12.7376383"><ele>65.75</ele><time>2026-04-20T08:01:52.832Z</time></trkpt><trkpt lat="38.1569533" lon="12.73763"><ele>66.5</ele><time>2026-04-20T08:01:53.834Z</time></trkpt><trkpt lat="38.1568333" lon="12.7376233"><ele>67.25</ele><time>2026-04-20T08:01:54.834Z</time></trkpt><trkpt lat="38.1567183" lon="12.737615"><ele>68.0</ele><time>2026-04-20T08:01:55.838Z</time></trkpt><trkpt lat="38.1566117" lon="12.73761"><ele>68.4</ele><time>2026-04-20T08:01:56.833Z</time></trkpt><trkpt lat="38.1565067" lon="12.7376067"><ele>68.8</ele><time>2026-04-20T08:01:57.829Z</time></trkpt><trkpt lat="38.156405" lon="12.7376033"><ele>69.2</ele><time>2026-04-20T08:01:58.83Z</time></trkpt><trkpt lat="38.1563033" lon="12.7375983"><ele>69.6</ele><time>2026-04-20T08:01:59.83Z</time></trkpt><trkpt lat="38.1561967" lon="12.7375917"><ele>70.0</ele><time>2026-04-20T08:02:00.831Z</time></trkpt><trkpt lat="38.1560833" lon="12.7375867"><ele>70.0</ele><time>2026-04-20T08:02:01.831Z</time></trkpt><trkpt lat="38.1559633" lon="12.7375817"><ele>70.0</ele><time>2026-04-20T08:02:02.831Z</time></trkpt><trkpt lat="38.1558417" lon="12.7375717"><ele>70.0</ele><time>2026-04-20T08:02:03.83Z</time></trkpt><trkpt lat="38.1557183" lon="12.7375633"><ele>70.0</ele><time>2026-04-20T08:02:04.828Z</time></trkpt><trkpt lat="38.1556" lon="12.7375567"><ele>71.2</ele><time>2026-04-20T08:02:05.831Z</time></trkpt><trkpt lat="38.1554867" lon="12.7375467"><ele>72.4</ele><time>2026-04-20T08:02:06.83Z</time></trkpt><trkpt lat="38.155385" lon="12.73754"><ele>73.6</ele><time>2026-04-20T08:02:07.829Z</time></trkpt><trkpt lat="38.1552867" lon="12.7375333"><ele>74.8</ele><time>2026-04-20T08:02:08.832Z</time></trkpt><trkpt lat="38.155185" lon="12.7375267"><ele>76.0</ele><time>2026-04-20T08:02:09.831Z</time></trkpt><trkpt lat="38.1550767" lon="12.7375217"><ele>76.0</ele><time>2026-04-20T08:02:10.83Z</time></trkpt><trkpt lat="38.1549733" lon="12.7375133"><ele>76.0</ele><time>2026-04-20T08:02:11.831Z</time></trkpt><trkpt lat="38.1548767" lon="12.7375083"><ele>76.0</ele><time>2026-04-20T08:02:12.832Z</time></trkpt><trkpt lat="38.15478" lon="12.7375033"><ele>76.0</ele><time>2026-04-20T08:02:13.829Z</time></trkpt><trkpt lat="38.154675" lon="12.7374967"><ele>76.0</ele><time>2026-04-20T08:02:14.83Z</time></trkpt><trkpt lat="38.154565" lon="12.7374867"><ele>76.8</ele><time>2026-04-20T08:02:15.831Z</time></trkpt><trkpt lat="38.1544517" lon="12.7374767"><ele>77.6</ele><time>2026-04-20T08:02:16.832Z</time></trkpt><trkpt lat="38.15434" lon="12.7374667"><ele>78.4</ele><time>2026-04-20T08:02:17.83Z</time></trkpt><trkpt lat="38.1542283" lon="12.7374567"><ele>79.2</ele><time>2026-04-20T08:02:18.83Z</time></trkpt><trkpt lat="38.1541217" lon="12.7374467"><ele>80.0</ele><time>2026-04-20T08:02:19.828Z</time></trkpt><trkpt lat="38.154025" lon="12.737435"><ele>80.0</ele><time>2026-04-20T08:02:20.832Z</time></trkpt><trkpt lat="38.1539483" lon="12.7374167"><ele>80.0</ele><time>2026-04-20T08:02:21.83Z</time></trkpt><trkpt lat="38.1538383" lon="12.737375"><ele>80.0</ele><time>2026-04-20T08:02:23.832Z</time></trkpt><trkpt lat="38.1537583" lon="12.737345"><ele>80.0</ele><time>2026-04-20T08:02:25.831Z</time></trkpt><trkpt lat="38.1536933" lon="12.73733"><ele>80.0</ele><time>2026-04-20T08:03:14.831Z</time></trkpt><trkpt lat="38.1536083" lon="12.7372567"><ele>80.0</ele><time>2026-04-20T08:03:16.827Z</time></trkpt><trkpt lat="38.153545" lon="12.7372583"><ele>80.0</ele><time>2026-04-20T08:03:18.829Z</time></trkpt><trkpt lat="38.153595" lon="12.7373317"><ele>80.0</ele><time>2026-04-20T08:03:22.828Z</time></trkpt><trkpt lat="38.1536733" lon="12.737315"><ele>80.0</ele><time>2026-04-20T08:03:25.833Z</time></trkpt><trkpt lat="38.1537317" lon="12.737345"><ele>80.0</ele><time>2026-04-20T08:03:28.833Z</time></trkpt><trkpt lat="38.1536533" lon="12.737405"><ele>80.0</ele><time>2026-04-20T08:03:32.831Z</time></trkpt><trkpt lat="38.1535267" lon="12.7373967"><ele>80.0</ele><time>2026-04-20T08:03:34.83Z</time></trkpt><trkpt lat="38.1534317" lon="12.7373883"><ele>80.0</ele><time>2026-04-20T08:03:35.83Z</time></trkpt><trkpt lat="38.1533183" lon="12.7373867"><ele>80.0</ele><time>2026-04-20T08:03:36.829Z</time></trkpt><trkpt lat="38.1531917" lon="12.7373967"><ele>80.0</ele><time>2026-04-20T08:03:37.832Z</time></trkpt><trkpt lat="38.153055" lon="12.737415"><ele>80.0</ele><time>2026-04-20T08:03:38.83Z</time></trkpt><trkpt lat="38.1529083" lon="12.7374483"><ele>79.66666666666667</ele><time>2026-04-20T08:03:39.829Z</time></trkpt><trkpt lat="38.1527583" lon="12.7374917"><ele>79.33333333333333</ele><time>2026-04-20T08:03:40.828Z</time></trkpt><trkpt lat="38.1526017" lon="12.7375483"><ele>79.0</ele><time>2026-04-20T08:03:41.83Z</time></trkpt><trkpt lat="38.1524367" lon="12.737615"><ele>78.66666666666666</ele><time>2026-04-20T08:03:42.832Z</time></trkpt><trkpt lat="38.1522667" lon="12.737685"><ele>78.33333333333333</ele><time>2026-04-20T08:03:43.831Z</time></trkpt><trkpt lat="38.1520967" lon="12.7377517"><ele>78.0</ele><time>2026-04-20T08:03:44.83Z</time></trkpt><trkpt lat="38.1519233" lon="12.73782"><ele>79.5</ele><time>2026-04-20T08:03:45.831Z</time></trkpt><trkpt lat="38.15158" lon="12.7379567"><ele>81.0</ele><time>2026-04-20T08:03:47.833Z</time></trkpt><trkpt lat="38.15141" lon="12.7380267"><ele>81.0</ele><time>2026-04-20T08:03:48.828Z</time></trkpt><trkpt lat="38.1512383" lon="12.7380983"><ele>81.0</ele><time>2026-04-20T08:03:49.83Z</time></trkpt><trkpt lat="38.151065" lon="12.7381667"><ele>81.0</ele><time>2026-04-20T08:03:50.83Z</time></trkpt><trkpt lat="38.1508917" lon="12.7382383"><ele>81.0</ele><time>2026-04-20T08:03:51.831Z</time></trkpt><trkpt lat="38.150715" lon="12.7383133"><ele>81.0</ele><time>2026-04-20T08:03:52.828Z</time></trkpt><trkpt lat="38.1505367" lon="12.7383883"><ele>81.0</ele><time>2026-04-20T08:03:53.834Z</time></trkpt><trkpt lat="38.1503567" lon="12.7384617"><ele>82.33333333333333</ele><time>2026-04-20T08:03:54.832Z</time></trkpt><trkpt lat="38.1501733" lon="12.738535"><ele>83.66666666666666</ele><time>2026-04-20T08:03:55.83Z</time></trkpt><trkpt lat="38.1499917" lon="12.7386083"><ele>85.0</ele><time>2026-04-20T08:03:56.834Z</time></trkpt><trkpt lat="38.14981" lon="12.7386783"><ele>85.33333333333333</ele><time>2026-04-20T08:03:57.832Z</time></trkpt><trkpt lat="38.1496283" lon="12.7387433"><ele>85.66666666666667</ele><time>2026-04-20T08:03:58.83Z</time></trkpt><trkpt lat="38.149445" lon="12.7388067"><ele>86.0</ele><time>2026-04-20T08:03:59.83Z</time></trkpt><trkpt lat="38.1492633" lon="12.7388633"><ele>86.0</ele><time>2026-04-20T08:04:00.832Z</time></trkpt><trkpt lat="38.1490833" lon="12.7389167"><ele>86.0</ele><time>2026-04-20T08:04:01.829Z</time></trkpt><trkpt lat="38.1489067" lon="12.73897"><ele>86.0</ele><time>2026-04-20T08:04:02.83Z</time></trkpt><trkpt lat="38.1487317" lon="12.73902"><ele>86.0</ele><time>2026-04-20T08:04:03.83Z</time></trkpt><trkpt lat="38.14856" lon="12.7390683"><ele>86.0</ele><time>2026-04-20T08:04:04.826Z</time></trkpt><trkpt lat="38.14839" lon="12.7391183"><ele>86.0</ele><time>2026-04-20T08:04:05.831Z</time></trkpt><trkpt lat="38.14822" lon="12.739165"><ele>86.0</ele><time>2026-04-20T08:04:06.83Z</time></trkpt><trkpt lat="38.1480483" lon="12.7392117"><ele>86.0</ele><time>2026-04-20T08:04:07.829Z</time></trkpt><trkpt lat="38.1478767" lon="12.7392583"><ele>86.0</ele><time>2026-04-20T08:04:08.829Z</time></trkpt><trkpt lat="38.1477033" lon="12.7393083"><ele>86.0</ele><time>2026-04-20T08:04:09.83Z</time></trkpt><trkpt lat="38.1475267" lon="12.7393633"><ele>86.0</ele><time>2026-04-20T08:04:10.834Z</time></trkpt><trkpt lat="38.1473483" lon="12.7394283"><ele>86.0</ele><time>2026-04-20T08:04:11.83Z</time></trkpt><trkpt lat="38.1471683" lon="12.7395017"><ele>85.33333333333334</ele><time>2026-04-20T08:04:12.831Z</time></trkpt><trkpt lat="38.1469867" lon="12.739585"><ele>84.66666666666667</ele><time>2026-04-20T08:04:13.831Z</time></trkpt><trkpt lat="38.1468133" lon="12.7396717"><ele>84.0</ele><time>2026-04-20T08:04:14.831Z</time></trkpt><trkpt lat="38.146645" lon="12.7397567"><ele>82.0</ele><time>2026-04-20T08:04:15.832Z</time></trkpt><trkpt lat="38.1464817" lon="12.73984"><ele>80.0</ele><time>2026-04-20T08:04:16.832Z</time></trkpt><trkpt lat="38.1463233" lon="12.7399217"><ele>78.0</ele><time>2026-04-20T08:04:17.831Z</time></trkpt><trkpt lat="38.1461683" lon="12.7400017"><ele>78.0</ele><time>2026-04-20T08:04:18.833Z</time></trkpt><trkpt lat="38.1460183" lon="12.7400767"><ele>78.0</ele><time>2026-04-20T08:04:19.832Z</time></trkpt><trkpt lat="38.1458733" lon="12.7401467"><ele>78.0</ele><time>2026-04-20T08:04:20.831Z</time></trkpt><trkpt lat="38.145735" lon="12.7402133"><ele>78.75</ele><time>2026-04-20T08:04:21.832Z</time></trkpt><trkpt lat="38.1456" lon="12.7402783"><ele>79.5</ele><time>2026-04-20T08:04:22.83Z</time></trkpt><trkpt lat="38.1454683" lon="12.7403383"><ele>80.25</ele><time>2026-04-20T08:04:23.828Z</time></trkpt><trkpt lat="38.1453367" lon="12.7403917"><ele>81.0</ele><time>2026-04-20T08:04:24.833Z</time></trkpt><trkpt lat="38.1451967" lon="12.7404317"><ele>81.0</ele><time>2026-04-20T08:04:25.83Z</time></trkpt><trkpt lat="38.145045" lon="12.7404483"><ele>81.0</ele><time>2026-04-20T08:04:26.827Z</time></trkpt><trkpt lat="38.1448817" lon="12.7404433"><ele>81.0</ele><time>2026-04-20T08:04:27.828Z</time></trkpt><trkpt lat="38.1447183" lon="12.7404133"><ele>79.66666666666667</ele><time>2026-04-20T08:04:28.827Z</time></trkpt><trkpt lat="38.1445483" lon="12.7403567"><ele>78.33333333333334</ele><time>2026-04-20T08:04:29.83Z</time></trkpt><trkpt lat="38.1443733" lon="12.74027"><ele>77.0</ele><time>2026-04-20T08:04:30.831Z</time></trkpt><trkpt lat="38.1441983" lon="12.7401683"><ele>72.33333333333334</ele><time>2026-04-20T08:04:31.83Z</time></trkpt><trkpt lat="38.144025" lon="12.740065"><ele>67.66666666666667</ele><time>2026-04-20T08:04:32.837Z</time></trkpt><trkpt lat="38.14385" lon="12.739965"><ele>63.0</ele><time>2026-04-20T08:04:33.835Z</time></trkpt><trkpt lat="38.14367" lon="12.7398733"><ele>63.0</ele><time>2026-04-20T08:04:34.833Z</time></trkpt><trkpt lat="38.1434833" lon="12.7397917"><ele>63.0</ele><time>2026-04-20T08:04:35.836Z</time></trkpt><trkpt lat="38.143295" lon="12.7397183"><ele>63.0</ele><time>2026-04-20T08:04:36.832Z</time></trkpt><trkpt lat="38.14311" lon="12.7396517"><ele>63.33333333333333</ele><time>2026-04-20T08:04:37.834Z</time></trkpt><trkpt lat="38.1429283" lon="12.7395883"><ele>63.666666666666664</ele><time>2026-04-20T08:04:38.834Z</time></trkpt><trkpt lat="38.1427517" lon="12.73952"><ele>64.0</ele><time>2026-04-20T08:04:39.83Z</time></trkpt><trkpt lat="38.1425817" lon="12.7394467"><ele>61.33333333333333</ele><time>2026-04-20T08:04:40.833Z</time></trkpt><trkpt lat="38.1424133" lon="12.7393633"><ele>58.66666666666667</ele><time>2026-04-20T08:04:41.832Z</time></trkpt><trkpt lat="38.1422433" lon="12.7392733"><ele>56.0</ele><time>2026-04-20T08:04:42.833Z</time></trkpt><trkpt lat="38.1420767" lon="12.7391767"><ele>56.0</ele><time>2026-04-20T08:04:43.832Z</time></trkpt><trkpt lat="38.1419117" lon="12.73908"><ele>56.0</ele><time>2026-04-20T08:04:44.834Z</time></trkpt><trkpt lat="38.1417533" lon="12.7389867"><ele>56.0</ele><time>2026-04-20T08:04:45.832Z</time></trkpt><trkpt lat="38.1416017" lon="12.7388967"><ele>56.0</ele><time>2026-04-20T08:04:46.831Z</time></trkpt><trkpt lat="38.1414583" lon="12.7388133"><ele>56.0</ele><time>2026-04-20T08:04:47.832Z</time></trkpt><trkpt lat="38.1413233" lon="12.738735"><ele>56.0</ele><time>2026-04-20T08:04:48.832Z</time></trkpt><trkpt lat="38.141195" lon="12.73867"><ele>56.0</ele><time>2026-04-20T08:04:49.834Z</time></trkpt><trkpt lat="38.1410683" lon="12.7386233"><ele>56.0</ele><time>2026-04-20T08:04:50.833Z</time></trkpt><trkpt lat="38.140935" lon="12.73861"><ele>56.0</ele><time>2026-04-20T08:04:51.832Z</time></trkpt><trkpt lat="38.1407917" lon="12.7386283"><ele>56.0</ele><time>2026-04-20T08:04:52.832Z</time></trkpt><trkpt lat="38.1406383" lon="12.7386833"><ele>56.0</ele><time>2026-04-20T08:04:53.83Z</time></trkpt><trkpt lat="38.1404767" lon="12.7387717"><ele>49.0</ele><time>2026-04-20T08:04:54.83Z</time></trkpt><trkpt lat="38.1403067" lon="12.7388933"><ele>42.0</ele><time>2026-04-20T08:04:55.831Z</time></trkpt><trkpt lat="38.1401283" lon="12.7390283"><ele>35.0</ele><time>2026-04-20T08:04:56.835Z</time></trkpt><trkpt lat="38.13995" lon="12.7391583"><ele>35.666666666666664</ele><time>2026-04-20T08:04:57.832Z</time></trkpt><trkpt lat="38.1397783" lon="12.7392733"><ele>36.333333333333336</ele><time>2026-04-20T08:04:58.832Z</time></trkpt><trkpt lat="38.1396117" lon="12.7393683"><ele>37.0</ele><time>2026-04-20T08:04:59.83Z</time></trkpt><trkpt lat="38.1394433" lon="12.7394333"><ele>37.0</ele><time>2026-04-20T08:05:00.829Z</time></trkpt><trkpt lat="38.139275" lon="12.7394683"><ele>37.0</ele><time>2026-04-20T08:05:01.83Z</time></trkpt><trkpt lat="38.1391033" lon="12.7394817"><ele>37.0</ele><time>2026-04-20T08:05:02.829Z</time></trkpt><trkpt lat="38.1389367" lon="12.73948"><ele>37.0</ele><time>2026-04-20T08:05:03.83Z</time></trkpt><trkpt lat="38.1387783" lon="12.73947"><ele>37.0</ele><time>2026-04-20T08:05:04.83Z</time></trkpt><trkpt lat="38.13863" lon="12.739455"><ele>37.0</ele><time>2026-04-20T08:05:05.83Z</time></trkpt><trkpt lat="38.1384867" lon="12.73944"><ele>37.0</ele><time>2026-04-20T08:05:06.832Z</time></trkpt><trkpt lat="38.1383517" lon="12.7394167"><ele>37.0</ele><time>2026-04-20T08:05:07.83Z</time></trkpt><trkpt lat="38.13822" lon="12.7393833"><ele>37.0</ele><time>2026-04-20T08:05:08.831Z</time></trkpt><trkpt lat="38.1380933" lon="12.7393367"><ele>37.0</ele><time>2026-04-20T08:05:09.835Z</time></trkpt><trkpt lat="38.1379717" lon="12.739275"><ele>34.0</ele><time>2026-04-20T08:05:10.834Z</time></trkpt><trkpt lat="38.1378517" lon="12.7391967"><ele>31.0</ele><time>2026-04-20T08:05:11.833Z</time></trkpt><trkpt lat="38.1377383" lon="12.739105"><ele>28.0</ele><time>2026-04-20T08:05:12.83Z</time></trkpt><trkpt lat="38.1376317" lon="12.7390083"><ele>25.0</ele><time>2026-04-20T08:05:13.83Z</time></trkpt><trkpt lat="38.1375283" lon="12.7389067"><ele>25.0</ele><time>2026-04-20T08:05:14.83Z</time></trkpt><trkpt lat="38.1374317" lon="12.7387983"><ele>25.0</ele><time>2026-04-20T08:05:15.828Z</time></trkpt><trkpt lat="38.1373383" lon="12.7386833"><ele>25.0</ele><time>2026-04-20T08:05:16.831Z</time></trkpt><trkpt lat="38.1372433" lon="12.7385667"><ele>25.0</ele><time>2026-04-20T08:05:17.831Z</time></trkpt><trkpt lat="38.1371417" lon="12.7384517"><ele>24.0</ele><time>2026-04-20T08:05:18.831Z</time></trkpt><trkpt lat="38.137035" lon="12.7383333"><ele>23.0</ele><time>2026-04-20T08:05:19.828Z</time></trkpt><trkpt lat="38.1369167" lon="12.7382033"><ele>22.0</ele><time>2026-04-20T08:05:20.832Z</time></trkpt><trkpt lat="38.1367867" lon="12.7380583"><ele>22.0</ele><time>2026-04-20T08:05:21.831Z</time></trkpt><trkpt lat="38.1366467" lon="12.7379017"><ele>22.0</ele><time>2026-04-20T08:05:22.833Z</time></trkpt><trkpt lat="38.1365017" lon="12.737725"><ele>22.0</ele><time>2026-04-20T08:05:23.835Z</time></trkpt><trkpt lat="38.1363533" lon="12.7375367"><ele>22.0</ele><time>2026-04-20T08:05:24.832Z</time></trkpt><trkpt lat="38.1362" lon="12.7373367"><ele>22.0</ele><time>2026-04-20T08:05:25.829Z</time></trkpt><trkpt lat="38.136035" lon="12.7371417"><ele>22.0</ele><time>2026-04-20T08:05:26.832Z</time></trkpt><trkpt lat="38.1358617" lon="12.7369417"><ele>23.5</ele><time>2026-04-20T08:05:27.831Z</time></trkpt><trkpt lat="38.135685" lon="12.73674"><ele>25.0</ele><time>2026-04-20T08:05:28.828Z</time></trkpt><trkpt lat="38.135505" lon="12.73654"><ele>25.0</ele><time>2026-04-20T08:05:29.829Z</time></trkpt><trkpt lat="38.1353267" lon="12.7363367"><ele>25.0</ele><time>2026-04-20T08:05:30.831Z</time></trkpt><trkpt lat="38.13515" lon="12.7361317"><ele>25.5</ele><time>2026-04-20T08:05:31.83Z</time></trkpt><trkpt lat="38.134975" lon="12.73593"><ele>26.0</ele><time>2026-04-20T08:05:32.829Z</time></trkpt><trkpt lat="38.1348017" lon="12.7357267"><ele>26.0</ele><time>2026-04-20T08:05:33.832Z</time></trkpt><trkpt lat="38.1346267" lon="12.7355267"><ele>26.0</ele><time>2026-04-20T08:05:34.834Z</time></trkpt><trkpt lat="38.134455" lon="12.7353283"><ele>24.0</ele><time>2026-04-20T08:05:35.834Z</time></trkpt><trkpt lat="38.1342817" lon="12.7351283"><ele>22.0</ele><time>2026-04-20T08:05:36.838Z</time></trkpt><trkpt lat="38.1341083" lon="12.7349317"><ele>24.0</ele><time>2026-04-20T08:05:37.83Z</time></trkpt><trkpt lat="38.1339383" lon="12.7347333"><ele>26.0</ele><time>2026-04-20T08:05:38.834Z</time></trkpt><trkpt lat="38.1337717" lon="12.7345433"><ele>25.0</ele><time>2026-04-20T08:05:39.833Z</time></trkpt><trkpt lat="38.1336117" lon="12.7343667"><ele>24.0</ele><time>2026-04-20T08:05:40.832Z</time></trkpt><trkpt lat="38.1334483" lon="12.7342067"><ele>23.0</ele><time>2026-04-20T08:05:41.83Z</time></trkpt><trkpt lat="38.1332733" lon="12.7340617"><ele>24.333333333333336</ele><time>2026-04-20T08:05:42.83Z</time></trkpt><trkpt lat="38.1330867" lon="12.7339317"><ele>25.666666666666668</ele><time>2026-04-20T08:05:43.829Z</time></trkpt><trkpt lat="38.1328917" lon="12.7338067"><ele>27.0</ele><time>2026-04-20T08:05:44.829Z</time></trkpt><trkpt lat="38.13269" lon="12.7336833"><ele>27.0</ele><time>2026-04-20T08:05:45.83Z</time></trkpt><trkpt lat="38.13248" lon="12.7335633"><ele>27.0</ele><time>2026-04-20T08:05:46.831Z</time></trkpt><trkpt lat="38.132265" lon="12.7334383"><ele>26.0</ele><time>2026-04-20T08:05:47.83Z</time></trkpt><trkpt lat="38.1320483" lon="12.7333117"><ele>25.0</ele><time>2026-04-20T08:05:48.828Z</time></trkpt><trkpt lat="38.13183" lon="12.7331883"><ele>25.0</ele><time>2026-04-20T08:05:49.829Z</time></trkpt><trkpt lat="38.131605" lon="12.7330783"><ele>25.0</ele><time>2026-04-20T08:05:50.83Z</time></trkpt><trkpt lat="38.131375" lon="12.7329817"><ele>26.0</ele><time>2026-04-20T08:05:51.83Z</time></trkpt><trkpt lat="38.1311417" lon="12.7328933"><ele>27.0</ele><time>2026-04-20T08:05:52.83Z</time></trkpt><trkpt lat="38.1309067" lon="12.73281"><ele>26.5</ele><time>2026-04-20T08:05:53.832Z</time></trkpt><trkpt lat="38.130675" lon="12.73273"><ele>26.0</ele><time>2026-04-20T08:05:54.829Z</time></trkpt><trkpt lat="38.1304433" lon="12.73266"><ele>24.5</ele><time>2026-04-20T08:05:55.831Z</time></trkpt><trkpt lat="38.1302117" lon="12.7326017"><ele>23.0</ele><time>2026-04-20T08:05:56.832Z</time></trkpt><trkpt lat="38.1299783" lon="12.732565"><ele>22.0</ele><time>2026-04-20T08:05:57.828Z</time></trkpt><trkpt lat="38.1297433" lon="12.7325483"><ele>21.0</ele><time>2026-04-20T08:05:58.83Z</time></trkpt><trkpt lat="38.129505" lon="12.7325533"><ele>21.0</ele><time>2026-04-20T08:05:59.828Z</time></trkpt><trkpt lat="38.1292667" lon="12.7325717"><ele>21.0</ele><time>2026-04-20T08:06:00.829Z</time></trkpt><trkpt lat="38.1290233" lon="12.7326"><ele>20.0</ele><time>2026-04-20T08:06:01.83Z</time></trkpt><trkpt lat="38.1287783" lon="12.7326333"><ele>19.0</ele><time>2026-04-20T08:06:02.832Z</time></trkpt><trkpt lat="38.1285317" lon="12.732665"><ele>19.0</ele><time>2026-04-20T08:06:03.829Z</time></trkpt><trkpt lat="38.1282817" lon="12.7326967"><ele>19.0</ele><time>2026-04-20T08:06:04.828Z</time></trkpt><trkpt lat="38.1280267" lon="12.7327267"><ele>20.5</ele><time>2026-04-20T08:06:05.829Z</time></trkpt><trkpt lat="38.12777" lon="12.7327583"><ele>22.0</ele><time>2026-04-20T08:06:06.829Z</time></trkpt><trkpt lat="38.1275117" lon="12.7327917"><ele>22.5</ele><time>2026-04-20T08:06:07.831Z</time></trkpt><trkpt lat="38.1272517" lon="12.732825"><ele>23.0</ele><time>2026-04-20T08:06:08.832Z</time></trkpt><trkpt lat="38.1269917" lon="12.7328567"><ele>23.0</ele><time>2026-04-20T08:06:09.831Z</time></trkpt><trkpt lat="38.12673" lon="12.73289"><ele>23.0</ele><time>2026-04-20T08:06:10.832Z</time></trkpt><trkpt lat="38.1264683" lon="12.7329217"><ele>23.5</ele><time>2026-04-20T08:06:11.832Z</time></trkpt><trkpt lat="38.1262067" lon="12.7329533"><ele>24.0</ele><time>2026-04-20T08:06:12.831Z</time></trkpt><trkpt lat="38.125945" lon="12.7329833"><ele>24.0</ele><time>2026-04-20T08:06:13.828Z</time></trkpt><trkpt lat="38.1256817" lon="12.733015"><ele>24.0</ele><time>2026-04-20T08:06:14.831Z</time></trkpt><trkpt lat="38.1254283" lon="12.7330467"><ele>24.0</ele><time>2026-04-20T08:06:15.831Z</time></trkpt><trkpt lat="38.1251883" lon="12.73308"><ele>24.0</ele><time>2026-04-20T08:06:16.831Z</time></trkpt><trkpt lat="38.1249617" lon="12.7331117"><ele>24.0</ele><time>2026-04-20T08:06:17.83Z</time></trkpt><trkpt lat="38.1247483" lon="12.7331383"><ele>24.0</ele><time>2026-04-20T08:06:18.828Z</time></trkpt><trkpt lat="38.1245483" lon="12.733165"><ele>24.0</ele><time>2026-04-20T08:06:19.832Z</time></trkpt><trkpt lat="38.12436" lon="12.7331883"><ele>24.0</ele><time>2026-04-20T08:06:20.832Z</time></trkpt><trkpt lat="38.124185" lon="12.73321"><ele>24.0</ele><time>2026-04-20T08:06:21.83Z</time></trkpt><trkpt lat="38.1240233" lon="12.7332283"><ele>24.0</ele><time>2026-04-20T08:06:22.833Z</time></trkpt><trkpt lat="38.1238733" lon="12.7332467"><ele>24.25</ele><time>2026-04-20T08:06:23.832Z</time></trkpt><trkpt lat="38.1237317" lon="12.7332633"><ele>24.5</ele><time>2026-04-20T08:06:24.83Z</time></trkpt><trkpt lat="38.1235967" lon="12.73328"><ele>24.75</ele><time>2026-04-20T08:06:25.83Z</time></trkpt><trkpt lat="38.12346" lon="12.7332967"><ele>25.0</ele><time>2026-04-20T08:06:26.829Z</time></trkpt><trkpt lat="38.123315" lon="12.7333167"><ele>24.666666666666668</ele><time>2026-04-20T08:06:27.83Z</time></trkpt><trkpt lat="38.1231617" lon="12.7333367"><ele>24.333333333333336</ele><time>2026-04-20T08:06:28.833Z</time></trkpt><trkpt lat="38.1230017" lon="12.7333567"><ele>24.0</ele><time>2026-04-20T08:06:29.83Z</time></trkpt><trkpt lat="38.122835" lon="12.7333817"><ele>24.0</ele><time>2026-04-20T08:06:30.83Z</time></trkpt><trkpt lat="38.12265" lon="12.7334117"><ele>24.0</ele><time>2026-04-20T08:06:31.83Z</time></trkpt><trkpt lat="38.1224517" lon="12.7334383"><ele>24.0</ele><time>2026-04-20T08:06:32.832Z</time></trkpt><trkpt lat="38.1222533" lon="12.73346"><ele>24.333333333333336</ele><time>2026-04-20T08:06:33.831Z</time></trkpt><trkpt lat="38.1220683" lon="12.733475"><ele>24.666666666666668</ele><time>2026-04-20T08:06:34.831Z</time></trkpt><trkpt lat="38.1219033" lon="12.73349"><ele>25.0</ele><time>2026-04-20T08:06:35.829Z</time></trkpt><trkpt lat="38.12175" lon="12.733505"><ele>25.0</ele><time>2026-04-20T08:06:36.832Z</time></trkpt><trkpt lat="38.1216017" lon="12.7335217"><ele>25.0</ele><time>2026-04-20T08:06:37.834Z</time></trkpt><trkpt lat="38.1214533" lon="12.73354"><ele>25.0</ele><time>2026-04-20T08:06:38.833Z</time></trkpt><trkpt lat="38.1213033" lon="12.7335567"><ele>25.0</ele><time>2026-04-20T08:06:39.832Z</time></trkpt><trkpt lat="38.1211417" lon="12.7335783"><ele>25.0</ele><time>2026-04-20T08:06:40.833Z</time></trkpt><trkpt lat="38.1209683" lon="12.73361"><ele>25.0</ele><time>2026-04-20T08:06:41.833Z</time></trkpt><trkpt lat="38.12078" lon="12.733645"><ele>25.0</ele><time>2026-04-20T08:06:42.829Z</time></trkpt><trkpt lat="38.1205667" lon="12.7336767"><ele>26.5</ele><time>2026-04-20T08:06:43.826Z</time></trkpt><trkpt lat="38.1203333" lon="12.733705"><ele>28.0</ele><time>2026-04-20T08:06:44.83Z</time></trkpt><trkpt lat="38.1200783" lon="12.733735"><ele>28.5</ele><time>2026-04-20T08:06:45.827Z</time></trkpt><trkpt lat="38.11981" lon="12.7337583"><ele>29.0</ele><time>2026-04-20T08:06:46.83Z</time></trkpt><trkpt lat="38.119535" lon="12.7337767"><ele>29.0</ele><time>2026-04-20T08:06:47.829Z</time></trkpt><trkpt lat="38.1192467" lon="12.7338017"><ele>29.0</ele><time>2026-04-20T08:06:48.83Z</time></trkpt><trkpt lat="38.1189433" lon="12.7338367"><ele>30.5</ele><time>2026-04-20T08:06:49.83Z</time></trkpt><trkpt lat="38.118635" lon="12.7338767"><ele>32.0</ele><time>2026-04-20T08:06:50.83Z</time></trkpt><trkpt lat="38.11834" lon="12.7339133"><ele>33.5</ele><time>2026-04-20T08:06:51.83Z</time></trkpt><trkpt lat="38.1180617" lon="12.7339467"><ele>35.0</ele><time>2026-04-20T08:06:52.826Z</time></trkpt><trkpt lat="38.1177917" lon="12.73398"><ele>35.0</ele><time>2026-04-20T08:06:53.829Z</time></trkpt><trkpt lat="38.1175333" lon="12.73401"><ele>35.0</ele><time>2026-04-20T08:06:54.832Z</time></trkpt><trkpt lat="38.117285" lon="12.7340383"><ele>35.5</ele><time>2026-04-20T08:06:55.83Z</time></trkpt><trkpt lat="38.117045" lon="12.7340667"><ele>36.0</ele><time>2026-04-20T08:06:56.831Z</time></trkpt><trkpt lat="38.1168083" lon="12.7340967"><ele>36.0</ele><time>2026-04-20T08:06:57.83Z</time></trkpt><trkpt lat="38.1165783" lon="12.734125"><ele>36.0</ele><time>2026-04-20T08:06:58.828Z</time></trkpt><trkpt lat="38.1163617" lon="12.7341517"><ele>36.0</ele><time>2026-04-20T08:06:59.831Z</time></trkpt><trkpt lat="38.11616" lon="12.734175"><ele>36.0</ele><time>2026-04-20T08:07:00.83Z</time></trkpt><trkpt lat="38.1159733" lon="12.7341983"><ele>36.0</ele><time>2026-04-20T08:07:01.83Z</time></trkpt><trkpt lat="38.1157967" lon="12.7342233"><ele>36.0</ele><time>2026-04-20T08:07:02.83Z</time></trkpt><trkpt lat="38.1156283" lon="12.73425"><ele>36.666666666666664</ele><time>2026-04-20T08:07:03.83Z</time></trkpt><trkpt lat="38.11546" lon="12.7342717"><ele>37.33333333333333</ele><time>2026-04-20T08:07:04.83Z</time></trkpt><trkpt lat="38.1152917" lon="12.7342933"><ele>38.0</ele><time>2026-04-20T08:07:05.831Z</time></trkpt><trkpt lat="38.1151183" lon="12.7343117"><ele>38.0</ele><time>2026-04-20T08:07:06.828Z</time></trkpt><trkpt lat="38.114945" lon="12.7343317"><ele>38.0</ele><time>2026-04-20T08:07:07.828Z</time></trkpt><trkpt lat="38.1147583" lon="12.7343617"><ele>38.0</ele><time>2026-04-20T08:07:08.83Z</time></trkpt><trkpt lat="38.1145517" lon="12.7343967"><ele>39.0</ele><time>2026-04-20T08:07:09.828Z</time></trkpt><trkpt lat="38.1143267" lon="12.7344233"><ele>40.0</ele><time>2026-04-20T08:07:10.829Z</time></trkpt><trkpt lat="38.1140833" lon="12.7344417"><ele>41.0</ele><time>2026-04-20T08:07:11.83Z</time></trkpt><trkpt lat="38.1138433" lon="12.734465"><ele>42.0</ele><time>2026-04-20T08:07:12.831Z</time></trkpt><trkpt lat="38.11361" lon="12.7344867"><ele>42.0</ele><time>2026-04-20T08:07:13.828Z</time></trkpt><trkpt lat="38.1133967" lon="12.7345083"><ele>42.0</ele><time>2026-04-20T08:07:14.831Z</time></trkpt><trkpt lat="38.1132017" lon="12.73453"><ele>42.0</ele><time>2026-04-20T08:07:15.827Z</time></trkpt><trkpt lat="38.11302" lon="12.73455"><ele>42.666666666666664</ele><time>2026-04-20T08:07:16.83Z</time></trkpt><trkpt lat="38.11285" lon="12.7345717"><ele>43.33333333333333</ele><time>2026-04-20T08:07:17.83Z</time></trkpt><trkpt lat="38.11269" lon="12.73459"><ele>44.0</ele><time>2026-04-20T08:07:18.831Z</time></trkpt><trkpt lat="38.112535" lon="12.7346083"><ele>44.0</ele><time>2026-04-20T08:07:19.831Z</time></trkpt><trkpt lat="38.1123867" lon="12.7346283"><ele>44.0</ele><time>2026-04-20T08:07:20.833Z</time></trkpt><trkpt lat="38.1122467" lon="12.73465"><ele>44.0</ele><time>2026-04-20T08:07:21.832Z</time></trkpt><trkpt lat="38.1121167" lon="12.73467"><ele>44.0</ele><time>2026-04-20T08:07:22.828Z</time></trkpt><trkpt lat="38.111995" lon="12.7346883"><ele>44.0</ele><time>2026-04-20T08:07:23.832Z</time></trkpt><trkpt lat="38.111885" lon="12.7347067"><ele>44.0</ele><time>2026-04-20T08:07:24.828Z</time></trkpt><trkpt lat="38.1117933" lon="12.7347167"><ele>44.0</ele><time>2026-04-20T08:07:25.827Z</time></trkpt><trkpt lat="38.11171" lon="12.7347283"><ele>44.0</ele><time>2026-04-20T08:07:26.832Z</time></trkpt><trkpt lat="38.1116167" lon="12.7347417"><ele>44.0</ele><time>2026-04-20T08:07:27.832Z</time></trkpt><trkpt lat="38.1114983" lon="12.7347633"><ele>44.33333333333333</ele><time>2026-04-20T08:07:28.83Z</time></trkpt><trkpt lat="38.11135" lon="12.7347917"><ele>44.666666666666664</ele><time>2026-04-20T08:07:29.83Z</time></trkpt><trkpt lat="38.1111717" lon="12.734815"><ele>45.0</ele><time>2026-04-20T08:07:30.83Z</time></trkpt><trkpt lat="38.1109667" lon="12.73483"><ele>46.0</ele><time>2026-04-20T08:07:31.829Z</time></trkpt><trkpt lat="38.1107383" lon="12.734845"><ele>47.0</ele><time>2026-04-20T08:07:32.831Z</time></trkpt><trkpt lat="38.1105117" lon="12.7348667"><ele>47.0</ele><time>2026-04-20T08:07:33.83Z</time></trkpt><trkpt lat="38.1103" lon="12.7348917"><ele>47.0</ele><time>2026-04-20T08:07:34.832Z</time></trkpt><trkpt lat="38.110105" lon="12.7349183"><ele>47.0</ele><time>2026-04-20T08:07:35.832Z</time></trkpt><trkpt lat="38.109925" lon="12.7349417"><ele>47.0</ele><time>2026-04-20T08:07:36.833Z</time></trkpt><trkpt lat="38.1097583" lon="12.7349617"><ele>47.0</ele><time>2026-04-20T08:07:37.833Z</time></trkpt><trkpt lat="38.1096" lon="12.7349817"><ele>47.0</ele><time>2026-04-20T08:07:38.837Z</time></trkpt><trkpt lat="38.1094467" lon="12.735"><ele>47.0</ele><time>2026-04-20T08:07:39.837Z</time></trkpt><trkpt lat="38.1093017" lon="12.7350167"><ele>47.0</ele><time>2026-04-20T08:07:40.834Z</time></trkpt><trkpt lat="38.1091667" lon="12.7350317"><ele>47.0</ele><time>2026-04-20T08:07:41.836Z</time></trkpt><trkpt lat="38.1090417" lon="12.7350483"><ele>47.0</ele><time>2026-04-20T08:07:42.83Z</time></trkpt><trkpt lat="38.1089233" lon="12.735065"><ele>47.25</ele><time>2026-04-20T08:07:43.831Z</time></trkpt><trkpt lat="38.10881" lon="12.73508"><ele>47.5</ele><time>2026-04-20T08:07:44.827Z</time></trkpt><trkpt lat="38.1086883" lon="12.735095"><ele>47.75</ele><time>2026-04-20T08:07:45.83Z</time></trkpt><trkpt lat="38.1085467" lon="12.73511"><ele>48.0</ele><time>2026-04-20T08:07:46.832Z</time></trkpt><trkpt lat="38.10839" lon="12.7351267"><ele>48.33333333333333</ele><time>2026-04-20T08:07:47.83Z</time></trkpt><trkpt lat="38.108225" lon="12.7351417"><ele>48.666666666666664</ele><time>2026-04-20T08:07:48.832Z</time></trkpt><trkpt lat="38.10807" lon="12.7351517"><ele>49.0</ele><time>2026-04-20T08:07:49.829Z</time></trkpt><trkpt lat="38.107935" lon="12.7351583"><ele>49.0</ele><time>2026-04-20T08:07:50.831Z</time></trkpt><trkpt lat="38.1078183" lon="12.7351583"><ele>49.0</ele><time>2026-04-20T08:07:51.833Z</time></trkpt><trkpt lat="38.1077117" lon="12.7351567"><ele>49.0</ele><time>2026-04-20T08:07:52.829Z</time></trkpt><trkpt lat="38.1076133" lon="12.73515"><ele>49.0</ele><time>2026-04-20T08:07:53.831Z</time></trkpt><trkpt lat="38.1075217" lon="12.73514"><ele>49.0</ele><time>2026-04-20T08:07:54.833Z</time></trkpt><trkpt lat="38.1074333" lon="12.7351283"><ele>49.666666666666664</ele><time>2026-04-20T08:07:55.83Z</time></trkpt><trkpt lat="38.1073467" lon="12.7351167"><ele>50.33333333333333</ele><time>2026-04-20T08:07:56.831Z</time></trkpt><trkpt lat="38.1072667" lon="12.735105"><ele>51.0</ele><time>2026-04-20T08:07:57.83Z</time></trkpt><trkpt lat="38.1071933" lon="12.7350933"><ele>51.66666666666667</ele><time>2026-04-20T08:07:58.827Z</time></trkpt><trkpt lat="38.107125" lon="12.7350817"><ele>52.333333333333336</ele><time>2026-04-20T08:07:59.83Z</time></trkpt><trkpt lat="38.1070117" lon="12.7350633"><ele>53.0</ele><time>2026-04-20T08:08:01.832Z</time></trkpt><trkpt lat="38.1069133" lon="12.7350483"><ele>53.00000000000001</ele><time>2026-04-20T08:08:03.831Z</time></trkpt><trkpt lat="38.106805" lon="12.73504"><ele>53.0</ele><time>2026-04-20T08:08:05.83Z</time></trkpt><trkpt lat="38.10674" lon="12.7350333"><ele>53.0</ele><time>2026-04-20T08:08:06.831Z</time></trkpt><trkpt lat="38.1066733" lon="12.7350267"><ele>53.0</ele><time>2026-04-20T08:08:07.833Z</time></trkpt><trkpt lat="38.1066" lon="12.73502"><ele>53.00000000000001</ele><time>2026-04-20T08:08:08.829Z</time></trkpt><trkpt lat="38.106525" lon="12.735015"><ele>53.0</ele><time>2026-04-20T08:08:09.83Z</time></trkpt><trkpt lat="38.1064433" lon="12.7350083"><ele>53.2</ele><time>2026-04-20T08:08:10.83Z</time></trkpt><trkpt lat="38.1063583" lon="12.7349983"><ele>53.4</ele><time>2026-04-20T08:08:11.831Z</time></trkpt><trkpt lat="38.1062717" lon="12.73499"><ele>53.60000000000001</ele><time>2026-04-20T08:08:12.831Z</time></trkpt><trkpt lat="38.10618" lon="12.7349867"><ele>53.800000000000004</ele><time>2026-04-20T08:08:13.829Z</time></trkpt><trkpt lat="38.106085" lon="12.7349833"><ele>54.0</ele><time>2026-04-20T08:08:14.831Z</time></trkpt><trkpt lat="38.105985" lon="12.73499"><ele>54.0</ele><time>2026-04-20T08:08:15.829Z</time></trkpt><trkpt lat="38.1058717" lon="12.735005"><ele>54.0</ele><time>2026-04-20T08:08:16.833Z</time></trkpt><trkpt lat="38.105745" lon="12.7350217"><ele>54.0</ele><time>2026-04-20T08:08:17.832Z</time></trkpt><trkpt lat="38.1056083" lon="12.7350317"><ele>54.0</ele><time>2026-04-20T08:08:18.828Z</time></trkpt><trkpt lat="38.1054567" lon="12.7350433"><ele>54.33333333333333</ele><time>2026-04-20T08:08:19.833Z</time></trkpt><trkpt lat="38.1052867" lon="12.7350517"><ele>54.666666666666664</ele><time>2026-04-20T08:08:20.835Z</time></trkpt><trkpt lat="38.1051" lon="12.7350667"><ele>55.0</ele><time>2026-04-20T08:08:21.831Z</time></trkpt><trkpt lat="38.1049117" lon="12.7350833"><ele>55.666666666666664</ele><time>2026-04-20T08:08:22.833Z</time></trkpt><trkpt lat="38.1047267" lon="12.7351033"><ele>56.33333333333333</ele><time>2026-04-20T08:08:23.83Z</time></trkpt><trkpt lat="38.1045517" lon="12.7351217"><ele>57.0</ele><time>2026-04-20T08:08:24.829Z</time></trkpt><trkpt lat="38.1043883" lon="12.7351367"><ele>57.0</ele><time>2026-04-20T08:08:25.832Z</time></trkpt><trkpt lat="38.10423" lon="12.7351533"><ele>57.0</ele><time>2026-04-20T08:08:26.834Z</time></trkpt><trkpt lat="38.1040667" lon="12.735175"><ele>57.0</ele><time>2026-04-20T08:08:27.83Z</time></trkpt><trkpt lat="38.1038917" lon="12.7351967"><ele>58.66666666666667</ele><time>2026-04-20T08:08:28.835Z</time></trkpt><trkpt lat="38.1037017" lon="12.7352217"><ele>60.333333333333336</ele><time>2026-04-20T08:08:29.832Z</time></trkpt><trkpt lat="38.1034983" lon="12.735245"><ele>62.0</ele><time>2026-04-20T08:08:30.832Z</time></trkpt><trkpt lat="38.1032967" lon="12.73527"><ele>62.333333333333336</ele><time>2026-04-20T08:08:31.831Z</time></trkpt><trkpt lat="38.103105" lon="12.7352933"><ele>62.66666666666667</ele><time>2026-04-20T08:08:32.831Z</time></trkpt><trkpt lat="38.1029283" lon="12.735315"><ele>63.0</ele><time>2026-04-20T08:08:33.83Z</time></trkpt><trkpt lat="38.102765" lon="12.7353317"><ele>63.0</ele><time>2026-04-20T08:08:34.829Z</time></trkpt><trkpt lat="38.102615" lon="12.735345"><ele>63.0</ele><time>2026-04-20T08:08:35.829Z</time></trkpt><trkpt lat="38.10248" lon="12.73536"><ele>63.0</ele><time>2026-04-20T08:08:36.831Z</time></trkpt><trkpt lat="38.1023533" lon="12.735375"><ele>63.0</ele><time>2026-04-20T08:08:37.829Z</time></trkpt><trkpt lat="38.1022317" lon="12.7353917"><ele>63.599999999999994</ele><time>2026-04-20T08:08:38.83Z</time></trkpt><trkpt lat="38.10212" lon="12.7354083"><ele>64.19999999999999</ele><time>2026-04-20T08:08:39.83Z</time></trkpt><trkpt lat="38.1020183" lon="12.7354217"><ele>64.8</ele><time>2026-04-20T08:08:40.832Z</time></trkpt><trkpt lat="38.1019167" lon="12.7354333"><ele>65.39999999999999</ele><time>2026-04-20T08:08:41.834Z</time></trkpt><trkpt lat="38.1018183" lon="12.735445"><ele>66.0</ele><time>2026-04-20T08:08:42.834Z</time></trkpt><trkpt lat="38.1017317" lon="12.735465"><ele>66.0</ele><time>2026-04-20T08:08:43.83Z</time></trkpt><trkpt lat="38.1016583" lon="12.735485"><ele>66.0</ele><time>2026-04-20T08:08:44.834Z</time></trkpt><trkpt lat="38.101595" lon="12.7354983"><ele>66.0</ele><time>2026-04-20T08:08:45.833Z</time></trkpt><trkpt lat="38.101505" lon="12.7354867"><ele>66.0</ele><time>2026-04-20T08:08:47.826Z</time></trkpt><trkpt lat="38.101425" lon="12.7354667"><ele>66.0</ele><time>2026-04-20T08:08:49.827Z</time></trkpt><trkpt lat="38.10133" lon="12.735515"><ele>66.0</ele><time>2026-04-20T08:08:51.828Z</time></trkpt><trkpt lat="38.1012783" lon="12.7355833"><ele>67.0</ele><time>2026-04-20T08:08:52.833Z</time></trkpt><trkpt lat="38.1012167" lon="12.735675"><ele>68.0</ele><time>2026-04-20T08:08:53.83Z</time></trkpt><trkpt lat="38.1011383" lon="12.735785"><ele>69.0</ele><time>2026-04-20T08:08:54.83Z</time></trkpt><trkpt lat="38.101045" lon="12.7359"><ele>70.0</ele><time>2026-04-20T08:08:55.83Z</time></trkpt><trkpt lat="38.1009367" lon="12.73602"><ele>69.66666666666666</ele><time>2026-04-20T08:08:56.83Z</time></trkpt><trkpt lat="38.10082" lon="12.73615"><ele>69.33333333333333</ele><time>2026-04-20T08:08:57.833Z</time></trkpt><trkpt lat="38.1007033" lon="12.7362867"><ele>69.0</ele><time>2026-04-20T08:08:58.831Z</time></trkpt><trkpt lat="38.1005833" lon="12.7364283"><ele>70.33333333333333</ele><time>2026-04-20T08:08:59.832Z</time></trkpt><trkpt lat="38.1004583" lon="12.7365783"><ele>71.66666666666666</ele><time>2026-04-20T08:09:00.83Z</time></trkpt><trkpt lat="38.10033" lon="12.7367333"><ele>73.0</ele><time>2026-04-20T08:09:01.829Z</time></trkpt><trkpt lat="38.1001967" lon="12.73689"><ele>73.0</ele><time>2026-04-20T08:09:02.831Z</time></trkpt><trkpt lat="38.10006" lon="12.7370583"><ele>73.0</ele><time>2026-04-20T08:09:03.83Z</time></trkpt><trkpt lat="38.099915" lon="12.73723"><ele>73.0</ele><time>2026-04-20T08:09:04.831Z</time></trkpt><trkpt lat="38.0997667" lon="12.7374083"><ele>75.0</ele><time>2026-04-20T08:09:05.831Z</time></trkpt><trkpt lat="38.0994583" lon="12.7377783"><ele>77.0</ele><time>2026-04-20T08:09:07.83Z</time></trkpt><trkpt lat="38.099295" lon="12.7379733"><ele>77.0</ele><time>2026-04-20T08:09:08.83Z</time></trkpt><trkpt lat="38.09913" lon="12.7381667"><ele>77.0</ele><time>2026-04-20T08:09:09.833Z</time></trkpt><trkpt lat="38.0989683" lon="12.7383617"><ele>77.0</ele><time>2026-04-20T08:09:10.83Z</time></trkpt><trkpt lat="38.0988067" lon="12.7385567"><ele>78.33333333333334</ele><time>2026-04-20T08:09:11.83Z</time></trkpt><trkpt lat="38.098655" lon="12.7387433"><ele>79.66666666666667</ele><time>2026-04-20T08:09:12.83Z</time></trkpt><trkpt lat="38.0985167" lon="12.7389183"><ele>81.0</ele><time>2026-04-20T08:09:13.83Z</time></trkpt><trkpt lat="38.0983883" lon="12.739075"><ele>81.0</ele><time>2026-04-20T08:09:14.828Z</time></trkpt><trkpt lat="38.0982667" lon="12.73923"><ele>81.0</ele><time>2026-04-20T08:09:15.832Z</time></trkpt><trkpt lat="38.09814" lon="12.739385"><ele>81.0</ele><time>2026-04-20T08:09:16.829Z</time></trkpt><trkpt lat="38.0980017" lon="12.7395467"><ele>82.66666666666667</ele><time>2026-04-20T08:09:17.829Z</time></trkpt><trkpt lat="38.0978533" lon="12.7397167"><ele>84.33333333333334</ele><time>2026-04-20T08:09:18.828Z</time></trkpt><trkpt lat="38.0977083" lon="12.73989"><ele>86.0</ele><time>2026-04-20T08:09:19.831Z</time></trkpt><trkpt lat="38.0975617" lon="12.7400667"><ele>88.0</ele><time>2026-04-20T08:09:20.832Z</time></trkpt><trkpt lat="38.0974167" lon="12.7402483"><ele>90.0</ele><time>2026-04-20T08:09:21.831Z</time></trkpt><trkpt lat="38.09727" lon="12.74043"><ele>92.0</ele><time>2026-04-20T08:09:22.83Z</time></trkpt><trkpt lat="38.0971233" lon="12.7406133"><ele>92.0</ele><time>2026-04-20T08:09:23.827Z</time></trkpt><trkpt lat="38.096975" lon="12.7407983"><ele>92.0</ele><time>2026-04-20T08:09:24.828Z</time></trkpt><trkpt lat="38.0968317" lon="12.74098"><ele>92.0</ele><time>2026-04-20T08:09:25.829Z</time></trkpt><trkpt lat="38.09669" lon="12.7411583"><ele>93.33333333333334</ele><time>2026-04-20T08:09:26.831Z</time></trkpt><trkpt lat="38.09656" lon="12.7413167"><ele>94.66666666666667</ele><time>2026-04-20T08:09:27.827Z</time></trkpt><trkpt lat="38.09644" lon="12.74146"><ele>96.0</ele><time>2026-04-20T08:09:28.829Z</time></trkpt><trkpt lat="38.0963317" lon="12.7415917"><ele>96.0</ele><time>2026-04-20T08:09:29.828Z</time></trkpt><trkpt lat="38.0962333" lon="12.7417133"><ele>96.0</ele><time>2026-04-20T08:09:30.833Z</time></trkpt><trkpt lat="38.0961383" lon="12.7418267"><ele>96.0</ele><time>2026-04-20T08:09:31.831Z</time></trkpt><trkpt lat="38.0960383" lon="12.7419433"><ele>96.0</ele><time>2026-04-20T08:09:32.828Z</time></trkpt><trkpt lat="38.0959283" lon="12.742065"><ele>96.66666666666666</ele><time>2026-04-20T08:09:33.829Z</time></trkpt><trkpt lat="38.0958067" lon="12.7421983"><ele>97.33333333333333</ele><time>2026-04-20T08:09:34.828Z</time></trkpt><trkpt lat="38.095675" lon="12.7423517"><ele>98.0</ele><time>2026-04-20T08:09:35.829Z</time></trkpt><trkpt lat="38.0955333" lon="12.74252"><ele>98.66666666666666</ele><time>2026-04-20T08:09:36.831Z</time></trkpt><trkpt lat="38.095385" lon="12.7427"><ele>99.33333333333334</ele><time>2026-04-20T08:09:37.831Z</time></trkpt><trkpt lat="38.0952283" lon="12.7428867"><ele>100.0</ele><time>2026-04-20T08:09:38.83Z</time></trkpt><trkpt lat="38.09507" lon="12.743075"><ele>101.66666666666667</ele><time>2026-04-20T08:09:39.83Z</time></trkpt><trkpt lat="38.0949083" lon="12.7432683"><ele>103.33333333333334</ele><time>2026-04-20T08:09:40.83Z</time></trkpt><trkpt lat="38.0947433" lon="12.743465"><ele>105.0</ele><time>2026-04-20T08:09:41.83Z</time></trkpt><trkpt lat="38.0945767" lon="12.74366"><ele>105.33333333333334</ele><time>2026-04-20T08:09:42.828Z</time></trkpt><trkpt lat="38.0944133" lon="12.7438533"><ele>105.66666666666667</ele><time>2026-04-20T08:09:43.83Z</time></trkpt><trkpt lat="38.09425" lon="12.7440467"><ele>106.0</ele><time>2026-04-20T08:09:44.831Z</time></trkpt><trkpt lat="38.09409" lon="12.7442383"><ele>108.0</ele><time>2026-04-20T08:09:45.833Z</time></trkpt><trkpt lat="38.0939283" lon="12.7444283"><ele>110.0</ele><time>2026-04-20T08:09:46.83Z</time></trkpt><trkpt lat="38.0937633" lon="12.7446167"><ele>112.0</ele><time>2026-04-20T08:09:47.83Z</time></trkpt><trkpt lat="38.0935967" lon="12.7448067"><ele>112.0</ele><time>2026-04-20T08:09:48.831Z</time></trkpt><trkpt lat="38.0934317" lon="12.745"><ele>112.0</ele><time>2026-04-20T08:09:49.83Z</time></trkpt><trkpt lat="38.093265" lon="12.7451917"><ele>112.0</ele><time>2026-04-20T08:09:50.835Z</time></trkpt><trkpt lat="38.0930983" lon="12.7453883"><ele>113.66666666666667</ele><time>2026-04-20T08:09:51.83Z</time></trkpt><trkpt lat="38.0929367" lon="12.7455867"><ele>115.33333333333334</ele><time>2026-04-20T08:09:52.831Z</time></trkpt><trkpt lat="38.0927917" lon="12.7457833"><ele>117.0</ele><time>2026-04-20T08:09:53.833Z</time></trkpt><trkpt lat="38.0926683" lon="12.7459717"><ele>118.33333333333334</ele><time>2026-04-20T08:09:54.831Z</time></trkpt><trkpt lat="38.0925633" lon="12.746155"><ele>119.66666666666667</ele><time>2026-04-20T08:09:55.832Z</time></trkpt><trkpt lat="38.0924683" lon="12.7463417"><ele>121.0</ele><time>2026-04-20T08:09:56.832Z</time></trkpt><trkpt lat="38.0923833" lon="12.74652"><ele>121.0</ele><time>2026-04-20T08:09:57.834Z</time></trkpt><trkpt lat="38.0923083" lon="12.74668"><ele>121.0</ele><time>2026-04-20T08:09:58.83Z</time></trkpt><trkpt lat="38.09224" lon="12.7468233"><ele>121.0</ele><time>2026-04-20T08:09:59.832Z</time></trkpt><trkpt lat="38.0921817" lon="12.7469433"><ele>121.0</ele><time>2026-04-20T08:10:00.832Z</time></trkpt><trkpt lat="38.0921317" lon="12.7470533"><ele>121.83333333333334</ele><time>2026-04-20T08:10:01.832Z</time></trkpt><trkpt lat="38.0920883" lon="12.7471483"><ele>122.66666666666667</ele><time>2026-04-20T08:10:02.833Z</time></trkpt><trkpt lat="38.0920483" lon="12.7472317"><ele>123.5</ele><time>2026-04-20T08:10:03.834Z</time></trkpt><trkpt lat="38.0920133" lon="12.747305"><ele>124.33333333333334</ele><time>2026-04-20T08:10:04.835Z</time></trkpt><trkpt lat="38.091955" lon="12.7474333"><ele>125.16666666666667</ele><time>2026-04-20T08:10:06.827Z</time></trkpt><trkpt lat="38.0919083" lon="12.7475317"><ele>126.0</ele><time>2026-04-20T08:10:08.834Z</time></trkpt><trkpt lat="38.09187" lon="12.7476383"><ele>127.8</ele><time>2026-04-20T08:10:53.834Z</time></trkpt><trkpt lat="38.0917983" lon="12.7477817"><ele>129.6</ele><time>2026-04-20T08:10:55.832Z</time></trkpt><trkpt lat="38.0917633" lon="12.74785"><ele>131.4</ele><time>2026-04-20T08:10:56.827Z</time></trkpt><trkpt lat="38.0917233" lon="12.7479283"><ele>133.2</ele><time>2026-04-20T08:10:58.831Z</time></trkpt><trkpt lat="38.0916717" lon="12.7479867"><ele>135.0</ele><time>2026-04-20T08:11:13.833Z</time></trkpt><trkpt lat="38.0916167" lon="12.7481083"><ele>134.6</ele><time>2026-04-20T08:11:15.835Z</time></trkpt><trkpt lat="38.09157" lon="12.7482"><ele>134.2</ele><time>2026-04-20T08:11:16.832Z</time></trkpt><trkpt lat="38.091515" lon="12.7483083"><ele>133.8</ele><time>2026-04-20T08:11:17.837Z</time></trkpt><trkpt lat="38.0914533" lon="12.7484317"><ele>133.4</ele><time>2026-04-20T08:11:18.833Z</time></trkpt><trkpt lat="38.0913983" lon="12.7485567"><ele>133.0</ele><time>2026-04-20T08:11:19.833Z</time></trkpt><trkpt lat="38.0913417" lon="12.7486967"><ele>133.0</ele><time>2026-04-20T08:11:20.833Z</time></trkpt><trkpt lat="38.0912833" lon="12.748855"><ele>133.0</ele><time>2026-04-20T08:11:21.832Z</time></trkpt><trkpt lat="38.091225" lon="12.749035"><ele>133.0</ele><time>2026-04-20T08:11:22.83Z</time></trkpt><trkpt lat="38.09116" lon="12.74924"><ele>135.66666666666669</ele><time>2026-04-20T08:11:23.837Z</time></trkpt><trkpt lat="38.091085" lon="12.749475"><ele>138.33333333333334</ele><time>2026-04-20T08:11:24.833Z</time></trkpt><trkpt lat="38.0910083" lon="12.749715"><ele>141.0</ele><time>2026-04-20T08:11:25.834Z</time></trkpt><trkpt lat="38.0909233" lon="12.7499667"><ele>141.0</ele><time>2026-04-20T08:11:26.831Z</time></trkpt><trkpt lat="38.0908333" lon="12.7502183"><ele>141.0</ele><time>2026-04-20T08:11:27.833Z</time></trkpt><trkpt lat="38.0907383" lon="12.7504617"><ele>141.0</ele><time>2026-04-20T08:11:28.832Z</time></trkpt><trkpt lat="38.0906283" lon="12.7506933"><ele>141.0</ele><time>2026-04-20T08:11:29.836Z</time></trkpt><trkpt lat="38.090505" lon="12.7509133"><ele>141.0</ele><time>2026-04-20T08:11:30.832Z</time></trkpt><trkpt lat="38.090365" lon="12.7511283"><ele>141.0</ele><time>2026-04-20T08:11:31.831Z</time></trkpt><trkpt lat="38.090205" lon="12.7513333"><ele>145.0</ele><time>2026-04-20T08:11:32.835Z</time></trkpt><trkpt lat="38.09003" lon="12.7515267"><ele>149.0</ele><time>2026-04-20T08:11:33.831Z</time></trkpt><trkpt lat="38.0898417" lon="12.75172"><ele>159.5</ele><time>2026-04-20T08:11:34.83Z</time></trkpt><trkpt lat="38.0896417" lon="12.7519183"><ele>170.0</ele><time>2026-04-20T08:11:35.834Z</time></trkpt><trkpt lat="38.0894383" lon="12.7521183"><ele>170.0</ele><time>2026-04-20T08:11:36.832Z</time></trkpt><trkpt lat="38.0892267" lon="12.752325"><ele>170.0</ele><time>2026-04-20T08:11:37.831Z</time></trkpt><trkpt lat="38.0890083" lon="12.752535"><ele>174.5</ele><time>2026-04-20T08:11:38.832Z</time></trkpt><trkpt lat="38.08879" lon="12.7527417"><ele>179.0</ele><time>2026-04-20T08:11:39.833Z</time></trkpt><trkpt lat="38.0885733" lon="12.75294"><ele>179.0</ele><time>2026-04-20T08:11:40.832Z</time></trkpt><trkpt lat="38.088355" lon="12.7531333"><ele>179.0</ele><time>2026-04-20T08:11:41.833Z</time></trkpt><trkpt lat="38.088135" lon="12.7533183"><ele>182.5</ele><time>2026-04-20T08:11:42.832Z</time></trkpt><trkpt lat="38.08791" lon="12.7534933"><ele>186.0</ele><time>2026-04-20T08:11:43.832Z</time></trkpt><trkpt lat="38.0876833" lon="12.7536567"><ele>186.0</ele><time>2026-04-20T08:11:44.833Z</time></trkpt><trkpt lat="38.0874517" lon="12.7538117"><ele>186.0</ele><time>2026-04-20T08:11:45.831Z</time></trkpt><trkpt lat="38.0872217" lon="12.753955"><ele>181.0</ele><time>2026-04-20T08:11:46.831Z</time></trkpt><trkpt lat="38.086995" lon="12.7540883"><ele>176.0</ele><time>2026-04-20T08:11:47.834Z</time></trkpt><trkpt lat="38.0867667" lon="12.754205"><ele>172.0</ele><time>2026-04-20T08:11:48.833Z</time></trkpt><trkpt lat="38.0865383" lon="12.75431"><ele>168.0</ele><time>2026-04-20T08:11:49.833Z</time></trkpt><trkpt lat="38.0863067" lon="12.754405"><ele>176.0</ele><time>2026-04-20T08:11:50.835Z</time></trkpt><trkpt lat="38.0860733" lon="12.7544933"><ele>184.0</ele><time>2026-04-20T08:11:51.83Z</time></trkpt><trkpt lat="38.0858367" lon="12.7545767"><ele>181.5</ele><time>2026-04-20T08:11:52.835Z</time></trkpt><trkpt lat="38.0856017" lon="12.7546567"><ele>179.0</ele><time>2026-04-20T08:11:53.833Z</time></trkpt><trkpt lat="38.085365" lon="12.7547383"><ele>179.0</ele><time>2026-04-20T08:11:54.833Z</time></trkpt><trkpt lat="38.08513" lon="12.7548233"><ele>179.0</ele><time>2026-04-20T08:11:55.835Z</time></trkpt><trkpt lat="38.08491" lon="12.7549033"><ele>178.33333333333331</ele><time>2026-04-20T08:11:56.831Z</time></trkpt><trkpt lat="38.0847017" lon="12.7549767"><ele>177.66666666666666</ele><time>2026-04-20T08:11:57.836Z</time></trkpt><trkpt lat="38.084505" lon="12.7550467"><ele>177.0</ele><time>2026-04-20T08:11:58.834Z</time></trkpt><trkpt lat="38.0843117" lon="12.75511"><ele>177.0</ele><time>2026-04-20T08:11:59.835Z</time></trkpt><trkpt lat="38.08412" lon="12.7551567"><ele>177.0</ele><time>2026-04-20T08:12:00.838Z</time></trkpt><trkpt lat="38.083935" lon="12.7551817"><ele>177.0</ele><time>2026-04-20T08:12:01.834Z</time></trkpt><trkpt lat="38.0837583" lon="12.7551833"><ele>177.66666666666666</ele><time>2026-04-20T08:12:02.834Z</time></trkpt><trkpt lat="38.0835767" lon="12.7551883"><ele>178.33333333333331</ele><time>2026-04-20T08:12:03.834Z</time></trkpt><trkpt lat="38.0833917" lon="12.755205"><ele>179.0</ele><time>2026-04-20T08:12:04.833Z</time></trkpt><trkpt lat="38.0832033" lon="12.7552433"><ele>183.33333333333331</ele><time>2026-04-20T08:12:05.834Z</time></trkpt><trkpt lat="38.0830067" lon="12.755305"><ele>187.66666666666666</ele><time>2026-04-20T08:12:06.833Z</time></trkpt><trkpt lat="38.082805" lon="12.7553817"><ele>192.0</ele><time>2026-04-20T08:12:07.835Z</time></trkpt><trkpt lat="38.082605" lon="12.755465"><ele>191.0</ele><time>2026-04-20T08:12:08.834Z</time></trkpt><trkpt lat="38.0824167" lon="12.755545"><ele>190.0</ele><time>2026-04-20T08:12:09.835Z</time></trkpt><trkpt lat="38.0822417" lon="12.7556167"><ele>189.0</ele><time>2026-04-20T08:12:10.83Z</time></trkpt><trkpt lat="38.0820867" lon="12.7556817"><ele>189.0</ele><time>2026-04-20T08:12:11.831Z</time></trkpt><trkpt lat="38.08195" lon="12.7557367"><ele>189.0</ele><time>2026-04-20T08:12:12.83Z</time></trkpt><trkpt lat="38.0818383" lon="12.75578"><ele>189.0</ele><time>2026-04-20T08:12:13.831Z</time></trkpt><trkpt lat="38.0817417" lon="12.7557967"><ele>189.0</ele><time>2026-04-20T08:12:14.833Z</time></trkpt><trkpt lat="38.081655" lon="12.7557717"><ele>189.0</ele><time>2026-04-20T08:12:15.83Z</time></trkpt><trkpt lat="38.0815783" lon="12.7557117"><ele>189.25</ele><time>2026-04-20T08:12:16.829Z</time></trkpt><trkpt lat="38.0815233" lon="12.755585"><ele>189.5</ele><time>2026-04-20T08:12:17.831Z</time></trkpt><trkpt lat="38.0814767" lon="12.7554233"><ele>189.75</ele><time>2026-04-20T08:12:18.834Z</time></trkpt><trkpt lat="38.0814317" lon="12.7552433"><ele>190.0</ele><time>2026-04-20T08:12:19.831Z</time></trkpt><trkpt lat="38.0813867" lon="12.755085"><ele>188.75</ele><time>2026-04-20T08:12:20.831Z</time></trkpt><trkpt lat="38.08135" lon="12.75495"><ele>187.5</ele><time>2026-04-20T08:12:21.835Z</time></trkpt><trkpt lat="38.0813533" lon="12.7547017"><ele>186.25</ele><time>2026-04-20T08:12:23.828Z</time></trkpt><trkpt lat="38.0814" lon="12.7545717"><ele>185.0</ele><time>2026-04-20T08:12:24.832Z</time></trkpt><trkpt lat="38.081485" lon="12.7544483"><ele>187.33333333333331</ele><time>2026-04-20T08:12:25.832Z</time></trkpt><trkpt lat="38.081635" lon="12.754305"><ele>189.66666666666666</ele><time>2026-04-20T08:12:26.833Z</time></trkpt><trkpt lat="38.0818217" lon="12.7541417"><ele>192.0</ele><time>2026-04-20T08:12:27.832Z</time></trkpt><trkpt lat="38.0820383" lon="12.7539617"><ele>192.0</ele><time>2026-04-20T08:12:28.831Z</time></trkpt><trkpt lat="38.0822483" lon="12.7537733"><ele>192.0</ele><time>2026-04-20T08:12:29.835Z</time></trkpt><trkpt lat="38.0824333" lon="12.753605"><ele>194.0</ele><time>2026-04-20T08:12:30.83Z</time></trkpt><trkpt lat="38.082585" lon="12.7534817"><ele>196.0</ele><time>2026-04-20T08:12:31.828Z</time></trkpt><trkpt lat="38.0827083" lon="12.7533967"><ele>198.0</ele><time>2026-04-20T08:12:32.839Z</time></trkpt><trkpt lat="38.0827933" lon="12.7533367"><ele>200.0</ele><time>2026-04-20T08:12:33.827Z</time></trkpt><trkpt lat="38.0828517" lon="12.753275"><ele>200.0</ele><time>2026-04-20T08:12:34.831Z</time></trkpt><trkpt lat="38.0828317" lon="12.75317"><ele>200.0</ele><time>2026-04-20T08:12:36.834Z</time></trkpt><trkpt lat="38.0826567" lon="12.7531833"><ele>200.0</ele><time>2026-04-20T08:12:38.834Z</time></trkpt><trkpt lat="38.082505" lon="12.7532567"><ele>200.0</ele><time>2026-04-20T08:12:39.833Z</time></trkpt><trkpt lat="38.082315" lon="12.7533483"><ele>196.0</ele><time>2026-04-20T08:12:40.833Z</time></trkpt><trkpt lat="38.08208" lon="12.75345"><ele>192.0</ele><time>2026-04-20T08:12:41.83Z</time></trkpt><trkpt lat="38.081805" lon="12.7535567"><ele>198.0</ele><time>2026-04-20T08:12:42.834Z</time></trkpt><trkpt lat="38.081505" lon="12.7536733"><ele>204.0</ele><time>2026-04-20T08:12:43.833Z</time></trkpt><trkpt lat="38.0811917" lon="12.753795"><ele>204.0</ele><time>2026-04-20T08:12:44.833Z</time></trkpt><trkpt lat="38.08089" lon="12.7539133"><ele>204.0</ele><time>2026-04-20T08:12:45.833Z</time></trkpt><trkpt lat="38.0806117" lon="12.7540233"><ele>210.0</ele><time>2026-04-20T08:12:46.831Z</time></trkpt><trkpt lat="38.0803583" lon="12.754125"><ele>216.0</ele><time>2026-04-20T08:12:47.831Z</time></trkpt><trkpt lat="38.0801267" lon="12.7542217"><ele>218.0</ele><time>2026-04-20T08:12:48.83Z</time></trkpt><trkpt lat="38.079915" lon="12.7543067"><ele>220.0</ele><time>2026-04-20T08:12:49.832Z</time></trkpt><trkpt lat="38.07972" lon="12.7543833"><ele>222.0</ele><time>2026-04-20T08:12:50.83Z</time></trkpt><trkpt lat="38.0795367" lon="12.7544483"><ele>217.33333333333331</ele><time>2026-04-20T08:12:51.832Z</time></trkpt><trkpt lat="38.0793583" lon="12.75449"><ele>212.66666666666666</ele><time>2026-04-20T08:12:52.833Z</time></trkpt><trkpt lat="38.079185" lon="12.7544917"><ele>208.0</ele><time>2026-04-20T08:12:53.832Z</time></trkpt><trkpt lat="38.0790117" lon="12.7544517"><ele>208.0</ele><time>2026-04-20T08:12:54.834Z</time></trkpt><trkpt lat="38.0788317" lon="12.7543783"><ele>208.0</ele><time>2026-04-20T08:12:55.83Z</time></trkpt><trkpt lat="38.07864" lon="12.7542817"><ele>208.0</ele><time>2026-04-20T08:12:56.831Z</time></trkpt><trkpt lat="38.078435" lon="12.7541633"><ele>215.0</ele><time>2026-04-20T08:12:57.834Z</time></trkpt><trkpt lat="38.0782133" lon="12.7540383"><ele>222.0</ele><time>2026-04-20T08:12:58.834Z</time></trkpt><trkpt lat="38.0779767" lon="12.7539117"><ele>222.0</ele><time>2026-04-20T08:12:59.834Z</time></trkpt><trkpt lat="38.0777317" lon="12.7537867"><ele>222.0</ele><time>2026-04-20T08:13:00.833Z</time></trkpt><trkpt lat="38.0774883" lon="12.7536583"><ele>229.0</ele><time>2026-04-20T08:13:01.834Z</time></trkpt><trkpt lat="38.0772567" lon="12.7535317"><ele>236.0</ele><time>2026-04-20T08:13:02.834Z</time></trkpt><trkpt lat="38.0770467" lon="12.7534067"><ele>236.0</ele><time>2026-04-20T08:13:03.833Z</time></trkpt><trkpt lat="38.0768517" lon="12.75327"><ele>236.0</ele><time>2026-04-20T08:13:04.833Z</time></trkpt><trkpt lat="38.0766617" lon="12.75312"><ele>236.0</ele><time>2026-04-20T08:13:05.829Z</time></trkpt><trkpt lat="38.0764733" lon="12.75296"><ele>236.66666666666669</ele><time>2026-04-20T08:13:06.83Z</time></trkpt><trkpt lat="38.0762933" lon="12.7527967"><ele>237.33333333333331</ele><time>2026-04-20T08:13:07.833Z</time></trkpt><trkpt lat="38.076125" lon="12.7526383"><ele>238.0</ele><time>2026-04-20T08:13:08.835Z</time></trkpt><trkpt lat="38.0759733" lon="12.7524833"><ele>240.66666666666666</ele><time>2026-04-20T08:13:09.832Z</time></trkpt><trkpt lat="38.07584" lon="12.752325"><ele>243.33333333333331</ele><time>2026-04-20T08:13:10.829Z</time></trkpt><trkpt lat="38.0757283" lon="12.75215"><ele>246.0</ele><time>2026-04-20T08:13:11.83Z</time></trkpt><trkpt lat="38.07563" lon="12.75195"><ele>248.33333333333331</ele><time>2026-04-20T08:13:12.83Z</time></trkpt><trkpt lat="38.075545" lon="12.7517367"><ele>250.66666666666666</ele><time>2026-04-20T08:13:13.832Z</time></trkpt><trkpt lat="38.07547" lon="12.7515167"><ele>253.0</ele><time>2026-04-20T08:13:14.832Z</time></trkpt><trkpt lat="38.0754017" lon="12.7513017"><ele>253.0</ele><time>2026-04-20T08:13:15.83Z</time></trkpt><trkpt lat="38.07534" lon="12.7510967"><ele>253.0</ele><time>2026-04-20T08:13:16.831Z</time></trkpt><trkpt lat="38.07529" lon="12.7509033"><ele>253.0</ele><time>2026-04-20T08:13:17.832Z</time></trkpt><trkpt lat="38.075245" lon="12.7507067"><ele>254.66666666666666</ele><time>2026-04-20T08:13:18.832Z</time></trkpt><trkpt lat="38.075205" lon="12.7505067"><ele>256.3333333333333</ele><time>2026-04-20T08:13:19.831Z</time></trkpt><trkpt lat="38.07517" lon="12.7503033"><ele>258.0</ele><time>2026-04-20T08:13:20.831Z</time></trkpt><trkpt lat="38.0751383" lon="12.7500967"><ele>260.6666666666667</ele><time>2026-04-20T08:13:21.832Z</time></trkpt><trkpt lat="38.0751083" lon="12.7499"><ele>263.33333333333337</ele><time>2026-04-20T08:13:22.83Z</time></trkpt><trkpt lat="38.0750817" lon="12.7497117"><ele>266.0</ele><time>2026-04-20T08:13:23.832Z</time></trkpt><trkpt lat="38.0750533" lon="12.7495233"><ele>268.0</ele><time>2026-04-20T08:13:24.833Z</time></trkpt><trkpt lat="38.0749967" lon="12.7491533"><ele>270.0</ele><time>2026-04-20T08:13:26.832Z</time></trkpt><trkpt lat="38.0749683" lon="12.7489667"><ele>272.0</ele><time>2026-04-20T08:13:27.828Z</time></trkpt><trkpt lat="38.0749417" lon="12.7487817"><ele>276.33333333333337</ele><time>2026-04-20T08:13:28.831Z</time></trkpt><trkpt lat="38.0749133" lon="12.748595"><ele>280.6666666666667</ele><time>2026-04-20T08:13:29.828Z</time></trkpt><trkpt lat="38.0748883" lon="12.7484083"><ele>285.0</ele><time>2026-04-20T08:13:30.828Z</time></trkpt><trkpt lat="38.0748617" lon="12.7482117"><ele>286.25</ele><time>2026-04-20T08:13:31.829Z</time></trkpt><trkpt lat="38.0748383" lon="12.7480433"><ele>287.5</ele><time>2026-04-20T08:13:32.83Z</time></trkpt><trkpt lat="38.0748183" lon="12.7478833"><ele>288.75</ele><time>2026-04-20T08:13:33.831Z</time></trkpt><trkpt lat="38.0747933" lon="12.7477167"><ele>290.0</ele><time>2026-04-20T08:13:34.832Z</time></trkpt><trkpt lat="38.0747717" lon="12.74756"><ele>290.75</ele><time>2026-04-20T08:13:35.829Z</time></trkpt><trkpt lat="38.0747517" lon="12.7474067"><ele>291.5</ele><time>2026-04-20T08:13:36.827Z</time></trkpt><trkpt lat="38.0747317" lon="12.7472583"><ele>292.25</ele><time>2026-04-20T08:13:37.829Z</time></trkpt><trkpt lat="38.0747133" lon="12.7471117"><ele>293.0</ele><time>2026-04-20T08:13:38.833Z</time></trkpt><trkpt lat="38.0746933" lon="12.7469683"><ele>292.6</ele><time>2026-04-20T08:13:39.827Z</time></trkpt><trkpt lat="38.0746783" lon="12.7468433"><ele>292.20000000000005</ele><time>2026-04-20T08:13:40.828Z</time></trkpt><trkpt lat="38.0746617" lon="12.7467467"><ele>291.8</ele><time>2026-04-20T08:13:41.829Z</time></trkpt><trkpt lat="38.07461" lon="12.7466367"><ele>291.40000000000003</ele><time>2026-04-20T08:13:43.829Z</time></trkpt><trkpt lat="38.0745217" lon="12.7466483"><ele>291.0</ele><time>2026-04-20T08:13:45.828Z</time></trkpt><trkpt lat="38.0744083" lon="12.7467533"><ele>291.0</ele><time>2026-04-20T08:13:47.829Z</time></trkpt><trkpt lat="38.0743617" lon="12.7468567"><ele>291.0</ele><time>2026-04-20T08:13:48.83Z</time></trkpt><trkpt lat="38.0743217" lon="12.7469783"><ele>291.0</ele><time>2026-04-20T08:13:49.828Z</time></trkpt><trkpt lat="38.07429" lon="12.7471067"><ele>291.0</ele><time>2026-04-20T08:13:50.835Z</time></trkpt><trkpt lat="38.07426" lon="12.747265"><ele>291.0</ele><time>2026-04-20T08:13:51.836Z</time></trkpt><trkpt lat="38.0742217" lon="12.747445"><ele>290.6666666666667</ele><time>2026-04-20T08:13:52.833Z</time></trkpt><trkpt lat="38.074175" lon="12.7476417"><ele>290.33333333333337</ele><time>2026-04-20T08:13:53.831Z</time></trkpt><trkpt lat="38.0741267" lon="12.74785"><ele>290.0</ele><time>2026-04-20T08:13:54.834Z</time></trkpt><trkpt lat="38.0740767" lon="12.7480583"><ele>303.33333333333337</ele><time>2026-04-20T08:13:55.828Z</time></trkpt><trkpt lat="38.07403" lon="12.7482683"><ele>316.6666666666667</ele><time>2026-04-20T08:13:56.834Z</time></trkpt><trkpt lat="38.0739833" lon="12.7484817"><ele>330.0</ele><time>2026-04-20T08:13:57.831Z</time></trkpt><trkpt lat="38.0739367" lon="12.7486983"><ele>330.0</ele><time>2026-04-20T08:13:58.83Z</time></trkpt><trkpt lat="38.07389" lon="12.7489133"><ele>330.0</ele><time>2026-04-20T08:13:59.833Z</time></trkpt><trkpt lat="38.0738467" lon="12.7491283"><ele>330.0</ele><time>2026-04-20T08:14:00.831Z</time></trkpt><trkpt lat="38.073805" lon="12.7493467"><ele>330.0</ele><time>2026-04-20T08:14:01.829Z</time></trkpt><trkpt lat="38.0737633" lon="12.7495667"><ele>330.0</ele><time>2026-04-20T08:14:02.834Z</time></trkpt><trkpt lat="38.0737267" lon="12.7497917"><ele>330.0</ele><time>2026-04-20T08:14:03.831Z</time></trkpt><trkpt lat="38.0736933" lon="12.7500183"><ele>330.0</ele><time>2026-04-20T08:14:04.831Z</time></trkpt><trkpt lat="38.0736667" lon="12.7502483"><ele>330.0</ele><time>2026-04-20T08:14:05.831Z</time></trkpt><trkpt lat="38.07364" lon="12.7504817"><ele>330.0</ele><time>2026-04-20T08:14:06.832Z</time></trkpt><trkpt lat="38.0736167" lon="12.7507217"><ele>330.0</ele><time>2026-04-20T08:14:07.831Z</time></trkpt><trkpt lat="38.073595" lon="12.7509683"><ele>330.0</ele><time>2026-04-20T08:14:08.831Z</time></trkpt><trkpt lat="38.073575" lon="12.7512183"><ele>330.0</ele><time>2026-04-20T08:14:09.831Z</time></trkpt><trkpt lat="38.0735567" lon="12.7514717"><ele>330.6666666666667</ele><time>2026-04-20T08:14:10.83Z</time></trkpt><trkpt lat="38.0735383" lon="12.7517217"><ele>331.33333333333337</ele><time>2026-04-20T08:14:11.829Z</time></trkpt><trkpt lat="38.0735167" lon="12.7519583"><ele>332.0</ele><time>2026-04-20T08:14:12.83Z</time></trkpt><trkpt lat="38.07349" lon="12.7521733"><ele>330.6666666666667</ele><time>2026-04-20T08:14:13.833Z</time></trkpt><trkpt lat="38.07345" lon="12.7523733"><ele>329.3333333333333</ele><time>2026-04-20T08:14:14.83Z</time></trkpt><trkpt lat="38.0733933" lon="12.75257"><ele>328.0</ele><time>2026-04-20T08:14:15.83Z</time></trkpt><trkpt lat="38.0733167" lon="12.75276"><ele>329.66666666666663</ele><time>2026-04-20T08:14:16.83Z</time></trkpt><trkpt lat="38.0732233" lon="12.7529433"><ele>331.3333333333333</ele><time>2026-04-20T08:14:17.835Z</time></trkpt><trkpt lat="38.0731117" lon="12.7531117"><ele>333.0</ele><time>2026-04-20T08:14:18.833Z</time></trkpt><trkpt lat="38.0729833" lon="12.7532617"><ele>333.0</ele><time>2026-04-20T08:14:19.836Z</time></trkpt><trkpt lat="38.07284" lon="12.7533967"><ele>333.0</ele><time>2026-04-20T08:14:20.831Z</time></trkpt><trkpt lat="38.0726867" lon="12.7535267"><ele>333.0</ele><time>2026-04-20T08:14:21.833Z</time></trkpt><trkpt lat="38.072535" lon="12.75365"><ele>337.3333333333333</ele><time>2026-04-20T08:14:22.831Z</time></trkpt><trkpt lat="38.0724017" lon="12.753775"><ele>341.66666666666663</ele><time>2026-04-20T08:14:23.831Z</time></trkpt><trkpt lat="38.0722883" lon="12.75391"><ele>346.0</ele><time>2026-04-20T08:14:24.829Z</time></trkpt><trkpt lat="38.0721867" lon="12.7540633"><ele>346.0</ele><time>2026-04-20T08:14:25.83Z</time></trkpt><trkpt lat="38.0721033" lon="12.75424"><ele>346.0</ele><time>2026-04-20T08:14:26.831Z</time></trkpt><trkpt lat="38.0720433" lon="12.7544267"><ele>346.0</ele><time>2026-04-20T08:14:27.832Z</time></trkpt><trkpt lat="38.0720067" lon="12.754625"><ele>348.5</ele><time>2026-04-20T08:14:28.829Z</time></trkpt><trkpt lat="38.071975" lon="12.7550283"><ele>351.0</ele><time>2026-04-20T08:14:30.833Z</time></trkpt><trkpt lat="38.071955" lon="12.7552317"><ele>351.0</ele><time>2026-04-20T08:14:31.83Z</time></trkpt><trkpt lat="38.0719167" lon="12.7554333"><ele>351.0</ele><time>2026-04-20T08:14:32.829Z</time></trkpt><trkpt lat="38.0718633" lon="12.7556417"><ele>351.0</ele><time>2026-04-20T08:14:33.829Z</time></trkpt><trkpt lat="38.0717983" lon="12.7558517"><ele>349.3333333333333</ele><time>2026-04-20T08:14:34.83Z</time></trkpt><trkpt lat="38.0717283" lon="12.7560633"><ele>347.66666666666663</ele><time>2026-04-20T08:14:35.827Z</time></trkpt><trkpt lat="38.0716533" lon="12.7562783"><ele>346.0</ele><time>2026-04-20T08:14:36.83Z</time></trkpt><trkpt lat="38.0715767" lon="12.756495"><ele>359.3333333333333</ele><time>2026-04-20T08:14:37.83Z</time></trkpt><trkpt lat="38.0714967" lon="12.7567117"><ele>372.66666666666663</ele><time>2026-04-20T08:14:38.83Z</time></trkpt><trkpt lat="38.0714183" lon="12.7569333"><ele>386.0</ele><time>2026-04-20T08:14:39.83Z</time></trkpt><trkpt lat="38.0713367" lon="12.757155"><ele>386.0</ele><time>2026-04-20T08:14:40.832Z</time></trkpt><trkpt lat="38.07126" lon="12.7573733"><ele>386.0</ele><time>2026-04-20T08:14:41.827Z</time></trkpt><trkpt lat="38.071195" lon="12.7575917"><ele>386.0</ele><time>2026-04-20T08:14:42.829Z</time></trkpt><trkpt lat="38.0711433" lon="12.7578067"><ele>384.66666666666663</ele><time>2026-04-20T08:14:43.829Z</time></trkpt><trkpt lat="38.0711067" lon="12.7580217"><ele>383.3333333333333</ele><time>2026-04-20T08:14:44.83Z</time></trkpt><trkpt lat="38.0710817" lon="12.7582283"><ele>382.0</ele><time>2026-04-20T08:14:45.83Z</time></trkpt><trkpt lat="38.07107" lon="12.7584233"><ele>386.0</ele><time>2026-04-20T08:14:46.836Z</time></trkpt><trkpt lat="38.0710717" lon="12.75862"><ele>390.0</ele><time>2026-04-20T08:14:47.833Z</time></trkpt><trkpt lat="38.0710917" lon="12.7588233"><ele>394.0</ele><time>2026-04-20T08:14:48.829Z</time></trkpt><trkpt lat="38.071125" lon="12.7590333"><ele>394.0</ele><time>2026-04-20T08:14:49.83Z</time></trkpt><trkpt lat="38.0711733" lon="12.7592483"><ele>394.0</ele><time>2026-04-20T08:14:50.828Z</time></trkpt><trkpt lat="38.0712333" lon="12.7594683"><ele>394.0</ele><time>2026-04-20T08:14:51.829Z</time></trkpt><trkpt lat="38.0712933" lon="12.7596983"><ele>398.33333333333337</ele><time>2026-04-20T08:14:52.828Z</time></trkpt><trkpt lat="38.07135" lon="12.7599267"><ele>402.66666666666663</ele><time>2026-04-20T08:14:53.831Z</time></trkpt><trkpt lat="38.0714067" lon="12.7601583"><ele>407.0</ele><time>2026-04-20T08:14:54.83Z</time></trkpt><trkpt lat="38.0714633" lon="12.7603917"><ele>403.3333333333333</ele><time>2026-04-20T08:14:55.832Z</time></trkpt><trkpt lat="38.07152" lon="12.76063"><ele>399.66666666666663</ele><time>2026-04-20T08:14:56.828Z</time></trkpt><trkpt lat="38.0715783" lon="12.76087"><ele>396.0</ele><time>2026-04-20T08:14:57.827Z</time></trkpt><trkpt lat="38.071635" lon="12.76111"><ele>396.0</ele><time>2026-04-20T08:14:58.829Z</time></trkpt><trkpt lat="38.071695" lon="12.7613517"><ele>396.0</ele><time>2026-04-20T08:14:59.83Z</time></trkpt><trkpt lat="38.0717517" lon="12.76159"><ele>396.0</ele><time>2026-04-20T08:15:00.831Z</time></trkpt><trkpt lat="38.0718" lon="12.7618167"><ele>400.33333333333337</ele><time>2026-04-20T08:15:01.83Z</time></trkpt><trkpt lat="38.071845" lon="12.76204"><ele>404.6666666666667</ele><time>2026-04-20T08:15:02.829Z</time></trkpt><trkpt lat="38.071885" lon="12.76226"><ele>409.0</ele><time>2026-04-20T08:15:03.83Z</time></trkpt><trkpt lat="38.0719167" lon="12.7624783"><ele>412.0</ele><time>2026-04-20T08:15:04.83Z</time></trkpt><trkpt lat="38.0719433" lon="12.7626983"><ele>415.0</ele><time>2026-04-20T08:15:05.83Z</time></trkpt><trkpt lat="38.0719633" lon="12.7629233"><ele>418.0</ele><time>2026-04-20T08:15:06.83Z</time></trkpt><trkpt lat="38.0719767" lon="12.763155"><ele>418.0</ele><time>2026-04-20T08:15:07.828Z</time></trkpt><trkpt lat="38.0719817" lon="12.76339"><ele>418.0</ele><time>2026-04-20T08:15:08.834Z</time></trkpt><trkpt lat="38.0719767" lon="12.76363"><ele>418.0</ele><time>2026-04-20T08:15:09.834Z</time></trkpt><trkpt lat="38.0719633" lon="12.7638733"><ele>417.6666666666667</ele><time>2026-04-20T08:15:10.831Z</time></trkpt><trkpt lat="38.0719433" lon="12.7641183"><ele>417.33333333333337</ele><time>2026-04-20T08:15:11.831Z</time></trkpt><trkpt lat="38.071915" lon="12.7643633"><ele>417.0</ele><time>2026-04-20T08:15:12.829Z</time></trkpt><trkpt lat="38.0718833" lon="12.7646117"><ele>417.0</ele><time>2026-04-20T08:15:13.833Z</time></trkpt><trkpt lat="38.0718483" lon="12.7648617"><ele>417.0</ele><time>2026-04-20T08:15:14.833Z</time></trkpt><trkpt lat="38.0718083" lon="12.7651133"><ele>417.0</ele><time>2026-04-20T08:15:15.839Z</time></trkpt><trkpt lat="38.07177" lon="12.765365"><ele>417.0</ele><time>2026-04-20T08:15:16.83Z</time></trkpt><trkpt lat="38.0717333" lon="12.765615"><ele>417.0</ele><time>2026-04-20T08:15:17.829Z</time></trkpt><trkpt lat="38.0716933" lon="12.765865"><ele>417.0</ele><time>2026-04-20T08:15:18.829Z</time></trkpt><trkpt lat="38.0716517" lon="12.7661133"><ele>417.0</ele><time>2026-04-20T08:15:19.829Z</time></trkpt><trkpt lat="38.07161" lon="12.76636"><ele>417.0</ele><time>2026-04-20T08:15:20.834Z</time></trkpt><trkpt lat="38.07157" lon="12.766605"><ele>417.0</ele><time>2026-04-20T08:15:21.833Z</time></trkpt><trkpt lat="38.0715333" lon="12.7668483"><ele>428.0</ele><time>2026-04-20T08:15:22.834Z</time></trkpt><trkpt lat="38.0715" lon="12.7670933"><ele>439.0</ele><time>2026-04-20T08:15:23.832Z</time></trkpt><trkpt lat="38.0714717" lon="12.7673367"><ele>450.0</ele><time>2026-04-20T08:15:24.837Z</time></trkpt><trkpt lat="38.07145" lon="12.7675817"><ele>450.66666666666663</ele><time>2026-04-20T08:15:25.835Z</time></trkpt><trkpt lat="38.0714333" lon="12.7678267"><ele>451.3333333333333</ele><time>2026-04-20T08:15:26.835Z</time></trkpt><trkpt lat="38.07142" lon="12.768075"><ele>452.0</ele><time>2026-04-20T08:15:27.829Z</time></trkpt><trkpt lat="38.0714067" lon="12.76832"><ele>458.0</ele><time>2026-04-20T08:15:28.831Z</time></trkpt><trkpt lat="38.071395" lon="12.768565"><ele>464.0</ele><time>2026-04-20T08:15:29.831Z</time></trkpt><trkpt lat="38.0713833" lon="12.7688067"><ele>470.0</ele><time>2026-04-20T08:15:30.827Z</time></trkpt><trkpt lat="38.0713683" lon="12.769045"><ele>470.0</ele><time>2026-04-20T08:15:31.829Z</time></trkpt><trkpt lat="38.071345" lon="12.7692767"><ele>470.0</ele><time>2026-04-20T08:15:32.831Z</time></trkpt><trkpt lat="38.0713133" lon="12.7694933"><ele>470.0</ele><time>2026-04-20T08:15:33.83Z</time></trkpt><trkpt lat="38.07127" lon="12.7697017"><ele>469.66666666666663</ele><time>2026-04-20T08:15:34.829Z</time></trkpt><trkpt lat="38.0712133" lon="12.7699017"><ele>469.33333333333337</ele><time>2026-04-20T08:15:35.831Z</time></trkpt><trkpt lat="38.071145" lon="12.7700983"><ele>469.0</ele><time>2026-04-20T08:15:36.83Z</time></trkpt><trkpt lat="38.071065" lon="12.7702933"><ele>463.33333333333337</ele><time>2026-04-20T08:15:37.831Z</time></trkpt><trkpt lat="38.0709783" lon="12.7704833"><ele>457.66666666666663</ele><time>2026-04-20T08:15:38.828Z</time></trkpt><trkpt lat="38.0708833" lon="12.77067"><ele>452.0</ele><time>2026-04-20T08:15:39.831Z</time></trkpt><trkpt lat="38.07079" lon="12.7708467"><ele>462.66666666666663</ele><time>2026-04-20T08:15:40.827Z</time></trkpt><trkpt lat="38.0706983" lon="12.7710117"><ele>473.33333333333337</ele><time>2026-04-20T08:15:41.834Z</time></trkpt><trkpt lat="38.0706083" lon="12.7711733"><ele>484.0</ele><time>2026-04-20T08:15:42.83Z</time></trkpt><trkpt lat="38.0705183" lon="12.77134"><ele>484.0</ele><time>2026-04-20T08:15:43.829Z</time></trkpt><trkpt lat="38.0704267" lon="12.77152"><ele>484.0</ele><time>2026-04-20T08:15:44.829Z</time></trkpt><trkpt lat="38.07033" lon="12.77171"><ele>484.0</ele><time>2026-04-20T08:15:45.831Z</time></trkpt><trkpt lat="38.0702267" lon="12.7719017"><ele>475.6666666666667</ele><time>2026-04-20T08:15:46.831Z</time></trkpt><trkpt lat="38.0701167" lon="12.772095"><ele>467.33333333333337</ele><time>2026-04-20T08:15:47.83Z</time></trkpt><trkpt lat="38.07" lon="12.7722883"><ele>459.0</ele><time>2026-04-20T08:15:48.831Z</time></trkpt><trkpt lat="38.0698783" lon="12.772485"><ele>469.33333333333337</ele><time>2026-04-20T08:15:49.83Z</time></trkpt><trkpt lat="38.0697583" lon="12.772685"><ele>479.6666666666667</ele><time>2026-04-20T08:15:50.831Z</time></trkpt><trkpt lat="38.0696367" lon="12.7728883"><ele>490.0</ele><time>2026-04-20T08:15:51.833Z</time></trkpt><trkpt lat="38.0695183" lon="12.7730933"><ele>490.0</ele><time>2026-04-20T08:15:52.832Z</time></trkpt><trkpt lat="38.0693983" lon="12.7732983"><ele>490.0</ele><time>2026-04-20T08:15:53.831Z</time></trkpt><trkpt lat="38.0692783" lon="12.7735017"><ele>490.0</ele><time>2026-04-20T08:15:54.83Z</time></trkpt><trkpt lat="38.06916" lon="12.7737017"><ele>500.6666666666667</ele><time>2026-04-20T08:15:55.832Z</time></trkpt><trkpt lat="38.0690433" lon="12.7739"><ele>511.33333333333337</ele><time>2026-04-20T08:15:56.834Z</time></trkpt><trkpt lat="38.0689283" lon="12.7740933"><ele>522.0</ele><time>2026-04-20T08:15:57.828Z</time></trkpt><trkpt lat="38.06881" lon="12.7742867"><ele>513.6666666666666</ele><time>2026-04-20T08:15:58.829Z</time></trkpt><trkpt lat="38.0686917" lon="12.7744767"><ele>505.3333333333333</ele><time>2026-04-20T08:15:59.831Z</time></trkpt><trkpt lat="38.0685733" lon="12.7746667"><ele>497.0</ele><time>2026-04-20T08:16:00.828Z</time></trkpt><trkpt lat="38.0684567" lon="12.774855"><ele>497.0</ele><time>2026-04-20T08:16:01.83Z</time></trkpt><trkpt lat="38.06834" lon="12.7750417"><ele>497.0</ele><time>2026-04-20T08:16:02.834Z</time></trkpt><trkpt lat="38.06822" lon="12.775225"><ele>497.0</ele><time>2026-04-20T08:16:03.829Z</time></trkpt><trkpt lat="38.0681017" lon="12.77541"><ele>506.3333333333333</ele><time>2026-04-20T08:16:04.832Z</time></trkpt><trkpt lat="38.0679817" lon="12.7755983"><ele>515.6666666666666</ele><time>2026-04-20T08:16:05.827Z</time></trkpt><trkpt lat="38.0678633" lon="12.7757933"><ele>525.0</ele><time>2026-04-20T08:16:06.827Z</time></trkpt><trkpt lat="38.067745" lon="12.7759883"><ele>518.0</ele><time>2026-04-20T08:16:07.83Z</time></trkpt><trkpt lat="38.067625" lon="12.776185"><ele>511.0</ele><time>2026-04-20T08:16:08.833Z</time></trkpt><trkpt lat="38.0675067" lon="12.7763783"><ele>504.0</ele><time>2026-04-20T08:16:09.829Z</time></trkpt><trkpt lat="38.067385" lon="12.7765717"><ele>512.0</ele><time>2026-04-20T08:16:10.832Z</time></trkpt><trkpt lat="38.0672633" lon="12.776765"><ele>520.0</ele><time>2026-04-20T08:16:11.831Z</time></trkpt><trkpt lat="38.0671433" lon="12.7769583"><ele>528.0</ele><time>2026-04-20T08:16:12.83Z</time></trkpt><trkpt lat="38.0670217" lon="12.7771517"><ele>528.0</ele><time>2026-04-20T08:16:13.831Z</time></trkpt><trkpt lat="38.0669" lon="12.777345"><ele>528.0</ele><time>2026-04-20T08:16:14.832Z</time></trkpt><trkpt lat="38.0667767" lon="12.7775333"><ele>528.0</ele><time>2026-04-20T08:16:15.83Z</time></trkpt><trkpt lat="38.0666583" lon="12.777715"><ele>536.6666666666666</ele><time>2026-04-20T08:16:16.83Z</time></trkpt><trkpt lat="38.06655" lon="12.777885"><ele>545.3333333333333</ele><time>2026-04-20T08:16:17.83Z</time></trkpt><trkpt lat="38.06645" lon="12.778045"><ele>554.0</ele><time>2026-04-20T08:16:18.83Z</time></trkpt><trkpt lat="38.066365" lon="12.7782017"><ele>554.0</ele><time>2026-04-20T08:16:19.83Z</time></trkpt><trkpt lat="38.0662967" lon="12.778355"><ele>554.0</ele><time>2026-04-20T08:16:20.832Z</time></trkpt><trkpt lat="38.0662483" lon="12.7785133"><ele>554.0</ele><time>2026-04-20T08:16:21.831Z</time></trkpt><trkpt lat="38.066215" lon="12.77867"><ele>554.0</ele><time>2026-04-20T08:16:22.831Z</time></trkpt><trkpt lat="38.0662033" lon="12.77883"><ele>554.0</ele><time>2026-04-20T08:16:23.835Z</time></trkpt><trkpt lat="38.0662083" lon="12.7790067"><ele>554.0</ele><time>2026-04-20T08:16:24.837Z</time></trkpt><trkpt lat="38.0662267" lon="12.7792"><ele>554.0</ele><time>2026-04-20T08:16:25.832Z</time></trkpt><trkpt lat="38.06625" lon="12.77941"><ele>560.6666666666666</ele><time>2026-04-20T08:16:26.833Z</time></trkpt><trkpt lat="38.06628" lon="12.7796367"><ele>567.3333333333334</ele><time>2026-04-20T08:16:27.837Z</time></trkpt><trkpt lat="38.0663133" lon="12.7798717"><ele>574.0</ele><time>2026-04-20T08:16:28.833Z</time></trkpt><trkpt lat="38.0663517" lon="12.78011"><ele>581.3333333333334</ele><time>2026-04-20T08:16:29.834Z</time></trkpt><trkpt lat="38.0663983" lon="12.78035"><ele>588.6666666666666</ele><time>2026-04-20T08:16:30.828Z</time></trkpt><trkpt lat="38.0664533" lon="12.780595"><ele>596.0</ele><time>2026-04-20T08:16:31.832Z</time></trkpt><trkpt lat="38.0665167" lon="12.7808383"><ele>602.0</ele><time>2026-04-20T08:16:32.832Z</time></trkpt><trkpt lat="38.06659" lon="12.7810783"><ele>608.0</ele><time>2026-04-20T08:16:33.831Z</time></trkpt><trkpt lat="38.0666717" lon="12.7813133"><ele>614.0</ele><time>2026-04-20T08:16:34.833Z</time></trkpt><trkpt lat="38.066765" lon="12.78154"><ele>606.3333333333333</ele><time>2026-04-20T08:16:35.834Z</time></trkpt><trkpt lat="38.0668717" lon="12.78176"><ele>598.6666666666666</ele><time>2026-04-20T08:16:36.835Z</time></trkpt><trkpt lat="38.066985" lon="12.7819767"><ele>591.0</ele><time>2026-04-20T08:16:37.833Z</time></trkpt><trkpt lat="38.0670967" lon="12.7821767"><ele>591.0</ele><time>2026-04-20T08:16:38.833Z</time></trkpt><trkpt lat="38.0672" lon="12.782355"><ele>591.0</ele><time>2026-04-20T08:16:39.831Z</time></trkpt><trkpt lat="38.0672917" lon="12.7825183"><ele>591.0</ele><time>2026-04-20T08:16:40.832Z</time></trkpt><trkpt lat="38.0673633" lon="12.782665"><ele>591.4</ele><time>2026-04-20T08:16:41.831Z</time></trkpt><trkpt lat="38.0674133" lon="12.7828033"><ele>591.8</ele><time>2026-04-20T08:16:42.831Z</time></trkpt><trkpt lat="38.0674417" lon="12.7829383"><ele>592.1999999999999</ele><time>2026-04-20T08:16:43.83Z</time></trkpt><trkpt lat="38.067445" lon="12.7830767"><ele>592.6</ele><time>2026-04-20T08:16:44.831Z</time></trkpt><trkpt lat="38.0674167" lon="12.7832067"><ele>593.0</ele><time>2026-04-20T08:16:45.828Z</time></trkpt><trkpt lat="38.06736" lon="12.7833283"><ele>593.0</ele><time>2026-04-20T08:16:46.83Z</time></trkpt><trkpt lat="38.0672817" lon="12.783445"><ele>593.0</ele><time>2026-04-20T08:16:47.831Z</time></trkpt><trkpt lat="38.0671817" lon="12.7835667"><ele>593.0</ele><time>2026-04-20T08:16:48.832Z</time></trkpt><trkpt lat="38.06707" lon="12.783695"><ele>593.0</ele><time>2026-04-20T08:16:49.83Z</time></trkpt><trkpt lat="38.066955" lon="12.7838317"><ele>589.6666666666666</ele><time>2026-04-20T08:16:50.832Z</time></trkpt><trkpt lat="38.0668467" lon="12.783985"><ele>586.3333333333334</ele><time>2026-04-20T08:16:51.832Z</time></trkpt><trkpt lat="38.0667533" lon="12.7841567"><ele>583.0</ele><time>2026-04-20T08:16:52.831Z</time></trkpt><trkpt lat="38.0666733" lon="12.7843483"><ele>591.0</ele><time>2026-04-20T08:16:53.829Z</time></trkpt><trkpt lat="38.0666017" lon="12.78455"><ele>599.0</ele><time>2026-04-20T08:16:54.834Z</time></trkpt><trkpt lat="38.066535" lon="12.7847567"><ele>607.0</ele><time>2026-04-20T08:16:55.829Z</time></trkpt><trkpt lat="38.0664733" lon="12.7849567"><ele>607.0</ele><time>2026-04-20T08:16:56.833Z</time></trkpt><trkpt lat="38.06642" lon="12.7851467"><ele>607.0</ele><time>2026-04-20T08:16:57.833Z</time></trkpt><trkpt lat="38.0663667" lon="12.7853217"><ele>607.0</ele><time>2026-04-20T08:16:58.83Z</time></trkpt><trkpt lat="38.066315" lon="12.7854983"><ele>605.0</ele><time>2026-04-20T08:16:59.831Z</time></trkpt><trkpt lat="38.0662617" lon="12.78568"><ele>603.0</ele><time>2026-04-20T08:17:00.832Z</time></trkpt><trkpt lat="38.0662067" lon="12.7858633"><ele>601.0</ele><time>2026-04-20T08:17:01.829Z</time></trkpt><trkpt lat="38.06615" lon="12.7860467"><ele>601.0</ele><time>2026-04-20T08:17:02.829Z</time></trkpt><trkpt lat="38.066095" lon="12.7862217"><ele>601.0</ele><time>2026-04-20T08:17:03.831Z</time></trkpt><trkpt lat="38.0660483" lon="12.7863783"><ele>601.0</ele><time>2026-04-20T08:17:04.83Z</time></trkpt><trkpt lat="38.0660133" lon="12.7865217"><ele>601.0</ele><time>2026-04-20T08:17:05.83Z</time></trkpt><trkpt lat="38.065995" lon="12.7866633"><ele>601.0</ele><time>2026-04-20T08:17:06.832Z</time></trkpt><trkpt lat="38.06601" lon="12.7868033"><ele>601.0</ele><time>2026-04-20T08:17:07.831Z</time></trkpt><trkpt lat="38.066055" lon="12.78694"><ele>601.0</ele><time>2026-04-20T08:17:08.833Z</time></trkpt><trkpt lat="38.066125" lon="12.787075"><ele>601.0</ele><time>2026-04-20T08:17:09.835Z</time></trkpt><trkpt lat="38.0662117" lon="12.787215"><ele>603.5</ele><time>2026-04-20T08:17:10.84Z</time></trkpt><trkpt lat="38.0662983" lon="12.78736"><ele>606.0</ele><time>2026-04-20T08:17:11.835Z</time></trkpt><trkpt lat="38.0663817" lon="12.7875117"><ele>608.5</ele><time>2026-04-20T08:17:12.835Z</time></trkpt><trkpt lat="38.066455" lon="12.7876567"><ele>611.0</ele><time>2026-04-20T08:17:13.835Z</time></trkpt><trkpt lat="38.066515" lon="12.7877933"><ele>612.0</ele><time>2026-04-20T08:17:14.835Z</time></trkpt><trkpt lat="38.0665583" lon="12.7879267"><ele>613.0</ele><time>2026-04-20T08:17:15.832Z</time></trkpt><trkpt lat="38.06658" lon="12.7880633"><ele>614.0</ele><time>2026-04-20T08:17:16.832Z</time></trkpt><trkpt lat="38.0665867" lon="12.78821"><ele>615.0</ele><time>2026-04-20T08:17:17.832Z</time></trkpt><trkpt lat="38.06658" lon="12.7883717"><ele>615.0</ele><time>2026-04-20T08:17:18.833Z</time></trkpt><trkpt lat="38.0665667" lon="12.78855"><ele>615.0</ele><time>2026-04-20T08:17:19.832Z</time></trkpt><trkpt lat="38.0665533" lon="12.788735"><ele>615.0</ele><time>2026-04-20T08:17:20.835Z</time></trkpt><trkpt lat="38.0665367" lon="12.7889233"><ele>615.0</ele><time>2026-04-20T08:17:21.835Z</time></trkpt><trkpt lat="38.0665183" lon="12.7890967"><ele>615.0</ele><time>2026-04-20T08:17:22.833Z</time></trkpt><trkpt lat="38.0664967" lon="12.789265"><ele>615.0</ele><time>2026-04-20T08:17:23.833Z</time></trkpt><trkpt lat="38.0664583" lon="12.7894367"><ele>615.0</ele><time>2026-04-20T08:17:24.832Z</time></trkpt><trkpt lat="38.0664117" lon="12.789595"><ele>615.0</ele><time>2026-04-20T08:17:25.834Z</time></trkpt><trkpt lat="38.0663533" lon="12.7897383"><ele>613.5</ele><time>2026-04-20T08:17:26.834Z</time></trkpt><trkpt lat="38.0662883" lon="12.7898683"><ele>612.0</ele><time>2026-04-20T08:17:27.834Z</time></trkpt><trkpt lat="38.0662133" lon="12.7899817"><ele>610.5</ele><time>2026-04-20T08:17:28.832Z</time></trkpt><trkpt lat="38.06612" lon="12.79008"><ele>609.0</ele><time>2026-04-20T08:17:29.834Z</time></trkpt><trkpt lat="38.0660033" lon="12.79017"><ele>605.3333333333334</ele><time>2026-04-20T08:17:30.834Z</time></trkpt><trkpt lat="38.0658683" lon="12.7902533"><ele>601.6666666666667</ele><time>2026-04-20T08:17:31.83Z</time></trkpt><trkpt lat="38.0657117" lon="12.7903383"><ele>598.0</ele><time>2026-04-20T08:17:32.832Z</time></trkpt><trkpt lat="38.06554" lon="12.79043"><ele>597.6666666666667</ele><time>2026-04-20T08:17:33.83Z</time></trkpt><trkpt lat="38.06536" lon="12.790525"><ele>597.3333333333334</ele><time>2026-04-20T08:17:34.827Z</time></trkpt><trkpt lat="38.0651717" lon="12.7906333"><ele>597.0</ele><time>2026-04-20T08:17:35.83Z</time></trkpt><trkpt lat="38.0649733" lon="12.79075"><ele>597.0</ele><time>2026-04-20T08:17:36.83Z</time></trkpt><trkpt lat="38.0647683" lon="12.7908683"><ele>597.0</ele><time>2026-04-20T08:17:37.83Z</time></trkpt><trkpt lat="38.0645583" lon="12.79099"><ele>594.0</ele><time>2026-04-20T08:17:38.83Z</time></trkpt><trkpt lat="38.0643483" lon="12.7911117"><ele>591.0</ele><time>2026-04-20T08:17:39.831Z</time></trkpt><trkpt lat="38.0641417" lon="12.7912317"><ele>591.0</ele><time>2026-04-20T08:17:40.829Z</time></trkpt><trkpt lat="38.0639383" lon="12.7913483"><ele>591.0</ele><time>2026-04-20T08:17:41.829Z</time></trkpt><trkpt lat="38.06374" lon="12.7914633"><ele>591.0</ele><time>2026-04-20T08:17:42.833Z</time></trkpt><trkpt lat="38.0635433" lon="12.7915733"><ele>591.0</ele><time>2026-04-20T08:17:43.83Z</time></trkpt><trkpt lat="38.0633483" lon="12.7916883"><ele>591.0</ele><time>2026-04-20T08:17:44.832Z</time></trkpt><trkpt lat="38.0631533" lon="12.7918"><ele>591.0</ele><time>2026-04-20T08:17:45.827Z</time></trkpt><trkpt lat="38.06296" lon="12.7919133"><ele>590.6666666666666</ele><time>2026-04-20T08:17:46.831Z</time></trkpt><trkpt lat="38.0627733" lon="12.792025"><ele>590.3333333333333</ele><time>2026-04-20T08:17:47.828Z</time></trkpt><trkpt lat="38.0625983" lon="12.7921283"><ele>590.0</ele><time>2026-04-20T08:17:48.831Z</time></trkpt><trkpt lat="38.06243" lon="12.792225"><ele>590.6666666666666</ele><time>2026-04-20T08:17:49.83Z</time></trkpt><trkpt lat="38.0622733" lon="12.7923133"><ele>591.3333333333334</ele><time>2026-04-20T08:17:50.83Z</time></trkpt><trkpt lat="38.0621267" lon="12.792395"><ele>592.0</ele><time>2026-04-20T08:17:51.833Z</time></trkpt><trkpt lat="38.0619883" lon="12.792475"><ele>592.0</ele><time>2026-04-20T08:17:52.831Z</time></trkpt><trkpt lat="38.061855" lon="12.7925517"><ele>592.0</ele><time>2026-04-20T08:17:53.828Z</time></trkpt><trkpt lat="38.0617217" lon="12.7926283"><ele>592.0</ele><time>2026-04-20T08:17:54.83Z</time></trkpt><trkpt lat="38.0615883" lon="12.7927067"><ele>592.0</ele><time>2026-04-20T08:17:55.83Z</time></trkpt><trkpt lat="38.0614617" lon="12.7927817"><ele>589.5</ele><time>2026-04-20T08:17:56.832Z</time></trkpt><trkpt lat="38.0613483" lon="12.7928617"><ele>587.0</ele><time>2026-04-20T08:17:57.831Z</time></trkpt><trkpt lat="38.06125" lon="12.7929567"><ele>584.5</ele><time>2026-04-20T08:17:58.83Z</time></trkpt><trkpt lat="38.0611667" lon="12.79307"><ele>582.0</ele><time>2026-04-20T08:17:59.828Z</time></trkpt><trkpt lat="38.0610933" lon="12.7932033"><ele>582.0</ele><time>2026-04-20T08:18:00.831Z</time></trkpt><trkpt lat="38.0610367" lon="12.7933433"><ele>582.0</ele><time>2026-04-20T08:18:01.833Z</time></trkpt><trkpt lat="38.0609933" lon="12.7934867"><ele>582.0</ele><time>2026-04-20T08:18:02.828Z</time></trkpt><trkpt lat="38.0609633" lon="12.793625"><ele>582.0</ele><time>2026-04-20T08:18:03.829Z</time></trkpt><trkpt lat="38.060955" lon="12.7937617"><ele>582.1666666666666</ele><time>2026-04-20T08:18:04.829Z</time></trkpt><trkpt lat="38.0609667" lon="12.7938833"><ele>582.3333333333334</ele><time>2026-04-20T08:18:05.829Z</time></trkpt><trkpt lat="38.0609883" lon="12.7939817"><ele>582.5</ele><time>2026-04-20T08:18:06.83Z</time></trkpt><trkpt lat="38.0610117" lon="12.7940583"><ele>582.6666666666667</ele><time>2026-04-20T08:18:07.832Z</time></trkpt><trkpt lat="38.061045" lon="12.7941667"><ele>582.8333333333334</ele><time>2026-04-20T08:18:09.828Z</time></trkpt><trkpt lat="38.0610717" lon="12.7942967"><ele>583.0</ele><time>2026-04-20T08:18:27.831Z</time></trkpt><trkpt lat="38.0611233" lon="12.79444"><ele>583.0</ele><time>2026-04-20T08:18:29.833Z</time></trkpt><trkpt lat="38.0611533" lon="12.7945117"><ele>583.0</ele><time>2026-04-20T08:18:30.834Z</time></trkpt><trkpt lat="38.0612067" lon="12.7946167"><ele>583.0</ele><time>2026-04-20T08:18:32.837Z</time></trkpt><trkpt lat="38.0612433" lon="12.7947067"><ele>583.0</ele><time>2026-04-20T08:18:35.831Z</time></trkpt><trkpt lat="38.061275" lon="12.7948"><ele>583.0</ele><time>2026-04-20T08:18:37.831Z</time></trkpt><trkpt lat="38.0612967" lon="12.7948967"><ele>583.0</ele><time>2026-04-20T08:18:39.831Z</time></trkpt><trkpt lat="38.0613117" lon="12.7949883"><ele>583.0</ele><time>2026-04-20T08:18:41.833Z</time></trkpt><trkpt lat="38.06132" lon="12.79508"><ele>583.0</ele><time>2026-04-20T08:18:43.831Z</time></trkpt><trkpt lat="38.0613183" lon="12.79517"><ele>583.0</ele><time>2026-04-20T08:18:45.832Z</time></trkpt><trkpt lat="38.061315" lon="12.795275"><ele>583.0</ele><time>2026-04-20T08:18:47.829Z</time></trkpt><trkpt lat="38.0613083" lon="12.7953633"><ele>583.0</ele><time>2026-04-20T08:18:49.832Z</time></trkpt><trkpt lat="38.0612983" lon="12.79548"><ele>583.0</ele><time>2026-04-20T08:18:52.831Z</time></trkpt><trkpt lat="38.0612767" lon="12.7955767"><ele>581.4285714285714</ele><time>2026-04-20T08:18:55.832Z</time></trkpt><trkpt lat="38.0612483" lon="12.795655"><ele>579.8571428571429</ele><time>2026-04-20T08:18:58.83Z</time></trkpt><trkpt lat="38.0612117" lon="12.795745"><ele>578.2857142857142</ele><time>2026-04-20T08:19:01.829Z</time></trkpt><trkpt lat="38.061175" lon="12.7958233"><ele>576.7142857142858</ele><time>2026-04-20T08:19:04.831Z</time></trkpt><trkpt lat="38.0611333" lon="12.79589"><ele>575.1428571428571</ele><time>2026-04-20T08:19:07.83Z</time></trkpt><trkpt lat="38.061065" lon="12.7959717"><ele>573.5714285714286</ele><time>2026-04-20T08:19:10.831Z</time></trkpt><trkpt lat="38.0610217" lon="12.79603"><ele>572.0</ele><time>2026-04-20T08:19:12.832Z</time></trkpt><trkpt lat="38.06096" lon="12.7961033"><ele>568.8333333333333</ele><time>2026-04-20T08:19:15.829Z</time></trkpt><trkpt lat="38.0609017" lon="12.79617"><ele>565.6666666666666</ele><time>2026-04-20T08:19:18.834Z</time></trkpt><trkpt lat="38.0608367" lon="12.7962417"><ele>562.5</ele><time>2026-04-20T08:19:21.828Z</time></trkpt><trkpt lat="38.0607683" lon="12.7963167"><ele>559.3333333333334</ele><time>2026-04-20T08:19:24.831Z</time></trkpt><trkpt lat="38.0606983" lon="12.796385"><ele>556.1666666666667</ele><time>2026-04-20T08:19:27.827Z</time></trkpt><trkpt lat="38.06063" lon="12.7964333"><ele>553.0</ele><time>2026-04-20T08:19:29.828Z</time></trkpt><trkpt lat="38.060555" lon="12.7964767"><ele>553.0</ele><time>2026-04-20T08:19:31.833Z</time></trkpt><trkpt lat="38.0604783" lon="12.7965133"><ele>553.0</ele><time>2026-04-20T08:19:33.836Z</time></trkpt><trkpt lat="38.0603983" lon="12.7965467"><ele>553.0</ele><time>2026-04-20T08:19:36.83Z</time></trkpt><trkpt lat="38.0603233" lon="12.7965867"><ele>553.0</ele><time>2026-04-20T08:19:39.832Z</time></trkpt><trkpt lat="38.060245" lon="12.7966283"><ele>553.0</ele><time>2026-04-20T08:19:42.831Z</time></trkpt><trkpt lat="38.0601733" lon="12.79667"><ele>553.0</ele><time>2026-04-20T08:19:45.831Z</time></trkpt><trkpt lat="38.060085" lon="12.796715"><ele>553.0</ele><time>2026-04-20T08:19:57.83Z</time></trkpt><trkpt lat="38.060025" lon="12.79676"><ele>553.0</ele><time>2026-04-20T08:20:01.83Z</time></trkpt><trkpt lat="38.05993" lon="12.7967983"><ele>553.0</ele><time>2026-04-20T08:20:07.832Z</time></trkpt><trkpt lat="38.0598383" lon="12.7968483"><ele>553.0</ele><time>2026-04-20T08:20:10.83Z</time></trkpt><trkpt lat="38.0597717" lon="12.79689"><ele>553.0</ele><time>2026-04-20T08:20:12.83Z</time></trkpt><trkpt lat="38.0597033" lon="12.7969383"><ele>553.0</ele><time>2026-04-20T08:20:14.831Z</time></trkpt><trkpt lat="38.05964" lon="12.796975"><ele>550.1666666666667</ele><time>2026-04-20T08:20:16.831Z</time></trkpt><trkpt lat="38.0595767" lon="12.797015"><ele>547.3333333333334</ele><time>2026-04-20T08:20:18.83Z</time></trkpt><trkpt lat="38.0594872" lon="12.7970554"><ele>544.5</ele><time>2026-04-20T08:20:21.968Z</time></trkpt><trkpt lat="38.0594083" lon="12.7971067"><ele>541.6666666666666</ele><time>2026-04-20T08:20:24.829Z</time></trkpt><trkpt lat="38.0593417" lon="12.7971417"><ele>538.8333333333333</ele><time>2026-04-20T08:20:26.834Z</time></trkpt><trkpt lat="38.0592717" lon="12.7971817"><ele>536.0</ele><time>2026-04-20T08:20:28.834Z</time></trkpt><trkpt lat="38.0592083" lon="12.7972117"><ele>536.0</ele><time>2026-04-20T08:20:30.835Z</time></trkpt><trkpt lat="38.0591467" lon="12.7972383"><ele>536.0</ele><time>2026-04-20T08:20:32.833Z</time></trkpt><trkpt lat="38.059085" lon="12.79727"><ele>536.0</ele><time>2026-04-20T08:20:34.834Z</time></trkpt><trkpt lat="38.0590067" lon="12.7973083"><ele>536.0</ele><time>2026-04-20T08:20:36.836Z</time></trkpt><trkpt lat="38.058925" lon="12.7973517"><ele>536.0</ele><time>2026-04-20T08:20:38.834Z</time></trkpt><trkpt lat="38.0588583" lon="12.7973867"><ele>536.0</ele><time>2026-04-20T08:20:40.832Z</time></trkpt><trkpt lat="38.0587883" lon="12.7974267"><ele>536.4285714285714</ele><time>2026-04-20T08:20:43.832Z</time></trkpt><trkpt lat="38.05873" lon="12.7974617"><ele>536.8571428571429</ele><time>2026-04-20T08:20:46.831Z</time></trkpt><trkpt lat="38.058655" lon="12.7974933"><ele>537.2857142857142</ele><time>2026-04-20T08:20:49.832Z</time></trkpt><trkpt lat="38.0585933" lon="12.7975217"><ele>537.7142857142858</ele><time>2026-04-20T08:20:51.834Z</time></trkpt><trkpt lat="38.0585317" lon="12.7975467"><ele>538.1428571428571</ele><time>2026-04-20T08:20:53.833Z</time></trkpt><trkpt lat="38.0584667" lon="12.7975767"><ele>538.5714285714286</ele><time>2026-04-20T08:20:56.83Z</time></trkpt><trkpt lat="38.0583933" lon="12.7976067"><ele>539.0</ele><time>2026-04-20T08:20:59.835Z</time></trkpt><trkpt lat="38.0583133" lon="12.7976483"><ele>530.3333333333333</ele><time>2026-04-20T08:21:02.831Z</time></trkpt><trkpt lat="38.05824" lon="12.797685"><ele>521.6666666666666</ele><time>2026-04-20T08:21:05.833Z</time></trkpt><trkpt lat="38.05816" lon="12.79773"><ele>513.0</ele><time>2026-04-20T08:21:08.83Z</time></trkpt><trkpt lat="38.0581" lon="12.79776"><ele>504.33333333333337</ele><time>2026-04-20T08:21:10.832Z</time></trkpt><trkpt lat="38.05803" lon="12.7977817"><ele>495.6666666666667</ele><time>2026-04-20T08:21:13.828Z</time></trkpt><trkpt lat="38.057955" lon="12.7978"><ele>487.0</ele><time>2026-04-20T08:21:16.832Z</time></trkpt><trkpt lat="38.0578783" lon="12.79781"><ele>487.0</ele><time>2026-04-20T08:21:19.832Z</time></trkpt><trkpt lat="38.057805" lon="12.79783"><ele>487.0</ele><time>2026-04-20T08:21:22.829Z</time></trkpt><trkpt lat="38.0577317" lon="12.7978433"><ele>487.0</ele><time>2026-04-20T08:21:25.834Z</time></trkpt><trkpt lat="38.0576567" lon="12.7978583"><ele>487.0</ele><time>2026-04-20T08:21:28.833Z</time></trkpt><trkpt lat="38.05759" lon="12.79787"><ele>487.0</ele><time>2026-04-20T08:21:30.837Z</time></trkpt><trkpt lat="38.0575217" lon="12.7978833"><ele>487.0</ele><time>2026-04-20T08:21:32.835Z</time></trkpt><trkpt lat="38.0574483" lon="12.797905"><ele>487.0</ele><time>2026-04-20T08:21:34.834Z</time></trkpt><trkpt lat="38.0573767" lon="12.797925"><ele>489.0</ele><time>2026-04-20T08:21:36.835Z</time></trkpt><trkpt lat="38.0573033" lon="12.7979417"><ele>491.0</ele><time>2026-04-20T08:21:38.836Z</time></trkpt><trkpt lat="38.0572233" lon="12.79795"><ele>493.0</ele><time>2026-04-20T08:21:40.836Z</time></trkpt><trkpt lat="38.0571433" lon="12.7979567"><ele>495.0</ele><time>2026-04-20T08:21:42.838Z</time></trkpt><trkpt lat="38.0570783" lon="12.79795"><ele>497.0</ele><time>2026-04-20T08:21:44.838Z</time></trkpt><trkpt lat="38.0570067" lon="12.7979383"><ele>499.0</ele><time>2026-04-20T08:21:46.831Z</time></trkpt><trkpt lat="38.0569383" lon="12.7979183"><ele>501.0</ele><time>2026-04-20T08:21:48.832Z</time></trkpt><trkpt lat="38.0568517" lon="12.79789"><ele>501.0</ele><time>2026-04-20T08:21:51.831Z</time></trkpt><trkpt lat="38.0567883" lon="12.7978733"><ele>501.0</ele><time>2026-04-20T08:21:53.831Z</time></trkpt><trkpt lat="38.056715" lon="12.7978617"><ele>501.0</ele><time>2026-04-20T08:21:55.837Z</time></trkpt><trkpt lat="38.0566383" lon="12.7978533"><ele>501.0</ele><time>2026-04-20T08:21:57.835Z</time></trkpt><trkpt lat="38.05656" lon="12.797845"><ele>501.0</ele><time>2026-04-20T08:21:59.839Z</time></trkpt><trkpt lat="38.0564783" lon="12.797835"><ele>501.0</ele><time>2026-04-20T08:22:02.834Z</time></trkpt><trkpt lat="38.05641" lon="12.7978267"><ele>501.0</ele><time>2026-04-20T08:22:05.831Z</time></trkpt><trkpt lat="38.0563383" lon="12.7978217"><ele>499.8333333333333</ele><time>2026-04-20T08:22:07.835Z</time></trkpt><trkpt lat="38.0562583" lon="12.797825"><ele>498.66666666666663</ele><time>2026-04-20T08:22:09.83Z</time></trkpt><trkpt lat="38.0561783" lon="12.79783"><ele>497.5</ele><time>2026-04-20T08:22:11.832Z</time></trkpt><trkpt lat="38.05607" lon="12.79784"><ele>496.3333333333333</ele><time>2026-04-20T08:22:19.833Z</time></trkpt><trkpt lat="38.0560017" lon="12.7978433"><ele>495.16666666666663</ele><time>2026-04-20T08:22:21.837Z</time></trkpt><trkpt lat="38.055925" lon="12.7978583"><ele>494.0</ele><time>2026-04-20T08:22:23.831Z</time></trkpt><trkpt lat="38.055845" lon="12.7978733"><ele>493.3333333333333</ele><time>2026-04-20T08:22:25.83Z</time></trkpt><trkpt lat="38.0557583" lon="12.7978867"><ele>492.66666666666663</ele><time>2026-04-20T08:22:27.836Z</time></trkpt><trkpt lat="38.0556783" lon="12.7979083"><ele>492.0</ele><time>2026-04-20T08:22:29.829Z</time></trkpt><trkpt lat="38.0556067" lon="12.7979233"><ele>491.33333333333337</ele><time>2026-04-20T08:22:31.833Z</time></trkpt><trkpt lat="38.05553" lon="12.79794"><ele>490.6666666666667</ele><time>2026-04-20T08:22:33.834Z</time></trkpt><trkpt lat="38.0554267" lon="12.797965"><ele>490.0</ele><time>2026-04-20T08:22:35.832Z</time></trkpt><trkpt lat="38.05533" lon="12.7979917"><ele>490.0</ele><time>2026-04-20T08:22:37.833Z</time></trkpt><trkpt lat="38.0552233" lon="12.7980217"><ele>490.0</ele><time>2026-04-20T08:22:39.832Z</time></trkpt><trkpt lat="38.055125" lon="12.7980583"><ele>490.0</ele><time>2026-04-20T08:22:41.835Z</time></trkpt><trkpt lat="38.0550383" lon="12.798095"><ele>490.0</ele><time>2026-04-20T08:22:43.83Z</time></trkpt><trkpt lat="38.054955" lon="12.7981367"><ele>490.0</ele><time>2026-04-20T08:22:45.832Z</time></trkpt><trkpt lat="38.0548783" lon="12.7981867"><ele>488.6</ele><time>2026-04-20T08:22:47.833Z</time></trkpt><trkpt lat="38.0548017" lon="12.7982333"><ele>487.2</ele><time>2026-04-20T08:22:49.832Z</time></trkpt><trkpt lat="38.0547217" lon="12.798285"><ele>485.79999999999995</ele><time>2026-04-20T08:22:51.83Z</time></trkpt><trkpt lat="38.0546383" lon="12.798335"><ele>484.4</ele><time>2026-04-20T08:22:53.828Z</time></trkpt><trkpt lat="38.0545517" lon="12.7983783"><ele>483.0</ele><time>2026-04-20T08:22:55.835Z</time></trkpt><trkpt lat="38.054465" lon="12.798425"><ele>483.0</ele><time>2026-04-20T08:22:57.833Z</time></trkpt><trkpt lat="38.0543817" lon="12.7984767"><ele>482.99999999999994</ele><time>2026-04-20T08:22:59.833Z</time></trkpt><trkpt lat="38.0542983" lon="12.798535"><ele>482.99999999999994</ele><time>2026-04-20T08:23:01.835Z</time></trkpt><trkpt lat="38.05421" lon="12.79859"><ele>483.0</ele><time>2026-04-20T08:23:03.832Z</time></trkpt><trkpt lat="38.0541183" lon="12.798625"><ele>483.0</ele><time>2026-04-20T08:23:05.831Z</time></trkpt><trkpt lat="38.054025" lon="12.7986467"><ele>483.0</ele><time>2026-04-20T08:23:07.833Z</time></trkpt><trkpt lat="38.0539317" lon="12.7986433"><ele>482.99999999999994</ele><time>2026-04-20T08:23:09.832Z</time></trkpt><trkpt lat="38.05384" lon="12.798625"><ele>482.99999999999994</ele><time>2026-04-20T08:23:11.829Z</time></trkpt><trkpt lat="38.05375" lon="12.7986"><ele>483.0</ele><time>2026-04-20T08:23:13.83Z</time></trkpt><trkpt lat="38.0536583" lon="12.7985733"><ele>483.0</ele><time>2026-04-20T08:23:15.832Z</time></trkpt><trkpt lat="38.0535733" lon="12.798555"><ele>483.0</ele><time>2026-04-20T08:23:17.83Z</time></trkpt><trkpt lat="38.0534883" lon="12.7985533"><ele>483.0</ele><time>2026-04-20T08:23:19.83Z</time></trkpt><trkpt lat="38.0534083" lon="12.7985583"><ele>483.0</ele><time>2026-04-20T08:23:21.836Z</time></trkpt><trkpt lat="38.053335" lon="12.7985717"><ele>483.0</ele><time>2026-04-20T08:23:23.833Z</time></trkpt><trkpt lat="38.0532483" lon="12.7985917"><ele>483.0</ele><time>2026-04-20T08:23:26.831Z</time></trkpt><trkpt lat="38.0531633" lon="12.79862"><ele>483.0</ele><time>2026-04-20T08:23:30.83Z</time></trkpt><trkpt lat="38.0530783" lon="12.798655"><ele>480.0</ele><time>2026-04-20T08:23:33.832Z</time></trkpt><trkpt lat="38.0530167" lon="12.7986917"><ele>477.0</ele><time>2026-04-20T08:23:35.832Z</time></trkpt><trkpt lat="38.0529583" lon="12.7987367"><ele>474.0</ele><time>2026-04-20T08:23:37.833Z</time></trkpt><trkpt lat="38.0529" lon="12.7987967"><ele>471.0</ele><time>2026-04-20T08:23:39.834Z</time></trkpt><trkpt lat="38.05285" lon="12.7988583"><ele>468.0</ele><time>2026-04-20T08:23:41.834Z</time></trkpt><trkpt lat="38.0527883" lon="12.7989383"><ele>465.0</ele><time>2026-04-20T08:23:44.831Z</time></trkpt><trkpt lat="38.0527483" lon="12.7990017"><ele>462.0</ele><time>2026-04-20T08:23:47.837Z</time></trkpt><trkpt lat="38.0525467" lon="12.7990283"><ele>462.0</ele><time>2026-04-20T08:24:08.836Z</time></trkpt><trkpt lat="38.0525233" lon="12.7991067"><ele>462.0</ele><time>2026-04-20T08:24:38.831Z</time></trkpt><trkpt lat="38.052495" lon="12.7992067"><ele>462.0</ele><time>2026-04-20T08:24:41.841Z</time></trkpt><trkpt lat="38.0524533" lon="12.7993117"><ele>462.0</ele><time>2026-04-20T08:24:44.828Z</time></trkpt><trkpt lat="38.0523967" lon="12.799405"><ele>462.0</ele><time>2026-04-20T08:24:46.829Z</time></trkpt><trkpt lat="38.052335" lon="12.799495"><ele>462.0</ele><time>2026-04-20T08:24:48.829Z</time></trkpt><trkpt lat="38.0522633" lon="12.7995917"><ele>459.40000000000003</ele><time>2026-04-20T08:24:50.827Z</time></trkpt><trkpt lat="38.0522017" lon="12.7996917"><ele>456.80000000000007</ele><time>2026-04-20T08:24:52.828Z</time></trkpt><trkpt lat="38.0521317" lon="12.7997983"><ele>454.2</ele><time>2026-04-20T08:24:54.828Z</time></trkpt><trkpt lat="38.052045" lon="12.79991"><ele>451.6</ele><time>2026-04-20T08:24:56.831Z</time></trkpt><trkpt lat="38.0519917" lon="12.7999767"><ele>449.0</ele><time>2026-04-20T08:24:57.829Z</time></trkpt><trkpt lat="38.05194" lon="12.8000417"><ele>449.0</ele><time>2026-04-20T08:24:58.828Z</time></trkpt><trkpt lat="38.0518517" lon="12.8001483"><ele>449.0</ele><time>2026-04-20T08:25:00.83Z</time></trkpt><trkpt lat="38.0517783" lon="12.8002333"><ele>449.0</ele><time>2026-04-20T08:25:02.829Z</time></trkpt><trkpt lat="38.0517133" lon="12.8003083"><ele>449.0</ele><time>2026-04-20T08:25:04.831Z</time></trkpt><trkpt lat="38.051655" lon="12.8003817"><ele>449.0</ele><time>2026-04-20T08:25:06.831Z</time></trkpt><trkpt lat="38.05159" lon="12.8004483"><ele>447.99999999999994</ele><time>2026-04-20T08:25:08.828Z</time></trkpt><trkpt lat="38.0515217" lon="12.8005317"><ele>447.0</ele><time>2026-04-20T08:25:10.828Z</time></trkpt><trkpt lat="38.0514633" lon="12.8006117"><ele>446.0</ele><time>2026-04-20T08:25:12.829Z</time></trkpt><trkpt lat="38.0514117" lon="12.8006983"><ele>445.0</ele><time>2026-04-20T08:25:14.832Z</time></trkpt><trkpt lat="38.0513517" lon="12.8007833"><ele>443.99999999999994</ele><time>2026-04-20T08:25:16.828Z</time></trkpt><trkpt lat="38.0512917" lon="12.8008667"><ele>443.0</ele><time>2026-04-20T08:25:18.828Z</time></trkpt><trkpt lat="38.0512167" lon="12.8009467"><ele>447.4</ele><time>2026-04-20T08:25:20.83Z</time></trkpt><trkpt lat="38.051145" lon="12.8010333"><ele>451.79999999999995</ele><time>2026-04-20T08:25:22.833Z</time></trkpt><trkpt lat="38.0510767" lon="12.8010967"><ele>456.2</ele><time>2026-04-20T08:25:24.836Z</time></trkpt><trkpt lat="38.050985" lon="12.801135"><ele>460.6</ele><time>2026-04-20T08:25:26.834Z</time></trkpt><trkpt lat="38.0509217" lon="12.8012183"><ele>465.0</ele><time>2026-04-20T08:25:28.833Z</time></trkpt><trkpt lat="38.05083" lon="12.8012683"><ele>457.2</ele><time>2026-04-20T08:25:30.833Z</time></trkpt><trkpt lat="38.0507283" lon="12.8012817"><ele>449.4</ele><time>2026-04-20T08:25:32.837Z</time></trkpt><trkpt lat="38.0506267" lon="12.8012583"><ele>441.6</ele><time>2026-04-20T08:25:34.832Z</time></trkpt><trkpt lat="38.0505317" lon="12.8012067"><ele>433.8</ele><time>2026-04-20T08:25:36.833Z</time></trkpt><trkpt lat="38.0504433" lon="12.8011517"><ele>426.0</ele><time>2026-04-20T08:25:38.83Z</time></trkpt><trkpt lat="38.0503783" lon="12.8010783"><ele>424.3333333333333</ele><time>2026-04-20T08:25:40.832Z</time></trkpt><trkpt lat="38.0503367" lon="12.800995"><ele>422.66666666666663</ele><time>2026-04-20T08:25:42.834Z</time></trkpt><trkpt lat="38.0503067" lon="12.8008967"><ele>421.0</ele><time>2026-04-20T08:25:44.832Z</time></trkpt><trkpt lat="38.0503" lon="12.8007933"><ele>419.3333333333333</ele><time>2026-04-20T08:25:46.829Z</time></trkpt><trkpt lat="38.0503033" lon="12.8006983"><ele>417.66666666666663</ele><time>2026-04-20T08:25:48.838Z</time></trkpt><trkpt lat="38.0503217" lon="12.8005933"><ele>416.0</ele><time>2026-04-20T08:25:50.834Z</time></trkpt><trkpt lat="38.0503533" lon="12.8004867"><ele>416.0</ele><time>2026-04-20T08:25:52.835Z</time></trkpt><trkpt lat="38.0503917" lon="12.800365"><ele>416.0</ele><time>2026-04-20T08:25:54.832Z</time></trkpt><trkpt lat="38.0504267" lon="12.8002417"><ele>416.0</ele><time>2026-04-20T08:25:56.832Z</time></trkpt><trkpt lat="38.0504717" lon="12.8001067"><ele>416.0</ele><time>2026-04-20T08:25:58.829Z</time></trkpt><trkpt lat="38.0505217" lon="12.7999467"><ele>414.49999999999994</ele><time>2026-04-20T08:26:00.829Z</time></trkpt><trkpt lat="38.0505517" lon="12.799855"><ele>413.0</ele><time>2026-04-20T08:26:01.83Z</time></trkpt><trkpt lat="38.0505733" lon="12.7997667"><ele>411.5</ele><time>2026-04-20T08:26:02.828Z</time></trkpt><trkpt lat="38.05059" lon="12.799685"><ele>410.0</ele><time>2026-04-20T08:26:03.83Z</time></trkpt><trkpt lat="38.0506033" lon="12.7996067"><ele>408.49999999999994</ele><time>2026-04-20T08:26:04.829Z</time></trkpt><trkpt lat="38.0506283" lon="12.7994683"><ele>407.0</ele><time>2026-04-20T08:26:06.828Z</time></trkpt><trkpt lat="38.0506433" lon="12.7993083"><ele>405.99999999999994</ele><time>2026-04-20T08:26:08.828Z</time></trkpt><trkpt lat="38.0506483" lon="12.799225"><ele>405.0</ele><time>2026-04-20T08:26:09.827Z</time></trkpt><trkpt lat="38.0506683" lon="12.7990683"><ele>404.0</ele><time>2026-04-20T08:26:11.828Z</time></trkpt><trkpt lat="38.0506783" lon="12.798985"><ele>403.0</ele><time>2026-04-20T08:26:12.827Z</time></trkpt><trkpt lat="38.0507017" lon="12.7988317"><ele>401.99999999999994</ele><time>2026-04-20T08:26:14.83Z</time></trkpt><trkpt lat="38.0507083" lon="12.7987483"><ele>401.0</ele><time>2026-04-20T08:26:15.826Z</time></trkpt><trkpt lat="38.0507117" lon="12.7986633"><ele>401.0</ele><time>2026-04-20T08:26:16.828Z</time></trkpt><trkpt lat="38.050715" lon="12.7985783"><ele>401.0</ele><time>2026-04-20T08:26:17.829Z</time></trkpt><trkpt lat="38.0507117" lon="12.7984867"><ele>401.0</ele><time>2026-04-20T08:26:18.829Z</time></trkpt><trkpt lat="38.0507033" lon="12.7983933"><ele>401.0</ele><time>2026-04-20T08:26:19.831Z</time></trkpt><trkpt lat="38.0506883" lon="12.7983033"><ele>401.0</ele><time>2026-04-20T08:26:20.83Z</time></trkpt><trkpt lat="38.0506733" lon="12.79822"><ele>401.0</ele><time>2026-04-20T08:26:21.829Z</time></trkpt><trkpt lat="38.0506567" lon="12.7981417"><ele>401.0</ele><time>2026-04-20T08:26:22.83Z</time></trkpt><trkpt lat="38.05064" lon="12.7980617"><ele>400.8333333333333</ele><time>2026-04-20T08:26:23.828Z</time></trkpt><trkpt lat="38.05062" lon="12.79798"><ele>400.66666666666663</ele><time>2026-04-20T08:26:24.829Z</time></trkpt><trkpt lat="38.0505933" lon="12.7979"><ele>400.5</ele><time>2026-04-20T08:26:25.83Z</time></trkpt><trkpt lat="38.0505333" lon="12.7977733"><ele>400.33333333333337</ele><time>2026-04-20T08:26:27.83Z</time></trkpt><trkpt lat="38.05049" lon="12.797715"><ele>400.1666666666667</ele><time>2026-04-20T08:26:28.827Z</time></trkpt><trkpt lat="38.05044" lon="12.7976533"><ele>400.0</ele><time>2026-04-20T08:26:29.829Z</time></trkpt><trkpt lat="38.0503883" lon="12.7976"><ele>400.4</ele><time>2026-04-20T08:26:30.828Z</time></trkpt><trkpt lat="38.050285" lon="12.7975067"><ele>400.8</ele><time>2026-04-20T08:26:32.83Z</time></trkpt><trkpt lat="38.050225" lon="12.7974633"><ele>401.20000000000005</ele><time>2026-04-20T08:26:33.829Z</time></trkpt><trkpt lat="38.0501667" lon="12.7974283"><ele>401.6</ele><time>2026-04-20T08:26:34.828Z</time></trkpt><trkpt lat="38.0500667" lon="12.7973733"><ele>402.0</ele><time>2026-04-20T08:26:36.832Z</time></trkpt><trkpt lat="38.0499783" lon="12.79732"><ele>400.1666666666667</ele><time>2026-04-20T08:26:38.831Z</time></trkpt><trkpt lat="38.0498583" lon="12.7972433"><ele>398.33333333333337</ele><time>2026-04-20T08:26:40.832Z</time></trkpt><trkpt lat="38.049795" lon="12.7972033"><ele>396.5</ele><time>2026-04-20T08:26:41.831Z</time></trkpt><trkpt lat="38.04973" lon="12.7971617"><ele>394.6666666666667</ele><time>2026-04-20T08:26:42.832Z</time></trkpt><trkpt lat="38.0496667" lon="12.7971217"><ele>392.83333333333337</ele><time>2026-04-20T08:26:43.832Z</time></trkpt><trkpt lat="38.049605" lon="12.797085"><ele>391.0</ele><time>2026-04-20T08:26:44.833Z</time></trkpt><trkpt lat="38.0495417" lon="12.7970517"><ele>391.0</ele><time>2026-04-20T08:26:45.834Z</time></trkpt><trkpt lat="38.0494317" lon="12.7969967"><ele>391.0</ele><time>2026-04-20T08:26:47.832Z</time></trkpt><trkpt lat="38.049325" lon="12.796945"><ele>391.0</ele><time>2026-04-20T08:26:49.834Z</time></trkpt><trkpt lat="38.049215" lon="12.79689"><ele>391.0</ele><time>2026-04-20T08:26:51.83Z</time></trkpt><trkpt lat="38.049115" lon="12.7968317"><ele>389.6</ele><time>2026-04-20T08:26:53.835Z</time></trkpt><trkpt lat="38.0490233" lon="12.796765"><ele>388.20000000000005</ele><time>2026-04-20T08:26:55.832Z</time></trkpt><trkpt lat="38.048925" lon="12.7966867"><ele>386.79999999999995</ele><time>2026-04-20T08:26:57.83Z</time></trkpt><trkpt lat="38.0488733" lon="12.79664"><ele>385.4</ele><time>2026-04-20T08:26:58.83Z</time></trkpt><trkpt lat="38.048775" lon="12.7965517"><ele>384.0</ele><time>2026-04-20T08:27:00.83Z</time></trkpt><trkpt lat="38.0486833" lon="12.796485"><ele>384.0</ele><time>2026-04-20T08:27:02.831Z</time></trkpt><trkpt lat="38.048595" lon="12.79643"><ele>384.0</ele><time>2026-04-20T08:27:04.83Z</time></trkpt><trkpt lat="38.0485167" lon="12.79637"><ele>384.0</ele><time>2026-04-20T08:27:06.832Z</time></trkpt><trkpt lat="38.0484283" lon="12.7963233"><ele>384.0</ele><time>2026-04-20T08:27:08.829Z</time></trkpt><trkpt lat="38.0483433" lon="12.7963183"><ele>384.0</ele><time>2026-04-20T08:27:10.832Z</time></trkpt><trkpt lat="38.0482633" lon="12.796335"><ele>382.5</ele><time>2026-04-20T08:27:12.831Z</time></trkpt><trkpt lat="38.048165" lon="12.7962917"><ele>381.0</ele><time>2026-04-20T08:27:14.834Z</time></trkpt><trkpt lat="38.0481017" lon="12.7962617"><ele>379.5</ele><time>2026-04-20T08:27:15.831Z</time></trkpt><trkpt lat="38.048035" lon="12.79624"><ele>378.0</ele><time>2026-04-20T08:27:16.829Z</time></trkpt><trkpt lat="38.047965" lon="12.7962283"><ele>376.5</ele><time>2026-04-20T08:27:17.83Z</time></trkpt><trkpt lat="38.0478917" lon="12.7962283"><ele>375.0</ele><time>2026-04-20T08:27:18.829Z</time></trkpt><trkpt lat="38.0478217" lon="12.796235"><ele>375.0</ele><time>2026-04-20T08:27:19.832Z</time></trkpt><trkpt lat="38.0477517" lon="12.7962533"><ele>375.0</ele><time>2026-04-20T08:27:20.83Z</time></trkpt><trkpt lat="38.0476867" lon="12.7962783"><ele>375.0</ele><time>2026-04-20T08:27:21.831Z</time></trkpt><trkpt lat="38.047625" lon="12.79631"><ele>375.0</ele><time>2026-04-20T08:27:22.83Z</time></trkpt><trkpt lat="38.0475633" lon="12.7963433"><ele>375.0</ele><time>2026-04-20T08:27:23.831Z</time></trkpt><trkpt lat="38.0475033" lon="12.79638"><ele>375.0</ele><time>2026-04-20T08:27:24.834Z</time></trkpt><trkpt lat="38.04744" lon="12.7964233"><ele>375.0</ele><time>2026-04-20T08:27:25.828Z</time></trkpt><trkpt lat="38.0473783" lon="12.7964733"><ele>373.4</ele><time>2026-04-20T08:27:26.829Z</time></trkpt><trkpt lat="38.0473233" lon="12.7965333"><ele>371.8</ele><time>2026-04-20T08:27:27.832Z</time></trkpt><trkpt lat="38.0472717" lon="12.7965917"><ele>370.20000000000005</ele><time>2026-04-20T08:27:28.829Z</time></trkpt><trkpt lat="38.0471767" lon="12.79669"><ele>368.6</ele><time>2026-04-20T08:27:30.827Z</time></trkpt><trkpt lat="38.0470717" lon="12.79678"><ele>367.0</ele><time>2026-04-20T08:27:32.833Z</time></trkpt><trkpt lat="38.0470117" lon="12.796825"><ele>365.3333333333333</ele><time>2026-04-20T08:27:33.832Z</time></trkpt><trkpt lat="38.046955" lon="12.7968667"><ele>363.66666666666663</ele><time>2026-04-20T08:27:34.831Z</time></trkpt><trkpt lat="38.0468433" lon="12.7969217"><ele>362.0</ele><time>2026-04-20T08:27:36.83Z</time></trkpt><trkpt lat="38.0467833" lon="12.7969467"><ele>360.3333333333333</ele><time>2026-04-20T08:27:37.831Z</time></trkpt><trkpt lat="38.0466617" lon="12.79697"><ele>358.6666666666667</ele><time>2026-04-20T08:27:39.83Z</time></trkpt><trkpt lat="38.0465917" lon="12.796975"><ele>357.0</ele><time>2026-04-20T08:27:40.83Z</time></trkpt><trkpt lat="38.0465183" lon="12.7969667"><ele>355.6666666666667</ele><time>2026-04-20T08:27:41.829Z</time></trkpt><trkpt lat="38.0464417" lon="12.79696"><ele>354.3333333333333</ele><time>2026-04-20T08:27:42.829Z</time></trkpt><trkpt lat="38.0463683" lon="12.7969567"><ele>353.0</ele><time>2026-04-20T08:27:43.828Z</time></trkpt><trkpt lat="38.0462983" lon="12.7969483"><ele>351.66666666666663</ele><time>2026-04-20T08:27:44.831Z</time></trkpt><trkpt lat="38.0462333" lon="12.7969433"><ele>350.3333333333333</ele><time>2026-04-20T08:27:45.831Z</time></trkpt><trkpt lat="38.0461167" lon="12.79694"><ele>349.0</ele><time>2026-04-20T08:27:47.839Z</time></trkpt><trkpt lat="38.046" lon="12.7969117"><ele>349.0</ele><time>2026-04-20T08:27:49.833Z</time></trkpt><trkpt lat="38.0459367" lon="12.79689"><ele>349.0</ele><time>2026-04-20T08:27:50.83Z</time></trkpt><trkpt lat="38.0458667" lon="12.796865"><ele>349.0</ele><time>2026-04-20T08:27:51.831Z</time></trkpt><trkpt lat="38.0457817" lon="12.7968383"><ele>349.0</ele><time>2026-04-20T08:27:52.832Z</time></trkpt><trkpt lat="38.045685" lon="12.7968133"><ele>349.0</ele><time>2026-04-20T08:27:53.83Z</time></trkpt><trkpt lat="38.04559" lon="12.79679"><ele>349.0</ele><time>2026-04-20T08:27:54.831Z</time></trkpt><trkpt lat="38.0455017" lon="12.7967733"><ele>348.8333333333333</ele><time>2026-04-20T08:27:55.831Z</time></trkpt><trkpt lat="38.0454233" lon="12.7967667"><ele>348.66666666666663</ele><time>2026-04-20T08:27:56.83Z</time></trkpt><trkpt lat="38.045345" lon="12.7967583"><ele>348.5</ele><time>2026-04-20T08:27:57.829Z</time></trkpt><trkpt lat="38.045265" lon="12.796745"><ele>348.3333333333333</ele><time>2026-04-20T08:27:58.828Z</time></trkpt><trkpt lat="38.0451917" lon="12.7967267"><ele>348.1666666666667</ele><time>2026-04-20T08:27:59.828Z</time></trkpt><trkpt lat="38.0451283" lon="12.79671"><ele>348.0</ele><time>2026-04-20T08:28:00.832Z</time></trkpt><trkpt lat="38.0450233" lon="12.7966917"><ele>346.8333333333333</ele><time>2026-04-20T08:28:02.83Z</time></trkpt><trkpt lat="38.0449217" lon="12.7967117"><ele>345.6666666666667</ele><time>2026-04-20T08:28:04.831Z</time></trkpt><trkpt lat="38.0448583" lon="12.7967267"><ele>344.5</ele><time>2026-04-20T08:28:05.829Z</time></trkpt><trkpt lat="38.044795" lon="12.796735"><ele>343.33333333333337</ele><time>2026-04-20T08:28:06.827Z</time></trkpt><trkpt lat="38.0447283" lon="12.7967283"><ele>342.1666666666667</ele><time>2026-04-20T08:28:07.832Z</time></trkpt><trkpt lat="38.044655" lon="12.796715"><ele>341.0</ele><time>2026-04-20T08:28:08.828Z</time></trkpt><trkpt lat="38.0445733" lon="12.796705"><ele>341.0</ele><time>2026-04-20T08:28:09.832Z</time></trkpt><trkpt lat="38.044495" lon="12.7967"><ele>341.0</ele><time>2026-04-20T08:28:10.83Z</time></trkpt><trkpt lat="38.044415" lon="12.7967033"><ele>341.0</ele><time>2026-04-20T08:28:11.833Z</time></trkpt><trkpt lat="38.0443267" lon="12.79671"><ele>341.0</ele><time>2026-04-20T08:28:12.832Z</time></trkpt><trkpt lat="38.044235" lon="12.7967167"><ele>341.0</ele><time>2026-04-20T08:28:13.832Z</time></trkpt><trkpt lat="38.0441433" lon="12.7967267"><ele>341.0</ele><time>2026-04-20T08:28:14.832Z</time></trkpt><trkpt lat="38.044055" lon="12.7967417"><ele>341.1666666666667</ele><time>2026-04-20T08:28:15.832Z</time></trkpt><trkpt lat="38.043975" lon="12.7967633"><ele>341.33333333333337</ele><time>2026-04-20T08:28:16.835Z</time></trkpt><trkpt lat="38.0439033" lon="12.7967917"><ele>341.5</ele><time>2026-04-20T08:28:17.832Z</time></trkpt><trkpt lat="38.043835" lon="12.7968233"><ele>341.6666666666667</ele><time>2026-04-20T08:28:18.831Z</time></trkpt><trkpt lat="38.0437633" lon="12.7968583"><ele>341.8333333333333</ele><time>2026-04-20T08:28:19.831Z</time></trkpt><trkpt lat="38.0436767" lon="12.7968983"><ele>342.0</ele><time>2026-04-20T08:28:20.831Z</time></trkpt><trkpt lat="38.0435833" lon="12.7969417"><ele>340.0</ele><time>2026-04-20T08:28:21.831Z</time></trkpt><trkpt lat="38.043495" lon="12.7969783"><ele>338.0</ele><time>2026-04-20T08:28:22.83Z</time></trkpt><trkpt lat="38.0434167" lon="12.7970067"><ele>336.0</ele><time>2026-04-20T08:28:23.829Z</time></trkpt><trkpt lat="38.04335" lon="12.7970317"><ele>334.0</ele><time>2026-04-20T08:28:24.831Z</time></trkpt><trkpt lat="38.04326" lon="12.7970533"><ele>332.0</ele><time>2026-04-20T08:28:26.832Z</time></trkpt><trkpt lat="38.0431783" lon="12.79707"><ele>330.0</ele><time>2026-04-20T08:28:28.833Z</time></trkpt><trkpt lat="38.0430517" lon="12.7971033"><ele>330.0</ele><time>2026-04-20T08:28:30.829Z</time></trkpt><trkpt lat="38.04298" lon="12.7971217"><ele>330.0</ele><time>2026-04-20T08:28:31.829Z</time></trkpt><trkpt lat="38.042905" lon="12.7971417"><ele>330.0</ele><time>2026-04-20T08:28:32.828Z</time></trkpt><trkpt lat="38.042825" lon="12.7971717"><ele>330.0</ele><time>2026-04-20T08:28:33.83Z</time></trkpt><trkpt lat="38.04274" lon="12.7972083"><ele>330.0</ele><time>2026-04-20T08:28:34.83Z</time></trkpt><trkpt lat="38.042635" lon="12.797245"><ele>330.0</ele><time>2026-04-20T08:28:35.83Z</time></trkpt><trkpt lat="38.04251" lon="12.79729"><ele>330.4</ele><time>2026-04-20T08:28:36.83Z</time></trkpt><trkpt lat="38.042385" lon="12.7973383"><ele>330.8</ele><time>2026-04-20T08:28:37.834Z</time></trkpt><trkpt lat="38.0422733" lon="12.7973833"><ele>331.20000000000005</ele><time>2026-04-20T08:28:38.833Z</time></trkpt><trkpt lat="38.042175" lon="12.7974217"><ele>331.6</ele><time>2026-04-20T08:28:39.832Z</time></trkpt><trkpt lat="38.042085" lon="12.7974517"><ele>332.0</ele><time>2026-04-20T08:28:40.829Z</time></trkpt><trkpt lat="38.0419933" lon="12.7974733"><ele>332.0</ele><time>2026-04-20T08:28:41.829Z</time></trkpt><trkpt lat="38.04189" lon="12.7974917"><ele>332.0</ele><time>2026-04-20T08:28:42.831Z</time></trkpt><trkpt lat="38.041775" lon="12.7974983"><ele>332.0</ele><time>2026-04-20T08:28:43.829Z</time></trkpt><trkpt lat="38.0416617" lon="12.7974933"><ele>332.0</ele><time>2026-04-20T08:28:44.83Z</time></trkpt><trkpt lat="38.0415583" lon="12.79748"><ele>332.0</ele><time>2026-04-20T08:28:45.83Z</time></trkpt><trkpt lat="38.04146" lon="12.797465"><ele>330.20000000000005</ele><time>2026-04-20T08:28:46.831Z</time></trkpt><trkpt lat="38.0413667" lon="12.797455"><ele>328.4</ele><time>2026-04-20T08:28:47.836Z</time></trkpt><trkpt lat="38.041275" lon="12.7974467"><ele>326.6</ele><time>2026-04-20T08:28:48.83Z</time></trkpt><trkpt lat="38.0411817" lon="12.79743"><ele>324.79999999999995</ele><time>2026-04-20T08:28:49.831Z</time></trkpt><trkpt lat="38.04109" lon="12.797405"><ele>323.0</ele><time>2026-04-20T08:28:50.831Z</time></trkpt><trkpt lat="38.0409967" lon="12.7973683"><ele>323.0</ele><time>2026-04-20T08:28:51.834Z</time></trkpt><trkpt lat="38.0408933" lon="12.797325"><ele>323.0</ele><time>2026-04-20T08:28:52.832Z</time></trkpt><trkpt lat="38.040785" lon="12.7972867"><ele>323.0</ele><time>2026-04-20T08:28:53.827Z</time></trkpt><trkpt lat="38.0406833" lon="12.7972517"><ele>323.0</ele><time>2026-04-20T08:28:54.83Z</time></trkpt><trkpt lat="38.04058" lon="12.79722"><ele>323.0</ele><time>2026-04-20T08:28:55.829Z</time></trkpt><trkpt lat="38.040475" lon="12.7971883"><ele>321.4</ele><time>2026-04-20T08:28:56.834Z</time></trkpt><trkpt lat="38.04037" lon="12.7971583"><ele>319.79999999999995</ele><time>2026-04-20T08:28:57.83Z</time></trkpt><trkpt lat="38.0402717" lon="12.7971233"><ele>318.2</ele><time>2026-04-20T08:28:58.828Z</time></trkpt><trkpt lat="38.040195" lon="12.7970933"><ele>316.6</ele><time>2026-04-20T08:28:59.828Z</time></trkpt><trkpt lat="38.0401267" lon="12.7970783"><ele>315.0</ele><time>2026-04-20T08:29:00.827Z</time></trkpt><trkpt lat="38.0400217" lon="12.7970567"><ele>313.6</ele><time>2026-04-20T08:29:02.834Z</time></trkpt><trkpt lat="38.0399433" lon="12.7970433"><ele>312.2</ele><time>2026-04-20T08:29:04.829Z</time></trkpt><trkpt lat="38.0398083" lon="12.7970183"><ele>310.8</ele><time>2026-04-20T08:29:06.828Z</time></trkpt><trkpt lat="38.039715" lon="12.796995"><ele>309.4</ele><time>2026-04-20T08:29:07.83Z</time></trkpt><trkpt lat="38.0396283" lon="12.796975"><ele>308.0</ele><time>2026-04-20T08:29:08.829Z</time></trkpt><trkpt lat="38.0395517" lon="12.7969567"><ele>308.0</ele><time>2026-04-20T08:29:09.83Z</time></trkpt><trkpt lat="38.03949" lon="12.796935"><ele>308.0</ele><time>2026-04-20T08:29:10.828Z</time></trkpt><trkpt lat="38.039395" lon="12.7968967"><ele>308.0</ele><time>2026-04-20T08:29:12.831Z</time></trkpt><trkpt lat="38.0393067" lon="12.79685"><ele>308.0</ele><time>2026-04-20T08:29:14.834Z</time></trkpt><trkpt lat="38.0391967" lon="12.7968167"><ele>308.0</ele><time>2026-04-20T08:29:16.832Z</time></trkpt><trkpt lat="38.0390883" lon="12.7968033"><ele>307.2</ele><time>2026-04-20T08:29:18.833Z</time></trkpt><trkpt lat="38.038995" lon="12.7967967"><ele>306.4</ele><time>2026-04-20T08:29:20.84Z</time></trkpt><trkpt lat="38.0388767" lon="12.7967467"><ele>305.59999999999997</ele><time>2026-04-20T08:29:22.833Z</time></trkpt><trkpt lat="38.0387583" lon="12.7967"><ele>304.8</ele><time>2026-04-20T08:29:24.832Z</time></trkpt><trkpt lat="38.0386567" lon="12.796675"><ele>304.0</ele><time>2026-04-20T08:29:26.831Z</time></trkpt><trkpt lat="38.03858" lon="12.7966617"><ele>304.0</ele><time>2026-04-20T08:29:28.831Z</time></trkpt><trkpt lat="38.0385133" lon="12.7966467"><ele>304.0</ele><time>2026-04-20T08:29:30.83Z</time></trkpt><trkpt lat="38.0384183" lon="12.7966267"><ele>304.0</ele><time>2026-04-20T08:29:32.829Z</time></trkpt><trkpt lat="38.0383117" lon="12.7966067"><ele>304.0</ele><time>2026-04-20T08:29:34.832Z</time></trkpt><trkpt lat="38.03825" lon="12.796585"><ele>304.0</ele><time>2026-04-20T08:29:35.834Z</time></trkpt><trkpt lat="38.0381833" lon="12.7965633"><ele>304.0</ele><time>2026-04-20T08:29:36.83Z</time></trkpt><trkpt lat="38.0381217" lon="12.79654"><ele>302.16666666666663</ele><time>2026-04-20T08:29:37.833Z</time></trkpt><trkpt lat="38.0380133" lon="12.796485"><ele>300.3333333333333</ele><time>2026-04-20T08:29:39.832Z</time></trkpt><trkpt lat="38.0379" lon="12.7964283"><ele>298.5</ele><time>2026-04-20T08:29:41.833Z</time></trkpt><trkpt lat="38.0378383" lon="12.7963983"><ele>296.6666666666667</ele><time>2026-04-20T08:29:42.83Z</time></trkpt><trkpt lat="38.0377733" lon="12.7963733"><ele>294.83333333333337</ele><time>2026-04-20T08:29:43.833Z</time></trkpt><trkpt lat="38.037705" lon="12.7963517"><ele>293.0</ele><time>2026-04-20T08:29:44.833Z</time></trkpt><trkpt lat="38.0376417" lon="12.7963317"><ele>293.0</ele><time>2026-04-20T08:29:45.829Z</time></trkpt><trkpt lat="38.0375217" lon="12.7962983"><ele>293.0</ele><time>2026-04-20T08:29:47.833Z</time></trkpt><trkpt lat="38.0374067" lon="12.7962667"><ele>293.0</ele><time>2026-04-20T08:29:49.832Z</time></trkpt><trkpt lat="38.037295" lon="12.7962433"><ele>293.0</ele><time>2026-04-20T08:29:51.832Z</time></trkpt><trkpt lat="38.0371883" lon="12.7962183"><ele>292.0</ele><time>2026-04-20T08:29:53.831Z</time></trkpt><trkpt lat="38.0370767" lon="12.79619"><ele>291.0</ele><time>2026-04-20T08:29:55.829Z</time></trkpt><trkpt lat="38.0369583" lon="12.7961817"><ele>290.0</ele><time>2026-04-20T08:29:57.832Z</time></trkpt><trkpt lat="38.036865" lon="12.79618"><ele>289.0</ele><time>2026-04-20T08:29:59.831Z</time></trkpt><trkpt lat="38.0369767" lon="12.7962083"><ele>288.0</ele><time>2026-04-20T08:30:32.828Z</time></trkpt><trkpt lat="38.0370233" lon="12.796145"><ele>288.0</ele><time>2026-04-20T08:31:32.83Z</time></trkpt><trkpt lat="38.0371083" lon="12.796125"><ele>288.0</ele><time>2026-04-20T08:31:34.831Z</time></trkpt><trkpt lat="38.03717" lon="12.7960683"><ele>288.0</ele><time>2026-04-20T08:31:41.828Z</time></trkpt><trkpt lat="38.03721" lon="12.7959017"><ele>288.0</ele><time>2026-04-20T08:31:43.831Z</time></trkpt><trkpt lat="38.0372233" lon="12.7957833"><ele>288.0</ele><time>2026-04-20T08:31:44.832Z</time></trkpt><trkpt lat="38.0372267" lon="12.7956467"><ele>288.25</ele><time>2026-04-20T08:31:45.836Z</time></trkpt><trkpt lat="38.03721" lon="12.7954917"><ele>288.5</ele><time>2026-04-20T08:31:46.834Z</time></trkpt><trkpt lat="38.037175" lon="12.7953217"><ele>288.75</ele><time>2026-04-20T08:31:47.834Z</time></trkpt><trkpt lat="38.03712" lon="12.79514"><ele>289.0</ele><time>2026-04-20T08:31:48.833Z</time></trkpt><trkpt lat="38.03707" lon="12.7949533"><ele>287.0</ele><time>2026-04-20T08:31:49.832Z</time></trkpt><trkpt lat="38.037015" lon="12.7947483"><ele>285.0</ele><time>2026-04-20T08:31:50.829Z</time></trkpt><trkpt lat="38.03696" lon="12.7945433"><ele>283.0</ele><time>2026-04-20T08:31:51.83Z</time></trkpt><trkpt lat="38.036905" lon="12.79434"><ele>283.0</ele><time>2026-04-20T08:31:52.831Z</time></trkpt><trkpt lat="38.0368517" lon="12.7941517"><ele>283.0</ele><time>2026-04-20T08:31:53.831Z</time></trkpt><trkpt lat="38.036805" lon="12.7939767"><ele>283.0</ele><time>2026-04-20T08:31:54.831Z</time></trkpt><trkpt lat="38.0367617" lon="12.7938067"><ele>283.0</ele><time>2026-04-20T08:31:55.831Z</time></trkpt><trkpt lat="38.0367183" lon="12.793635"><ele>283.0</ele><time>2026-04-20T08:31:56.832Z</time></trkpt><trkpt lat="38.036675" lon="12.7934767"><ele>283.0</ele><time>2026-04-20T08:31:57.829Z</time></trkpt><trkpt lat="38.0366383" lon="12.7933333"><ele>283.0</ele><time>2026-04-20T08:31:58.83Z</time></trkpt><trkpt lat="38.0366" lon="12.79321"><ele>283.0</ele><time>2026-04-20T08:31:59.832Z</time></trkpt><trkpt lat="38.0365583" lon="12.793095"><ele>279.5</ele><time>2026-04-20T08:32:00.832Z</time></trkpt><trkpt lat="38.0365133" lon="12.7929833"><ele>276.0</ele><time>2026-04-20T08:32:01.831Z</time></trkpt><trkpt lat="38.036455" lon="12.79287"><ele>272.5</ele><time>2026-04-20T08:32:02.832Z</time></trkpt><trkpt lat="38.036385" lon="12.7927517"><ele>269.0</ele><time>2026-04-20T08:32:03.828Z</time></trkpt><trkpt lat="38.0362933" lon="12.792615"><ele>268.75</ele><time>2026-04-20T08:32:04.831Z</time></trkpt><trkpt lat="38.0361867" lon="12.7924717"><ele>268.5</ele><time>2026-04-20T08:32:05.829Z</time></trkpt><trkpt lat="38.0360883" lon="12.7923383"><ele>268.25</ele><time>2026-04-20T08:32:06.827Z</time></trkpt><trkpt lat="38.0359933" lon="12.7922117"><ele>268.0</ele><time>2026-04-20T08:32:07.828Z</time></trkpt><trkpt lat="38.0359067" lon="12.79209"><ele>268.0</ele><time>2026-04-20T08:32:08.831Z</time></trkpt><trkpt lat="38.035825" lon="12.7919617"><ele>268.0</ele><time>2026-04-20T08:32:09.829Z</time></trkpt><trkpt lat="38.035745" lon="12.7918183"><ele>268.0</ele><time>2026-04-20T08:32:10.828Z</time></trkpt><trkpt lat="38.0356633" lon="12.7916617"><ele>268.0</ele><time>2026-04-20T08:32:11.831Z</time></trkpt><trkpt lat="38.035585" lon="12.7914967"><ele>265.0</ele><time>2026-04-20T08:32:12.829Z</time></trkpt><trkpt lat="38.0355117" lon="12.7913367"><ele>262.0</ele><time>2026-04-20T08:32:13.83Z</time></trkpt><trkpt lat="38.0354417" lon="12.79118"><ele>259.0</ele><time>2026-04-20T08:32:14.829Z</time></trkpt><trkpt lat="38.0353833" lon="12.7910333"><ele>256.0</ele><time>2026-04-20T08:32:15.829Z</time></trkpt><trkpt lat="38.0353383" lon="12.7909067"><ele>255.99999999999997</ele><time>2026-04-20T08:32:16.829Z</time></trkpt><trkpt lat="38.0353033" lon="12.7907917"><ele>256.0</ele><time>2026-04-20T08:32:17.829Z</time></trkpt><trkpt lat="38.0352767" lon="12.79068"><ele>256.0</ele><time>2026-04-20T08:32:18.831Z</time></trkpt><trkpt lat="38.035255" lon="12.7905817"><ele>256.0</ele><time>2026-04-20T08:32:19.831Z</time></trkpt><trkpt lat="38.0352433" lon="12.7905"><ele>255.99999999999997</ele><time>2026-04-20T08:32:20.83Z</time></trkpt><trkpt lat="38.0352383" lon="12.790405"><ele>256.0</ele><time>2026-04-20T08:32:22.829Z</time></trkpt><trkpt lat="38.03522" lon="12.7903"><ele>256.0</ele><time>2026-04-20T08:32:28.83Z</time></trkpt><trkpt lat="38.0352083" lon="12.790185"><ele>256.0</ele><time>2026-04-20T08:32:30.831Z</time></trkpt><trkpt lat="38.035195" lon="12.79009"><ele>256.0</ele><time>2026-04-20T08:32:32.833Z</time></trkpt><trkpt lat="38.0351683" lon="12.7899867"><ele>256.0</ele><time>2026-04-20T08:32:34.832Z</time></trkpt><trkpt lat="38.0351" lon="12.7898817"><ele>256.0</ele><time>2026-04-20T08:32:36.828Z</time></trkpt><trkpt lat="38.0349933" lon="12.7898317"><ele>253.16666666666666</ele><time>2026-04-20T08:32:38.831Z</time></trkpt><trkpt lat="38.0349283" lon="12.78983"><ele>250.33333333333331</ele><time>2026-04-20T08:32:39.831Z</time></trkpt><trkpt lat="38.0348633" lon="12.78984"><ele>247.5</ele><time>2026-04-20T08:32:40.826Z</time></trkpt><trkpt lat="38.0347967" lon="12.7898883"><ele>244.66666666666669</ele><time>2026-04-20T08:32:41.829Z</time></trkpt><trkpt lat="38.0347333" lon="12.7899567"><ele>241.83333333333334</ele><time>2026-04-20T08:32:42.833Z</time></trkpt><trkpt lat="38.0346733" lon="12.7900567"><ele>239.0</ele><time>2026-04-20T08:32:43.831Z</time></trkpt><trkpt lat="38.0346167" lon="12.7901917"><ele>238.75</ele><time>2026-04-20T08:32:44.83Z</time></trkpt><trkpt lat="38.0345583" lon="12.7903417"><ele>238.5</ele><time>2026-04-20T08:32:45.828Z</time></trkpt><trkpt lat="38.034495" lon="12.79051"><ele>238.25</ele><time>2026-04-20T08:32:46.831Z</time></trkpt><trkpt lat="38.0344267" lon="12.79069"><ele>238.0</ele><time>2026-04-20T08:32:47.829Z</time></trkpt><trkpt lat="38.034355" lon="12.7908833"><ele>238.33333333333331</ele><time>2026-04-20T08:32:48.828Z</time></trkpt><trkpt lat="38.034285" lon="12.7910817"><ele>238.66666666666669</ele><time>2026-04-20T08:32:49.829Z</time></trkpt><trkpt lat="38.0342167" lon="12.7912817"><ele>239.0</ele><time>2026-04-20T08:32:50.828Z</time></trkpt><trkpt lat="38.03415" lon="12.791485"><ele>237.0</ele><time>2026-04-20T08:32:51.826Z</time></trkpt><trkpt lat="38.03408" lon="12.7916883"><ele>235.0</ele><time>2026-04-20T08:32:52.828Z</time></trkpt><trkpt lat="38.034015" lon="12.79189"><ele>233.0</ele><time>2026-04-20T08:32:53.827Z</time></trkpt><trkpt lat="38.0339483" lon="12.7920667"><ele>233.0</ele><time>2026-04-20T08:32:54.83Z</time></trkpt><trkpt lat="38.0338933" lon="12.7922367"><ele>233.0</ele><time>2026-04-20T08:32:55.828Z</time></trkpt><trkpt lat="38.0338383" lon="12.792385"><ele>233.0</ele><time>2026-04-20T08:32:56.835Z</time></trkpt><trkpt lat="38.033785" lon="12.79252"><ele>233.0</ele><time>2026-04-20T08:32:57.828Z</time></trkpt><trkpt lat="38.0337367" lon="12.792645"><ele>234.00000000000003</ele><time>2026-04-20T08:32:58.826Z</time></trkpt><trkpt lat="38.03369" lon="12.792755"><ele>235.0</ele><time>2026-04-20T08:32:59.832Z</time></trkpt><trkpt lat="38.0336317" lon="12.792835"><ele>236.0</ele><time>2026-04-20T08:33:00.831Z</time></trkpt><trkpt lat="38.033565" lon="12.7928917"><ele>237.0</ele><time>2026-04-20T08:33:01.831Z</time></trkpt><trkpt lat="38.0334917" lon="12.7929283"><ele>238.00000000000003</ele><time>2026-04-20T08:33:02.827Z</time></trkpt><trkpt lat="38.0334217" lon="12.7929367"><ele>239.0</ele><time>2026-04-20T08:33:03.828Z</time></trkpt><trkpt lat="38.0333483" lon="12.79291"><ele>239.39999999999998</ele><time>2026-04-20T08:33:04.829Z</time></trkpt><trkpt lat="38.03328" lon="12.7928483"><ele>239.79999999999998</ele><time>2026-04-20T08:33:05.833Z</time></trkpt><trkpt lat="38.0332283" lon="12.7927583"><ele>240.20000000000002</ele><time>2026-04-20T08:33:06.83Z</time></trkpt><trkpt lat="38.03319" lon="12.7926367"><ele>240.60000000000002</ele><time>2026-04-20T08:33:07.833Z</time></trkpt><trkpt lat="38.0331667" lon="12.7924783"><ele>241.0</ele><time>2026-04-20T08:33:08.834Z</time></trkpt><trkpt lat="38.0331467" lon="12.79229"><ele>238.0</ele><time>2026-04-20T08:33:09.83Z</time></trkpt><trkpt lat="38.0331083" lon="12.7920817"><ele>235.0</ele><time>2026-04-20T08:33:10.827Z</time></trkpt><trkpt lat="38.0330467" lon="12.791845"><ele>232.0</ele><time>2026-04-20T08:33:11.831Z</time></trkpt><trkpt lat="38.0329667" lon="12.7916"><ele>228.66666666666666</ele><time>2026-04-20T08:33:12.832Z</time></trkpt><trkpt lat="38.0328917" lon="12.7913817"><ele>225.33333333333331</ele><time>2026-04-20T08:33:13.831Z</time></trkpt><trkpt lat="38.032825" lon="12.7911833"><ele>222.0</ele><time>2026-04-20T08:33:14.831Z</time></trkpt><trkpt lat="38.0327633" lon="12.79099"><ele>220.25</ele><time>2026-04-20T08:33:15.829Z</time></trkpt><trkpt lat="38.0327033" lon="12.7908217"><ele>218.5</ele><time>2026-04-20T08:33:16.83Z</time></trkpt><trkpt lat="38.03265" lon="12.7906617"><ele>216.75</ele><time>2026-04-20T08:33:17.829Z</time></trkpt><trkpt lat="38.0326033" lon="12.790505"><ele>215.0</ele><time>2026-04-20T08:33:18.83Z</time></trkpt><trkpt lat="38.032565" lon="12.7903383"><ele>213.33333333333334</ele><time>2026-04-20T08:33:19.829Z</time></trkpt><trkpt lat="38.0325317" lon="12.790155"><ele>211.66666666666669</ele><time>2026-04-20T08:33:20.828Z</time></trkpt><trkpt lat="38.0325" lon="12.7899517"><ele>210.0</ele><time>2026-04-20T08:33:21.83Z</time></trkpt><trkpt lat="38.0324683" lon="12.789735"><ele>206.66666666666669</ele><time>2026-04-20T08:33:22.828Z</time></trkpt><trkpt lat="38.03244" lon="12.7895083"><ele>203.33333333333334</ele><time>2026-04-20T08:33:23.83Z</time></trkpt><trkpt lat="38.0324117" lon="12.7892717"><ele>200.0</ele><time>2026-04-20T08:33:24.832Z</time></trkpt><trkpt lat="38.032385" lon="12.7890333"><ele>199.0</ele><time>2026-04-20T08:33:25.83Z</time></trkpt><trkpt lat="38.0323517" lon="12.7887933"><ele>198.0</ele><time>2026-04-20T08:33:26.832Z</time></trkpt><trkpt lat="38.0323217" lon="12.7885517"><ele>197.0</ele><time>2026-04-20T08:33:27.826Z</time></trkpt><trkpt lat="38.03229" lon="12.7883133"><ele>194.66666666666669</ele><time>2026-04-20T08:33:28.829Z</time></trkpt><trkpt lat="38.0322567" lon="12.78808"><ele>192.33333333333334</ele><time>2026-04-20T08:33:29.831Z</time></trkpt><trkpt lat="38.0322283" lon="12.7878583"><ele>190.0</ele><time>2026-04-20T08:33:30.828Z</time></trkpt><trkpt lat="38.0322017" lon="12.78764"><ele>187.33333333333334</ele><time>2026-04-20T08:33:31.829Z</time></trkpt><trkpt lat="38.0321717" lon="12.7874233"><ele>184.66666666666666</ele><time>2026-04-20T08:33:32.83Z</time></trkpt><trkpt lat="38.0321417" lon="12.7872117"><ele>182.0</ele><time>2026-04-20T08:33:33.83Z</time></trkpt><trkpt lat="38.0321117" lon="12.7870083"><ele>181.33333333333331</ele><time>2026-04-20T08:33:34.827Z</time></trkpt><trkpt lat="38.0320817" lon="12.7868167"><ele>180.66666666666666</ele><time>2026-04-20T08:33:35.83Z</time></trkpt><trkpt lat="38.0320467" lon="12.786625"><ele>180.0</ele><time>2026-04-20T08:33:36.831Z</time></trkpt><trkpt lat="38.03201" lon="12.7864267"><ele>180.0</ele><time>2026-04-20T08:33:37.83Z</time></trkpt><trkpt lat="38.0319733" lon="12.7862233"><ele>180.0</ele><time>2026-04-20T08:33:38.829Z</time></trkpt><trkpt lat="38.0319367" lon="12.7860267"><ele>180.0</ele><time>2026-04-20T08:33:39.828Z</time></trkpt><trkpt lat="38.0319033" lon="12.7858433"><ele>179.0</ele><time>2026-04-20T08:33:40.829Z</time></trkpt><trkpt lat="38.031875" lon="12.785675"><ele>178.0</ele><time>2026-04-20T08:33:41.83Z</time></trkpt><trkpt lat="38.0318483" lon="12.78552"><ele>177.0</ele><time>2026-04-20T08:33:42.831Z</time></trkpt><trkpt lat="38.03181" lon="12.7853733"><ele>176.0</ele><time>2026-04-20T08:33:43.83Z</time></trkpt><trkpt lat="38.0317483" lon="12.785225"><ele>176.25</ele><time>2026-04-20T08:33:44.828Z</time></trkpt><trkpt lat="38.0316733" lon="12.7850883"><ele>176.5</ele><time>2026-04-20T08:33:45.829Z</time></trkpt><trkpt lat="38.0315967" lon="12.7849683"><ele>176.75</ele><time>2026-04-20T08:33:46.828Z</time></trkpt><trkpt lat="38.03153" lon="12.7848617"><ele>177.0</ele><time>2026-04-20T08:33:47.83Z</time></trkpt><trkpt lat="38.0314717" lon="12.784765"><ele>173.6</ele><time>2026-04-20T08:33:48.829Z</time></trkpt><trkpt lat="38.03142" lon="12.784685"><ele>170.2</ele><time>2026-04-20T08:33:49.831Z</time></trkpt><trkpt lat="38.0313617" lon="12.7846367"><ele>166.8</ele><time>2026-04-20T08:33:50.834Z</time></trkpt><trkpt lat="38.0312967" lon="12.784615"><ele>163.4</ele><time>2026-04-20T08:33:51.833Z</time></trkpt><trkpt lat="38.0312233" lon="12.78463"><ele>160.0</ele><time>2026-04-20T08:33:52.831Z</time></trkpt><trkpt lat="38.0310633" lon="12.7847483"><ele>160.0</ele><time>2026-04-20T08:33:54.832Z</time></trkpt><trkpt lat="38.0309717" lon="12.7848433"><ele>160.0</ele><time>2026-04-20T08:33:55.831Z</time></trkpt><trkpt lat="38.0308733" lon="12.7849467"><ele>160.0</ele><time>2026-04-20T08:33:56.832Z</time></trkpt><trkpt lat="38.0307667" lon="12.785055"><ele>160.0</ele><time>2026-04-20T08:33:57.833Z</time></trkpt><trkpt lat="38.03065" lon="12.78517"><ele>157.33333333333334</ele><time>2026-04-20T08:33:58.83Z</time></trkpt><trkpt lat="38.03053" lon="12.785285"><ele>154.66666666666666</ele><time>2026-04-20T08:33:59.83Z</time></trkpt><trkpt lat="38.030415" lon="12.7854083"><ele>152.0</ele><time>2026-04-20T08:34:00.828Z</time></trkpt><trkpt lat="38.0302983" lon="12.7855417"><ele>152.0</ele><time>2026-04-20T08:34:01.836Z</time></trkpt><trkpt lat="38.0301867" lon="12.7856867"><ele>152.0</ele><time>2026-04-20T08:34:02.828Z</time></trkpt><trkpt lat="38.0300833" lon="12.7858283"><ele>152.0</ele><time>2026-04-20T08:34:03.829Z</time></trkpt><trkpt lat="38.02998" lon="12.785965"><ele>149.0</ele><time>2026-04-20T08:34:04.832Z</time></trkpt><trkpt lat="38.029875" lon="12.7861033"><ele>146.0</ele><time>2026-04-20T08:34:05.829Z</time></trkpt><trkpt lat="38.0297767" lon="12.7862517"><ele>143.0</ele><time>2026-04-20T08:34:06.829Z</time></trkpt><trkpt lat="38.0296833" lon="12.7864"><ele>143.0</ele><time>2026-04-20T08:34:07.831Z</time></trkpt><trkpt lat="38.0296" lon="12.7865517"><ele>143.0</ele><time>2026-04-20T08:34:08.829Z</time></trkpt><trkpt lat="38.0295217" lon="12.7867033"><ele>143.0</ele><time>2026-04-20T08:34:09.827Z</time></trkpt><trkpt lat="38.0294517" lon="12.7868417"><ele>143.0</ele><time>2026-04-20T08:34:10.835Z</time></trkpt><trkpt lat="38.0293833" lon="12.786965"><ele>143.0</ele><time>2026-04-20T08:34:11.831Z</time></trkpt><trkpt lat="38.02931" lon="12.787065"><ele>143.0</ele><time>2026-04-20T08:34:12.838Z</time></trkpt><trkpt lat="38.02923" lon="12.787135"><ele>143.0</ele><time>2026-04-20T08:34:13.83Z</time></trkpt><trkpt lat="38.0291517" lon="12.7871883"><ele>143.0</ele><time>2026-04-20T08:34:14.834Z</time></trkpt><trkpt lat="38.0290683" lon="12.78723"><ele>143.0</ele><time>2026-04-20T08:34:15.83Z</time></trkpt><trkpt lat="38.0289817" lon="12.78726"><ele>143.8</ele><time>2026-04-20T08:34:16.831Z</time></trkpt><trkpt lat="38.0288983" lon="12.7872817"><ele>144.60000000000002</ele><time>2026-04-20T08:34:17.831Z</time></trkpt><trkpt lat="38.0288217" lon="12.7872917"><ele>145.39999999999998</ele><time>2026-04-20T08:34:18.829Z</time></trkpt><trkpt lat="38.028755" lon="12.7872917"><ele>146.2</ele><time>2026-04-20T08:34:19.831Z</time></trkpt><trkpt lat="38.0286467" lon="12.7872483"><ele>147.0</ele><time>2026-04-20T08:34:21.828Z</time></trkpt><trkpt lat="38.0285567" lon="12.78713"><ele>147.0</ele><time>2026-04-20T08:34:23.828Z</time></trkpt><trkpt lat="38.0285083" lon="12.7870267"><ele>147.0</ele><time>2026-04-20T08:34:24.828Z</time></trkpt><trkpt lat="38.0284633" lon="12.7869083"><ele>147.0</ele><time>2026-04-20T08:34:25.83Z</time></trkpt><trkpt lat="38.02841" lon="12.7867983"><ele>147.0</ele><time>2026-04-20T08:34:26.83Z</time></trkpt><trkpt lat="38.0283417" lon="12.7867033"><ele>147.0</ele><time>2026-04-20T08:34:27.83Z</time></trkpt><trkpt lat="38.028255" lon="12.7866217"><ele>148.16666666666666</ele><time>2026-04-20T08:34:28.829Z</time></trkpt><trkpt lat="38.0281667" lon="12.7865583"><ele>149.33333333333334</ele><time>2026-04-20T08:34:29.831Z</time></trkpt><trkpt lat="38.0280867" lon="12.786525"><ele>150.5</ele><time>2026-04-20T08:34:30.83Z</time></trkpt><trkpt lat="38.02801" lon="12.7865233"><ele>151.66666666666669</ele><time>2026-04-20T08:34:31.831Z</time></trkpt><trkpt lat="38.02794" lon="12.7865483"><ele>152.83333333333334</ele><time>2026-04-20T08:34:32.831Z</time></trkpt><trkpt lat="38.027885" lon="12.7866233"><ele>154.0</ele><time>2026-04-20T08:34:33.833Z</time></trkpt><trkpt lat="38.0278533" lon="12.7867433"><ele>157.33333333333334</ele><time>2026-04-20T08:34:34.831Z</time></trkpt><trkpt lat="38.0278383" lon="12.786915"><ele>160.66666666666666</ele><time>2026-04-20T08:34:35.832Z</time></trkpt><trkpt lat="38.02783" lon="12.78712"><ele>164.0</ele><time>2026-04-20T08:34:36.83Z</time></trkpt><trkpt lat="38.027815" lon="12.7873483"><ele>164.0</ele><time>2026-04-20T08:34:37.831Z</time></trkpt><trkpt lat="38.0277983" lon="12.7876033"><ele>164.0</ele><time>2026-04-20T08:34:38.832Z</time></trkpt><trkpt lat="38.0277867" lon="12.78785"><ele>164.0</ele><time>2026-04-20T08:34:39.833Z</time></trkpt><trkpt lat="38.027775" lon="12.7880683"><ele>165.0</ele><time>2026-04-20T08:34:40.83Z</time></trkpt><trkpt lat="38.0277633" lon="12.7882617"><ele>166.0</ele><time>2026-04-20T08:34:41.83Z</time></trkpt><trkpt lat="38.027755" lon="12.7884317"><ele>167.0</ele><time>2026-04-20T08:34:42.83Z</time></trkpt><trkpt lat="38.027745" lon="12.7885733"><ele>168.0</ele><time>2026-04-20T08:34:43.829Z</time></trkpt><trkpt lat="38.0277267" lon="12.788685"><ele>168.71428571428572</ele><time>2026-04-20T08:34:44.827Z</time></trkpt><trkpt lat="38.0276983" lon="12.7887733"><ele>169.42857142857144</ele><time>2026-04-20T08:34:45.828Z</time></trkpt><trkpt lat="38.0276483" lon="12.7888367"><ele>170.14285714285714</ele><time>2026-04-20T08:34:46.831Z</time></trkpt><trkpt lat="38.0275817" lon="12.78888"><ele>170.85714285714286</ele><time>2026-04-20T08:34:47.831Z</time></trkpt><trkpt lat="38.0275117" lon="12.7889033"><ele>171.57142857142858</ele><time>2026-04-20T08:34:48.833Z</time></trkpt><trkpt lat="38.0274483" lon="12.7888617"><ele>172.28571428571428</ele><time>2026-04-20T08:34:49.83Z</time></trkpt><trkpt lat="38.0274017" lon="12.78879"><ele>173.0</ele><time>2026-04-20T08:34:50.831Z</time></trkpt><trkpt lat="38.0273783" lon="12.7886867"><ele>175.5</ele><time>2026-04-20T08:34:51.833Z</time></trkpt><trkpt lat="38.0273717" lon="12.7885417"><ele>178.0</ele><time>2026-04-20T08:34:52.828Z</time></trkpt><trkpt lat="38.0273767" lon="12.788355"><ele>180.5</ele><time>2026-04-20T08:34:53.833Z</time></trkpt><trkpt lat="38.0273733" lon="12.7881733"><ele>183.0</ele><time>2026-04-20T08:34:54.832Z</time></trkpt><trkpt lat="38.02736" lon="12.7880133"><ele>183.0</ele><time>2026-04-20T08:34:55.828Z</time></trkpt><trkpt lat="38.02733" lon="12.7878783"><ele>183.0</ele><time>2026-04-20T08:34:56.834Z</time></trkpt><trkpt lat="38.0272867" lon="12.787755"><ele>183.0</ele><time>2026-04-20T08:34:57.831Z</time></trkpt><trkpt lat="38.0272333" lon="12.787655"><ele>183.0</ele><time>2026-04-20T08:34:58.834Z</time></trkpt><trkpt lat="38.027165" lon="12.7875767"><ele>183.0</ele><time>2026-04-20T08:34:59.835Z</time></trkpt><trkpt lat="38.0270817" lon="12.7875233"><ele>180.0</ele><time>2026-04-20T08:35:00.833Z</time></trkpt><trkpt lat="38.02699" lon="12.7875017"><ele>177.0</ele><time>2026-04-20T08:35:01.829Z</time></trkpt><trkpt lat="38.0268783" lon="12.787515"><ele>174.0</ele><time>2026-04-20T08:35:02.833Z</time></trkpt><trkpt lat="38.02675" lon="12.787555"><ele>171.0</ele><time>2026-04-20T08:35:03.829Z</time></trkpt><trkpt lat="38.0266217" lon="12.7876083"><ele>172.5</ele><time>2026-04-20T08:35:04.831Z</time></trkpt><trkpt lat="38.0265" lon="12.7876783"><ele>174.0</ele><time>2026-04-20T08:35:05.831Z</time></trkpt><trkpt lat="38.026395" lon="12.787765"><ele>175.5</ele><time>2026-04-20T08:35:06.831Z</time></trkpt><trkpt lat="38.0263017" lon="12.7878817"><ele>177.0</ele><time>2026-04-20T08:35:07.828Z</time></trkpt><trkpt lat="38.0262167" lon="12.7880283"><ele>177.0</ele><time>2026-04-20T08:35:08.833Z</time></trkpt><trkpt lat="38.0261367" lon="12.788195"><ele>177.0</ele><time>2026-04-20T08:35:09.832Z</time></trkpt><trkpt lat="38.0260433" lon="12.788355"><ele>177.0</ele><time>2026-04-20T08:35:10.833Z</time></trkpt><trkpt lat="38.0259367" lon="12.788495"><ele>179.5</ele><time>2026-04-20T08:35:11.835Z</time></trkpt><trkpt lat="38.0258267" lon="12.788615"><ele>182.0</ele><time>2026-04-20T08:35:12.834Z</time></trkpt><trkpt lat="38.0257267" lon="12.7887117"><ele>184.5</ele><time>2026-04-20T08:35:13.834Z</time></trkpt><trkpt lat="38.0256417" lon="12.7887967"><ele>187.0</ele><time>2026-04-20T08:35:14.834Z</time></trkpt><trkpt lat="38.0255867" lon="12.78889"><ele>188.0</ele><time>2026-04-20T08:35:15.834Z</time></trkpt><trkpt lat="38.0255533" lon="12.78899"><ele>189.0</ele><time>2026-04-20T08:35:16.835Z</time></trkpt><trkpt lat="38.0255517" lon="12.7890983"><ele>190.0</ele><time>2026-04-20T08:35:17.831Z</time></trkpt><trkpt lat="38.025585" lon="12.789205"><ele>191.0</ele><time>2026-04-20T08:35:18.832Z</time></trkpt><trkpt lat="38.0256583" lon="12.7892983"><ele>192.0</ele><time>2026-04-20T08:35:19.832Z</time></trkpt><trkpt lat="38.025735" lon="12.789375"><ele>192.5</ele><time>2026-04-20T08:35:20.831Z</time></trkpt><trkpt lat="38.0258017" lon="12.7894433"><ele>193.0</ele><time>2026-04-20T08:35:21.83Z</time></trkpt><trkpt lat="38.0258517" lon="12.7895017"><ele>193.5</ele><time>2026-04-20T08:35:22.832Z</time></trkpt><trkpt lat="38.0258933" lon="12.7896"><ele>194.0</ele><time>2026-04-20T08:35:24.828Z</time></trkpt><trkpt lat="38.0258683" lon="12.7897383"><ele>194.5</ele><time>2026-04-20T08:35:26.827Z</time></trkpt><trkpt lat="38.025835" lon="12.78985"><ele>195.0</ele><time>2026-04-20T08:35:27.829Z</time></trkpt><trkpt lat="38.0258083" lon="12.7899683"><ele>195.5</ele><time>2026-04-20T08:35:28.831Z</time></trkpt><trkpt lat="38.025785" lon="12.79007"><ele>196.0</ele><time>2026-04-20T08:35:29.831Z</time></trkpt><trkpt lat="38.0257633" lon="12.7901467"><ele>196.5</ele><time>2026-04-20T08:35:30.828Z</time></trkpt><trkpt lat="38.0256783" lon="12.79023"><ele>197.0</ele><time>2026-04-20T08:35:32.832Z</time></trkpt><trkpt lat="38.02561" lon="12.7902717"><ele>197.5</ele><time>2026-04-20T08:35:33.83Z</time></trkpt><trkpt lat="38.02552" lon="12.7903067"><ele>198.0</ele><time>2026-04-20T08:35:34.833Z</time></trkpt><trkpt lat="38.025435" lon="12.7903417"><ele>198.0</ele><time>2026-04-20T08:35:35.831Z</time></trkpt><trkpt lat="38.0253633" lon="12.79037"><ele>198.0</ele><time>2026-04-20T08:35:36.829Z</time></trkpt><trkpt lat="38.0252717" lon="12.7903967"><ele>198.0</ele><time>2026-04-20T08:35:38.833Z</time></trkpt><trkpt lat="38.0251817" lon="12.79036"><ele>198.0</ele><time>2026-04-20T08:35:41.829Z</time></trkpt><trkpt lat="38.02513" lon="12.7903"><ele>198.0</ele><time>2026-04-20T08:35:42.83Z</time></trkpt><trkpt lat="38.0250733" lon="12.790215"><ele>198.0</ele><time>2026-04-20T08:35:43.832Z</time></trkpt><trkpt lat="38.025005" lon="12.790105"><ele>198.75</ele><time>2026-04-20T08:35:44.83Z</time></trkpt><trkpt lat="38.0249233" lon="12.78999"><ele>199.5</ele><time>2026-04-20T08:35:45.83Z</time></trkpt><trkpt lat="38.0248267" lon="12.7898617"><ele>200.25</ele><time>2026-04-20T08:35:46.831Z</time></trkpt><trkpt lat="38.02472" lon="12.7897183"><ele>201.0</ele><time>2026-04-20T08:35:47.83Z</time></trkpt><trkpt lat="38.0246083" lon="12.7895583"><ele>201.0</ele><time>2026-04-20T08:35:48.832Z</time></trkpt><trkpt lat="38.0244967" lon="12.7893917"><ele>201.0</ele><time>2026-04-20T08:35:49.831Z</time></trkpt><trkpt lat="38.024395" lon="12.7892433"><ele>201.0</ele><time>2026-04-20T08:35:50.83Z</time></trkpt><trkpt lat="38.024305" lon="12.7891117"><ele>200.5</ele><time>2026-04-20T08:35:51.831Z</time></trkpt><trkpt lat="38.0242233" lon="12.7889917"><ele>200.0</ele><time>2026-04-20T08:35:52.83Z</time></trkpt><trkpt lat="38.0241417" lon="12.788885"><ele>199.5</ele><time>2026-04-20T08:35:53.832Z</time></trkpt><trkpt lat="38.0240533" lon="12.78879"><ele>199.0</ele><time>2026-04-20T08:35:54.831Z</time></trkpt><trkpt lat="38.023955" lon="12.7887083"><ele>199.0</ele><time>2026-04-20T08:35:55.832Z</time></trkpt><trkpt lat="38.0238467" lon="12.78864"><ele>199.0</ele><time>2026-04-20T08:35:56.831Z</time></trkpt><trkpt lat="38.023735" lon="12.7885817"><ele>199.0</ele><time>2026-04-20T08:35:57.829Z</time></trkpt><trkpt lat="38.0236283" lon="12.788535"><ele>199.0</ele><time>2026-04-20T08:35:58.83Z</time></trkpt><trkpt lat="38.0235217" lon="12.7884933"><ele>197.79999999999998</ele><time>2026-04-20T08:35:59.829Z</time></trkpt><trkpt lat="38.02342" lon="12.7884567"><ele>196.6</ele><time>2026-04-20T08:36:00.833Z</time></trkpt><trkpt lat="38.0233283" lon="12.7884217"><ele>195.4</ele><time>2026-04-20T08:36:01.833Z</time></trkpt><trkpt lat="38.02324" lon="12.78839"><ele>194.2</ele><time>2026-04-20T08:36:02.831Z</time></trkpt><trkpt lat="38.0231533" lon="12.78836"><ele>193.0</ele><time>2026-04-20T08:36:03.83Z</time></trkpt><trkpt lat="38.0230767" lon="12.7883317"><ele>192.8</ele><time>2026-04-20T08:36:04.83Z</time></trkpt><trkpt lat="38.02301" lon="12.788305"><ele>192.60000000000002</ele><time>2026-04-20T08:36:05.832Z</time></trkpt><trkpt lat="38.0229433" lon="12.7882817"><ele>192.39999999999998</ele><time>2026-04-20T08:36:06.829Z</time></trkpt><trkpt lat="38.0228667" lon="12.7882467"><ele>192.2</ele><time>2026-04-20T08:36:07.832Z</time></trkpt><trkpt lat="38.0227717" lon="12.78819"><ele>192.0</ele><time>2026-04-20T08:36:08.831Z</time></trkpt><trkpt lat="38.02266" lon="12.7881017"><ele>192.0</ele><time>2026-04-20T08:36:09.828Z</time></trkpt><trkpt lat="38.0225417" lon="12.7880117"><ele>192.0</ele><time>2026-04-20T08:36:10.831Z</time></trkpt><trkpt lat="38.0224283" lon="12.78792"><ele>192.0</ele><time>2026-04-20T08:36:11.831Z</time></trkpt><trkpt lat="38.022325" lon="12.7878267"><ele>192.0</ele><time>2026-04-20T08:36:12.83Z</time></trkpt><trkpt lat="38.0222267" lon="12.7877383"><ele>191.0</ele><time>2026-04-20T08:36:13.832Z</time></trkpt><trkpt lat="38.02213" lon="12.787655"><ele>190.0</ele><time>2026-04-20T08:36:14.835Z</time></trkpt><trkpt lat="38.0220367" lon="12.7875683"><ele>189.0</ele><time>2026-04-20T08:36:15.834Z</time></trkpt><trkpt lat="38.02195" lon="12.7874817"><ele>188.0</ele><time>2026-04-20T08:36:16.833Z</time></trkpt><trkpt lat="38.0218733" lon="12.78739"><ele>187.0</ele><time>2026-04-20T08:36:17.83Z</time></trkpt><trkpt lat="38.0218083" lon="12.7872967"><ele>187.0</ele><time>2026-04-20T08:36:18.829Z</time></trkpt><trkpt lat="38.02176" lon="12.7872067"><ele>187.0</ele><time>2026-04-20T08:36:19.827Z</time></trkpt><trkpt lat="38.0217333" lon="12.7871217"><ele>187.0</ele><time>2026-04-20T08:36:20.828Z</time></trkpt><trkpt lat="38.021735" lon="12.7869517"><ele>187.0</ele><time>2026-04-20T08:36:22.831Z</time></trkpt><trkpt lat="38.0217583" lon="12.7868517"><ele>187.0</ele><time>2026-04-20T08:36:23.829Z</time></trkpt><trkpt lat="38.021805" lon="12.7867467"><ele>186.75</ele><time>2026-04-20T08:36:24.83Z</time></trkpt><trkpt lat="38.02188" lon="12.786645"><ele>186.5</ele><time>2026-04-20T08:36:25.827Z</time></trkpt><trkpt lat="38.0219733" lon="12.7865517"><ele>186.25</ele><time>2026-04-20T08:36:26.831Z</time></trkpt><trkpt lat="38.0220917" lon="12.7864617"><ele>186.0</ele><time>2026-04-20T08:36:27.83Z</time></trkpt><trkpt lat="38.02223" lon="12.7863717"><ele>186.0</ele><time>2026-04-20T08:36:28.831Z</time></trkpt><trkpt lat="38.0223767" lon="12.7862767"><ele>186.0</ele><time>2026-04-20T08:36:29.83Z</time></trkpt><trkpt lat="38.0225233" lon="12.7861667"><ele>186.0</ele><time>2026-04-20T08:36:30.827Z</time></trkpt><trkpt lat="38.0226667" lon="12.7860417"><ele>185.0</ele><time>2026-04-20T08:36:31.828Z</time></trkpt><trkpt lat="38.0228083" lon="12.7859083"><ele>184.0</ele><time>2026-04-20T08:36:32.829Z</time></trkpt><trkpt lat="38.0229417" lon="12.785775"><ele>183.0</ele><time>2026-04-20T08:36:33.83Z</time></trkpt><trkpt lat="38.0230683" lon="12.78565"><ele>183.0</ele><time>2026-04-20T08:36:34.831Z</time></trkpt><trkpt lat="38.023185" lon="12.7855283"><ele>183.0</ele><time>2026-04-20T08:36:35.831Z</time></trkpt><trkpt lat="38.0232917" lon="12.7854083"><ele>183.0</ele><time>2026-04-20T08:36:36.835Z</time></trkpt><trkpt lat="38.0233883" lon="12.7852917"><ele>183.0</ele><time>2026-04-20T08:36:37.829Z</time></trkpt><trkpt lat="38.0234783" lon="12.7851833"><ele>181.75</ele><time>2026-04-20T08:36:38.832Z</time></trkpt><trkpt lat="38.023565" lon="12.7850783"><ele>180.5</ele><time>2026-04-20T08:36:39.831Z</time></trkpt><trkpt lat="38.0236483" lon="12.7849683"><ele>179.25</ele><time>2026-04-20T08:36:40.83Z</time></trkpt><trkpt lat="38.0237217" lon="12.78485"><ele>178.0</ele><time>2026-04-20T08:36:41.83Z</time></trkpt><trkpt lat="38.023785" lon="12.78473"><ele>178.0</ele><time>2026-04-20T08:36:42.83Z</time></trkpt><trkpt lat="38.0238333" lon="12.7846083"><ele>178.0</ele><time>2026-04-20T08:36:43.83Z</time></trkpt><trkpt lat="38.0238717" lon="12.7844817"><ele>178.0</ele><time>2026-04-20T08:36:44.832Z</time></trkpt><trkpt lat="38.0239033" lon="12.78435"><ele>178.0</ele><time>2026-04-20T08:36:45.831Z</time></trkpt><trkpt lat="38.0239233" lon="12.7842233"><ele>178.0</ele><time>2026-04-20T08:36:46.832Z</time></trkpt><trkpt lat="38.0239383" lon="12.7841017"><ele>177.60000000000002</ele><time>2026-04-20T08:36:47.833Z</time></trkpt><trkpt lat="38.0239433" lon="12.7839783"><ele>177.20000000000002</ele><time>2026-04-20T08:36:48.832Z</time></trkpt><trkpt lat="38.0239383" lon="12.783855"><ele>176.8</ele><time>2026-04-20T08:36:49.831Z</time></trkpt><trkpt lat="38.0239267" lon="12.783735"><ele>176.4</ele><time>2026-04-20T08:36:50.831Z</time></trkpt><trkpt lat="38.02391" lon="12.78362"><ele>176.0</ele><time>2026-04-20T08:36:51.829Z</time></trkpt><trkpt lat="38.02389" lon="12.7835117"><ele>176.0</ele><time>2026-04-20T08:36:52.831Z</time></trkpt><trkpt lat="38.0238617" lon="12.7834"><ele>176.0</ele><time>2026-04-20T08:36:53.829Z</time></trkpt><trkpt lat="38.023815" lon="12.7832833"><ele>176.0</ele><time>2026-04-20T08:36:54.832Z</time></trkpt><trkpt lat="38.0237633" lon="12.7831667"><ele>176.0</ele><time>2026-04-20T08:36:55.828Z</time></trkpt><trkpt lat="38.0237133" lon="12.78306"><ele>176.0</ele><time>2026-04-20T08:36:56.833Z</time></trkpt><trkpt lat="38.0236633" lon="12.78296"><ele>176.0</ele><time>2026-04-20T08:36:57.83Z</time></trkpt><trkpt lat="38.0236117" lon="12.7828617"><ele>176.0</ele><time>2026-04-20T08:36:58.832Z</time></trkpt><trkpt lat="38.023565" lon="12.78277"><ele>176.0</ele><time>2026-04-20T08:36:59.831Z</time></trkpt><trkpt lat="38.0235183" lon="12.782675"><ele>176.0</ele><time>2026-04-20T08:37:00.83Z</time></trkpt><trkpt lat="38.0234667" lon="12.7825683"><ele>176.0</ele><time>2026-04-20T08:37:01.83Z</time></trkpt><trkpt lat="38.0234217" lon="12.78246"><ele>175.0</ele><time>2026-04-20T08:37:02.829Z</time></trkpt><trkpt lat="38.0233983" lon="12.78235"><ele>174.0</ele><time>2026-04-20T08:37:03.83Z</time></trkpt><trkpt lat="38.0233917" lon="12.7822433"><ele>173.0</ele><time>2026-04-20T08:37:04.833Z</time></trkpt><trkpt lat="38.0234" lon="12.7821367"><ele>172.0</ele><time>2026-04-20T08:37:05.83Z</time></trkpt><trkpt lat="38.0234183" lon="12.782035"><ele>171.0</ele><time>2026-04-20T08:37:06.832Z</time></trkpt><trkpt lat="38.023495" lon="12.7818783"><ele>170.4</ele><time>2026-04-20T08:37:08.828Z</time></trkpt><trkpt lat="38.0235633" lon="12.7818217"><ele>169.8</ele><time>2026-04-20T08:37:09.832Z</time></trkpt><trkpt lat="38.0236567" lon="12.7817833"><ele>169.20000000000002</ele><time>2026-04-20T08:37:10.83Z</time></trkpt><trkpt lat="38.0237783" lon="12.7817817"><ele>168.60000000000002</ele><time>2026-04-20T08:37:11.831Z</time></trkpt><trkpt lat="38.0239083" lon="12.7818"><ele>168.0</ele><time>2026-04-20T08:37:12.83Z</time></trkpt><trkpt lat="38.0240517" lon="12.78184"><ele>167.66666666666666</ele><time>2026-04-20T08:37:13.83Z</time></trkpt><trkpt lat="38.0242133" lon="12.78188"><ele>167.33333333333331</ele><time>2026-04-20T08:37:14.833Z</time></trkpt><trkpt lat="38.0243717" lon="12.7819183"><ele>167.0</ele><time>2026-04-20T08:37:15.832Z</time></trkpt><trkpt lat="38.0245067" lon="12.78195"><ele>167.0</ele><time>2026-04-20T08:37:16.833Z</time></trkpt><trkpt lat="38.0246183" lon="12.7819817"><ele>167.0</ele><time>2026-04-20T08:37:17.832Z</time></trkpt><trkpt lat="38.024705" lon="12.7820167"><ele>167.0</ele><time>2026-04-20T08:37:18.836Z</time></trkpt><trkpt lat="38.0247667" lon="12.7820633"><ele>167.0</ele><time>2026-04-20T08:37:19.834Z</time></trkpt><trkpt lat="38.0248183" lon="12.7821667"><ele>167.0</ele><time>2026-04-20T08:37:21.833Z</time></trkpt><trkpt lat="38.024855" lon="12.7822333"><ele>167.0</ele><time>2026-04-20T08:37:24.832Z</time></trkpt><trkpt lat="38.0249583" lon="12.7821317"><ele>167.66666666666666</ele><time>2026-04-20T08:37:27.83Z</time></trkpt><trkpt lat="38.0250283" lon="12.781995"><ele>168.33333333333334</ele><time>2026-04-20T08:37:28.827Z</time></trkpt><trkpt lat="38.0251083" lon="12.78181"><ele>169.0</ele><time>2026-04-20T08:37:29.831Z</time></trkpt><trkpt lat="38.0252033" lon="12.7815917"><ele>173.5</ele><time>2026-04-20T08:37:30.831Z</time></trkpt><trkpt lat="38.0252917" lon="12.7813367"><ele>178.0</ele><time>2026-04-20T08:37:31.83Z</time></trkpt><trkpt lat="38.025375" lon="12.7810567"><ele>179.66666666666669</ele><time>2026-04-20T08:37:32.832Z</time></trkpt><trkpt lat="38.0254467" lon="12.78079"><ele>181.33333333333334</ele><time>2026-04-20T08:37:33.833Z</time></trkpt><trkpt lat="38.025505" lon="12.7805433"><ele>183.0</ele><time>2026-04-20T08:37:34.83Z</time></trkpt><trkpt lat="38.0255533" lon="12.7803133"><ele>185.0</ele><time>2026-04-20T08:37:35.832Z</time></trkpt><trkpt lat="38.0256" lon="12.7801067"><ele>187.0</ele><time>2026-04-20T08:37:36.831Z</time></trkpt><trkpt lat="38.025645" lon="12.7799133"><ele>189.0</ele><time>2026-04-20T08:37:37.83Z</time></trkpt><trkpt lat="38.025685" lon="12.7797283"><ele>189.0</ele><time>2026-04-20T08:37:38.829Z</time></trkpt><trkpt lat="38.0257217" lon="12.779545"><ele>189.0</ele><time>2026-04-20T08:37:39.831Z</time></trkpt><trkpt lat="38.025755" lon="12.7793617"><ele>189.0</ele><time>2026-04-20T08:37:40.83Z</time></trkpt><trkpt lat="38.0257917" lon="12.7791817"><ele>189.0</ele><time>2026-04-20T08:37:41.837Z</time></trkpt><trkpt lat="38.0258283" lon="12.778995"><ele>186.5</ele><time>2026-04-20T08:37:42.83Z</time></trkpt><trkpt lat="38.0259033" lon="12.7786217"><ele>184.0</ele><time>2026-04-20T08:37:44.83Z</time></trkpt><trkpt lat="38.025975" lon="12.7782483"><ele>184.0</ele><time>2026-04-20T08:37:46.828Z</time></trkpt><trkpt lat="38.02601" lon="12.77806"><ele>184.0</ele><time>2026-04-20T08:37:47.827Z</time></trkpt><trkpt lat="38.0260417" lon="12.7778717"><ele>184.0</ele><time>2026-04-20T08:37:48.832Z</time></trkpt><trkpt lat="38.02607" lon="12.7776833"><ele>184.66666666666669</ele><time>2026-04-20T08:37:49.828Z</time></trkpt><trkpt lat="38.0260917" lon="12.77749"><ele>185.33333333333334</ele><time>2026-04-20T08:37:50.829Z</time></trkpt><trkpt lat="38.02611" lon="12.7772867"><ele>186.0</ele><time>2026-04-20T08:37:51.83Z</time></trkpt><trkpt lat="38.026125" lon="12.77707"><ele>187.66666666666666</ele><time>2026-04-20T08:37:52.827Z</time></trkpt><trkpt lat="38.02614" lon="12.7768433"><ele>189.33333333333331</ele><time>2026-04-20T08:37:53.832Z</time></trkpt><trkpt lat="38.0261517" lon="12.776605"><ele>191.0</ele><time>2026-04-20T08:37:54.828Z</time></trkpt><trkpt lat="38.026165" lon="12.77636"><ele>191.0</ele><time>2026-04-20T08:37:55.828Z</time></trkpt><trkpt lat="38.0261783" lon="12.7761117"><ele>191.0</ele><time>2026-04-20T08:37:56.83Z</time></trkpt><trkpt lat="38.0261917" lon="12.775855"><ele>191.0</ele><time>2026-04-20T08:37:57.828Z</time></trkpt><trkpt lat="38.026205" lon="12.7755983"><ele>193.33333333333331</ele><time>2026-04-20T08:37:58.833Z</time></trkpt><trkpt lat="38.026215" lon="12.7753383"><ele>195.66666666666666</ele><time>2026-04-20T08:37:59.829Z</time></trkpt><trkpt lat="38.026225" lon="12.7750783"><ele>198.0</ele><time>2026-04-20T08:38:00.829Z</time></trkpt><trkpt lat="38.026235" lon="12.7748167"><ele>198.0</ele><time>2026-04-20T08:38:01.833Z</time></trkpt><trkpt lat="38.0262467" lon="12.7745483"><ele>198.0</ele><time>2026-04-20T08:38:02.832Z</time></trkpt><trkpt lat="38.0262617" lon="12.7742767"><ele>198.0</ele><time>2026-04-20T08:38:03.832Z</time></trkpt><trkpt lat="38.026275" lon="12.774"><ele>198.66666666666669</ele><time>2026-04-20T08:38:04.83Z</time></trkpt><trkpt lat="38.02629" lon="12.7737233"><ele>199.33333333333334</ele><time>2026-04-20T08:38:05.828Z</time></trkpt><trkpt lat="38.0263033" lon="12.773455"><ele>200.0</ele><time>2026-04-20T08:38:06.828Z</time></trkpt><trkpt lat="38.0263117" lon="12.7732"><ele>201.66666666666669</ele><time>2026-04-20T08:38:07.83Z</time></trkpt><trkpt lat="38.0263117" lon="12.7729633"><ele>203.33333333333331</ele><time>2026-04-20T08:38:08.834Z</time></trkpt><trkpt lat="38.0262967" lon="12.7727333"><ele>205.0</ele><time>2026-04-20T08:38:09.829Z</time></trkpt><trkpt lat="38.026265" lon="12.7725117"><ele>205.33333333333331</ele><time>2026-04-20T08:38:10.83Z</time></trkpt><trkpt lat="38.0262067" lon="12.7723"><ele>205.66666666666669</ele><time>2026-04-20T08:38:11.828Z</time></trkpt><trkpt lat="38.0261267" lon="12.7720817"><ele>206.0</ele><time>2026-04-20T08:38:12.828Z</time></trkpt><trkpt lat="38.0260317" lon="12.7718567"><ele>206.0</ele><time>2026-04-20T08:38:13.833Z</time></trkpt><trkpt lat="38.025925" lon="12.77163"><ele>206.0</ele><time>2026-04-20T08:38:14.831Z</time></trkpt><trkpt lat="38.0258067" lon="12.771395"><ele>206.0</ele><time>2026-04-20T08:38:15.827Z</time></trkpt><trkpt lat="38.0256833" lon="12.771155"><ele>209.5</ele><time>2026-04-20T08:38:16.827Z</time></trkpt><trkpt lat="38.02556" lon="12.7709067"><ele>213.0</ele><time>2026-04-20T08:38:17.829Z</time></trkpt><trkpt lat="38.02544" lon="12.7706633"><ele>213.0</ele><time>2026-04-20T08:38:18.832Z</time></trkpt><trkpt lat="38.0253317" lon="12.7704367"><ele>213.0</ele><time>2026-04-20T08:38:19.831Z</time></trkpt><trkpt lat="38.0252367" lon="12.7702167"><ele>213.0</ele><time>2026-04-20T08:38:20.839Z</time></trkpt><trkpt lat="38.0251567" lon="12.769995"><ele>212.0</ele><time>2026-04-20T08:38:21.83Z</time></trkpt><trkpt lat="38.0250917" lon="12.7697617"><ele>211.0</ele><time>2026-04-20T08:38:22.833Z</time></trkpt><trkpt lat="38.025035" lon="12.769515"><ele>210.0</ele><time>2026-04-20T08:38:23.835Z</time></trkpt><trkpt lat="38.0249783" lon="12.7692567"><ele>212.33333333333331</ele><time>2026-04-20T08:38:24.835Z</time></trkpt><trkpt lat="38.0249267" lon="12.7689983"><ele>214.66666666666666</ele><time>2026-04-20T08:38:25.83Z</time></trkpt><trkpt lat="38.0248717" lon="12.768755"><ele>217.0</ele><time>2026-04-20T08:38:26.833Z</time></trkpt><trkpt lat="38.024815" lon="12.7685183"><ele>217.0</ele><time>2026-04-20T08:38:27.833Z</time></trkpt><trkpt lat="38.024745" lon="12.7682833"><ele>217.0</ele><time>2026-04-20T08:38:28.83Z</time></trkpt><trkpt lat="38.0246583" lon="12.7680517"><ele>217.0</ele><time>2026-04-20T08:38:29.831Z</time></trkpt><trkpt lat="38.0245567" lon="12.7678217"><ele>216.66666666666666</ele><time>2026-04-20T08:38:30.831Z</time></trkpt><trkpt lat="38.0244383" lon="12.7675967"><ele>216.33333333333331</ele><time>2026-04-20T08:38:31.828Z</time></trkpt><trkpt lat="38.0242933" lon="12.7673683"><ele>216.0</ele><time>2026-04-20T08:38:32.832Z</time></trkpt><trkpt lat="38.0241333" lon="12.7671383"><ele>217.0</ele><time>2026-04-20T08:38:33.831Z</time></trkpt><trkpt lat="38.0239617" lon="12.766905"><ele>218.0</ele><time>2026-04-20T08:38:34.833Z</time></trkpt><trkpt lat="38.023785" lon="12.766665"><ele>218.0</ele><time>2026-04-20T08:38:35.831Z</time></trkpt><trkpt lat="38.023605" lon="12.766415"><ele>218.0</ele><time>2026-04-20T08:38:36.832Z</time></trkpt><trkpt lat="38.02342" lon="12.766165"><ele>216.0</ele><time>2026-04-20T08:38:37.833Z</time></trkpt><trkpt lat="38.0232367" lon="12.7659067"><ele>214.0</ele><time>2026-04-20T08:38:38.833Z</time></trkpt><trkpt lat="38.0230517" lon="12.7656483"><ele>214.0</ele><time>2026-04-20T08:38:39.832Z</time></trkpt><trkpt lat="38.02286" lon="12.76539"><ele>214.0</ele><time>2026-04-20T08:38:40.834Z</time></trkpt><trkpt lat="38.02267" lon="12.7651267"><ele>216.0</ele><time>2026-04-20T08:38:41.831Z</time></trkpt><trkpt lat="38.0224783" lon="12.764865"><ele>218.0</ele><time>2026-04-20T08:38:42.834Z</time></trkpt><trkpt lat="38.0222867" lon="12.7646033"><ele>221.5</ele><time>2026-04-20T08:38:43.836Z</time></trkpt><trkpt lat="38.0220917" lon="12.7643467"><ele>225.0</ele><time>2026-04-20T08:38:44.833Z</time></trkpt><trkpt lat="38.0219" lon="12.7640933"><ele>225.0</ele><time>2026-04-20T08:38:45.831Z</time></trkpt><trkpt lat="38.02172" lon="12.7638467"><ele>225.0</ele><time>2026-04-20T08:38:46.83Z</time></trkpt><trkpt lat="38.0215517" lon="12.7636067"><ele>230.5</ele><time>2026-04-20T08:38:47.828Z</time></trkpt><trkpt lat="38.0213933" lon="12.763365"><ele>236.0</ele><time>2026-04-20T08:38:48.829Z</time></trkpt><trkpt lat="38.0212467" lon="12.7631133"><ele>236.0</ele><time>2026-04-20T08:38:49.827Z</time></trkpt><trkpt lat="38.0211133" lon="12.7628533"><ele>236.0</ele><time>2026-04-20T08:38:50.831Z</time></trkpt><trkpt lat="38.02099" lon="12.76258"><ele>236.0</ele><time>2026-04-20T08:38:51.832Z</time></trkpt><trkpt lat="38.0208733" lon="12.7622967"><ele>236.0</ele><time>2026-04-20T08:38:52.831Z</time></trkpt><trkpt lat="38.02076" lon="12.76201"><ele>241.0</ele><time>2026-04-20T08:38:53.832Z</time></trkpt><trkpt lat="38.02065" lon="12.7617167"><ele>246.0</ele><time>2026-04-20T08:38:54.831Z</time></trkpt><trkpt lat="38.02054" lon="12.7614217"><ele>246.0</ele><time>2026-04-20T08:38:55.831Z</time></trkpt><trkpt lat="38.02043" lon="12.7611267"><ele>246.0</ele><time>2026-04-20T08:38:56.833Z</time></trkpt><trkpt lat="38.02032" lon="12.760835"><ele>247.0</ele><time>2026-04-20T08:38:57.831Z</time></trkpt><trkpt lat="38.0202117" lon="12.7605483"><ele>248.0</ele><time>2026-04-20T08:38:58.831Z</time></trkpt><trkpt lat="38.0201083" lon="12.76028"><ele>247.33333333333334</ele><time>2026-04-20T08:38:59.828Z</time></trkpt><trkpt lat="38.0200133" lon="12.760025"><ele>246.66666666666669</ele><time>2026-04-20T08:39:00.831Z</time></trkpt><trkpt lat="38.0199233" lon="12.759785"><ele>246.0</ele><time>2026-04-20T08:39:01.832Z</time></trkpt><trkpt lat="38.01984" lon="12.7595617"><ele>244.25</ele><time>2026-04-20T08:39:02.832Z</time></trkpt><trkpt lat="38.0197683" lon="12.7593667"><ele>242.5</ele><time>2026-04-20T08:39:03.83Z</time></trkpt><trkpt lat="38.01971" lon="12.759205"><ele>240.75</ele><time>2026-04-20T08:39:04.828Z</time></trkpt><trkpt lat="38.0196633" lon="12.759075"><ele>239.0</ele><time>2026-04-20T08:39:05.832Z</time></trkpt><trkpt lat="38.0196283" lon="12.75898"><ele>239.00000000000003</ele><time>2026-04-20T08:39:06.83Z</time></trkpt><trkpt lat="38.019585" lon="12.75887"><ele>239.0</ele><time>2026-04-20T08:39:08.831Z</time></trkpt><trkpt lat="38.01952" lon="12.7588417"><ele>239.0</ele><time>2026-04-20T08:39:11.831Z</time></trkpt><trkpt lat="38.0194517" lon="12.7589333"><ele>239.0</ele><time>2026-04-20T08:39:13.828Z</time></trkpt><trkpt lat="38.01942" lon="12.7590033"><ele>239.00000000000003</ele><time>2026-04-20T08:39:14.829Z</time></trkpt><trkpt lat="38.0193717" lon="12.7591083"><ele>239.0</ele><time>2026-04-20T08:39:15.828Z</time></trkpt><trkpt lat="38.0193133" lon="12.7592667"><ele>240.75</ele><time>2026-04-20T08:39:16.828Z</time></trkpt><trkpt lat="38.0192633" lon="12.7594333"><ele>242.5</ele><time>2026-04-20T08:39:17.828Z</time></trkpt><trkpt lat="38.019205" lon="12.7596083"><ele>244.25</ele><time>2026-04-20T08:39:18.83Z</time></trkpt><trkpt lat="38.01914" lon="12.7597917"><ele>246.0</ele><time>2026-04-20T08:39:19.831Z</time></trkpt><trkpt lat="38.0190733" lon="12.7599633"><ele>247.0</ele><time>2026-04-20T08:39:20.83Z</time></trkpt><trkpt lat="38.0190033" lon="12.7601117"><ele>248.0</ele><time>2026-04-20T08:39:21.83Z</time></trkpt><trkpt lat="38.018925" lon="12.7602483"><ele>249.0</ele><time>2026-04-20T08:39:22.832Z</time></trkpt><trkpt lat="38.018845" lon="12.7603683"><ele>250.0</ele><time>2026-04-20T08:39:23.828Z</time></trkpt><trkpt lat="38.01876" lon="12.760465"><ele>251.4</ele><time>2026-04-20T08:39:24.831Z</time></trkpt><trkpt lat="38.0186667" lon="12.760555"><ele>252.8</ele><time>2026-04-20T08:39:25.831Z</time></trkpt><trkpt lat="38.01857" lon="12.760635"><ele>254.2</ele><time>2026-04-20T08:39:26.828Z</time></trkpt><trkpt lat="38.0184833" lon="12.7607017"><ele>255.6</ele><time>2026-04-20T08:39:27.835Z</time></trkpt><trkpt lat="38.018415" lon="12.760765"><ele>257.0</ele><time>2026-04-20T08:39:28.835Z</time></trkpt><trkpt lat="38.01837" lon="12.7608433"><ele>257.0</ele><time>2026-04-20T08:39:29.834Z</time></trkpt><trkpt lat="38.0183483" lon="12.7609283"><ele>257.0</ele><time>2026-04-20T08:39:30.829Z</time></trkpt><trkpt lat="38.0183633" lon="12.7610167"><ele>257.0</ele><time>2026-04-20T08:39:31.83Z</time></trkpt><trkpt lat="38.0184117" lon="12.7611167"><ele>257.0</ele><time>2026-04-20T08:39:32.834Z</time></trkpt><trkpt lat="38.0184667" lon="12.7612333"><ele>257.0</ele><time>2026-04-20T08:39:33.828Z</time></trkpt><trkpt lat="38.01851" lon="12.7613533"><ele>257.0</ele><time>2026-04-20T08:39:34.831Z</time></trkpt><trkpt lat="38.01855" lon="12.7614717"><ele>258.33333333333337</ele><time>2026-04-20T08:39:35.832Z</time></trkpt><trkpt lat="38.0185817" lon="12.7615767"><ele>259.6666666666667</ele><time>2026-04-20T08:39:36.832Z</time></trkpt><trkpt lat="38.0185983" lon="12.7616667"><ele>261.0</ele><time>2026-04-20T08:39:37.829Z</time></trkpt><trkpt lat="38.018565" lon="12.7617933"><ele>262.3333333333333</ele><time>2026-04-20T08:39:39.832Z</time></trkpt><trkpt lat="38.018465" lon="12.761825"><ele>263.66666666666663</ele><time>2026-04-20T08:39:41.833Z</time></trkpt><trkpt lat="38.0184083" lon="12.7617733"><ele>265.0</ele><time>2026-04-20T08:39:42.836Z</time></trkpt><trkpt lat="38.01834" lon="12.7616983"><ele>266.4</ele><time>2026-04-20T08:39:43.833Z</time></trkpt><trkpt lat="38.0182567" lon="12.7616117"><ele>267.8</ele><time>2026-04-20T08:39:44.83Z</time></trkpt><trkpt lat="38.018165" lon="12.7615367"><ele>269.2</ele><time>2026-04-20T08:39:45.832Z</time></trkpt><trkpt lat="38.0180667" lon="12.7614883"><ele>270.6</ele><time>2026-04-20T08:39:46.833Z</time></trkpt><trkpt lat="38.0179583" lon="12.7614683"><ele>272.0</ele><time>2026-04-20T08:39:47.832Z</time></trkpt><trkpt lat="38.0178517" lon="12.7614767"><ele>272.0</ele><time>2026-04-20T08:39:48.833Z</time></trkpt><trkpt lat="38.0177483" lon="12.761505"><ele>272.0</ele><time>2026-04-20T08:39:49.832Z</time></trkpt><trkpt lat="38.0176467" lon="12.7615533"><ele>272.0</ele><time>2026-04-20T08:39:50.833Z</time></trkpt><trkpt lat="38.0175433" lon="12.761615"><ele>272.0</ele><time>2026-04-20T08:39:51.829Z</time></trkpt><trkpt lat="38.0174367" lon="12.761685"><ele>272.0</ele><time>2026-04-20T08:39:52.833Z</time></trkpt><trkpt lat="38.0173333" lon="12.761755"><ele>272.6</ele><time>2026-04-20T08:39:53.833Z</time></trkpt><trkpt lat="38.0172383" lon="12.76182"><ele>273.2</ele><time>2026-04-20T08:39:54.832Z</time></trkpt><trkpt lat="38.0171583" lon="12.76188"><ele>273.8</ele><time>2026-04-20T08:39:55.83Z</time></trkpt><trkpt lat="38.0170883" lon="12.761935"><ele>274.4</ele><time>2026-04-20T08:39:56.832Z</time></trkpt><trkpt lat="38.017025" lon="12.7619967"><ele>275.0</ele><time>2026-04-20T08:39:57.833Z</time></trkpt><trkpt lat="38.0169633" lon="12.76208"><ele>277.75</ele><time>2026-04-20T08:39:58.83Z</time></trkpt><trkpt lat="38.0168917" lon="12.762185"><ele>280.5</ele><time>2026-04-20T08:39:59.831Z</time></trkpt><trkpt lat="38.0167983" lon="12.7623217"><ele>283.25</ele><time>2026-04-20T08:40:00.831Z</time></trkpt><trkpt lat="38.016695" lon="12.7624767"><ele>286.0</ele><time>2026-04-20T08:40:01.833Z</time></trkpt><trkpt lat="38.0166" lon="12.7626117"><ele>288.6</ele><time>2026-04-20T08:40:02.83Z</time></trkpt><trkpt lat="38.0165233" lon="12.762725"><ele>291.20000000000005</ele><time>2026-04-20T08:40:03.832Z</time></trkpt><trkpt lat="38.0164533" lon="12.76282"><ele>293.79999999999995</ele><time>2026-04-20T08:40:04.83Z</time></trkpt><trkpt lat="38.016385" lon="12.7629"><ele>296.4</ele><time>2026-04-20T08:40:05.831Z</time></trkpt><trkpt lat="38.0163167" lon="12.76296"><ele>299.0</ele><time>2026-04-20T08:40:06.828Z</time></trkpt><trkpt lat="38.0162517" lon="12.7629933"><ele>299.0</ele><time>2026-04-20T08:40:07.83Z</time></trkpt><trkpt lat="38.0161817" lon="12.7630133"><ele>299.0</ele><time>2026-04-20T08:40:08.831Z</time></trkpt><trkpt lat="38.0161017" lon="12.76302"><ele>299.0</ele><time>2026-04-20T08:40:09.831Z</time></trkpt><trkpt lat="38.0160083" lon="12.7630083"><ele>299.0</ele><time>2026-04-20T08:40:10.83Z</time></trkpt><trkpt lat="38.0158983" lon="12.7629817"><ele>299.0</ele><time>2026-04-20T08:40:11.832Z</time></trkpt><trkpt lat="38.015775" lon="12.7629433"><ele>301.0</ele><time>2026-04-20T08:40:12.83Z</time></trkpt><trkpt lat="38.0156483" lon="12.7629233"><ele>303.0</ele><time>2026-04-20T08:40:13.83Z</time></trkpt><trkpt lat="38.0155217" lon="12.7629283"><ele>305.0</ele><time>2026-04-20T08:40:14.829Z</time></trkpt><trkpt lat="38.01539" lon="12.7629567"><ele>307.0</ele><time>2026-04-20T08:40:15.832Z</time></trkpt><trkpt lat="38.0152617" lon="12.7629933"><ele>307.0</ele><time>2026-04-20T08:40:16.831Z</time></trkpt><trkpt lat="38.0151383" lon="12.76302"><ele>307.0</ele><time>2026-04-20T08:40:17.833Z</time></trkpt><trkpt lat="38.0150133" lon="12.76302"><ele>307.0</ele><time>2026-04-20T08:40:18.831Z</time></trkpt><trkpt lat="38.0148767" lon="12.7630033"><ele>307.0</ele><time>2026-04-20T08:40:19.834Z</time></trkpt><trkpt lat="38.014735" lon="12.76299"><ele>310.3333333333333</ele><time>2026-04-20T08:40:20.835Z</time></trkpt><trkpt lat="38.0146017" lon="12.7629933"><ele>313.6666666666667</ele><time>2026-04-20T08:40:21.835Z</time></trkpt><trkpt lat="38.0143583" lon="12.762995"><ele>317.0</ele><time>2026-04-20T08:40:23.831Z</time></trkpt><trkpt lat="38.014235" lon="12.7629767"><ele>318.6</ele><time>2026-04-20T08:40:24.831Z</time></trkpt><trkpt lat="38.0141117" lon="12.7629433"><ele>320.2</ele><time>2026-04-20T08:40:25.83Z</time></trkpt><trkpt lat="38.0140017" lon="12.7629"><ele>321.8</ele><time>2026-04-20T08:40:26.835Z</time></trkpt><trkpt lat="38.0139183" lon="12.7628667"><ele>323.4</ele><time>2026-04-20T08:40:27.833Z</time></trkpt><trkpt lat="38.0138517" lon="12.7628617"><ele>325.0</ele><time>2026-04-20T08:40:28.836Z</time></trkpt><trkpt lat="38.0137733" lon="12.76293"><ele>325.0</ele><time>2026-04-20T08:40:30.832Z</time></trkpt><trkpt lat="38.0137967" lon="12.7630917"><ele>325.0</ele><time>2026-04-20T08:40:32.831Z</time></trkpt><trkpt lat="38.0138767" lon="12.7632033"><ele>325.0</ele><time>2026-04-20T08:40:33.83Z</time></trkpt><trkpt lat="38.01395" lon="12.7633067"><ele>325.0</ele><time>2026-04-20T08:40:34.829Z</time></trkpt><trkpt lat="38.014015" lon="12.7633967"><ele>325.0</ele><time>2026-04-20T08:40:35.831Z</time></trkpt><trkpt lat="38.0140567" lon="12.7634783"><ele>325.0</ele><time>2026-04-20T08:40:36.832Z</time></trkpt><trkpt lat="38.0140467" lon="12.7635983"><ele>325.0</ele><time>2026-04-20T08:40:38.831Z</time></trkpt><trkpt lat="38.0139583" lon="12.7636417"><ele>325.0</ele><time>2026-04-20T08:40:40.833Z</time></trkpt><trkpt lat="38.0138933" lon="12.7636317"><ele>325.0</ele><time>2026-04-20T08:40:41.829Z</time></trkpt><trkpt lat="38.013805" lon="12.76361"><ele>325.0</ele><time>2026-04-20T08:40:42.832Z</time></trkpt><trkpt lat="38.0136967" lon="12.763585"><ele>327.5</ele><time>2026-04-20T08:40:43.835Z</time></trkpt><trkpt lat="38.0135717" lon="12.7635633"><ele>330.0</ele><time>2026-04-20T08:40:44.833Z</time></trkpt><trkpt lat="38.0134417" lon="12.7635383"><ele>332.5</ele><time>2026-04-20T08:40:45.833Z</time></trkpt><trkpt lat="38.01332" lon="12.7635133"><ele>335.0</ele><time>2026-04-20T08:40:46.834Z</time></trkpt><trkpt lat="38.0132117" lon="12.7634883"><ele>335.0</ele><time>2026-04-20T08:40:47.836Z</time></trkpt><trkpt lat="38.0131017" lon="12.7634633"><ele>335.0</ele><time>2026-04-20T08:40:48.835Z</time></trkpt><trkpt lat="38.0129917" lon="12.7634383"><ele>335.0</ele><time>2026-04-20T08:40:49.83Z</time></trkpt><trkpt lat="38.0128983" lon="12.7634133"><ele>335.0</ele><time>2026-04-20T08:40:50.832Z</time></trkpt><trkpt lat="38.0128217" lon="12.7633917"><ele>335.0</ele><time>2026-04-20T08:40:51.832Z</time></trkpt><trkpt lat="38.012705" lon="12.7634067"><ele>335.0</ele><time>2026-04-20T08:40:53.834Z</time></trkpt><trkpt lat="38.0126633" lon="12.76349"><ele>335.0</ele><time>2026-04-20T08:40:55.832Z</time></trkpt><trkpt lat="38.01275" lon="12.7636417"><ele>335.0</ele><time>2026-04-20T08:40:57.832Z</time></trkpt><trkpt lat="38.012835" lon="12.7637433"><ele>335.0</ele><time>2026-04-20T08:40:58.831Z</time></trkpt><trkpt lat="38.0129517" lon="12.7638833"><ele>336.75</ele><time>2026-04-20T08:40:59.831Z</time></trkpt><trkpt lat="38.01306" lon="12.76403"><ele>338.5</ele><time>2026-04-20T08:41:00.83Z</time></trkpt><trkpt lat="38.013165" lon="12.764175"><ele>340.25</ele><time>2026-04-20T08:41:01.829Z</time></trkpt><trkpt lat="38.0132533" lon="12.7643017"><ele>342.0</ele><time>2026-04-20T08:41:02.83Z</time></trkpt><trkpt lat="38.01333" lon="12.7644083"><ele>342.0</ele><time>2026-04-20T08:41:03.83Z</time></trkpt><trkpt lat="38.0133917" lon="12.7645"><ele>342.0</ele><time>2026-04-20T08:41:04.834Z</time></trkpt><trkpt lat="38.0134317" lon="12.764585"><ele>342.0</ele><time>2026-04-20T08:41:05.83Z</time></trkpt><trkpt lat="38.0134483" lon="12.7646767"><ele>342.0</ele><time>2026-04-20T08:41:06.83Z</time></trkpt><trkpt lat="38.0134333" lon="12.76476"><ele>342.0</ele><time>2026-04-20T08:41:07.831Z</time></trkpt><trkpt lat="38.0133883" lon="12.7648267"><ele>342.0</ele><time>2026-04-20T08:41:08.831Z</time></trkpt><trkpt lat="38.0133267" lon="12.7648633"><ele>343.5</ele><time>2026-04-20T08:41:09.831Z</time></trkpt><trkpt lat="38.01326" lon="12.7648683"><ele>345.0</ele><time>2026-04-20T08:41:10.831Z</time></trkpt><trkpt lat="38.0131867" lon="12.7648517"><ele>346.5</ele><time>2026-04-20T08:41:11.832Z</time></trkpt><trkpt lat="38.0131083" lon="12.7648383"><ele>348.0</ele><time>2026-04-20T08:41:12.831Z</time></trkpt><trkpt lat="38.01303" lon="12.7648517"><ele>349.5</ele><time>2026-04-20T08:41:13.828Z</time></trkpt><trkpt lat="38.0129583" lon="12.7648983"><ele>351.0</ele><time>2026-04-20T08:41:14.832Z</time></trkpt><trkpt lat="38.0128917" lon="12.764975"><ele>351.0</ele><time>2026-04-20T08:41:15.832Z</time></trkpt><trkpt lat="38.0128183" lon="12.765105"><ele>351.0</ele><time>2026-04-20T08:41:16.831Z</time></trkpt><trkpt lat="38.01272" lon="12.765265"><ele>351.0</ele><time>2026-04-20T08:41:17.83Z</time></trkpt><trkpt lat="38.0126067" lon="12.7654383"><ele>350.0</ele><time>2026-04-20T08:41:18.832Z</time></trkpt><trkpt lat="38.0124983" lon="12.7655933"><ele>349.0</ele><time>2026-04-20T08:41:19.831Z</time></trkpt><trkpt lat="38.0124067" lon="12.765725"><ele>348.0</ele><time>2026-04-20T08:41:20.83Z</time></trkpt><trkpt lat="38.0123283" lon="12.7658383"><ele>347.0</ele><time>2026-04-20T08:41:21.829Z</time></trkpt><trkpt lat="38.012255" lon="12.7659433"><ele>349.75</ele><time>2026-04-20T08:41:22.831Z</time></trkpt><trkpt lat="38.0121833" lon="12.7660483"><ele>352.5</ele><time>2026-04-20T08:41:23.832Z</time></trkpt><trkpt lat="38.0121083" lon="12.7661583"><ele>355.25</ele><time>2026-04-20T08:41:24.831Z</time></trkpt><trkpt lat="38.0120317" lon="12.7662717"><ele>358.0</ele><time>2026-04-20T08:41:25.832Z</time></trkpt><trkpt lat="38.01185" lon="12.7665567"><ele>358.0</ele><time>2026-04-20T08:41:27.831Z</time></trkpt><trkpt lat="38.0117483" lon="12.766715"><ele>358.0</ele><time>2026-04-20T08:41:28.834Z</time></trkpt><trkpt lat="38.0116517" lon="12.7668567"><ele>358.0</ele><time>2026-04-20T08:41:29.829Z</time></trkpt><trkpt lat="38.0115633" lon="12.7669783"><ele>358.0</ele><time>2026-04-20T08:41:30.83Z</time></trkpt><trkpt lat="38.0114783" lon="12.7670783"><ele>357.5</ele><time>2026-04-20T08:41:31.833Z</time></trkpt><trkpt lat="38.011395" lon="12.7671583"><ele>357.0</ele><time>2026-04-20T08:41:32.836Z</time></trkpt><trkpt lat="38.011315" lon="12.7672233"><ele>356.5</ele><time>2026-04-20T08:41:33.833Z</time></trkpt><trkpt lat="38.01124" lon="12.767275"><ele>356.0</ele><time>2026-04-20T08:41:34.838Z</time></trkpt><trkpt lat="38.0111667" lon="12.7673217"><ele>355.5</ele><time>2026-04-20T08:41:35.831Z</time></trkpt><trkpt lat="38.011095" lon="12.7673633"><ele>355.0</ele><time>2026-04-20T08:41:36.834Z</time></trkpt><trkpt lat="38.0110217" lon="12.7674017"><ele>355.0</ele><time>2026-04-20T08:41:37.832Z</time></trkpt><trkpt lat="38.010945" lon="12.767435"><ele>355.0</ele><time>2026-04-20T08:41:38.835Z</time></trkpt><trkpt lat="38.0108617" lon="12.76747"><ele>355.0</ele><time>2026-04-20T08:41:39.832Z</time></trkpt><trkpt lat="38.0107633" lon="12.76751"><ele>355.0</ele><time>2026-04-20T08:41:40.831Z</time></trkpt><trkpt lat="38.0106483" lon="12.7675533"><ele>355.0</ele><time>2026-04-20T08:41:41.828Z</time></trkpt><trkpt lat="38.0105267" lon="12.7676017"><ele>354.4</ele><time>2026-04-20T08:41:42.832Z</time></trkpt><trkpt lat="38.0104167" lon="12.767655"><ele>353.8</ele><time>2026-04-20T08:41:43.831Z</time></trkpt><trkpt lat="38.01033" lon="12.767705"><ele>353.20000000000005</ele><time>2026-04-20T08:41:44.832Z</time></trkpt><trkpt lat="38.010265" lon="12.7677517"><ele>352.6</ele><time>2026-04-20T08:41:45.833Z</time></trkpt><trkpt lat="38.0101483" lon="12.7678317"><ele>352.0</ele><time>2026-04-20T08:41:47.836Z</time></trkpt><trkpt lat="38.01007" lon="12.7678833"><ele>353.40000000000003</ele><time>2026-04-20T08:41:48.835Z</time></trkpt><trkpt lat="38.0099683" lon="12.7679633"><ele>354.8</ele><time>2026-04-20T08:41:49.835Z</time></trkpt><trkpt lat="38.00987" lon="12.7680433"><ele>356.2</ele><time>2026-04-20T08:41:50.835Z</time></trkpt><trkpt lat="38.0097867" lon="12.768115"><ele>357.6</ele><time>2026-04-20T08:41:51.833Z</time></trkpt><trkpt lat="38.0097133" lon="12.7681783"><ele>359.0</ele><time>2026-04-20T08:41:52.832Z</time></trkpt><trkpt lat="38.0096433" lon="12.7682333"><ele>359.0</ele><time>2026-04-20T08:41:53.832Z</time></trkpt><trkpt lat="38.0095733" lon="12.7682817"><ele>359.0</ele><time>2026-04-20T08:41:54.833Z</time></trkpt><trkpt lat="38.0095017" lon="12.7683167"><ele>359.0</ele><time>2026-04-20T08:41:55.83Z</time></trkpt><trkpt lat="38.00943" lon="12.7683567"><ele>359.0</ele><time>2026-04-20T08:41:56.829Z</time></trkpt><trkpt lat="38.0093567" lon="12.7683883"><ele>359.0</ele><time>2026-04-20T08:41:57.829Z</time></trkpt><trkpt lat="38.0092717" lon="12.7683933"><ele>359.0</ele><time>2026-04-20T08:41:58.829Z</time></trkpt><trkpt lat="38.0091717" lon="12.768415"><ele>361.0</ele><time>2026-04-20T08:41:59.828Z</time></trkpt><trkpt lat="38.009045" lon="12.768435"><ele>363.0</ele><time>2026-04-20T08:42:00.83Z</time></trkpt><trkpt lat="38.0089" lon="12.7684633"><ele>365.0</ele><time>2026-04-20T08:42:01.833Z</time></trkpt><trkpt lat="38.00877" lon="12.7684933"><ele>367.0</ele><time>2026-04-20T08:42:02.834Z</time></trkpt><trkpt lat="38.0086483" lon="12.7685233"><ele>366.20000000000005</ele><time>2026-04-20T08:42:03.828Z</time></trkpt><trkpt lat="38.0085317" lon="12.7685583"><ele>365.4</ele><time>2026-04-20T08:42:04.828Z</time></trkpt><trkpt lat="38.0084233" lon="12.768605"><ele>364.6</ele><time>2026-04-20T08:42:05.83Z</time></trkpt><trkpt lat="38.0083367" lon="12.7686517"><ele>363.79999999999995</ele><time>2026-04-20T08:42:06.829Z</time></trkpt><trkpt lat="38.0082567" lon="12.7686967"><ele>363.0</ele><time>2026-04-20T08:42:07.831Z</time></trkpt><trkpt lat="38.0081867" lon="12.7687517"><ele>364.8333333333333</ele><time>2026-04-20T08:42:08.83Z</time></trkpt><trkpt lat="38.008135" lon="12.7688083"><ele>366.6666666666667</ele><time>2026-04-20T08:42:09.832Z</time></trkpt><trkpt lat="38.0080717" lon="12.7689233"><ele>368.5</ele><time>2026-04-20T08:42:11.83Z</time></trkpt><trkpt lat="38.0080383" lon="12.7690483"><ele>370.33333333333337</ele><time>2026-04-20T08:42:13.836Z</time></trkpt><trkpt lat="38.0080383" lon="12.7691317"><ele>372.1666666666667</ele><time>2026-04-20T08:42:14.837Z</time></trkpt><trkpt lat="38.0080583" lon="12.769225"><ele>374.0</ele><time>2026-04-20T08:42:15.832Z</time></trkpt><trkpt lat="38.0081017" lon="12.7693133"><ele>374.0</ele><time>2026-04-20T08:42:16.83Z</time></trkpt><trkpt lat="38.0081667" lon="12.7694"><ele>374.0</ele><time>2026-04-20T08:42:17.829Z</time></trkpt><trkpt lat="38.0082533" lon="12.769475"><ele>374.0</ele><time>2026-04-20T08:42:18.833Z</time></trkpt><trkpt lat="38.0083367" lon="12.769535"><ele>374.0</ele><time>2026-04-20T08:42:19.832Z</time></trkpt><trkpt lat="38.0084033" lon="12.76959"><ele>374.0</ele><time>2026-04-20T08:42:20.832Z</time></trkpt><trkpt lat="38.0084767" lon="12.7696967"><ele>373.6666666666667</ele><time>2026-04-20T08:42:22.831Z</time></trkpt><trkpt lat="38.0084967" lon="12.7698"><ele>373.33333333333337</ele><time>2026-04-20T08:42:24.83Z</time></trkpt><trkpt lat="38.0084783" lon="12.7699233"><ele>373.0</ele><time>2026-04-20T08:42:26.83Z</time></trkpt><trkpt lat="38.0084417" lon="12.7700017"><ele>372.6666666666667</ele><time>2026-04-20T08:42:27.831Z</time></trkpt><trkpt lat="38.0083967" lon="12.770095"><ele>372.3333333333333</ele><time>2026-04-20T08:42:28.831Z</time></trkpt><trkpt lat="38.0083467" lon="12.7702033"><ele>372.0</ele><time>2026-04-20T08:42:29.831Z</time></trkpt><trkpt lat="38.008295" lon="12.770315"><ele>372.0</ele><time>2026-04-20T08:42:30.833Z</time></trkpt><trkpt lat="38.0082467" lon="12.770415"><ele>372.0</ele><time>2026-04-20T08:42:31.833Z</time></trkpt><trkpt lat="38.0081983" lon="12.770515"><ele>372.0</ele><time>2026-04-20T08:42:32.83Z</time></trkpt><trkpt lat="38.0081433" lon="12.77063"><ele>372.0</ele><time>2026-04-20T08:42:33.83Z</time></trkpt><trkpt lat="38.008075" lon="12.7707783"><ele>372.0</ele><time>2026-04-20T08:42:34.832Z</time></trkpt><trkpt lat="38.0080017" lon="12.770945"><ele>371.40000000000003</ele><time>2026-04-20T08:42:35.833Z</time></trkpt><trkpt lat="38.0079333" lon="12.7710883"><ele>370.8</ele><time>2026-04-20T08:42:36.834Z</time></trkpt><trkpt lat="38.0078783" lon="12.7712033"><ele>370.2</ele><time>2026-04-20T08:42:37.83Z</time></trkpt><trkpt lat="38.0078333" lon="12.7713"><ele>369.6</ele><time>2026-04-20T08:42:38.833Z</time></trkpt><trkpt lat="38.0077983" lon="12.7713833"><ele>369.0</ele><time>2026-04-20T08:42:39.831Z</time></trkpt><trkpt lat="38.00777" lon="12.7714633"><ele>369.0</ele><time>2026-04-20T08:42:40.832Z</time></trkpt><trkpt lat="38.0077367" lon="12.771545"><ele>369.0</ele><time>2026-04-20T08:42:41.827Z</time></trkpt><trkpt lat="38.0076983" lon="12.771625"><ele>369.0</ele><time>2026-04-20T08:42:42.83Z</time></trkpt><trkpt lat="38.0076517" lon="12.7717017"><ele>369.0</ele><time>2026-04-20T08:42:43.829Z</time></trkpt><trkpt lat="38.007595" lon="12.7717683"><ele>369.0</ele><time>2026-04-20T08:42:44.833Z</time></trkpt><trkpt lat="38.0075433" lon="12.7718233"><ele>369.0</ele><time>2026-04-20T08:42:45.834Z</time></trkpt><trkpt lat="38.0074367" lon="12.7719183"><ele>369.5</ele><time>2026-04-20T08:42:47.833Z</time></trkpt><trkpt lat="38.0073633" lon="12.7719667"><ele>370.0</ele><time>2026-04-20T08:42:48.834Z</time></trkpt><trkpt lat="38.0072717" lon="12.7720083"><ele>370.5</ele><time>2026-04-20T08:42:49.833Z</time></trkpt><trkpt lat="38.00718" lon="12.772055"><ele>371.0</ele><time>2026-04-20T08:42:50.834Z</time></trkpt><trkpt lat="38.0071017" lon="12.7721"><ele>371.5</ele><time>2026-04-20T08:42:51.831Z</time></trkpt><trkpt lat="38.0070383" lon="12.7721417"><ele>372.0</ele><time>2026-04-20T08:42:52.828Z</time></trkpt><trkpt lat="38.0069833" lon="12.772185"><ele>372.0</ele><time>2026-04-20T08:42:53.828Z</time></trkpt><trkpt lat="38.0068967" lon="12.7722883"><ele>372.0</ele><time>2026-04-20T08:42:55.827Z</time></trkpt><trkpt lat="38.0068733" lon="12.772365"><ele>372.0</ele><time>2026-04-20T08:42:56.828Z</time></trkpt><trkpt lat="38.0068583" lon="12.7724533"><ele>372.0</ele><time>2026-04-20T08:42:57.828Z</time></trkpt><trkpt lat="38.0068383" lon="12.772545"><ele>372.0</ele><time>2026-04-20T08:42:58.827Z</time></trkpt><trkpt lat="38.0068183" lon="12.7726483"><ele>372.0</ele><time>2026-04-20T08:42:59.832Z</time></trkpt><trkpt lat="38.0067933" lon="12.7727617"><ele>371.6</ele><time>2026-04-20T08:43:00.83Z</time></trkpt><trkpt lat="38.0067633" lon="12.7728867"><ele>371.20000000000005</ele><time>2026-04-20T08:43:01.833Z</time></trkpt><trkpt lat="38.0067283" lon="12.77302"><ele>370.8</ele><time>2026-04-20T08:43:02.832Z</time></trkpt><trkpt lat="38.006685" lon="12.7731567"><ele>370.4</ele><time>2026-04-20T08:43:03.83Z</time></trkpt><trkpt lat="38.00664" lon="12.7732733"><ele>370.0</ele><time>2026-04-20T08:43:04.829Z</time></trkpt><trkpt lat="38.0066" lon="12.7733683"><ele>372.1428571428571</ele><time>2026-04-20T08:43:05.833Z</time></trkpt><trkpt lat="38.0065683" lon="12.7734533"><ele>374.2857142857143</ele><time>2026-04-20T08:43:06.83Z</time></trkpt><trkpt lat="38.0065433" lon="12.7735433"><ele>376.42857142857144</ele><time>2026-04-20T08:43:07.831Z</time></trkpt><trkpt lat="38.00652" lon="12.773635"><ele>378.57142857142856</ele><time>2026-04-20T08:43:08.832Z</time></trkpt><trkpt lat="38.0065017" lon="12.7737217"><ele>380.7142857142857</ele><time>2026-04-20T08:43:09.829Z</time></trkpt><trkpt lat="38.0064883" lon="12.7738017"><ele>382.85714285714283</ele><time>2026-04-20T08:43:10.832Z</time></trkpt><trkpt lat="38.0064783" lon="12.7738867"><ele>385.0</ele><time>2026-04-20T08:43:11.831Z</time></trkpt><trkpt lat="38.006455" lon="12.773985"><ele>385.50000000000006</ele><time>2026-04-20T08:43:12.831Z</time></trkpt><trkpt lat="38.0064183" lon="12.774095"><ele>386.0</ele><time>2026-04-20T08:43:13.832Z</time></trkpt><trkpt lat="38.0063767" lon="12.7742117"><ele>386.5</ele><time>2026-04-20T08:43:14.83Z</time></trkpt><trkpt lat="38.0063417" lon="12.77432"><ele>387.0</ele><time>2026-04-20T08:43:15.832Z</time></trkpt><trkpt lat="38.006315" lon="12.7744183"><ele>387.50000000000006</ele><time>2026-04-20T08:43:16.831Z</time></trkpt><trkpt lat="38.0063" lon="12.7745117"><ele>388.0</ele><time>2026-04-20T08:43:17.832Z</time></trkpt><trkpt lat="38.0063033" lon="12.7746033"><ele>388.6666666666667</ele><time>2026-04-20T08:43:18.832Z</time></trkpt><trkpt lat="38.0063167" lon="12.774695"><ele>389.33333333333337</ele><time>2026-04-20T08:43:19.831Z</time></trkpt><trkpt lat="38.0063433" lon="12.7747883"><ele>390.0</ele><time>2026-04-20T08:43:20.831Z</time></trkpt><trkpt lat="38.0063867" lon="12.774895"><ele>390.66666666666663</ele><time>2026-04-20T08:43:21.831Z</time></trkpt><trkpt lat="38.00643" lon="12.7750033"><ele>391.3333333333333</ele><time>2026-04-20T08:43:22.831Z</time></trkpt><trkpt lat="38.0064617" lon="12.7751083"><ele>392.0</ele><time>2026-04-20T08:43:23.833Z</time></trkpt><trkpt lat="38.0064833" lon="12.77521"><ele>392.3333333333333</ele><time>2026-04-20T08:43:24.83Z</time></trkpt><trkpt lat="38.0064933" lon="12.7753067"><ele>392.66666666666663</ele><time>2026-04-20T08:43:25.831Z</time></trkpt><trkpt lat="38.00649" lon="12.7753933"><ele>393.0</ele><time>2026-04-20T08:43:26.831Z</time></trkpt><trkpt lat="38.00648" lon="12.7754767"><ele>393.33333333333337</ele><time>2026-04-20T08:43:27.831Z</time></trkpt><trkpt lat="38.0064467" lon="12.7756233"><ele>393.6666666666667</ele><time>2026-04-20T08:43:29.832Z</time></trkpt><trkpt lat="38.006415" lon="12.775695"><ele>394.0</ele><time>2026-04-20T08:43:30.833Z</time></trkpt><trkpt lat="38.0063667" lon="12.7757667"><ele>394.0</ele><time>2026-04-20T08:43:31.835Z</time></trkpt><trkpt lat="38.0063083" lon="12.775855"><ele>394.0</ele><time>2026-04-20T08:43:32.834Z</time></trkpt><trkpt lat="38.0062483" lon="12.7759667"><ele>394.0</ele><time>2026-04-20T08:43:33.836Z</time></trkpt><trkpt lat="38.006135" lon="12.7762067"><ele>394.0</ele><time>2026-04-20T08:43:35.832Z</time></trkpt><trkpt lat="38.00608" lon="12.776325"><ele>393.2</ele><time>2026-04-20T08:43:36.834Z</time></trkpt><trkpt lat="38.0060333" lon="12.776435"><ele>392.4</ele><time>2026-04-20T08:43:37.832Z</time></trkpt><trkpt lat="38.0059967" lon="12.7765317"><ele>391.6</ele><time>2026-04-20T08:43:38.834Z</time></trkpt><trkpt lat="38.0059567" lon="12.7766317"><ele>390.8</ele><time>2026-04-20T08:43:39.831Z</time></trkpt><trkpt lat="38.0059133" lon="12.7767433"><ele>390.0</ele><time>2026-04-20T08:43:40.832Z</time></trkpt><trkpt lat="38.0058633" lon="12.776865"><ele>390.75</ele><time>2026-04-20T08:43:41.829Z</time></trkpt><trkpt lat="38.0058067" lon="12.7769967"><ele>391.5</ele><time>2026-04-20T08:43:42.833Z</time></trkpt><trkpt lat="38.0057433" lon="12.7771317"><ele>392.25</ele><time>2026-04-20T08:43:43.832Z</time></trkpt><trkpt lat="38.00568" lon="12.7772617"><ele>393.0</ele><time>2026-04-20T08:43:44.832Z</time></trkpt><trkpt lat="38.0056233" lon="12.7773817"><ele>393.0</ele><time>2026-04-20T08:43:45.831Z</time></trkpt><trkpt lat="38.0055683" lon="12.777495"><ele>393.0</ele><time>2026-04-20T08:43:46.831Z</time></trkpt><trkpt lat="38.0055167" lon="12.7776017"><ele>393.0</ele><time>2026-04-20T08:43:47.831Z</time></trkpt><trkpt lat="38.0054667" lon="12.7776967"><ele>393.0</ele><time>2026-04-20T08:43:48.83Z</time></trkpt><trkpt lat="38.0054183" lon="12.7777867"><ele>393.0</ele><time>2026-04-20T08:43:49.834Z</time></trkpt><trkpt lat="38.0053667" lon="12.7778867"><ele>392.75</ele><time>2026-04-20T08:43:50.833Z</time></trkpt><trkpt lat="38.00531" lon="12.7780033"><ele>392.5</ele><time>2026-04-20T08:43:51.834Z</time></trkpt><trkpt lat="38.0052517" lon="12.7781317"><ele>392.25</ele><time>2026-04-20T08:43:52.833Z</time></trkpt><trkpt lat="38.0051983" lon="12.7782683"><ele>392.0</ele><time>2026-04-20T08:43:53.835Z</time></trkpt><trkpt lat="38.005155" lon="12.7784033"><ele>391.75</ele><time>2026-04-20T08:43:54.835Z</time></trkpt><trkpt lat="38.0051183" lon="12.778535"><ele>391.5</ele><time>2026-04-20T08:43:55.831Z</time></trkpt><trkpt lat="38.0050833" lon="12.77867"><ele>391.25</ele><time>2026-04-20T08:43:56.828Z</time></trkpt><trkpt lat="38.005045" lon="12.7788117"><ele>391.0</ele><time>2026-04-20T08:43:57.829Z</time></trkpt><trkpt lat="38.00501" lon="12.7789533"><ele>393.25</ele><time>2026-04-20T08:43:58.827Z</time></trkpt><trkpt lat="38.0049733" lon="12.7790817"><ele>395.5</ele><time>2026-04-20T08:43:59.832Z</time></trkpt><trkpt lat="38.0049333" lon="12.7792117"><ele>397.75</ele><time>2026-04-20T08:44:00.831Z</time></trkpt><trkpt lat="38.0048833" lon="12.7793583"><ele>400.0</ele><time>2026-04-20T08:44:01.831Z</time></trkpt><trkpt lat="38.0048267" lon="12.7795183"><ele>400.0</ele><time>2026-04-20T08:44:02.832Z</time></trkpt><trkpt lat="38.0047717" lon="12.779675"><ele>400.0</ele><time>2026-04-20T08:44:03.828Z</time></trkpt><trkpt lat="38.0047217" lon="12.7798217"><ele>400.0</ele><time>2026-04-20T08:44:04.83Z</time></trkpt><trkpt lat="38.0046783" lon="12.7799567"><ele>400.0</ele><time>2026-04-20T08:44:05.831Z</time></trkpt><trkpt lat="38.00464" lon="12.7800917"><ele>400.0</ele><time>2026-04-20T08:44:06.831Z</time></trkpt><trkpt lat="38.0046017" lon="12.7802267"><ele>400.0</ele><time>2026-04-20T08:44:07.83Z</time></trkpt><trkpt lat="38.0045633" lon="12.7803567"><ele>400.0</ele><time>2026-04-20T08:44:08.829Z</time></trkpt><trkpt lat="38.0045217" lon="12.7804833"><ele>400.0</ele><time>2026-04-20T08:44:09.83Z</time></trkpt><trkpt lat="38.0044767" lon="12.7805967"><ele>400.0</ele><time>2026-04-20T08:44:10.831Z</time></trkpt><trkpt lat="38.0044333" lon="12.78069"><ele>400.00000000000006</ele><time>2026-04-20T08:44:11.831Z</time></trkpt><trkpt lat="38.0043933" lon="12.78077"><ele>400.0</ele><time>2026-04-20T08:44:12.83Z</time></trkpt><trkpt lat="38.0043533" lon="12.78084"><ele>400.0</ele><time>2026-04-20T08:44:13.829Z</time></trkpt><trkpt lat="38.0043" lon="12.7809317"><ele>400.0</ele><time>2026-04-20T08:44:15.831Z</time></trkpt><trkpt lat="38.0042467" lon="12.7810083"><ele>400.00000000000006</ele><time>2026-04-20T08:44:19.829Z</time></trkpt><trkpt lat="38.0041917" lon="12.7810783"><ele>400.0</ele><time>2026-04-20T08:44:22.829Z</time></trkpt><trkpt lat="38.0041233" lon="12.7811483"><ele>400.83333333333337</ele><time>2026-04-20T08:44:34.831Z</time></trkpt><trkpt lat="38.0040467" lon="12.7812467"><ele>401.6666666666667</ele><time>2026-04-20T08:44:48.831Z</time></trkpt><trkpt lat="38.003985" lon="12.7813183"><ele>402.5</ele><time>2026-04-20T08:44:50.831Z</time></trkpt><trkpt lat="38.00393" lon="12.7813867"><ele>403.33333333333337</ele><time>2026-04-20T08:44:52.832Z</time></trkpt><trkpt lat="38.00387" lon="12.7814517"><ele>404.1666666666667</ele><time>2026-04-20T08:44:54.834Z</time></trkpt><trkpt lat="38.00381" lon="12.7815217"><ele>405.0</ele><time>2026-04-20T08:44:56.835Z</time></trkpt><trkpt lat="38.0037233" lon="12.781635"><ele>405.0</ele><time>2026-04-20T08:44:58.827Z</time></trkpt><trkpt lat="38.0036583" lon="12.7817133"><ele>405.0</ele><time>2026-04-20T08:44:59.833Z</time></trkpt><trkpt lat="38.003555" lon="12.7818267"><ele>405.0</ele><time>2026-04-20T08:45:00.831Z</time></trkpt><trkpt lat="38.0034417" lon="12.78195"><ele>405.0</ele><time>2026-04-20T08:45:01.828Z</time></trkpt><trkpt lat="38.0033133" lon="12.78208"><ele>408.66666666666663</ele><time>2026-04-20T08:45:02.827Z</time></trkpt><trkpt lat="38.00318" lon="12.7822083"><ele>412.3333333333333</ele><time>2026-04-20T08:45:03.827Z</time></trkpt><trkpt lat="38.003055" lon="12.78232"><ele>416.0</ele><time>2026-04-20T08:45:04.827Z</time></trkpt><trkpt lat="38.0029383" lon="12.7824183"><ele>416.0</ele><time>2026-04-20T08:45:05.83Z</time></trkpt><trkpt lat="38.0028233" lon="12.7825167"><ele>416.0</ele><time>2026-04-20T08:45:06.831Z</time></trkpt><trkpt lat="38.00271" lon="12.7826133"><ele>416.0</ele><time>2026-04-20T08:45:07.827Z</time></trkpt><trkpt lat="38.0026017" lon="12.7827017"><ele>416.0</ele><time>2026-04-20T08:45:08.831Z</time></trkpt><trkpt lat="38.0024967" lon="12.7827717"><ele>416.0</ele><time>2026-04-20T08:45:09.831Z</time></trkpt><trkpt lat="38.002385" lon="12.7828367"><ele>416.0</ele><time>2026-04-20T08:45:10.828Z</time></trkpt><trkpt lat="38.002265" lon="12.7828883"><ele>416.0</ele><time>2026-04-20T08:45:11.831Z</time></trkpt><trkpt lat="38.0021417" lon="12.7829367"><ele>416.0</ele><time>2026-04-20T08:45:12.831Z</time></trkpt><trkpt lat="38.0020183" lon="12.7829817"><ele>416.0</ele><time>2026-04-20T08:45:13.829Z</time></trkpt><trkpt lat="38.001895" lon="12.7830283"><ele>416.0</ele><time>2026-04-20T08:45:14.831Z</time></trkpt><trkpt lat="38.00178" lon="12.7830767"><ele>416.0</ele><time>2026-04-20T08:45:15.828Z</time></trkpt><trkpt lat="38.0016767" lon="12.7831183"><ele>416.0</ele><time>2026-04-20T08:45:16.828Z</time></trkpt><trkpt lat="38.0015833" lon="12.7831567"><ele>417.6</ele><time>2026-04-20T08:45:17.831Z</time></trkpt><trkpt lat="38.0015067" lon="12.7831983"><ele>419.20000000000005</ele><time>2026-04-20T08:45:18.831Z</time></trkpt><trkpt lat="38.001445" lon="12.7832467"><ele>420.79999999999995</ele><time>2026-04-20T08:45:19.831Z</time></trkpt><trkpt lat="38.0013667" lon="12.783345"><ele>422.4</ele><time>2026-04-20T08:45:21.829Z</time></trkpt><trkpt lat="38.0013217" lon="12.7834217"><ele>424.0</ele><time>2026-04-20T08:45:23.83Z</time></trkpt><trkpt lat="38.0012467" lon="12.783565"><ele>424.0</ele><time>2026-04-20T08:45:25.827Z</time></trkpt><trkpt lat="38.0011833" lon="12.7836767"><ele>424.0</ele><time>2026-04-20T08:45:26.83Z</time></trkpt><trkpt lat="38.0011133" lon="12.783815"><ele>424.0</ele><time>2026-04-20T08:45:27.83Z</time></trkpt><trkpt lat="38.0010467" lon="12.7839733"><ele>424.0</ele><time>2026-04-20T08:45:28.829Z</time></trkpt><trkpt lat="38.0009767" lon="12.7841567"><ele>424.6666666666667</ele><time>2026-04-20T08:45:29.828Z</time></trkpt><trkpt lat="38.0009033" lon="12.7843567"><ele>425.33333333333337</ele><time>2026-04-20T08:45:30.828Z</time></trkpt><trkpt lat="38.0008317" lon="12.7845383"><ele>426.0</ele><time>2026-04-20T08:45:31.832Z</time></trkpt><trkpt lat="38.0007683" lon="12.784695"><ele>428.20000000000005</ele><time>2026-04-20T08:45:32.829Z</time></trkpt><trkpt lat="38.0007133" lon="12.7848317"><ele>430.40000000000003</ele><time>2026-04-20T08:45:33.83Z</time></trkpt><trkpt lat="38.000665" lon="12.7849517"><ele>432.6</ele><time>2026-04-20T08:45:34.827Z</time></trkpt><trkpt lat="38.0006217" lon="12.7850617"><ele>434.8</ele><time>2026-04-20T08:45:35.829Z</time></trkpt><trkpt lat="38.0005767" lon="12.7851533"><ele>437.0</ele><time>2026-04-20T08:45:36.829Z</time></trkpt><trkpt lat="38.0005217" lon="12.7852317"><ele>437.0</ele><time>2026-04-20T08:45:37.83Z</time></trkpt><trkpt lat="38.0004567" lon="12.7853"><ele>437.0</ele><time>2026-04-20T08:45:38.828Z</time></trkpt><trkpt lat="38.0003617" lon="12.7853667"><ele>437.0</ele><time>2026-04-20T08:45:39.833Z</time></trkpt><trkpt lat="38.000245" lon="12.78544"><ele>437.0</ele><time>2026-04-20T08:45:40.833Z</time></trkpt><trkpt lat="38.0001233" lon="12.7855117"><ele>437.0</ele><time>2026-04-20T08:45:41.834Z</time></trkpt><trkpt lat="38.0000133" lon="12.7855783"><ele>437.00000000000006</ele><time>2026-04-20T08:45:42.835Z</time></trkpt><trkpt lat="37.9999217" lon="12.7856383"><ele>437.00000000000006</ele><time>2026-04-20T08:45:43.839Z</time></trkpt><trkpt lat="37.99984" lon="12.7856983"><ele>437.0</ele><time>2026-04-20T08:45:44.829Z</time></trkpt><trkpt lat="37.9997683" lon="12.7857683"><ele>437.0</ele><time>2026-04-20T08:45:45.829Z</time></trkpt><trkpt lat="37.9997067" lon="12.7858433"><ele>437.0</ele><time>2026-04-20T08:45:46.828Z</time></trkpt><trkpt lat="37.9996533" lon="12.7859183"><ele>437.00000000000006</ele><time>2026-04-20T08:45:47.829Z</time></trkpt><trkpt lat="37.9996033" lon="12.7860017"><ele>437.00000000000006</ele><time>2026-04-20T08:45:48.828Z</time></trkpt><trkpt lat="37.9995467" lon="12.78612"><ele>437.0</ele><time>2026-04-20T08:45:49.831Z</time></trkpt><trkpt lat="37.9994817" lon="12.7862583"><ele>437.0</ele><time>2026-04-20T08:45:50.829Z</time></trkpt><trkpt lat="37.99941" lon="12.7864017"><ele>438.5</ele><time>2026-04-20T08:45:51.829Z</time></trkpt><trkpt lat="37.9993267" lon="12.7865467"><ele>440.0</ele><time>2026-04-20T08:45:52.829Z</time></trkpt><trkpt lat="37.9992433" lon="12.786685"><ele>441.5</ele><time>2026-04-20T08:45:53.831Z</time></trkpt><trkpt lat="37.99917" lon="12.7868"><ele>443.0</ele><time>2026-04-20T08:45:54.832Z</time></trkpt><trkpt lat="37.9991083" lon="12.7868967"><ele>444.16666666666663</ele><time>2026-04-20T08:45:55.833Z</time></trkpt><trkpt lat="37.9990633" lon="12.7869867"><ele>445.3333333333333</ele><time>2026-04-20T08:45:56.833Z</time></trkpt><trkpt lat="37.9990317" lon="12.7870783"><ele>446.5</ele><time>2026-04-20T08:45:57.832Z</time></trkpt><trkpt lat="37.9990133" lon="12.7871767"><ele>447.66666666666663</ele><time>2026-04-20T08:45:58.833Z</time></trkpt><trkpt lat="37.99901" lon="12.7872817"><ele>448.8333333333333</ele><time>2026-04-20T08:45:59.83Z</time></trkpt><trkpt lat="37.9990183" lon="12.7873867"><ele>450.0</ele><time>2026-04-20T08:46:00.827Z</time></trkpt><trkpt lat="37.999035" lon="12.7874983"><ele>450.0</ele><time>2026-04-20T08:46:01.828Z</time></trkpt><trkpt lat="37.99906" lon="12.7876283"><ele>450.0</ele><time>2026-04-20T08:46:02.83Z</time></trkpt><trkpt lat="37.9990867" lon="12.787755"><ele>450.0</ele><time>2026-04-20T08:46:03.83Z</time></trkpt><trkpt lat="37.9991133" lon="12.7878667"><ele>450.0</ele><time>2026-04-20T08:46:04.831Z</time></trkpt><trkpt lat="37.99915" lon="12.7879833"><ele>450.0</ele><time>2026-04-20T08:46:05.832Z</time></trkpt><trkpt lat="37.9991917" lon="12.7881033"><ele>448.0</ele><time>2026-04-20T08:46:06.833Z</time></trkpt><trkpt lat="37.9992317" lon="12.7882167"><ele>446.0</ele><time>2026-04-20T08:46:07.834Z</time></trkpt><trkpt lat="37.9992683" lon="12.7883183"><ele>444.0</ele><time>2026-04-20T08:46:08.832Z</time></trkpt><trkpt lat="37.9993017" lon="12.788425"><ele>442.0</ele><time>2026-04-20T08:46:09.83Z</time></trkpt><trkpt lat="37.9993333" lon="12.7885517"><ele>440.0</ele><time>2026-04-20T08:46:10.831Z</time></trkpt><trkpt lat="37.999355" lon="12.7886867"><ele>438.4</ele><time>2026-04-20T08:46:11.832Z</time></trkpt><trkpt lat="37.9993733" lon="12.7888167"><ele>436.8</ele><time>2026-04-20T08:46:12.829Z</time></trkpt><trkpt lat="37.9993833" lon="12.788945"><ele>435.20000000000005</ele><time>2026-04-20T08:46:13.831Z</time></trkpt><trkpt lat="37.9993883" lon="12.789075"><ele>433.6</ele><time>2026-04-20T08:46:14.836Z</time></trkpt><trkpt lat="37.9993917" lon="12.7892083"><ele>432.0</ele><time>2026-04-20T08:46:15.829Z</time></trkpt><trkpt lat="37.999395" lon="12.7893467"><ele>430.8</ele><time>2026-04-20T08:46:16.831Z</time></trkpt><trkpt lat="37.9993983" lon="12.7894817"><ele>429.6</ele><time>2026-04-20T08:46:17.83Z</time></trkpt><trkpt lat="37.9994033" lon="12.789615"><ele>428.40000000000003</ele><time>2026-04-20T08:46:18.83Z</time></trkpt><trkpt lat="37.9994067" lon="12.7897533"><ele>427.20000000000005</ele><time>2026-04-20T08:46:19.83Z</time></trkpt><trkpt lat="37.999415" lon="12.7898933"><ele>426.0</ele><time>2026-04-20T08:46:20.83Z</time></trkpt><trkpt lat="37.9994233" lon="12.790025"><ele>426.0</ele><time>2026-04-20T08:46:21.831Z</time></trkpt><trkpt lat="37.9994317" lon="12.7901467"><ele>426.0</ele><time>2026-04-20T08:46:22.832Z</time></trkpt><trkpt lat="37.9994417" lon="12.7902567"><ele>426.0</ele><time>2026-04-20T08:46:23.829Z</time></trkpt><trkpt lat="37.99945" lon="12.790355"><ele>426.0</ele><time>2026-04-20T08:46:24.828Z</time></trkpt><trkpt lat="37.9994617" lon="12.7904433"><ele>426.0</ele><time>2026-04-20T08:46:25.83Z</time></trkpt><trkpt lat="37.9994767" lon="12.7905283"><ele>426.0</ele><time>2026-04-20T08:46:26.831Z</time></trkpt><trkpt lat="37.9994967" lon="12.7906233"><ele>424.75</ele><time>2026-04-20T08:46:27.83Z</time></trkpt><trkpt lat="37.9995167" lon="12.7907367"><ele>423.5</ele><time>2026-04-20T08:46:28.83Z</time></trkpt><trkpt lat="37.9995317" lon="12.7908733"><ele>422.25</ele><time>2026-04-20T08:46:29.831Z</time></trkpt><trkpt lat="37.99954" lon="12.7910333"><ele>421.0</ele><time>2026-04-20T08:46:30.83Z</time></trkpt><trkpt lat="37.9995417" lon="12.7912067"><ele>419.75</ele><time>2026-04-20T08:46:31.828Z</time></trkpt><trkpt lat="37.9995383" lon="12.7913783"><ele>418.5</ele><time>2026-04-20T08:46:32.83Z</time></trkpt><trkpt lat="37.999535" lon="12.7915533"><ele>417.25</ele><time>2026-04-20T08:46:33.833Z</time></trkpt><trkpt lat="37.9995317" lon="12.7917233"><ele>416.0</ele><time>2026-04-20T08:46:34.83Z</time></trkpt><trkpt lat="37.99953" lon="12.791885"><ele>414.5</ele><time>2026-04-20T08:46:35.828Z</time></trkpt><trkpt lat="37.99953" lon="12.79204"><ele>413.0</ele><time>2026-04-20T08:46:36.831Z</time></trkpt><trkpt lat="37.9995317" lon="12.79219"><ele>411.5</ele><time>2026-04-20T08:46:37.831Z</time></trkpt><trkpt lat="37.9995333" lon="12.7923333"><ele>410.0</ele><time>2026-04-20T08:46:38.831Z</time></trkpt><trkpt lat="37.999535" lon="12.7924683"><ele>410.0</ele><time>2026-04-20T08:46:39.832Z</time></trkpt><trkpt lat="37.9995367" lon="12.7925933"><ele>410.0</ele><time>2026-04-20T08:46:40.828Z</time></trkpt><trkpt lat="37.9995383" lon="12.792715"><ele>410.0</ele><time>2026-04-20T08:46:41.832Z</time></trkpt><trkpt lat="37.9995383" lon="12.79284"><ele>410.0</ele><time>2026-04-20T08:46:42.833Z</time></trkpt><trkpt lat="37.9995333" lon="12.7929683"><ele>410.0</ele><time>2026-04-20T08:46:43.831Z</time></trkpt><trkpt lat="37.9995217" lon="12.7931"><ele>408.75</ele><time>2026-04-20T08:46:44.834Z</time></trkpt><trkpt lat="37.999505" lon="12.7932333"><ele>407.5</ele><time>2026-04-20T08:46:45.831Z</time></trkpt><trkpt lat="37.9994817" lon="12.7933733"><ele>406.25</ele><time>2026-04-20T08:46:46.831Z</time></trkpt><trkpt lat="37.9994517" lon="12.793525"><ele>405.0</ele><time>2026-04-20T08:46:47.831Z</time></trkpt><trkpt lat="37.99942" lon="12.7936817"><ele>403.0</ele><time>2026-04-20T08:46:48.834Z</time></trkpt><trkpt lat="37.9993883" lon="12.7938333"><ele>401.0</ele><time>2026-04-20T08:46:49.829Z</time></trkpt><trkpt lat="37.9993583" lon="12.7939767"><ele>399.0</ele><time>2026-04-20T08:46:50.834Z</time></trkpt><trkpt lat="37.99933" lon="12.7941083"><ele>397.0</ele><time>2026-04-20T08:46:51.831Z</time></trkpt><trkpt lat="37.9993" lon="12.7942283"><ele>395.0</ele><time>2026-04-20T08:46:52.83Z</time></trkpt><trkpt lat="37.999275" lon="12.794335"><ele>395.16666666666663</ele><time>2026-04-20T08:46:53.833Z</time></trkpt><trkpt lat="37.99925" lon="12.794435"><ele>395.3333333333333</ele><time>2026-04-20T08:46:54.833Z</time></trkpt><trkpt lat="37.9992267" lon="12.7945283"><ele>395.5</ele><time>2026-04-20T08:46:55.829Z</time></trkpt><trkpt lat="37.9992067" lon="12.7946167"><ele>395.66666666666663</ele><time>2026-04-20T08:46:56.835Z</time></trkpt><trkpt lat="37.9991867" lon="12.7947"><ele>395.8333333333333</ele><time>2026-04-20T08:46:57.837Z</time></trkpt><trkpt lat="37.9991667" lon="12.7947783"><ele>396.0</ele><time>2026-04-20T08:46:58.833Z</time></trkpt><trkpt lat="37.9991383" lon="12.79489"><ele>396.0</ele><time>2026-04-20T08:47:00.835Z</time></trkpt><trkpt lat="37.9991217" lon="12.79498"><ele>396.0</ele><time>2026-04-20T08:47:03.831Z</time></trkpt><trkpt lat="37.999165" lon="12.79489"><ele>396.0</ele><time>2026-04-20T08:48:29.828Z</time></trkpt><trkpt lat="37.9991733" lon="12.7948017"><ele>396.0</ele><time>2026-04-20T08:48:30.829Z</time></trkpt><trkpt lat="37.9991933" lon="12.7946917"><ele>396.0</ele><time>2026-04-20T08:48:31.829Z</time></trkpt><trkpt lat="37.9992317" lon="12.7945433"><ele>396.0</ele><time>2026-04-20T08:48:32.83Z</time></trkpt><trkpt lat="37.9992717" lon="12.7943767"><ele>395.75</ele><time>2026-04-20T08:48:33.828Z</time></trkpt><trkpt lat="37.9993083" lon="12.7941983"><ele>395.5</ele><time>2026-04-20T08:48:34.832Z</time></trkpt><trkpt lat="37.9993467" lon="12.7940333"><ele>395.25</ele><time>2026-04-20T08:48:35.827Z</time></trkpt><trkpt lat="37.9993783" lon="12.7938867"><ele>395.0</ele><time>2026-04-20T08:48:36.828Z</time></trkpt><trkpt lat="37.9994083" lon="12.79375"><ele>395.0</ele><time>2026-04-20T08:48:37.832Z</time></trkpt><trkpt lat="37.999435" lon="12.7936167"><ele>395.0</ele><time>2026-04-20T08:48:38.828Z</time></trkpt><trkpt lat="37.9994617" lon="12.793485"><ele>395.0</ele><time>2026-04-20T08:48:39.832Z</time></trkpt><trkpt lat="37.999485" lon="12.793355"><ele>395.0</ele><time>2026-04-20T08:48:40.837Z</time></trkpt><trkpt lat="37.9995067" lon="12.793225"><ele>395.0</ele><time>2026-04-20T08:48:41.828Z</time></trkpt><trkpt lat="37.99953" lon="12.7931"><ele>397.0</ele><time>2026-04-20T08:48:42.832Z</time></trkpt><trkpt lat="37.9995433" lon="12.7929717"><ele>399.0</ele><time>2026-04-20T08:48:43.834Z</time></trkpt><trkpt lat="37.9995533" lon="12.7928417"><ele>401.0</ele><time>2026-04-20T08:48:44.827Z</time></trkpt><trkpt lat="37.9995583" lon="12.792715"><ele>403.0</ele><time>2026-04-20T08:48:45.828Z</time></trkpt><trkpt lat="37.9995583" lon="12.79258"><ele>405.0</ele><time>2026-04-20T08:48:46.829Z</time></trkpt><trkpt lat="37.9995567" lon="12.792435"><ele>406.25</ele><time>2026-04-20T08:48:47.83Z</time></trkpt><trkpt lat="37.9995533" lon="12.7922717"><ele>407.5</ele><time>2026-04-20T08:48:48.832Z</time></trkpt><trkpt lat="37.9995533" lon="12.7921067"><ele>408.75</ele><time>2026-04-20T08:48:49.831Z</time></trkpt><trkpt lat="37.9995533" lon="12.7919483"><ele>410.0</ele><time>2026-04-20T08:48:50.83Z</time></trkpt><trkpt lat="37.9995533" lon="12.7917933"><ele>411.5</ele><time>2026-04-20T08:48:51.829Z</time></trkpt><trkpt lat="37.9995567" lon="12.7916433"><ele>413.0</ele><time>2026-04-20T08:48:52.833Z</time></trkpt><trkpt lat="37.9995583" lon="12.7914933"><ele>414.5</ele><time>2026-04-20T08:48:53.83Z</time></trkpt><trkpt lat="37.99956" lon="12.791345"><ele>416.0</ele><time>2026-04-20T08:48:54.83Z</time></trkpt><trkpt lat="37.99956" lon="12.7912017"><ele>416.0</ele><time>2026-04-20T08:48:55.835Z</time></trkpt><trkpt lat="37.9995583" lon="12.7910667"><ele>416.0</ele><time>2026-04-20T08:48:56.828Z</time></trkpt><trkpt lat="37.9995483" lon="12.790945"><ele>416.0</ele><time>2026-04-20T08:48:57.831Z</time></trkpt><trkpt lat="37.9995367" lon="12.79083"><ele>416.0</ele><time>2026-04-20T08:48:58.828Z</time></trkpt><trkpt lat="37.999525" lon="12.790725"><ele>416.0</ele><time>2026-04-20T08:48:59.831Z</time></trkpt><trkpt lat="37.99951" lon="12.7906183"><ele>416.8333333333333</ele><time>2026-04-20T08:49:00.833Z</time></trkpt><trkpt lat="37.999495" lon="12.790525"><ele>417.66666666666663</ele><time>2026-04-20T08:49:01.829Z</time></trkpt><trkpt lat="37.9994767" lon="12.7903983"><ele>418.5</ele><time>2026-04-20T08:49:03.831Z</time></trkpt><trkpt lat="37.9994317" lon="12.7904567"><ele>419.33333333333337</ele><time>2026-04-20T08:51:22.832Z</time></trkpt><trkpt lat="37.999485" lon="12.79058"><ele>420.1666666666667</ele><time>2026-04-20T08:51:24.828Z</time></trkpt><trkpt lat="37.9995117" lon="12.79067"><ele>421.0</ele><time>2026-04-20T08:51:25.828Z</time></trkpt><trkpt lat="37.9995367" lon="12.7907783"><ele>421.0</ele><time>2026-04-20T08:51:26.829Z</time></trkpt><trkpt lat="37.99955" lon="12.7909067"><ele>421.0</ele><time>2026-04-20T08:51:27.829Z</time></trkpt><trkpt lat="37.9995567" lon="12.7910517"><ele>421.0</ele><time>2026-04-20T08:51:28.831Z</time></trkpt><trkpt lat="37.9995567" lon="12.7912117"><ele>421.0</ele><time>2026-04-20T08:51:29.831Z</time></trkpt><trkpt lat="37.9995517" lon="12.7913783"><ele>419.75</ele><time>2026-04-20T08:51:30.827Z</time></trkpt><trkpt lat="37.9995467" lon="12.7915433"><ele>418.5</ele><time>2026-04-20T08:51:31.829Z</time></trkpt><trkpt lat="37.999545" lon="12.7917033"><ele>417.25</ele><time>2026-04-20T08:51:32.827Z</time></trkpt><trkpt lat="37.9995417" lon="12.791855"><ele>416.0</ele><time>2026-04-20T08:51:33.832Z</time></trkpt><trkpt lat="37.9995417" lon="12.7920017"><ele>414.8</ele><time>2026-04-20T08:51:34.829Z</time></trkpt><trkpt lat="37.9995417" lon="12.792145"><ele>413.6</ele><time>2026-04-20T08:51:35.832Z</time></trkpt><trkpt lat="37.99954" lon="12.792285"><ele>412.4</ele><time>2026-04-20T08:51:36.829Z</time></trkpt><trkpt lat="37.99954" lon="12.792415"><ele>411.2</ele><time>2026-04-20T08:51:37.83Z</time></trkpt><trkpt lat="37.9995383" lon="12.7925383"><ele>410.0</ele><time>2026-04-20T08:51:38.832Z</time></trkpt><trkpt lat="37.9995367" lon="12.792655"><ele>409.0</ele><time>2026-04-20T08:51:39.828Z</time></trkpt><trkpt lat="37.999535" lon="12.792775"><ele>408.0</ele><time>2026-04-20T08:51:40.829Z</time></trkpt><trkpt lat="37.9995333" lon="12.7929017"><ele>407.0</ele><time>2026-04-20T08:51:41.833Z</time></trkpt><trkpt lat="37.999525" lon="12.7930333"><ele>406.0</ele><time>2026-04-20T08:51:42.829Z</time></trkpt><trkpt lat="37.99951" lon="12.7931667"><ele>405.0</ele><time>2026-04-20T08:51:43.833Z</time></trkpt><trkpt lat="37.9994883" lon="12.7933133"><ele>405.0</ele><time>2026-04-20T08:51:44.833Z</time></trkpt><trkpt lat="37.9994567" lon="12.793475"><ele>405.0</ele><time>2026-04-20T08:51:45.834Z</time></trkpt><trkpt lat="37.9994233" lon="12.7936417"><ele>405.0</ele><time>2026-04-20T08:51:46.833Z</time></trkpt><trkpt lat="37.99939" lon="12.7937983"><ele>405.0</ele><time>2026-04-20T08:51:47.83Z</time></trkpt><trkpt lat="37.9993567" lon="12.7939517"><ele>403.0</ele><time>2026-04-20T08:51:48.833Z</time></trkpt><trkpt lat="37.9993283" lon="12.794095"><ele>401.0</ele><time>2026-04-20T08:51:49.836Z</time></trkpt><trkpt lat="37.9992967" lon="12.7942333"><ele>399.0</ele><time>2026-04-20T08:51:50.832Z</time></trkpt><trkpt lat="37.999265" lon="12.79437"><ele>397.0</ele><time>2026-04-20T08:51:51.837Z</time></trkpt><trkpt lat="37.99924" lon="12.794495"><ele>395.0</ele><time>2026-04-20T08:51:52.833Z</time></trkpt><trkpt lat="37.9992167" lon="12.79461"><ele>395.16666666666663</ele><time>2026-04-20T08:51:53.834Z</time></trkpt><trkpt lat="37.9991917" lon="12.7947117"><ele>395.3333333333333</ele><time>2026-04-20T08:51:54.836Z</time></trkpt><trkpt lat="37.9991733" lon="12.7947933"><ele>395.5</ele><time>2026-04-20T08:51:55.832Z</time></trkpt><trkpt lat="37.9991433" lon="12.7949417"><ele>395.66666666666663</ele><time>2026-04-20T08:51:57.832Z</time></trkpt><trkpt lat="37.9991667" lon="12.79505"><ele>395.8333333333333</ele><time>2026-04-20T08:51:59.833Z</time></trkpt><trkpt lat="37.9992333" lon="12.79512"><ele>396.0</ele><time>2026-04-20T08:52:01.833Z</time></trkpt><trkpt lat="37.9993217" lon="12.7951417"><ele>394.4</ele><time>2026-04-20T08:52:03.83Z</time></trkpt><trkpt lat="37.99944" lon="12.7951167"><ele>392.8</ele><time>2026-04-20T08:52:05.83Z</time></trkpt><trkpt lat="37.99951" lon="12.79509"><ele>391.2</ele><time>2026-04-20T08:52:06.831Z</time></trkpt><trkpt lat="37.99962" lon="12.795085"><ele>389.59999999999997</ele><time>2026-04-20T08:52:08.833Z</time></trkpt><trkpt lat="37.9997217" lon="12.7951567"><ele>388.0</ele><time>2026-04-20T08:52:10.834Z</time></trkpt><trkpt lat="37.9997833" lon="12.7952767"><ele>386.59999999999997</ele><time>2026-04-20T08:52:12.834Z</time></trkpt><trkpt lat="37.9997767" lon="12.7954233"><ele>385.2</ele><time>2026-04-20T08:52:14.836Z</time></trkpt><trkpt lat="37.9997483" lon="12.7955117"><ele>383.8</ele><time>2026-04-20T08:52:15.833Z</time></trkpt><trkpt lat="37.9997067" lon="12.7956167"><ele>382.4</ele><time>2026-04-20T08:52:16.828Z</time></trkpt><trkpt lat="37.9996517" lon="12.7957367"><ele>381.0</ele><time>2026-04-20T08:52:17.832Z</time></trkpt><trkpt lat="37.99959" lon="12.79587"><ele>378.5</ele><time>2026-04-20T08:52:18.833Z</time></trkpt><trkpt lat="37.9995233" lon="12.7960183"><ele>376.0</ele><time>2026-04-20T08:52:19.835Z</time></trkpt><trkpt lat="37.9994483" lon="12.7961733"><ele>373.5</ele><time>2026-04-20T08:52:20.834Z</time></trkpt><trkpt lat="37.9993833" lon="12.796315"><ele>371.0</ele><time>2026-04-20T08:52:21.832Z</time></trkpt><trkpt lat="37.9993067" lon="12.796455"><ele>371.0</ele><time>2026-04-20T08:52:22.83Z</time></trkpt><trkpt lat="37.999235" lon="12.7965867"><ele>371.0</ele><time>2026-04-20T08:52:23.831Z</time></trkpt><trkpt lat="37.99917" lon="12.7967133"><ele>371.0</ele><time>2026-04-20T08:52:24.834Z</time></trkpt><trkpt lat="37.99911" lon="12.79684"><ele>371.0</ele><time>2026-04-20T08:52:25.833Z</time></trkpt><trkpt lat="37.99905" lon="12.7969633"><ele>370.4</ele><time>2026-04-20T08:52:26.831Z</time></trkpt><trkpt lat="37.9989917" lon="12.7970833"><ele>369.8</ele><time>2026-04-20T08:52:27.834Z</time></trkpt><trkpt lat="37.99894" lon="12.7971983"><ele>369.2</ele><time>2026-04-20T08:52:28.83Z</time></trkpt><trkpt lat="37.9988917" lon="12.7973017"><ele>368.59999999999997</ele><time>2026-04-20T08:52:29.833Z</time></trkpt><trkpt lat="37.9988467" lon="12.7973983"><ele>368.0</ele><time>2026-04-20T08:52:30.831Z</time></trkpt><trkpt lat="37.9988033" lon="12.7974867"><ele>368.0</ele><time>2026-04-20T08:52:31.83Z</time></trkpt><trkpt lat="37.9987533" lon="12.7975717"><ele>368.0</ele><time>2026-04-20T08:52:32.83Z</time></trkpt><trkpt lat="37.9986967" lon="12.7976617"><ele>368.0</ele><time>2026-04-20T08:52:33.831Z</time></trkpt><trkpt lat="37.9986517" lon="12.7977367"><ele>368.0</ele><time>2026-04-20T08:52:34.83Z</time></trkpt><trkpt lat="37.9985917" lon="12.7978483"><ele>368.0</ele><time>2026-04-20T08:52:36.83Z</time></trkpt><trkpt lat="37.9985783" lon="12.79799"><ele>366.79999999999995</ele><time>2026-04-20T08:52:38.833Z</time></trkpt><trkpt lat="37.9985683" lon="12.7980767"><ele>365.6</ele><time>2026-04-20T08:52:39.832Z</time></trkpt><trkpt lat="37.9985417" lon="12.79818"><ele>364.4</ele><time>2026-04-20T08:52:40.831Z</time></trkpt><trkpt lat="37.9985017" lon="12.79829"><ele>363.20000000000005</ele><time>2026-04-20T08:52:41.832Z</time></trkpt><trkpt lat="37.9984517" lon="12.7984"><ele>362.0</ele><time>2026-04-20T08:52:42.829Z</time></trkpt><trkpt lat="37.9984" lon="12.79852"><ele>361.6</ele><time>2026-04-20T08:52:43.833Z</time></trkpt><trkpt lat="37.9983483" lon="12.7986483"><ele>361.20000000000005</ele><time>2026-04-20T08:52:44.828Z</time></trkpt><trkpt lat="37.9982983" lon="12.7987733"><ele>360.8</ele><time>2026-04-20T08:52:45.832Z</time></trkpt><trkpt lat="37.998255" lon="12.7988817"><ele>360.4</ele><time>2026-04-20T08:52:46.831Z</time></trkpt><trkpt lat="37.9982133" lon="12.7989767"><ele>360.0</ele><time>2026-04-20T08:52:47.833Z</time></trkpt><trkpt lat="37.9981767" lon="12.799065"><ele>360.0</ele><time>2026-04-20T08:52:48.834Z</time></trkpt><trkpt lat="37.9981467" lon="12.7991433"><ele>360.0</ele><time>2026-04-20T08:52:49.833Z</time></trkpt><trkpt lat="37.9981183" lon="12.7992217"><ele>360.0</ele><time>2026-04-20T08:52:50.833Z</time></trkpt><trkpt lat="37.9980867" lon="12.7993033"><ele>360.0</ele><time>2026-04-20T08:52:51.834Z</time></trkpt><trkpt lat="37.9980517" lon="12.7993867"><ele>360.0</ele><time>2026-04-20T08:52:52.832Z</time></trkpt><trkpt lat="37.9980183" lon="12.799465"><ele>360.0</ele><time>2026-04-20T08:52:53.83Z</time></trkpt><trkpt lat="37.9979817" lon="12.799595"><ele>358.6</ele><time>2026-04-20T08:52:55.832Z</time></trkpt><trkpt lat="37.99798" lon="12.7997"><ele>357.2</ele><time>2026-04-20T08:52:57.831Z</time></trkpt><trkpt lat="37.9980267" lon="12.7997867"><ele>355.79999999999995</ele><time>2026-04-20T08:52:59.828Z</time></trkpt><trkpt lat="37.9981417" lon="12.79986"><ele>354.4</ele><time>2026-04-20T08:53:01.828Z</time></trkpt><trkpt lat="37.99823" lon="12.7999"><ele>353.0</ele><time>2026-04-20T08:53:02.827Z</time></trkpt><trkpt lat="37.9983283" lon="12.7999367"><ele>352.59999999999997</ele><time>2026-04-20T08:53:03.827Z</time></trkpt><trkpt lat="37.998425" lon="12.7999717"><ele>352.2</ele><time>2026-04-20T08:53:04.83Z</time></trkpt><trkpt lat="37.9985233" lon="12.80001"><ele>351.8</ele><time>2026-04-20T08:53:05.831Z</time></trkpt><trkpt lat="37.9986083" lon="12.8000417"><ele>351.4</ele><time>2026-04-20T08:53:06.833Z</time></trkpt><trkpt lat="37.99867" lon="12.8000667"><ele>351.0</ele><time>2026-04-20T08:53:07.835Z</time></trkpt><trkpt lat="37.99877" lon="12.8000917"><ele>351.0</ele><time>2026-04-20T08:53:50.828Z</time></trkpt><trkpt lat="37.9988333" lon="12.8001417"><ele>351.0</ele><time>2026-04-20T08:53:52.83Z</time></trkpt><trkpt lat="37.998765" lon="12.8000983"><ele>351.0</ele><time>2026-04-20T08:54:09.829Z</time></trkpt><trkpt lat="37.998655" lon="12.800055"><ele>351.0</ele><time>2026-04-20T08:54:10.828Z</time></trkpt><trkpt lat="37.9985517" lon="12.8000183"><ele>351.0</ele><time>2026-04-20T08:54:11.828Z</time></trkpt><trkpt lat="37.9984433" lon="12.7999733"><ele>351.0</ele><time>2026-04-20T08:54:12.827Z</time></trkpt><trkpt lat="37.9983367" lon="12.799925"><ele>351.0</ele><time>2026-04-20T08:54:13.827Z</time></trkpt><trkpt lat="37.9982417" lon="12.799885"><ele>351.0</ele><time>2026-04-20T08:54:14.838Z</time></trkpt><trkpt lat="37.9981617" lon="12.79985"><ele>351.0</ele><time>2026-04-20T08:54:15.827Z</time></trkpt><trkpt lat="37.9981017" lon="12.7998167"><ele>351.0</ele><time>2026-04-20T08:54:16.828Z</time></trkpt><trkpt lat="37.9980367" lon="12.7997333"><ele>351.4</ele><time>2026-04-20T08:54:18.829Z</time></trkpt><trkpt lat="37.9980283" lon="12.799585"><ele>351.8</ele><time>2026-04-20T08:54:20.833Z</time></trkpt><trkpt lat="37.99805" lon="12.7994917"><ele>352.2</ele><time>2026-04-20T08:54:21.833Z</time></trkpt><trkpt lat="37.9980867" lon="12.79939"><ele>352.59999999999997</ele><time>2026-04-20T08:54:22.829Z</time></trkpt><trkpt lat="37.998135" lon="12.7992717"><ele>353.0</ele><time>2026-04-20T08:54:23.83Z</time></trkpt><trkpt lat="37.9981883" lon="12.7991417"><ele>353.75</ele><time>2026-04-20T08:54:24.832Z</time></trkpt><trkpt lat="37.9982467" lon="12.7989917"><ele>354.5</ele><time>2026-04-20T08:54:25.83Z</time></trkpt><trkpt lat="37.998305" lon="12.79883"><ele>355.25</ele><time>2026-04-20T08:54:26.83Z</time></trkpt><trkpt lat="37.9983583" lon="12.798665"><ele>356.0</ele><time>2026-04-20T08:54:27.83Z</time></trkpt><trkpt lat="37.9984067" lon="12.798515"><ele>357.20000000000005</ele><time>2026-04-20T08:54:28.832Z</time></trkpt><trkpt lat="37.9984567" lon="12.79838"><ele>358.40000000000003</ele><time>2026-04-20T08:54:29.833Z</time></trkpt><trkpt lat="37.9985033" lon="12.7982533"><ele>359.6</ele><time>2026-04-20T08:54:30.833Z</time></trkpt><trkpt lat="37.99854" lon="12.7981467"><ele>360.8</ele><time>2026-04-20T08:54:31.833Z</time></trkpt><trkpt lat="37.9985567" lon="12.7980683"><ele>362.0</ele><time>2026-04-20T08:54:32.836Z</time></trkpt><trkpt lat="37.9985467" lon="12.7979833"><ele>362.0</ele><time>2026-04-20T08:54:34.834Z</time></trkpt><trkpt lat="37.9984733" lon="12.7980183"><ele>362.0</ele><time>2026-04-20T08:54:36.829Z</time></trkpt><trkpt lat="37.9984117" lon="12.7980817"><ele>362.0</ele><time>2026-04-20T08:54:37.833Z</time></trkpt><trkpt lat="37.9983383" lon="12.7981717"><ele>362.0</ele><time>2026-04-20T08:54:38.829Z</time></trkpt><trkpt lat="37.99825" lon="12.798285"><ele>362.0</ele><time>2026-04-20T08:54:39.828Z</time></trkpt><trkpt lat="37.9981483" lon="12.79842"><ele>361.33333333333337</ele><time>2026-04-20T08:54:40.829Z</time></trkpt><trkpt lat="37.9980317" lon="12.7985733"><ele>360.6666666666667</ele><time>2026-04-20T08:54:41.834Z</time></trkpt><trkpt lat="37.997905" lon="12.7987367"><ele>360.0</ele><time>2026-04-20T08:54:42.829Z</time></trkpt><trkpt lat="37.9977783" lon="12.7988983"><ele>360.0</ele><time>2026-04-20T08:54:43.828Z</time></trkpt><trkpt lat="37.9976633" lon="12.799045"><ele>360.0</ele><time>2026-04-20T08:54:44.831Z</time></trkpt><trkpt lat="37.99756" lon="12.799175"><ele>360.0</ele><time>2026-04-20T08:54:45.83Z</time></trkpt><trkpt lat="37.9974683" lon="12.7992917"><ele>360.0</ele><time>2026-04-20T08:54:46.83Z</time></trkpt><trkpt lat="37.9973883" lon="12.79939"><ele>359.3333333333333</ele><time>2026-04-20T08:54:47.831Z</time></trkpt><trkpt lat="37.9973133" lon="12.7994683"><ele>358.6666666666667</ele><time>2026-04-20T08:54:48.832Z</time></trkpt><trkpt lat="37.9972433" lon="12.799525"><ele>358.0</ele><time>2026-04-20T08:54:49.829Z</time></trkpt><trkpt lat="37.9971767" lon="12.7995583"><ele>357.33333333333337</ele><time>2026-04-20T08:54:50.835Z</time></trkpt><trkpt lat="37.9971133" lon="12.7995633"><ele>356.6666666666667</ele><time>2026-04-20T08:54:51.831Z</time></trkpt><trkpt lat="37.99705" lon="12.7995467"><ele>356.0</ele><time>2026-04-20T08:54:52.828Z</time></trkpt><trkpt lat="37.9969833" lon="12.7995117"><ele>356.0</ele><time>2026-04-20T08:54:53.831Z</time></trkpt><trkpt lat="37.9969083" lon="12.7994467"><ele>356.0</ele><time>2026-04-20T08:54:54.831Z</time></trkpt><trkpt lat="37.9968233" lon="12.7993583"><ele>356.0</ele><time>2026-04-20T08:54:55.83Z</time></trkpt><trkpt lat="37.9967133" lon="12.7992267"><ele>356.0</ele><time>2026-04-20T08:54:56.831Z</time></trkpt><trkpt lat="37.9965917" lon="12.79909"><ele>357.0</ele><time>2026-04-20T08:54:57.832Z</time></trkpt><trkpt lat="37.99648" lon="12.7989667"><ele>358.0</ele><time>2026-04-20T08:54:58.83Z</time></trkpt><trkpt lat="37.9963767" lon="12.7988583"><ele>359.0</ele><time>2026-04-20T08:54:59.829Z</time></trkpt><trkpt lat="37.9962767" lon="12.7987683"><ele>360.0</ele><time>2026-04-20T08:55:00.83Z</time></trkpt><trkpt lat="37.9961733" lon="12.79869"><ele>360.0</ele><time>2026-04-20T08:55:01.829Z</time></trkpt><trkpt lat="37.9960633" lon="12.7986233"><ele>360.0</ele><time>2026-04-20T08:55:02.832Z</time></trkpt><trkpt lat="37.9959417" lon="12.798565"><ele>360.0</ele><time>2026-04-20T08:55:03.829Z</time></trkpt><trkpt lat="37.995805" lon="12.7985083"><ele>360.0</ele><time>2026-04-20T08:55:04.83Z</time></trkpt><trkpt lat="37.9956617" lon="12.79845"><ele>359.25</ele><time>2026-04-20T08:55:05.832Z</time></trkpt><trkpt lat="37.995525" lon="12.7983983"><ele>358.5</ele><time>2026-04-20T08:55:06.83Z</time></trkpt><trkpt lat="37.995405" lon="12.7983533"><ele>357.75</ele><time>2026-04-20T08:55:07.83Z</time></trkpt><trkpt lat="37.9952983" lon="12.79832"><ele>357.0</ele><time>2026-04-20T08:55:08.832Z</time></trkpt><trkpt lat="37.9952083" lon="12.7982967"><ele>357.0</ele><time>2026-04-20T08:55:09.832Z</time></trkpt><trkpt lat="37.9951233" lon="12.7982883"><ele>357.0</ele><time>2026-04-20T08:55:10.833Z</time></trkpt><trkpt lat="37.995045" lon="12.7982967"><ele>357.0</ele><time>2026-04-20T08:55:11.83Z</time></trkpt><trkpt lat="37.9949583" lon="12.7983267"><ele>357.0</ele><time>2026-04-20T08:55:12.831Z</time></trkpt><trkpt lat="37.9948633" lon="12.7983767"><ele>357.0</ele><time>2026-04-20T08:55:13.832Z</time></trkpt><trkpt lat="37.99477" lon="12.7984417"><ele>354.20000000000005</ele><time>2026-04-20T08:55:14.832Z</time></trkpt><trkpt lat="37.9946833" lon="12.798515"><ele>351.4</ele><time>2026-04-20T08:55:15.831Z</time></trkpt><trkpt lat="37.9946067" lon="12.7986017"><ele>348.6</ele><time>2026-04-20T08:55:16.829Z</time></trkpt><trkpt lat="37.9945383" lon="12.7987017"><ele>345.79999999999995</ele><time>2026-04-20T08:55:17.828Z</time></trkpt><trkpt lat="37.9944667" lon="12.79882"><ele>343.0</ele><time>2026-04-20T08:55:18.829Z</time></trkpt><trkpt lat="37.9943867" lon="12.7989467"><ele>343.0</ele><time>2026-04-20T08:55:19.83Z</time></trkpt><trkpt lat="37.9942917" lon="12.7990733"><ele>343.0</ele><time>2026-04-20T08:55:20.834Z</time></trkpt><trkpt lat="37.99419" lon="12.7991933"><ele>343.0</ele><time>2026-04-20T08:55:21.829Z</time></trkpt><trkpt lat="37.9940917" lon="12.7993"><ele>343.0</ele><time>2026-04-20T08:55:22.831Z</time></trkpt><trkpt lat="37.9939933" lon="12.7994"><ele>343.0</ele><time>2026-04-20T08:55:23.829Z</time></trkpt><trkpt lat="37.9939017" lon="12.799495"><ele>343.0</ele><time>2026-04-20T08:55:24.832Z</time></trkpt><trkpt lat="37.9938133" lon="12.7995817"><ele>343.0</ele><time>2026-04-20T08:55:25.831Z</time></trkpt><trkpt lat="37.9937317" lon="12.7996483"><ele>343.0</ele><time>2026-04-20T08:55:26.834Z</time></trkpt><trkpt lat="37.9936483" lon="12.7997017"><ele>343.0</ele><time>2026-04-20T08:55:27.832Z</time></trkpt><trkpt lat="37.9935583" lon="12.7997367"><ele>343.0</ele><time>2026-04-20T08:55:28.835Z</time></trkpt><trkpt lat="37.99345" lon="12.7997633"><ele>343.0</ele><time>2026-04-20T08:55:29.832Z</time></trkpt><trkpt lat="37.9933267" lon="12.799785"><ele>343.0</ele><time>2026-04-20T08:55:30.832Z</time></trkpt><trkpt lat="37.99319" lon="12.7998017"><ele>343.0</ele><time>2026-04-20T08:55:31.833Z</time></trkpt><trkpt lat="37.9930417" lon="12.7998183"><ele>343.0</ele><time>2026-04-20T08:55:32.836Z</time></trkpt><trkpt lat="37.9928867" lon="12.79983"><ele>343.0</ele><time>2026-04-20T08:55:33.833Z</time></trkpt><trkpt lat="37.9927317" lon="12.79984"><ele>343.0</ele><time>2026-04-20T08:55:34.832Z</time></trkpt><trkpt lat="37.9925717" lon="12.79985"><ele>341.3333333333333</ele><time>2026-04-20T08:55:35.834Z</time></trkpt><trkpt lat="37.9924083" lon="12.799865"><ele>339.6666666666667</ele><time>2026-04-20T08:55:36.831Z</time></trkpt><trkpt lat="37.9922483" lon="12.79988"><ele>338.0</ele><time>2026-04-20T08:55:37.831Z</time></trkpt><trkpt lat="37.9920933" lon="12.7999017"><ele>338.0</ele><time>2026-04-20T08:55:38.834Z</time></trkpt><trkpt lat="37.9919367" lon="12.7999283"><ele>338.0</ele><time>2026-04-20T08:55:39.833Z</time></trkpt><trkpt lat="37.9917767" lon="12.7999533"><ele>338.0</ele><time>2026-04-20T08:55:40.834Z</time></trkpt><trkpt lat="37.9916167" lon="12.799975"><ele>339.0</ele><time>2026-04-20T08:55:41.839Z</time></trkpt><trkpt lat="37.9914533" lon="12.7999883"><ele>340.0</ele><time>2026-04-20T08:55:42.832Z</time></trkpt><trkpt lat="37.9912867" lon="12.7999917"><ele>341.0</ele><time>2026-04-20T08:55:43.832Z</time></trkpt><trkpt lat="37.9911167" lon="12.79999"><ele>341.0</ele><time>2026-04-20T08:55:44.832Z</time></trkpt><trkpt lat="37.990945" lon="12.7999817"><ele>341.0</ele><time>2026-04-20T08:55:45.829Z</time></trkpt><trkpt lat="37.990775" lon="12.79997"><ele>341.0</ele><time>2026-04-20T08:55:46.831Z</time></trkpt><trkpt lat="37.9906117" lon="12.7999583"><ele>342.25</ele><time>2026-04-20T08:55:47.832Z</time></trkpt><trkpt lat="37.990455" lon="12.7999467"><ele>343.5</ele><time>2026-04-20T08:55:48.83Z</time></trkpt><trkpt lat="37.9903067" lon="12.7999367"><ele>344.75</ele><time>2026-04-20T08:55:49.832Z</time></trkpt><trkpt lat="37.9901667" lon="12.79993"><ele>346.0</ele><time>2026-04-20T08:55:50.83Z</time></trkpt><trkpt lat="37.9900367" lon="12.7999283"><ele>347.25</ele><time>2026-04-20T08:55:51.829Z</time></trkpt><trkpt lat="37.989915" lon="12.79993"><ele>348.5</ele><time>2026-04-20T08:55:52.829Z</time></trkpt><trkpt lat="37.9897983" lon="12.7999383"><ele>349.75</ele><time>2026-04-20T08:55:53.832Z</time></trkpt><trkpt lat="37.9896867" lon="12.7999483"><ele>351.0</ele><time>2026-04-20T08:55:54.831Z</time></trkpt><trkpt lat="37.9895767" lon="12.7999517"><ele>351.0</ele><time>2026-04-20T08:55:55.836Z</time></trkpt><trkpt lat="37.98947" lon="12.7999467"><ele>351.0</ele><time>2026-04-20T08:55:56.836Z</time></trkpt><trkpt lat="37.9893633" lon="12.7999367"><ele>351.0</ele><time>2026-04-20T08:55:57.835Z</time></trkpt><trkpt lat="37.9892617" lon="12.7999167"><ele>351.0</ele><time>2026-04-20T08:55:58.835Z</time></trkpt><trkpt lat="37.98916" lon="12.7998867"><ele>351.0</ele><time>2026-04-20T08:55:59.831Z</time></trkpt><trkpt lat="37.9890517" lon="12.7998467"><ele>352.5</ele><time>2026-04-20T08:56:00.833Z</time></trkpt><trkpt lat="37.9889283" lon="12.7997967"><ele>354.0</ele><time>2026-04-20T08:56:01.83Z</time></trkpt><trkpt lat="37.9888017" lon="12.7997417"><ele>355.5</ele><time>2026-04-20T08:56:02.832Z</time></trkpt><trkpt lat="37.9886817" lon="12.7996883"><ele>357.0</ele><time>2026-04-20T08:56:03.832Z</time></trkpt><trkpt lat="37.9885683" lon="12.7996333"><ele>357.0</ele><time>2026-04-20T08:56:04.831Z</time></trkpt><trkpt lat="37.98846" lon="12.7995683"><ele>357.0</ele><time>2026-04-20T08:56:05.83Z</time></trkpt><trkpt lat="37.9883533" lon="12.7994933"><ele>357.0</ele><time>2026-04-20T08:56:06.83Z</time></trkpt><trkpt lat="37.988245" lon="12.7994083"><ele>357.0</ele><time>2026-04-20T08:56:07.831Z</time></trkpt><trkpt lat="37.9881267" lon="12.7993117"><ele>359.5</ele><time>2026-04-20T08:56:08.833Z</time></trkpt><trkpt lat="37.9880133" lon="12.799215"><ele>362.0</ele><time>2026-04-20T08:56:09.83Z</time></trkpt><trkpt lat="37.98791" lon="12.7991267"><ele>364.5</ele><time>2026-04-20T08:56:10.831Z</time></trkpt><trkpt lat="37.9878167" lon="12.7990433"><ele>367.0</ele><time>2026-04-20T08:56:11.83Z</time></trkpt><trkpt lat="37.9877283" lon="12.79897"><ele>367.0</ele><time>2026-04-20T08:56:12.83Z</time></trkpt><trkpt lat="37.98764" lon="12.798915"><ele>367.0</ele><time>2026-04-20T08:56:13.832Z</time></trkpt><trkpt lat="37.9875467" lon="12.79887"><ele>367.0</ele><time>2026-04-20T08:56:14.832Z</time></trkpt><trkpt lat="37.9874383" lon="12.7988367"><ele>367.0</ele><time>2026-04-20T08:56:15.831Z</time></trkpt><trkpt lat="37.9873167" lon="12.7988083"><ele>367.0</ele><time>2026-04-20T08:56:16.831Z</time></trkpt><trkpt lat="37.9871967" lon="12.798785"><ele>364.75</ele><time>2026-04-20T08:56:17.828Z</time></trkpt><trkpt lat="37.987085" lon="12.79877"><ele>362.5</ele><time>2026-04-20T08:56:18.829Z</time></trkpt><trkpt lat="37.9869767" lon="12.79876"><ele>360.25</ele><time>2026-04-20T08:56:19.829Z</time></trkpt><trkpt lat="37.986865" lon="12.7987517"><ele>358.0</ele><time>2026-04-20T08:56:20.83Z</time></trkpt><trkpt lat="37.9867417" lon="12.79874"><ele>356.25</ele><time>2026-04-20T08:56:21.831Z</time></trkpt><trkpt lat="37.9866083" lon="12.7987233"><ele>354.5</ele><time>2026-04-20T08:56:22.832Z</time></trkpt><trkpt lat="37.9864717" lon="12.79871"><ele>352.75</ele><time>2026-04-20T08:56:23.828Z</time></trkpt><trkpt lat="37.986345" lon="12.7986983"><ele>351.0</ele><time>2026-04-20T08:56:24.83Z</time></trkpt><trkpt lat="37.9862317" lon="12.7986867"><ele>351.0</ele><time>2026-04-20T08:56:25.832Z</time></trkpt><trkpt lat="37.986125" lon="12.7986717"><ele>351.0</ele><time>2026-04-20T08:56:26.831Z</time></trkpt><trkpt lat="37.986025" lon="12.7986583"><ele>351.0</ele><time>2026-04-20T08:56:27.834Z</time></trkpt><trkpt lat="37.98593" lon="12.79865"><ele>351.0</ele><time>2026-04-20T08:56:28.832Z</time></trkpt><trkpt lat="37.9858317" lon="12.798645"><ele>351.0</ele><time>2026-04-20T08:56:29.832Z</time></trkpt><trkpt lat="37.985715" lon="12.7986483"><ele>350.5</ele><time>2026-04-20T08:56:30.833Z</time></trkpt><trkpt lat="37.9855817" lon="12.7986567"><ele>350.0</ele><time>2026-04-20T08:56:31.827Z</time></trkpt><trkpt lat="37.9854367" lon="12.7986667"><ele>349.5</ele><time>2026-04-20T08:56:32.832Z</time></trkpt><trkpt lat="37.9852917" lon="12.7986733"><ele>349.0</ele><time>2026-04-20T08:56:33.83Z</time></trkpt><trkpt lat="37.9851517" lon="12.79867"><ele>349.0</ele><time>2026-04-20T08:56:34.832Z</time></trkpt><trkpt lat="37.9850167" lon="12.7986617"><ele>349.0</ele><time>2026-04-20T08:56:35.833Z</time></trkpt><trkpt lat="37.9848817" lon="12.7986517"><ele>349.0</ele><time>2026-04-20T08:56:36.83Z</time></trkpt><trkpt lat="37.9847433" lon="12.7986417"><ele>349.0</ele><time>2026-04-20T08:56:37.832Z</time></trkpt><trkpt lat="37.9846067" lon="12.798635"><ele>347.75</ele><time>2026-04-20T08:56:38.833Z</time></trkpt><trkpt lat="37.9844767" lon="12.798625"><ele>346.5</ele><time>2026-04-20T08:56:39.828Z</time></trkpt><trkpt lat="37.9843567" lon="12.7986167"><ele>345.25</ele><time>2026-04-20T08:56:40.831Z</time></trkpt><trkpt lat="37.98424" lon="12.79861"><ele>344.0</ele><time>2026-04-20T08:56:41.83Z</time></trkpt><trkpt lat="37.984125" lon="12.7986083"><ele>342.0</ele><time>2026-04-20T08:56:42.834Z</time></trkpt><trkpt lat="37.9840067" lon="12.7986"><ele>340.0</ele><time>2026-04-20T08:56:43.832Z</time></trkpt><trkpt lat="37.98389" lon="12.798595"><ele>338.0</ele><time>2026-04-20T08:56:44.833Z</time></trkpt><trkpt lat="37.9837733" lon="12.798595"><ele>336.0</ele><time>2026-04-20T08:56:45.833Z</time></trkpt><trkpt lat="37.983645" lon="12.7985917"><ele>336.0</ele><time>2026-04-20T08:56:46.834Z</time></trkpt><trkpt lat="37.9835017" lon="12.7985867"><ele>336.0</ele><time>2026-04-20T08:56:47.835Z</time></trkpt><trkpt lat="37.983355" lon="12.7985833"><ele>336.0</ele><time>2026-04-20T08:56:48.83Z</time></trkpt><trkpt lat="37.98321" lon="12.7985833"><ele>336.0</ele><time>2026-04-20T08:56:49.831Z</time></trkpt><trkpt lat="37.9830717" lon="12.7985817"><ele>335.0</ele><time>2026-04-20T08:56:50.833Z</time></trkpt><trkpt lat="37.98293" lon="12.79858"><ele>334.0</ele><time>2026-04-20T08:56:51.831Z</time></trkpt><trkpt lat="37.9827833" lon="12.7985767"><ele>333.0</ele><time>2026-04-20T08:56:52.827Z</time></trkpt><trkpt lat="37.9826383" lon="12.7985717"><ele>332.0</ele><time>2026-04-20T08:56:53.834Z</time></trkpt><trkpt lat="37.9825067" lon="12.79857"><ele>331.5</ele><time>2026-04-20T08:56:54.828Z</time></trkpt><trkpt lat="37.982385" lon="12.798565"><ele>331.0</ele><time>2026-04-20T08:56:55.83Z</time></trkpt><trkpt lat="37.98227" lon="12.7985583"><ele>330.5</ele><time>2026-04-20T08:56:56.831Z</time></trkpt><trkpt lat="37.9821533" lon="12.7985483"><ele>330.0</ele><time>2026-04-20T08:56:57.832Z</time></trkpt><trkpt lat="37.9820267" lon="12.7985317"><ele>330.0</ele><time>2026-04-20T08:56:58.834Z</time></trkpt><trkpt lat="37.981905" lon="12.7985117"><ele>330.0</ele><time>2026-04-20T08:56:59.836Z</time></trkpt><trkpt lat="37.98179" lon="12.79849"><ele>330.0</ele><time>2026-04-20T08:57:00.835Z</time></trkpt><trkpt lat="37.9816733" lon="12.7984683"><ele>330.0</ele><time>2026-04-20T08:57:01.836Z</time></trkpt><trkpt lat="37.9815617" lon="12.7984533"><ele>329.3333333333333</ele><time>2026-04-20T08:57:02.837Z</time></trkpt><trkpt lat="37.98146" lon="12.79845"><ele>328.6666666666667</ele><time>2026-04-20T08:57:03.836Z</time></trkpt><trkpt lat="37.9813683" lon="12.79846"><ele>328.0</ele><time>2026-04-20T08:57:04.833Z</time></trkpt><trkpt lat="37.981285" lon="12.798485"><ele>327.33333333333337</ele><time>2026-04-20T08:57:05.828Z</time></trkpt><trkpt lat="37.98121" lon="12.7985267"><ele>326.6666666666667</ele><time>2026-04-20T08:57:06.832Z</time></trkpt><trkpt lat="37.9811367" lon="12.7985867"><ele>326.0</ele><time>2026-04-20T08:57:07.83Z</time></trkpt><trkpt lat="37.9810533" lon="12.7986683"><ele>326.0</ele><time>2026-04-20T08:57:08.832Z</time></trkpt><trkpt lat="37.9809633" lon="12.79877"><ele>326.0</ele><time>2026-04-20T08:57:09.831Z</time></trkpt><trkpt lat="37.9808733" lon="12.798875"><ele>326.0</ele><time>2026-04-20T08:57:10.829Z</time></trkpt><trkpt lat="37.980785" lon="12.79898"><ele>326.0</ele><time>2026-04-20T08:57:11.831Z</time></trkpt><trkpt lat="37.9806967" lon="12.7990833"><ele>326.8</ele><time>2026-04-20T08:57:12.83Z</time></trkpt><trkpt lat="37.9806117" lon="12.79918"><ele>327.6</ele><time>2026-04-20T08:57:13.833Z</time></trkpt><trkpt lat="37.9805367" lon="12.7992717"><ele>328.4</ele><time>2026-04-20T08:57:14.833Z</time></trkpt><trkpt lat="37.98046" lon="12.7993617"><ele>329.2</ele><time>2026-04-20T08:57:15.831Z</time></trkpt><trkpt lat="37.980375" lon="12.7994617"><ele>330.0</ele><time>2026-04-20T08:57:16.831Z</time></trkpt><trkpt lat="37.980295" lon="12.7995633"><ele>329.3333333333333</ele><time>2026-04-20T08:57:17.831Z</time></trkpt><trkpt lat="37.9802317" lon="12.799645"><ele>328.6666666666667</ele><time>2026-04-20T08:57:18.831Z</time></trkpt><trkpt lat="37.9801833" lon="12.7997033"><ele>328.0</ele><time>2026-04-20T08:57:19.832Z</time></trkpt><trkpt lat="37.9801083" lon="12.7997883"><ele>327.33333333333337</ele><time>2026-04-20T08:57:21.833Z</time></trkpt><trkpt lat="37.9800583" lon="12.7998483"><ele>326.6666666666667</ele><time>2026-04-20T08:57:22.831Z</time></trkpt><trkpt lat="37.9799867" lon="12.799935"><ele>326.0</ele><time>2026-04-20T08:57:23.83Z</time></trkpt><trkpt lat="37.9798967" lon="12.80004"><ele>326.0</ele><time>2026-04-20T08:57:24.833Z</time></trkpt><trkpt lat="37.9798017" lon="12.80014"><ele>326.0</ele><time>2026-04-20T08:57:25.829Z</time></trkpt><trkpt lat="37.9797067" lon="12.8002233"><ele>326.0</ele><time>2026-04-20T08:57:26.833Z</time></trkpt><trkpt lat="37.9796083" lon="12.8002917"><ele>326.0</ele><time>2026-04-20T08:57:27.83Z</time></trkpt><trkpt lat="37.9795" lon="12.8003483"><ele>325.0</ele><time>2026-04-20T08:57:28.832Z</time></trkpt><trkpt lat="37.9793783" lon="12.8003917"><ele>324.0</ele><time>2026-04-20T08:57:29.83Z</time></trkpt><trkpt lat="37.9792467" lon="12.800425"><ele>323.0</ele><time>2026-04-20T08:57:30.832Z</time></trkpt><trkpt lat="37.9791217" lon="12.8004517"><ele>322.0</ele><time>2026-04-20T08:57:31.831Z</time></trkpt><trkpt lat="37.9790083" lon="12.8004717"><ele>322.0</ele><time>2026-04-20T08:57:32.831Z</time></trkpt><trkpt lat="37.9788117" lon="12.8005083"><ele>322.0</ele><time>2026-04-20T08:57:34.831Z</time></trkpt><trkpt lat="37.9787167" lon="12.8005133"><ele>322.0</ele><time>2026-04-20T08:57:35.831Z</time></trkpt><trkpt lat="37.9786067" lon="12.8005067"><ele>322.0</ele><time>2026-04-20T08:57:36.831Z</time></trkpt><trkpt lat="37.9784833" lon="12.8004867"><ele>320.66666666666663</ele><time>2026-04-20T08:57:37.831Z</time></trkpt><trkpt lat="37.9783467" lon="12.80045"><ele>319.3333333333333</ele><time>2026-04-20T08:57:38.83Z</time></trkpt><trkpt lat="37.978195" lon="12.8003983"><ele>318.0</ele><time>2026-04-20T08:57:39.831Z</time></trkpt><trkpt lat="37.9780383" lon="12.80034"><ele>318.0</ele><time>2026-04-20T08:57:40.828Z</time></trkpt><trkpt lat="37.977885" lon="12.80028"><ele>318.0</ele><time>2026-04-20T08:57:41.829Z</time></trkpt><trkpt lat="37.9777317" lon="12.80022"><ele>318.0</ele><time>2026-04-20T08:57:42.83Z</time></trkpt><trkpt lat="37.9775783" lon="12.80016"><ele>318.6666666666667</ele><time>2026-04-20T08:57:43.833Z</time></trkpt><trkpt lat="37.9774283" lon="12.8001"><ele>319.33333333333337</ele><time>2026-04-20T08:57:44.832Z</time></trkpt><trkpt lat="37.977285" lon="12.8000417"><ele>320.0</ele><time>2026-04-20T08:57:45.831Z</time></trkpt><trkpt lat="37.977145" lon="12.7999817"><ele>320.0</ele><time>2026-04-20T08:57:46.835Z</time></trkpt><trkpt lat="37.9770033" lon="12.799925"><ele>320.0</ele><time>2026-04-20T08:57:47.832Z</time></trkpt><trkpt lat="37.9768633" lon="12.799865"><ele>320.0</ele><time>2026-04-20T08:57:48.832Z</time></trkpt><trkpt lat="37.9767217" lon="12.7998017"><ele>320.0</ele><time>2026-04-20T08:57:49.832Z</time></trkpt><trkpt lat="37.9765817" lon="12.799735"><ele>317.25</ele><time>2026-04-20T08:57:50.831Z</time></trkpt><trkpt lat="37.9764483" lon="12.7996633"><ele>314.5</ele><time>2026-04-20T08:57:51.83Z</time></trkpt><trkpt lat="37.9763233" lon="12.799595"><ele>311.75</ele><time>2026-04-20T08:57:52.83Z</time></trkpt><trkpt lat="37.976205" lon="12.79953"><ele>309.0</ele><time>2026-04-20T08:57:53.832Z</time></trkpt><trkpt lat="37.9760967" lon="12.7994667"><ele>309.0</ele><time>2026-04-20T08:57:54.829Z</time></trkpt><trkpt lat="37.9759967" lon="12.7994033"><ele>309.0</ele><time>2026-04-20T08:57:55.831Z</time></trkpt><trkpt lat="37.9758933" lon="12.7993383"><ele>309.0</ele><time>2026-04-20T08:57:56.83Z</time></trkpt><trkpt lat="37.975775" lon="12.7992633"><ele>309.0</ele><time>2026-04-20T08:57:57.83Z</time></trkpt><trkpt lat="37.9756517" lon="12.7991883"><ele>309.1666666666667</ele><time>2026-04-20T08:57:58.831Z</time></trkpt><trkpt lat="37.9755433" lon="12.7991267"><ele>309.3333333333333</ele><time>2026-04-20T08:57:59.832Z</time></trkpt><trkpt lat="37.9754517" lon="12.79908"><ele>309.5</ele><time>2026-04-20T08:58:00.836Z</time></trkpt><trkpt lat="37.9753783" lon="12.7990517"><ele>309.66666666666663</ele><time>2026-04-20T08:58:01.832Z</time></trkpt><trkpt lat="37.9753117" lon="12.7990467"><ele>309.8333333333333</ele><time>2026-04-20T08:58:02.834Z</time></trkpt><trkpt lat="37.9752467" lon="12.7990517"><ele>310.0</ele><time>2026-04-20T08:58:03.833Z</time></trkpt><trkpt lat="37.975185" lon="12.7990733"><ele>310.0</ele><time>2026-04-20T08:58:04.835Z</time></trkpt><trkpt lat="37.9750617" lon="12.7991517"><ele>310.0</ele><time>2026-04-20T08:58:06.832Z</time></trkpt><trkpt lat="37.9750083" lon="12.7992467"><ele>310.0</ele><time>2026-04-20T08:58:07.829Z</time></trkpt><trkpt lat="37.97495" lon="12.7993417"><ele>310.0</ele><time>2026-04-20T08:58:08.829Z</time></trkpt><trkpt lat="37.9749067" lon="12.799445"><ele>310.0</ele><time>2026-04-20T08:58:09.829Z</time></trkpt><trkpt lat="37.9748783" lon="12.799565"><ele>309.0</ele><time>2026-04-20T08:58:10.83Z</time></trkpt><trkpt lat="37.974865" lon="12.7996883"><ele>308.0</ele><time>2026-04-20T08:58:11.832Z</time></trkpt><trkpt lat="37.9748683" lon="12.7998217"><ele>307.0</ele><time>2026-04-20T08:58:12.829Z</time></trkpt><trkpt lat="37.97488" lon="12.7999783"><ele>306.0</ele><time>2026-04-20T08:58:13.833Z</time></trkpt><trkpt lat="37.97489" lon="12.8001567"><ele>306.3333333333333</ele><time>2026-04-20T08:58:14.83Z</time></trkpt><trkpt lat="37.974905" lon="12.8003567"><ele>306.66666666666663</ele><time>2026-04-20T08:58:15.831Z</time></trkpt><trkpt lat="37.9749183" lon="12.8005567"><ele>307.0</ele><time>2026-04-20T08:58:16.829Z</time></trkpt><trkpt lat="37.9749283" lon="12.800735"><ele>307.0</ele><time>2026-04-20T08:58:17.831Z</time></trkpt><trkpt lat="37.974935" lon="12.8008867"><ele>307.0</ele><time>2026-04-20T08:58:18.831Z</time></trkpt><trkpt lat="37.974935" lon="12.80101"><ele>307.0</ele><time>2026-04-20T08:58:19.829Z</time></trkpt><trkpt lat="37.974925" lon="12.801115"><ele>307.0</ele><time>2026-04-20T08:58:20.83Z</time></trkpt><trkpt lat="37.9749083" lon="12.8012117"><ele>307.0</ele><time>2026-04-20T08:58:21.831Z</time></trkpt><trkpt lat="37.9748767" lon="12.80131"><ele>307.5</ele><time>2026-04-20T08:58:22.83Z</time></trkpt><trkpt lat="37.9748283" lon="12.8014167"><ele>308.0</ele><time>2026-04-20T08:58:23.832Z</time></trkpt><trkpt lat="37.97476" lon="12.8015317"><ele>308.5</ele><time>2026-04-20T08:58:24.83Z</time></trkpt><trkpt lat="37.9746767" lon="12.80165"><ele>309.0</ele><time>2026-04-20T08:58:25.831Z</time></trkpt><trkpt lat="37.9745783" lon="12.8017667"><ele>307.75</ele><time>2026-04-20T08:58:26.833Z</time></trkpt><trkpt lat="37.97447" lon="12.8018833"><ele>306.5</ele><time>2026-04-20T08:58:27.828Z</time></trkpt><trkpt lat="37.9743667" lon="12.8019933"><ele>305.25</ele><time>2026-04-20T08:58:28.831Z</time></trkpt><trkpt lat="37.974265" lon="12.8020883"><ele>304.0</ele><time>2026-04-20T08:58:29.832Z</time></trkpt><trkpt lat="37.9741533" lon="12.8021767"><ele>307.66666666666663</ele><time>2026-04-20T08:58:30.831Z</time></trkpt><trkpt lat="37.97402" lon="12.8022617"><ele>311.3333333333333</ele><time>2026-04-20T08:58:31.833Z</time></trkpt><trkpt lat="37.9738717" lon="12.8023467"><ele>315.0</ele><time>2026-04-20T08:58:32.832Z</time></trkpt><trkpt lat="37.9737217" lon="12.80243"><ele>315.0</ele><time>2026-04-20T08:58:33.831Z</time></trkpt><trkpt lat="37.97357" lon="12.8025117"><ele>315.0</ele><time>2026-04-20T08:58:34.832Z</time></trkpt><trkpt lat="37.97342" lon="12.8025933"><ele>315.0</ele><time>2026-04-20T08:58:35.832Z</time></trkpt><trkpt lat="37.97328" lon="12.8026683"><ele>314.5</ele><time>2026-04-20T08:58:36.829Z</time></trkpt><trkpt lat="37.97315" lon="12.80273"><ele>314.0</ele><time>2026-04-20T08:58:37.833Z</time></trkpt><trkpt lat="37.9730183" lon="12.8027817"><ele>313.5</ele><time>2026-04-20T08:58:38.83Z</time></trkpt><trkpt lat="37.972885" lon="12.8028233"><ele>313.0</ele><time>2026-04-20T08:58:39.83Z</time></trkpt><trkpt lat="37.9727367" lon="12.8028567"><ele>313.0</ele><time>2026-04-20T08:58:40.828Z</time></trkpt><trkpt lat="37.9725717" lon="12.8028883"><ele>313.0</ele><time>2026-04-20T08:58:41.832Z</time></trkpt><trkpt lat="37.9723917" lon="12.80292"><ele>313.0</ele><time>2026-04-20T08:58:42.83Z</time></trkpt><trkpt lat="37.9722133" lon="12.8029517"><ele>315.66666666666663</ele><time>2026-04-20T08:58:43.833Z</time></trkpt><trkpt lat="37.97205" lon="12.8029783"><ele>318.3333333333333</ele><time>2026-04-20T08:58:44.833Z</time></trkpt><trkpt lat="37.9719017" lon="12.8029983"><ele>321.0</ele><time>2026-04-20T08:58:45.832Z</time></trkpt><trkpt lat="37.971765" lon="12.803015"><ele>322.75</ele><time>2026-04-20T08:58:46.831Z</time></trkpt><trkpt lat="37.9716367" lon="12.8030333"><ele>324.5</ele><time>2026-04-20T08:58:47.83Z</time></trkpt><trkpt lat="37.9715117" lon="12.8030583"><ele>326.25</ele><time>2026-04-20T08:58:48.835Z</time></trkpt><trkpt lat="37.97139" lon="12.8030933"><ele>328.0</ele><time>2026-04-20T08:58:49.837Z</time></trkpt><trkpt lat="37.9712633" lon="12.8031367"><ele>328.0</ele><time>2026-04-20T08:58:50.834Z</time></trkpt><trkpt lat="37.971125" lon="12.803185"><ele>328.0</ele><time>2026-04-20T08:58:51.838Z</time></trkpt><trkpt lat="37.97097" lon="12.8032383"><ele>328.0</ele><time>2026-04-20T08:58:52.832Z</time></trkpt><trkpt lat="37.9708117" lon="12.8032917"><ele>330.25</ele><time>2026-04-20T08:58:53.832Z</time></trkpt><trkpt lat="37.9706683" lon="12.8033417"><ele>332.5</ele><time>2026-04-20T08:58:54.83Z</time></trkpt><trkpt lat="37.970545" lon="12.8033783"><ele>334.75</ele><time>2026-04-20T08:58:55.832Z</time></trkpt><trkpt lat="37.9704383" lon="12.8034033"><ele>337.0</ele><time>2026-04-20T08:58:56.831Z</time></trkpt><trkpt lat="37.9703483" lon="12.803425"><ele>337.0</ele><time>2026-04-20T08:58:57.832Z</time></trkpt><trkpt lat="37.9702767" lon="12.80344"><ele>337.0</ele><time>2026-04-20T08:58:58.832Z</time></trkpt><trkpt lat="37.97018" lon="12.8034467"><ele>337.0</ele><time>2026-04-20T08:59:00.832Z</time></trkpt><trkpt lat="37.9700667" lon="12.8033933"><ele>337.0</ele><time>2026-04-20T08:59:02.836Z</time></trkpt><trkpt lat="37.96999" lon="12.8033383"><ele>337.0</ele><time>2026-04-20T08:59:03.838Z</time></trkpt><trkpt lat="37.9699017" lon="12.8032567"><ele>337.66666666666663</ele><time>2026-04-20T08:59:04.832Z</time></trkpt><trkpt lat="37.9697983" lon="12.803155"><ele>338.3333333333333</ele><time>2026-04-20T08:59:05.829Z</time></trkpt><trkpt lat="37.9696683" lon="12.8030267"><ele>339.0</ele><time>2026-04-20T08:59:06.833Z</time></trkpt><trkpt lat="37.9695167" lon="12.8028817"><ele>339.0</ele><time>2026-04-20T08:59:07.833Z</time></trkpt><trkpt lat="37.9693567" lon="12.80272"><ele>339.0</ele><time>2026-04-20T08:59:08.834Z</time></trkpt><trkpt lat="37.969195" lon="12.8025567"><ele>339.0</ele><time>2026-04-20T08:59:09.828Z</time></trkpt><trkpt lat="37.9690467" lon="12.8024"><ele>337.3333333333333</ele><time>2026-04-20T08:59:10.831Z</time></trkpt><trkpt lat="37.9689" lon="12.8022517"><ele>335.66666666666663</ele><time>2026-04-20T08:59:11.831Z</time></trkpt><trkpt lat="37.968755" lon="12.8021067"><ele>334.0</ele><time>2026-04-20T08:59:12.831Z</time></trkpt><trkpt lat="37.9686133" lon="12.8019667"><ele>334.3333333333333</ele><time>2026-04-20T08:59:13.83Z</time></trkpt><trkpt lat="37.9684817" lon="12.8018317"><ele>334.6666666666667</ele><time>2026-04-20T08:59:14.828Z</time></trkpt><trkpt lat="37.9683567" lon="12.8017067"><ele>335.0</ele><time>2026-04-20T08:59:15.83Z</time></trkpt><trkpt lat="37.968235" lon="12.8015883"><ele>334.0</ele><time>2026-04-20T08:59:16.828Z</time></trkpt><trkpt lat="37.968125" lon="12.8014783"><ele>333.0</ele><time>2026-04-20T08:59:17.835Z</time></trkpt><trkpt lat="37.96802" lon="12.801385"><ele>332.0</ele><time>2026-04-20T08:59:18.83Z</time></trkpt><trkpt lat="37.9679233" lon="12.801305"><ele>331.0</ele><time>2026-04-20T08:59:19.833Z</time></trkpt><trkpt lat="37.9678367" lon="12.8012367"><ele>331.0</ele><time>2026-04-20T08:59:20.833Z</time></trkpt><trkpt lat="37.96776" lon="12.801175"><ele>331.0</ele><time>2026-04-20T08:59:21.831Z</time></trkpt><trkpt lat="37.9676883" lon="12.801125"><ele>331.0</ele><time>2026-04-20T08:59:22.83Z</time></trkpt><trkpt lat="37.96762" lon="12.8010733"><ele>331.0</ele><time>2026-04-20T08:59:23.83Z</time></trkpt><trkpt lat="37.96755" lon="12.8010167"><ele>331.0</ele><time>2026-04-20T08:59:24.832Z</time></trkpt><trkpt lat="37.9674683" lon="12.8009417"><ele>331.0</ele><time>2026-04-20T08:59:25.831Z</time></trkpt><trkpt lat="37.96737" lon="12.80085"><ele>330.0</ele><time>2026-04-20T08:59:26.831Z</time></trkpt><trkpt lat="37.9672583" lon="12.8007583"><ele>329.0</ele><time>2026-04-20T08:59:27.831Z</time></trkpt><trkpt lat="37.96715" lon="12.80067"><ele>328.0</ele><time>2026-04-20T08:59:28.835Z</time></trkpt><trkpt lat="37.967045" lon="12.800585"><ele>327.0</ele><time>2026-04-20T08:59:29.832Z</time></trkpt><trkpt lat="37.96694" lon="12.800485"><ele>327.0</ele><time>2026-04-20T08:59:30.831Z</time></trkpt><trkpt lat="37.9668333" lon="12.800365"><ele>327.0</ele><time>2026-04-20T08:59:31.831Z</time></trkpt><trkpt lat="37.9667217" lon="12.8002217"><ele>327.0</ele><time>2026-04-20T08:59:32.833Z</time></trkpt><trkpt lat="37.9666067" lon="12.8000633"><ele>326.0</ele><time>2026-04-20T08:59:33.833Z</time></trkpt><trkpt lat="37.96649" lon="12.7999033"><ele>325.0</ele><time>2026-04-20T08:59:34.83Z</time></trkpt><trkpt lat="37.9663667" lon="12.799745"><ele>324.0</ele><time>2026-04-20T08:59:35.831Z</time></trkpt><trkpt lat="37.966235" lon="12.7995933"><ele>324.0</ele><time>2026-04-20T08:59:36.831Z</time></trkpt><trkpt lat="37.966105" lon="12.7994483"><ele>324.0</ele><time>2026-04-20T08:59:37.833Z</time></trkpt><trkpt lat="37.9659783" lon="12.7993083"><ele>324.0</ele><time>2026-04-20T08:59:38.835Z</time></trkpt><trkpt lat="37.9658583" lon="12.7991733"><ele>322.5</ele><time>2026-04-20T08:59:39.832Z</time></trkpt><trkpt lat="37.9657483" lon="12.7990383"><ele>321.0</ele><time>2026-04-20T08:59:40.83Z</time></trkpt><trkpt lat="37.96554" lon="12.7987467"><ele>321.0</ele><time>2026-04-20T08:59:42.831Z</time></trkpt><trkpt lat="37.965445" lon="12.7985883"><ele>321.0</ele><time>2026-04-20T08:59:43.83Z</time></trkpt><trkpt lat="37.9653583" lon="12.7984367"><ele>321.0</ele><time>2026-04-20T08:59:44.832Z</time></trkpt><trkpt lat="37.9652733" lon="12.7982917"><ele>321.0</ele><time>2026-04-20T08:59:45.833Z</time></trkpt><trkpt lat="37.965185" lon="12.7981617"><ele>321.5</ele><time>2026-04-20T08:59:46.832Z</time></trkpt><trkpt lat="37.9650833" lon="12.7980533"><ele>322.0</ele><time>2026-04-20T08:59:47.831Z</time></trkpt><trkpt lat="37.9649633" lon="12.7979617"><ele>322.5</ele><time>2026-04-20T08:59:48.83Z</time></trkpt><trkpt lat="37.9648233" lon="12.797885"><ele>323.0</ele><time>2026-04-20T08:59:49.831Z</time></trkpt><trkpt lat="37.9646617" lon="12.7978133"><ele>321.6666666666667</ele><time>2026-04-20T08:59:50.836Z</time></trkpt><trkpt lat="37.96449" lon="12.7977383"><ele>320.3333333333333</ele><time>2026-04-20T08:59:51.835Z</time></trkpt><trkpt lat="37.964325" lon="12.7976667"><ele>319.0</ele><time>2026-04-20T08:59:52.834Z</time></trkpt><trkpt lat="37.964175" lon="12.7976"><ele>318.0</ele><time>2026-04-20T08:59:53.834Z</time></trkpt><trkpt lat="37.964035" lon="12.7975367"><ele>317.0</ele><time>2026-04-20T08:59:54.834Z</time></trkpt><trkpt lat="37.9639067" lon="12.7974717"><ele>316.0</ele><time>2026-04-20T08:59:55.832Z</time></trkpt><trkpt lat="37.96379" lon="12.7973967"><ele>315.0</ele><time>2026-04-20T08:59:56.833Z</time></trkpt><trkpt lat="37.9636717" lon="12.7973017"><ele>315.0</ele><time>2026-04-20T08:59:57.831Z</time></trkpt><trkpt lat="37.9635483" lon="12.79718"><ele>315.0</ele><time>2026-04-20T08:59:58.831Z</time></trkpt><trkpt lat="37.9634317" lon="12.797045"><ele>315.0</ele><time>2026-04-20T08:59:59.83Z</time></trkpt><trkpt lat="37.963325" lon="12.79692"><ele>314.0</ele><time>2026-04-20T09:00:00.83Z</time></trkpt><trkpt lat="37.963225" lon="12.7968167"><ele>313.0</ele><time>2026-04-20T09:00:01.831Z</time></trkpt><trkpt lat="37.9631267" lon="12.7967317"><ele>312.0</ele><time>2026-04-20T09:00:02.833Z</time></trkpt><trkpt lat="37.963025" lon="12.79667"><ele>311.0</ele><time>2026-04-20T09:00:03.833Z</time></trkpt><trkpt lat="37.9629117" lon="12.796635"><ele>311.0</ele><time>2026-04-20T09:00:04.836Z</time></trkpt><trkpt lat="37.9627833" lon="12.79662"><ele>311.0</ele><time>2026-04-20T09:00:05.833Z</time></trkpt><trkpt lat="37.9626333" lon="12.7966267"><ele>311.0</ele><time>2026-04-20T09:00:06.833Z</time></trkpt><trkpt lat="37.9624767" lon="12.7966317"><ele>311.0</ele><time>2026-04-20T09:00:07.834Z</time></trkpt><trkpt lat="37.9623217" lon="12.79663"><ele>309.33333333333337</ele><time>2026-04-20T09:00:08.834Z</time></trkpt><trkpt lat="37.9621733" lon="12.7966217"><ele>307.6666666666667</ele><time>2026-04-20T09:00:09.835Z</time></trkpt><trkpt lat="37.962025" lon="12.796595"><ele>306.0</ele><time>2026-04-20T09:00:10.832Z</time></trkpt><trkpt lat="37.96187" lon="12.79654"><ele>306.0</ele><time>2026-04-20T09:00:11.83Z</time></trkpt><trkpt lat="37.9617033" lon="12.796465"><ele>306.0</ele><time>2026-04-20T09:00:12.831Z</time></trkpt><trkpt lat="37.9615217" lon="12.7963767"><ele>306.0</ele><time>2026-04-20T09:00:13.833Z</time></trkpt><trkpt lat="37.96133" lon="12.7962833"><ele>305.6666666666667</ele><time>2026-04-20T09:00:14.831Z</time></trkpt><trkpt lat="37.96113" lon="12.7961817"><ele>305.33333333333337</ele><time>2026-04-20T09:00:15.83Z</time></trkpt><trkpt lat="37.9609317" lon="12.79608"><ele>305.0</ele><time>2026-04-20T09:00:16.831Z</time></trkpt><trkpt lat="37.96075" lon="12.795985"><ele>305.0</ele><time>2026-04-20T09:00:17.831Z</time></trkpt><trkpt lat="37.960585" lon="12.7958983"><ele>305.0</ele><time>2026-04-20T09:00:18.829Z</time></trkpt><trkpt lat="37.9604317" lon="12.79582"><ele>305.0</ele><time>2026-04-20T09:00:19.829Z</time></trkpt><trkpt lat="37.96029" lon="12.795735"><ele>305.0</ele><time>2026-04-20T09:00:20.832Z</time></trkpt><trkpt lat="37.9601583" lon="12.7956267"><ele>305.0</ele><time>2026-04-20T09:00:21.833Z</time></trkpt><trkpt lat="37.9600333" lon="12.79549"><ele>305.0</ele><time>2026-04-20T09:00:22.831Z</time></trkpt><trkpt lat="37.959915" lon="12.79533"><ele>305.0</ele><time>2026-04-20T09:00:23.831Z</time></trkpt><trkpt lat="37.959805" lon="12.7951817"><ele>305.0</ele><time>2026-04-20T09:00:24.831Z</time></trkpt><trkpt lat="37.959705" lon="12.79506"><ele>305.0</ele><time>2026-04-20T09:00:25.829Z</time></trkpt><trkpt lat="37.9596133" lon="12.794955"><ele>305.0</ele><time>2026-04-20T09:00:26.83Z</time></trkpt><trkpt lat="37.959525" lon="12.7948633"><ele>304.8</ele><time>2026-04-20T09:00:27.831Z</time></trkpt><trkpt lat="37.9594333" lon="12.794795"><ele>304.6</ele><time>2026-04-20T09:00:28.83Z</time></trkpt><trkpt lat="37.9593317" lon="12.79475"><ele>304.4</ele><time>2026-04-20T09:00:29.833Z</time></trkpt><trkpt lat="37.9592217" lon="12.7947267"><ele>304.2</ele><time>2026-04-20T09:00:30.831Z</time></trkpt><trkpt lat="37.9591" lon="12.79472"><ele>304.0</ele><time>2026-04-20T09:00:31.83Z</time></trkpt><trkpt lat="37.9589633" lon="12.7947133"><ele>304.0</ele><time>2026-04-20T09:00:32.833Z</time></trkpt><trkpt lat="37.9588133" lon="12.794695"><ele>304.0</ele><time>2026-04-20T09:00:33.833Z</time></trkpt><trkpt lat="37.95865" lon="12.7946617"><ele>304.0</ele><time>2026-04-20T09:00:34.832Z</time></trkpt><trkpt lat="37.958475" lon="12.7946217"><ele>303.0</ele><time>2026-04-20T09:00:35.831Z</time></trkpt><trkpt lat="37.9583033" lon="12.794585"><ele>302.0</ele><time>2026-04-20T09:00:36.831Z</time></trkpt><trkpt lat="37.958145" lon="12.7945483"><ele>301.0</ele><time>2026-04-20T09:00:37.831Z</time></trkpt><trkpt lat="37.9579983" lon="12.794515"><ele>301.0</ele><time>2026-04-20T09:00:38.831Z</time></trkpt><trkpt lat="37.9578617" lon="12.7944883"><ele>301.0</ele><time>2026-04-20T09:00:39.833Z</time></trkpt><trkpt lat="37.957725" lon="12.7944667"><ele>301.0</ele><time>2026-04-20T09:00:40.833Z</time></trkpt><trkpt lat="37.957585" lon="12.79444"><ele>301.0</ele><time>2026-04-20T09:00:41.83Z</time></trkpt><trkpt lat="37.9574367" lon="12.7944067"><ele>300.0</ele><time>2026-04-20T09:00:42.831Z</time></trkpt><trkpt lat="37.95728" lon="12.7943683"><ele>299.0</ele><time>2026-04-20T09:00:43.831Z</time></trkpt><trkpt lat="37.9571167" lon="12.794325"><ele>298.0</ele><time>2026-04-20T09:00:44.831Z</time></trkpt><trkpt lat="37.956945" lon="12.7942833"><ele>296.3333333333333</ele><time>2026-04-20T09:00:45.835Z</time></trkpt><trkpt lat="37.956775" lon="12.7942433"><ele>294.6666666666667</ele><time>2026-04-20T09:00:46.832Z</time></trkpt><trkpt lat="37.9566083" lon="12.7942067"><ele>293.0</ele><time>2026-04-20T09:00:47.829Z</time></trkpt><trkpt lat="37.9564483" lon="12.7941683"><ele>292.25</ele><time>2026-04-20T09:00:48.831Z</time></trkpt><trkpt lat="37.956295" lon="12.7941317"><ele>291.5</ele><time>2026-04-20T09:00:49.828Z</time></trkpt><trkpt lat="37.9561517" lon="12.7940967"><ele>290.75</ele><time>2026-04-20T09:00:50.831Z</time></trkpt><trkpt lat="37.95602" lon="12.794065"><ele>290.0</ele><time>2026-04-20T09:00:51.835Z</time></trkpt><trkpt lat="37.9559" lon="12.794045"><ele>289.25</ele><time>2026-04-20T09:00:52.831Z</time></trkpt><trkpt lat="37.9557883" lon="12.79404"><ele>288.5</ele><time>2026-04-20T09:00:53.832Z</time></trkpt><trkpt lat="37.9556767" lon="12.7940483"><ele>287.75</ele><time>2026-04-20T09:00:54.836Z</time></trkpt><trkpt lat="37.9555583" lon="12.7940717"><ele>287.0</ele><time>2026-04-20T09:00:55.832Z</time></trkpt><trkpt lat="37.9554183" lon="12.7941117"><ele>287.0</ele><time>2026-04-20T09:00:56.832Z</time></trkpt><trkpt lat="37.955265" lon="12.7941667"><ele>287.0</ele><time>2026-04-20T09:00:57.83Z</time></trkpt><trkpt lat="37.9550983" lon="12.79423"><ele>287.0</ele><time>2026-04-20T09:00:58.829Z</time></trkpt><trkpt lat="37.954915" lon="12.7942967"><ele>286.33333333333337</ele><time>2026-04-20T09:00:59.832Z</time></trkpt><trkpt lat="37.9547233" lon="12.7943667"><ele>285.6666666666667</ele><time>2026-04-20T09:01:00.829Z</time></trkpt><trkpt lat="37.9545333" lon="12.7944367"><ele>285.0</ele><time>2026-04-20T09:01:01.831Z</time></trkpt><trkpt lat="37.9543517" lon="12.7945033"><ele>285.0</ele><time>2026-04-20T09:01:02.832Z</time></trkpt><trkpt lat="37.9541833" lon="12.794565"><ele>285.0</ele><time>2026-04-20T09:01:03.83Z</time></trkpt><trkpt lat="37.95402" lon="12.79462"><ele>285.0</ele><time>2026-04-20T09:01:04.832Z</time></trkpt><trkpt lat="37.9538583" lon="12.7946667"><ele>285.0</ele><time>2026-04-20T09:01:05.831Z</time></trkpt><trkpt lat="37.95369" lon="12.7947033"><ele>285.0</ele><time>2026-04-20T09:01:06.832Z</time></trkpt><trkpt lat="37.9535067" lon="12.79473"><ele>285.0</ele><time>2026-04-20T09:01:07.835Z</time></trkpt><trkpt lat="37.95331" lon="12.7947483"><ele>285.3333333333333</ele><time>2026-04-20T09:01:08.833Z</time></trkpt><trkpt lat="37.9531033" lon="12.7947617"><ele>285.66666666666663</ele><time>2026-04-20T09:01:09.833Z</time></trkpt><trkpt lat="37.9528883" lon="12.7947733"><ele>286.0</ele><time>2026-04-20T09:01:10.833Z</time></trkpt><trkpt lat="37.9526817" lon="12.7947817"><ele>286.66666666666663</ele><time>2026-04-20T09:01:11.834Z</time></trkpt><trkpt lat="37.9524867" lon="12.79479"><ele>287.3333333333333</ele><time>2026-04-20T09:01:12.834Z</time></trkpt><trkpt lat="37.9522967" lon="12.7947983"><ele>288.0</ele><time>2026-04-20T09:01:13.831Z</time></trkpt><trkpt lat="37.9521033" lon="12.7948067"><ele>288.0</ele><time>2026-04-20T09:01:14.83Z</time></trkpt><trkpt lat="37.9519083" lon="12.794815"><ele>288.0</ele><time>2026-04-20T09:01:15.831Z</time></trkpt><trkpt lat="37.9517117" lon="12.794825"><ele>288.0</ele><time>2026-04-20T09:01:16.83Z</time></trkpt><trkpt lat="37.9515183" lon="12.7948367"><ele>287.6666666666667</ele><time>2026-04-20T09:01:17.83Z</time></trkpt><trkpt lat="37.951335" lon="12.7948483"><ele>287.33333333333337</ele><time>2026-04-20T09:01:18.831Z</time></trkpt><trkpt lat="37.951165" lon="12.7948567"><ele>287.0</ele><time>2026-04-20T09:01:19.833Z</time></trkpt><trkpt lat="37.9510133" lon="12.7948667"><ele>287.0</ele><time>2026-04-20T09:01:20.83Z</time></trkpt><trkpt lat="37.950875" lon="12.7948767"><ele>287.0</ele><time>2026-04-20T09:01:21.83Z</time></trkpt><trkpt lat="37.9507467" lon="12.7948817"><ele>287.0</ele><time>2026-04-20T09:01:22.831Z</time></trkpt><trkpt lat="37.9506267" lon="12.7948817"><ele>287.0</ele><time>2026-04-20T09:01:23.831Z</time></trkpt><trkpt lat="37.9505167" lon="12.7948833"><ele>287.0</ele><time>2026-04-20T09:01:24.83Z</time></trkpt><trkpt lat="37.9504083" lon="12.7948883"><ele>287.0</ele><time>2026-04-20T09:01:25.831Z</time></trkpt><trkpt lat="37.950285" lon="12.7949017"><ele>287.0</ele><time>2026-04-20T09:01:26.829Z</time></trkpt><trkpt lat="37.9501333" lon="12.794915"><ele>287.0</ele><time>2026-04-20T09:01:27.833Z</time></trkpt><trkpt lat="37.9499733" lon="12.7949267"><ele>286.75</ele><time>2026-04-20T09:01:28.83Z</time></trkpt><trkpt lat="37.9498217" lon="12.79494"><ele>286.5</ele><time>2026-04-20T09:01:29.832Z</time></trkpt><trkpt lat="37.9496767" lon="12.7949467"><ele>286.25</ele><time>2026-04-20T09:01:30.832Z</time></trkpt><trkpt lat="37.9495333" lon="12.794955"><ele>286.0</ele><time>2026-04-20T09:01:31.831Z</time></trkpt><trkpt lat="37.94939" lon="12.7949633"><ele>286.0</ele><time>2026-04-20T09:01:32.833Z</time></trkpt><trkpt lat="37.9492467" lon="12.7949667"><ele>286.0</ele><time>2026-04-20T09:01:33.834Z</time></trkpt><trkpt lat="37.9490967" lon="12.794965"><ele>286.0</ele><time>2026-04-20T09:01:34.831Z</time></trkpt><trkpt lat="37.9489467" lon="12.7949583"><ele>286.0</ele><time>2026-04-20T09:01:35.833Z</time></trkpt><trkpt lat="37.948805" lon="12.7949483"><ele>286.0</ele><time>2026-04-20T09:01:36.831Z</time></trkpt><trkpt lat="37.9486717" lon="12.7949383"><ele>286.0</ele><time>2026-04-20T09:01:37.831Z</time></trkpt><trkpt lat="37.9485467" lon="12.79493"><ele>286.0</ele><time>2026-04-20T09:01:38.834Z</time></trkpt><trkpt lat="37.9484283" lon="12.7949233"><ele>286.0</ele><time>2026-04-20T09:01:39.83Z</time></trkpt><trkpt lat="37.948315" lon="12.79492"><ele>285.5</ele><time>2026-04-20T09:01:40.831Z</time></trkpt><trkpt lat="37.9482133" lon="12.7949183"><ele>285.0</ele><time>2026-04-20T09:01:41.832Z</time></trkpt><trkpt lat="37.9481267" lon="12.7949333"><ele>284.5</ele><time>2026-04-20T09:01:42.83Z</time></trkpt><trkpt lat="37.948055" lon="12.794965"><ele>284.0</ele><time>2026-04-20T09:01:43.831Z</time></trkpt><trkpt lat="37.9479967" lon="12.7950117"><ele>283.5</ele><time>2026-04-20T09:01:44.833Z</time></trkpt><trkpt lat="37.9479533" lon="12.795075"><ele>283.0</ele><time>2026-04-20T09:01:45.831Z</time></trkpt><trkpt lat="37.94793" lon="12.79516"><ele>282.75</ele><time>2026-04-20T09:01:46.832Z</time></trkpt><trkpt lat="37.9479383" lon="12.7952767"><ele>282.5</ele><time>2026-04-20T09:01:47.831Z</time></trkpt><trkpt lat="37.9479867" lon="12.79544"><ele>282.25</ele><time>2026-04-20T09:01:48.833Z</time></trkpt><trkpt lat="37.94805" lon="12.7956167"><ele>282.0</ele><time>2026-04-20T09:01:49.83Z</time></trkpt><trkpt lat="37.9481267" lon="12.79582"><ele>282.0</ele><time>2026-04-20T09:01:50.832Z</time></trkpt><trkpt lat="37.9482083" lon="12.796025"><ele>282.0</ele><time>2026-04-20T09:01:51.829Z</time></trkpt><trkpt lat="37.9482833" lon="12.796195"><ele>282.0</ele><time>2026-04-20T09:01:52.831Z</time></trkpt><trkpt lat="37.9483383" lon="12.7963283"><ele>282.0</ele><time>2026-04-20T09:01:53.832Z</time></trkpt><trkpt lat="37.9483733" lon="12.79644"><ele>282.0</ele><time>2026-04-20T09:01:54.831Z</time></trkpt><trkpt lat="37.9483833" lon="12.79654"><ele>282.0</ele><time>2026-04-20T09:01:55.835Z</time></trkpt><trkpt lat="37.94837" lon="12.79663"><ele>282.0</ele><time>2026-04-20T09:01:56.832Z</time></trkpt><trkpt lat="37.94833" lon="12.7967133"><ele>282.0</ele><time>2026-04-20T09:01:57.831Z</time></trkpt><trkpt lat="37.948285" lon="12.796785"><ele>282.0</ele><time>2026-04-20T09:01:58.834Z</time></trkpt><trkpt lat="37.9482367" lon="12.7968467"><ele>282.0</ele><time>2026-04-20T09:01:59.83Z</time></trkpt><trkpt lat="37.9481183" lon="12.7969183"><ele>282.0</ele><time>2026-04-20T09:02:01.833Z</time></trkpt><trkpt lat="37.9480433" lon="12.7969083"><ele>282.0</ele><time>2026-04-20T09:02:02.833Z</time></trkpt><trkpt lat="37.9479733" lon="12.7968767"><ele>282.0</ele><time>2026-04-20T09:02:03.832Z</time></trkpt><trkpt lat="37.947905" lon="12.7968233"><ele>282.0</ele><time>2026-04-20T09:02:04.832Z</time></trkpt><trkpt lat="37.94784" lon="12.7967433"><ele>282.0</ele><time>2026-04-20T09:02:05.832Z</time></trkpt><trkpt lat="37.9477817" lon="12.7966417"><ele>282.0</ele><time>2026-04-20T09:02:06.831Z</time></trkpt><trkpt lat="37.9477367" lon="12.796475"><ele>282.0</ele><time>2026-04-20T09:02:07.832Z</time></trkpt><trkpt lat="37.947685" lon="12.796295"><ele>282.0</ele><time>2026-04-20T09:02:08.834Z</time></trkpt><trkpt lat="37.9476283" lon="12.7961217"><ele>282.0</ele><time>2026-04-20T09:02:09.833Z</time></trkpt><trkpt lat="37.9475717" lon="12.7959717"><ele>282.0</ele><time>2026-04-20T09:02:10.834Z</time></trkpt><trkpt lat="37.9475133" lon="12.7958367"><ele>282.0</ele><time>2026-04-20T09:02:11.836Z</time></trkpt><trkpt lat="37.94744" lon="12.7957083"><ele>282.0</ele><time>2026-04-20T09:02:12.832Z</time></trkpt><trkpt lat="37.9473517" lon="12.795585"><ele>282.6</ele><time>2026-04-20T09:02:13.832Z</time></trkpt><trkpt lat="37.947255" lon="12.795475"><ele>283.2</ele><time>2026-04-20T09:02:14.833Z</time></trkpt><trkpt lat="37.9471667" lon="12.7953833"><ele>283.8</ele><time>2026-04-20T09:02:15.827Z</time></trkpt><trkpt lat="37.9470917" lon="12.7953083"><ele>284.4</ele><time>2026-04-20T09:02:16.834Z</time></trkpt><trkpt lat="37.9470267" lon="12.795245"><ele>285.0</ele><time>2026-04-20T09:02:17.83Z</time></trkpt><trkpt lat="37.9469667" lon="12.7951867"><ele>285.0</ele><time>2026-04-20T09:02:18.831Z</time></trkpt><trkpt lat="37.94691" lon="12.7951383"><ele>285.0</ele><time>2026-04-20T09:02:19.833Z</time></trkpt><trkpt lat="37.9468167" lon="12.79506"><ele>285.0</ele><time>2026-04-20T09:02:21.829Z</time></trkpt><trkpt lat="37.946745" lon="12.794995"><ele>285.0</ele><time>2026-04-20T09:02:23.829Z</time></trkpt><trkpt lat="37.9466783" lon="12.7949467"><ele>285.0</ele><time>2026-04-20T09:02:26.832Z</time></trkpt><trkpt lat="37.946605" lon="12.7949717"><ele>285.0</ele><time>2026-04-20T09:02:30.831Z</time></trkpt><trkpt lat="37.9465567" lon="12.7951083"><ele>285.3333333333333</ele><time>2026-04-20T09:02:32.832Z</time></trkpt><trkpt lat="37.9465167" lon="12.795185"><ele>285.6666666666667</ele><time>2026-04-20T09:02:33.829Z</time></trkpt><trkpt lat="37.9464633" lon="12.795245"><ele>286.0</ele><time>2026-04-20T09:02:34.832Z</time></trkpt><trkpt lat="37.946345" lon="12.7953083"><ele>286.33333333333337</ele><time>2026-04-20T09:02:36.832Z</time></trkpt><trkpt lat="37.94627" lon="12.79533"><ele>286.6666666666667</ele><time>2026-04-20T09:02:37.83Z</time></trkpt><trkpt lat="37.94618" lon="12.7953567"><ele>287.0</ele><time>2026-04-20T09:02:38.829Z</time></trkpt><trkpt lat="37.94607" lon="12.795385"><ele>287.0</ele><time>2026-04-20T09:02:39.828Z</time></trkpt><trkpt lat="37.9459417" lon="12.7954183"><ele>287.0</ele><time>2026-04-20T09:02:40.829Z</time></trkpt><trkpt lat="37.945795" lon="12.7954567"><ele>287.0</ele><time>2026-04-20T09:02:41.83Z</time></trkpt><trkpt lat="37.9456283" lon="12.7954983"><ele>288.6666666666667</ele><time>2026-04-20T09:02:42.828Z</time></trkpt><trkpt lat="37.9454467" lon="12.7955467"><ele>290.3333333333333</ele><time>2026-04-20T09:02:43.831Z</time></trkpt><trkpt lat="37.9452533" lon="12.7955967"><ele>292.0</ele><time>2026-04-20T09:02:44.832Z</time></trkpt><trkpt lat="37.94505" lon="12.7956483"><ele>291.66666666666663</ele><time>2026-04-20T09:02:45.83Z</time></trkpt><trkpt lat="37.9448417" lon="12.795705"><ele>291.3333333333333</ele><time>2026-04-20T09:02:46.83Z</time></trkpt><trkpt lat="37.9446283" lon="12.7957633"><ele>291.0</ele><time>2026-04-20T09:02:47.83Z</time></trkpt><trkpt lat="37.9444117" lon="12.79582"><ele>291.6666666666667</ele><time>2026-04-20T09:02:48.829Z</time></trkpt><trkpt lat="37.9442" lon="12.795875"><ele>292.33333333333337</ele><time>2026-04-20T09:02:49.83Z</time></trkpt><trkpt lat="37.943985" lon="12.7959283"><ele>293.0</ele><time>2026-04-20T09:02:50.828Z</time></trkpt><trkpt lat="37.9437633" lon="12.795985"><ele>295.0</ele><time>2026-04-20T09:02:51.829Z</time></trkpt><trkpt lat="37.9435367" lon="12.7960467"><ele>297.0</ele><time>2026-04-20T09:02:52.83Z</time></trkpt><trkpt lat="37.9433" lon="12.7961117"><ele>298.0</ele><time>2026-04-20T09:02:53.829Z</time></trkpt><trkpt lat="37.943065" lon="12.79618"><ele>299.0</ele><time>2026-04-20T09:02:54.831Z</time></trkpt><trkpt lat="37.94283" lon="12.7962433"><ele>299.0</ele><time>2026-04-20T09:02:55.831Z</time></trkpt><trkpt lat="37.9425933" lon="12.796305"><ele>299.0</ele><time>2026-04-20T09:02:56.831Z</time></trkpt><trkpt lat="37.9423567" lon="12.7963683"><ele>299.5</ele><time>2026-04-20T09:02:57.83Z</time></trkpt><trkpt lat="37.9421183" lon="12.7964317"><ele>300.0</ele><time>2026-04-20T09:02:58.831Z</time></trkpt><trkpt lat="37.9418833" lon="12.7964917"><ele>300.0</ele><time>2026-04-20T09:02:59.834Z</time></trkpt><trkpt lat="37.94165" lon="12.7965533"><ele>300.0</ele><time>2026-04-20T09:03:00.831Z</time></trkpt><trkpt lat="37.9414167" lon="12.7966133"><ele>300.0</ele><time>2026-04-20T09:03:01.83Z</time></trkpt><trkpt lat="37.9411867" lon="12.7966767"><ele>300.0</ele><time>2026-04-20T09:03:02.83Z</time></trkpt><trkpt lat="37.9409617" lon="12.7967383"><ele>301.3333333333333</ele><time>2026-04-20T09:03:03.832Z</time></trkpt><trkpt lat="37.9407433" lon="12.7968"><ele>302.66666666666663</ele><time>2026-04-20T09:03:04.833Z</time></trkpt><trkpt lat="37.9405367" lon="12.7968567"><ele>304.0</ele><time>2026-04-20T09:03:05.831Z</time></trkpt><trkpt lat="37.9403383" lon="12.79691"><ele>305.66666666666663</ele><time>2026-04-20T09:03:06.833Z</time></trkpt><trkpt lat="37.9401517" lon="12.7969583"><ele>307.3333333333333</ele><time>2026-04-20T09:03:07.83Z</time></trkpt><trkpt lat="37.9399717" lon="12.797005"><ele>309.0</ele><time>2026-04-20T09:03:08.832Z</time></trkpt><trkpt lat="37.9397983" lon="12.7970533"><ele>310.6666666666667</ele><time>2026-04-20T09:03:09.832Z</time></trkpt><trkpt lat="37.9396383" lon="12.7971083"><ele>312.33333333333337</ele><time>2026-04-20T09:03:10.831Z</time></trkpt><trkpt lat="37.9394867" lon="12.797175"><ele>314.0</ele><time>2026-04-20T09:03:11.831Z</time></trkpt><trkpt lat="37.9393333" lon="12.7972567"><ele>315.0</ele><time>2026-04-20T09:03:12.836Z</time></trkpt><trkpt lat="37.9391733" lon="12.7973617"><ele>316.0</ele><time>2026-04-20T09:03:13.832Z</time></trkpt><trkpt lat="37.939005" lon="12.7974883"><ele>317.0</ele><time>2026-04-20T09:03:14.833Z</time></trkpt><trkpt lat="37.9388367" lon="12.7976233"><ele>318.0</ele><time>2026-04-20T09:03:15.829Z</time></trkpt><trkpt lat="37.9386767" lon="12.7977567"><ele>319.0</ele><time>2026-04-20T09:03:16.835Z</time></trkpt><trkpt lat="37.93853" lon="12.7978833"><ele>320.0</ele><time>2026-04-20T09:03:17.832Z</time></trkpt><trkpt lat="37.9383883" lon="12.7980233"><ele>320.6666666666667</ele><time>2026-04-20T09:03:18.831Z</time></trkpt><trkpt lat="37.93825" lon="12.7981817"><ele>321.3333333333333</ele><time>2026-04-20T09:03:19.831Z</time></trkpt><trkpt lat="37.9381167" lon="12.7983483"><ele>322.0</ele><time>2026-04-20T09:03:20.832Z</time></trkpt><trkpt lat="37.9379933" lon="12.798515"><ele>322.0</ele><time>2026-04-20T09:03:21.831Z</time></trkpt><trkpt lat="37.9378817" lon="12.798675"><ele>322.0</ele><time>2026-04-20T09:03:22.834Z</time></trkpt><trkpt lat="37.93778" lon="12.7988167"><ele>322.0</ele><time>2026-04-20T09:03:23.832Z</time></trkpt><trkpt lat="37.93769" lon="12.7989383"><ele>322.0</ele><time>2026-04-20T09:03:24.83Z</time></trkpt><trkpt lat="37.9376083" lon="12.79905"><ele>322.0</ele><time>2026-04-20T09:03:25.833Z</time></trkpt><trkpt lat="37.9375317" lon="12.79916"><ele>322.0</ele><time>2026-04-20T09:03:26.834Z</time></trkpt><trkpt lat="37.937455" lon="12.7992683"><ele>322.0</ele><time>2026-04-20T09:03:27.833Z</time></trkpt><trkpt lat="37.9373767" lon="12.7993767"><ele>320.75</ele><time>2026-04-20T09:03:28.831Z</time></trkpt><trkpt lat="37.9372967" lon="12.799485"><ele>319.5</ele><time>2026-04-20T09:03:29.83Z</time></trkpt><trkpt lat="37.937215" lon="12.7995883"><ele>318.25</ele><time>2026-04-20T09:03:30.831Z</time></trkpt><trkpt lat="37.9371317" lon="12.7996833"><ele>317.0</ele><time>2026-04-20T09:03:31.833Z</time></trkpt><trkpt lat="37.9370483" lon="12.7997733"><ele>317.0</ele><time>2026-04-20T09:03:32.832Z</time></trkpt><trkpt lat="37.9369633" lon="12.7998567"><ele>317.0</ele><time>2026-04-20T09:03:33.833Z</time></trkpt><trkpt lat="37.9368783" lon="12.7999333"><ele>317.0</ele><time>2026-04-20T09:03:34.831Z</time></trkpt><trkpt lat="37.936795" lon="12.800005"><ele>317.0</ele><time>2026-04-20T09:03:35.833Z</time></trkpt><trkpt lat="37.93671" lon="12.8000833"><ele>317.0</ele><time>2026-04-20T09:03:36.833Z</time></trkpt><trkpt lat="37.9366267" lon="12.8001617"><ele>317.1666666666667</ele><time>2026-04-20T09:03:37.832Z</time></trkpt><trkpt lat="37.9365467" lon="12.8002317"><ele>317.33333333333337</ele><time>2026-04-20T09:03:38.83Z</time></trkpt><trkpt lat="37.9364733" lon="12.8002933"><ele>317.5</ele><time>2026-04-20T09:03:39.827Z</time></trkpt><trkpt lat="37.9364017" lon="12.80035"><ele>317.6666666666667</ele><time>2026-04-20T09:03:40.832Z</time></trkpt><trkpt lat="37.936335" lon="12.8003983"><ele>317.8333333333333</ele><time>2026-04-20T09:03:41.832Z</time></trkpt><trkpt lat="37.93627" lon="12.800445"><ele>318.0</ele><time>2026-04-20T09:03:42.831Z</time></trkpt><trkpt lat="37.936205" lon="12.8004933"><ele>318.0</ele><time>2026-04-20T09:03:43.83Z</time></trkpt><trkpt lat="37.9361317" lon="12.8005517"><ele>318.0</ele><time>2026-04-20T09:03:44.834Z</time></trkpt><trkpt lat="37.9360567" lon="12.8006067"><ele>318.0</ele><time>2026-04-20T09:03:45.831Z</time></trkpt><trkpt lat="37.9359817" lon="12.80066"><ele>318.0</ele><time>2026-04-20T09:03:46.828Z</time></trkpt><trkpt lat="37.9359067" lon="12.800715"><ele>318.0</ele><time>2026-04-20T09:03:47.831Z</time></trkpt><trkpt lat="37.93583" lon="12.8007667"><ele>318.0</ele><time>2026-04-20T09:03:48.827Z</time></trkpt><trkpt lat="37.935755" lon="12.8008183"><ele>317.75</ele><time>2026-04-20T09:03:49.83Z</time></trkpt><trkpt lat="37.9356767" lon="12.80087"><ele>317.5</ele><time>2026-04-20T09:03:50.831Z</time></trkpt><trkpt lat="37.9355883" lon="12.800935"><ele>317.25</ele><time>2026-04-20T09:03:51.831Z</time></trkpt><trkpt lat="37.9354833" lon="12.8010133"><ele>317.0</ele><time>2026-04-20T09:03:52.832Z</time></trkpt><trkpt lat="37.9353567" lon="12.8011"><ele>317.0</ele><time>2026-04-20T09:03:53.829Z</time></trkpt><trkpt lat="37.9352083" lon="12.8012"><ele>317.0</ele><time>2026-04-20T09:03:54.832Z</time></trkpt><trkpt lat="37.9350517" lon="12.8013067"><ele>317.0</ele><time>2026-04-20T09:03:55.83Z</time></trkpt><trkpt lat="37.9349033" lon="12.8014117"><ele>318.0</ele><time>2026-04-20T09:03:56.829Z</time></trkpt><trkpt lat="37.9347717" lon="12.8015033"><ele>319.0</ele><time>2026-04-20T09:03:57.832Z</time></trkpt><trkpt lat="37.9346533" lon="12.80158"><ele>320.0</ele><time>2026-04-20T09:03:58.829Z</time></trkpt><trkpt lat="37.93454" lon="12.8016417"><ele>321.0</ele><time>2026-04-20T09:03:59.832Z</time></trkpt><trkpt lat="37.9344233" lon="12.8016917"><ele>321.0</ele><time>2026-04-20T09:04:00.836Z</time></trkpt><trkpt lat="37.9342967" lon="12.8017233"><ele>321.0</ele><time>2026-04-20T09:04:01.838Z</time></trkpt><trkpt lat="37.9340333" lon="12.80177"><ele>321.0</ele><time>2026-04-20T09:04:03.831Z</time></trkpt><trkpt lat="37.933925" lon="12.8017833"><ele>321.3333333333333</ele><time>2026-04-20T09:04:04.829Z</time></trkpt><trkpt lat="37.933835" lon="12.8017933"><ele>321.6666666666667</ele><time>2026-04-20T09:04:05.83Z</time></trkpt><trkpt lat="37.9337467" lon="12.801805"><ele>322.0</ele><time>2026-04-20T09:04:06.828Z</time></trkpt><trkpt lat="37.9336517" lon="12.8018217"><ele>322.33333333333337</ele><time>2026-04-20T09:04:07.831Z</time></trkpt><trkpt lat="37.9335633" lon="12.8018233"><ele>322.6666666666667</ele><time>2026-04-20T09:04:08.831Z</time></trkpt><trkpt lat="37.9334867" lon="12.8018117"><ele>323.0</ele><time>2026-04-20T09:04:09.831Z</time></trkpt><trkpt lat="37.9334017" lon="12.8018117"><ele>322.33333333333337</ele><time>2026-04-20T09:04:10.832Z</time></trkpt><trkpt lat="37.9333033" lon="12.8018183"><ele>321.6666666666667</ele><time>2026-04-20T09:04:11.831Z</time></trkpt><trkpt lat="37.933205" lon="12.8018283"><ele>321.0</ele><time>2026-04-20T09:04:12.83Z</time></trkpt><trkpt lat="37.933115" lon="12.8018367"><ele>320.3333333333333</ele><time>2026-04-20T09:04:13.831Z</time></trkpt><trkpt lat="37.9330333" lon="12.801845"><ele>319.66666666666663</ele><time>2026-04-20T09:04:14.833Z</time></trkpt><trkpt lat="37.932955" lon="12.8018567"><ele>319.0</ele><time>2026-04-20T09:04:15.833Z</time></trkpt><trkpt lat="37.9328767" lon="12.8018683"><ele>318.0</ele><time>2026-04-20T09:04:16.831Z</time></trkpt><trkpt lat="37.9327883" lon="12.80188"><ele>317.0</ele><time>2026-04-20T09:04:17.843Z</time></trkpt><trkpt lat="37.932695" lon="12.80189"><ele>316.0</ele><time>2026-04-20T09:04:18.833Z</time></trkpt><trkpt lat="37.9326083" lon="12.801905"><ele>315.0</ele><time>2026-04-20T09:04:19.832Z</time></trkpt><trkpt lat="37.9325283" lon="12.8019233"><ele>314.0</ele><time>2026-04-20T09:04:20.831Z</time></trkpt><trkpt lat="37.9324517" lon="12.8019417"><ele>313.0</ele><time>2026-04-20T09:04:21.833Z</time></trkpt><trkpt lat="37.9323783" lon="12.801955"><ele>312.8333333333333</ele><time>2026-04-20T09:04:22.838Z</time></trkpt><trkpt lat="37.9323117" lon="12.8019617"><ele>312.66666666666663</ele><time>2026-04-20T09:04:23.832Z</time></trkpt><trkpt lat="37.9322467" lon="12.8019667"><ele>312.5</ele><time>2026-04-20T09:04:24.831Z</time></trkpt><trkpt lat="37.9321783" lon="12.8019717"><ele>312.3333333333333</ele><time>2026-04-20T09:04:25.831Z</time></trkpt><trkpt lat="37.93211" lon="12.8019783"><ele>312.1666666666667</ele><time>2026-04-20T09:04:26.831Z</time></trkpt><trkpt lat="37.9320417" lon="12.801985"><ele>312.0</ele><time>2026-04-20T09:04:27.831Z</time></trkpt><trkpt lat="37.931925" lon="12.801995"><ele>312.0</ele><time>2026-04-20T09:04:29.828Z</time></trkpt><trkpt lat="37.9318183" lon="12.80201"><ele>312.0</ele><time>2026-04-20T09:04:31.83Z</time></trkpt><trkpt lat="37.9316983" lon="12.8020283"><ele>312.0</ele><time>2026-04-20T09:04:33.83Z</time></trkpt><trkpt lat="37.931625" lon="12.80203"><ele>312.0</ele><time>2026-04-20T09:04:34.826Z</time></trkpt><trkpt lat="37.9315467" lon="12.8020283"><ele>312.0</ele><time>2026-04-20T09:04:35.829Z</time></trkpt><trkpt lat="37.931455" lon="12.802035"><ele>311.5</ele><time>2026-04-20T09:04:36.836Z</time></trkpt><trkpt lat="37.9313467" lon="12.8020467"><ele>311.0</ele><time>2026-04-20T09:04:37.828Z</time></trkpt><trkpt lat="37.9312233" lon="12.8020583"><ele>310.5</ele><time>2026-04-20T09:04:38.828Z</time></trkpt><trkpt lat="37.93111" lon="12.8020733"><ele>310.0</ele><time>2026-04-20T09:04:39.827Z</time></trkpt><trkpt lat="37.9309933" lon="12.802085"><ele>310.6</ele><time>2026-04-20T09:04:40.828Z</time></trkpt><trkpt lat="37.9308817" lon="12.802095"><ele>311.2</ele><time>2026-04-20T09:04:41.829Z</time></trkpt><trkpt lat="37.930785" lon="12.8021033"><ele>311.8</ele><time>2026-04-20T09:04:42.828Z</time></trkpt><trkpt lat="37.930685" lon="12.8021167"><ele>312.4</ele><time>2026-04-20T09:04:43.827Z</time></trkpt><trkpt lat="37.9305767" lon="12.8021267"><ele>313.0</ele><time>2026-04-20T09:04:44.827Z</time></trkpt><trkpt lat="37.9304667" lon="12.802145"><ele>313.0</ele><time>2026-04-20T09:04:45.828Z</time></trkpt><trkpt lat="37.9303467" lon="12.8021567"><ele>313.0</ele><time>2026-04-20T09:04:46.829Z</time></trkpt><trkpt lat="37.9302417" lon="12.8021667"><ele>313.0</ele><time>2026-04-20T09:04:47.832Z</time></trkpt><trkpt lat="37.9301467" lon="12.8021733"><ele>313.0</ele><time>2026-04-20T09:04:48.83Z</time></trkpt><trkpt lat="37.9300633" lon="12.8021783"><ele>313.0</ele><time>2026-04-20T09:04:49.828Z</time></trkpt><trkpt lat="37.9299967" lon="12.8021817"><ele>313.0</ele><time>2026-04-20T09:04:50.83Z</time></trkpt><trkpt lat="37.9298817" lon="12.8021883"><ele>313.0</ele><time>2026-04-20T09:04:52.83Z</time></trkpt><trkpt lat="37.9297483" lon="12.8021983"><ele>313.0</ele><time>2026-04-20T09:04:54.829Z</time></trkpt><trkpt lat="37.9296717" lon="12.8021983"><ele>313.0</ele><time>2026-04-20T09:04:55.832Z</time></trkpt><trkpt lat="37.9295883" lon="12.8022017"><ele>313.0</ele><time>2026-04-20T09:04:56.831Z</time></trkpt><trkpt lat="37.9295017" lon="12.8022133"><ele>313.0</ele><time>2026-04-20T09:04:57.831Z</time></trkpt><trkpt lat="37.9294083" lon="12.8022267"><ele>313.0</ele><time>2026-04-20T09:04:58.83Z</time></trkpt><trkpt lat="37.929305" lon="12.8022433"><ele>313.0</ele><time>2026-04-20T09:04:59.828Z</time></trkpt><trkpt lat="37.9291933" lon="12.8022617"><ele>313.0</ele><time>2026-04-20T09:05:00.828Z</time></trkpt><trkpt lat="37.9290717" lon="12.80228"><ele>313.0</ele><time>2026-04-20T09:05:01.832Z</time></trkpt><trkpt lat="37.928945" lon="12.8022983"><ele>313.0</ele><time>2026-04-20T09:05:02.83Z</time></trkpt><trkpt lat="37.9288133" lon="12.80231"><ele>313.0</ele><time>2026-04-20T09:05:03.831Z</time></trkpt><trkpt lat="37.928675" lon="12.8023233"><ele>313.0</ele><time>2026-04-20T09:05:04.829Z</time></trkpt><trkpt lat="37.9285283" lon="12.8023417"><ele>313.0</ele><time>2026-04-20T09:05:05.833Z</time></trkpt><trkpt lat="37.9283867" lon="12.8023617"><ele>313.75</ele><time>2026-04-20T09:05:06.833Z</time></trkpt><trkpt lat="37.9282633" lon="12.8023767"><ele>314.5</ele><time>2026-04-20T09:05:07.83Z</time></trkpt><trkpt lat="37.928145" lon="12.8023867"><ele>315.25</ele><time>2026-04-20T09:05:08.833Z</time></trkpt><trkpt lat="37.9280267" lon="12.8023983"><ele>316.0</ele><time>2026-04-20T09:05:09.833Z</time></trkpt><trkpt lat="37.9279067" lon="12.8024133"><ele>316.0</ele><time>2026-04-20T09:05:10.833Z</time></trkpt><trkpt lat="37.927785" lon="12.802435"><ele>316.0</ele><time>2026-04-20T09:05:11.828Z</time></trkpt><trkpt lat="37.92766" lon="12.8024633"><ele>316.0</ele><time>2026-04-20T09:05:12.829Z</time></trkpt><trkpt lat="37.9275333" lon="12.80249"><ele>316.0</ele><time>2026-04-20T09:05:13.83Z</time></trkpt><trkpt lat="37.927405" lon="12.8025167"><ele>317.5</ele><time>2026-04-20T09:05:14.833Z</time></trkpt><trkpt lat="37.9272783" lon="12.8025367"><ele>319.0</ele><time>2026-04-20T09:05:15.834Z</time></trkpt><trkpt lat="37.9271467" lon="12.802555"><ele>320.5</ele><time>2026-04-20T09:05:16.835Z</time></trkpt><trkpt lat="37.927015" lon="12.8025817"><ele>322.0</ele><time>2026-04-20T09:05:17.836Z</time></trkpt><trkpt lat="37.9268883" lon="12.8026117"><ele>322.0</ele><time>2026-04-20T09:05:18.832Z</time></trkpt><trkpt lat="37.9267783" lon="12.8026333"><ele>322.0</ele><time>2026-04-20T09:05:19.833Z</time></trkpt><trkpt lat="37.9266817" lon="12.8026533"><ele>322.0</ele><time>2026-04-20T09:05:20.834Z</time></trkpt><trkpt lat="37.926595" lon="12.8026683"><ele>322.0</ele><time>2026-04-20T09:05:21.836Z</time></trkpt><trkpt lat="37.9265067" lon="12.80268"><ele>322.0</ele><time>2026-04-20T09:05:22.832Z</time></trkpt><trkpt lat="37.92641" lon="12.802685"><ele>323.0</ele><time>2026-04-20T09:05:23.833Z</time></trkpt><trkpt lat="37.9263" lon="12.8026833"><ele>324.0</ele><time>2026-04-20T09:05:24.835Z</time></trkpt><trkpt lat="37.926175" lon="12.8026817"><ele>325.0</ele><time>2026-04-20T09:05:25.83Z</time></trkpt><trkpt lat="37.92603" lon="12.802675"><ele>326.0</ele><time>2026-04-20T09:05:26.832Z</time></trkpt><trkpt lat="37.9258733" lon="12.8026633"><ele>327.75</ele><time>2026-04-20T09:05:27.83Z</time></trkpt><trkpt lat="37.925725" lon="12.802655"><ele>329.5</ele><time>2026-04-20T09:05:28.83Z</time></trkpt><trkpt lat="37.92559" lon="12.80265"><ele>331.25</ele><time>2026-04-20T09:05:29.831Z</time></trkpt><trkpt lat="37.9254617" lon="12.8026517"><ele>333.0</ele><time>2026-04-20T09:05:30.829Z</time></trkpt><trkpt lat="37.9253283" lon="12.8026533"><ele>333.0</ele><time>2026-04-20T09:05:31.832Z</time></trkpt><trkpt lat="37.9251933" lon="12.8026483"><ele>333.0</ele><time>2026-04-20T09:05:32.831Z</time></trkpt><trkpt lat="37.9250483" lon="12.8026417"><ele>333.0</ele><time>2026-04-20T09:05:33.829Z</time></trkpt><trkpt lat="37.92489" lon="12.8026283"><ele>333.0</ele><time>2026-04-20T09:05:34.83Z</time></trkpt><trkpt lat="37.9247183" lon="12.8026183"><ele>333.6666666666667</ele><time>2026-04-20T09:05:35.831Z</time></trkpt><trkpt lat="37.9245417" lon="12.8026083"><ele>334.33333333333337</ele><time>2026-04-20T09:05:36.833Z</time></trkpt><trkpt lat="37.9243617" lon="12.802605"><ele>335.0</ele><time>2026-04-20T09:05:37.832Z</time></trkpt><trkpt lat="37.92418" lon="12.8025967"><ele>336.0</ele><time>2026-04-20T09:05:38.836Z</time></trkpt><trkpt lat="37.9240117" lon="12.802585"><ele>337.0</ele><time>2026-04-20T09:05:39.833Z</time></trkpt><trkpt lat="37.923855" lon="12.8025783"><ele>338.0</ele><time>2026-04-20T09:05:40.834Z</time></trkpt><trkpt lat="37.92371" lon="12.8025717"><ele>338.0</ele><time>2026-04-20T09:05:41.833Z</time></trkpt><trkpt lat="37.9235667" lon="12.8025683"><ele>338.0</ele><time>2026-04-20T09:05:42.831Z</time></trkpt><trkpt lat="37.9234233" lon="12.8025617"><ele>338.0</ele><time>2026-04-20T09:05:43.828Z</time></trkpt><trkpt lat="37.9232833" lon="12.802545"><ele>338.0</ele><time>2026-04-20T09:05:44.827Z</time></trkpt><trkpt lat="37.9231517" lon="12.8025167"><ele>338.5</ele><time>2026-04-20T09:05:45.827Z</time></trkpt><trkpt lat="37.9230133" lon="12.80247"><ele>339.0</ele><time>2026-04-20T09:05:46.828Z</time></trkpt><trkpt lat="37.92287" lon="12.8024067"><ele>339.5</ele><time>2026-04-20T09:05:47.828Z</time></trkpt><trkpt lat="37.9227317" lon="12.8023383"><ele>340.0</ele><time>2026-04-20T09:05:48.831Z</time></trkpt><trkpt lat="37.922605" lon="12.80228"><ele>339.25</ele><time>2026-04-20T09:05:49.831Z</time></trkpt><trkpt lat="37.9224767" lon="12.802245"><ele>338.5</ele><time>2026-04-20T09:05:50.83Z</time></trkpt><trkpt lat="37.9223367" lon="12.802235"><ele>337.75</ele><time>2026-04-20T09:05:51.831Z</time></trkpt><trkpt lat="37.9221933" lon="12.8022433"><ele>337.0</ele><time>2026-04-20T09:05:52.829Z</time></trkpt><trkpt lat="37.9220517" lon="12.8022617"><ele>337.0</ele><time>2026-04-20T09:05:53.83Z</time></trkpt><trkpt lat="37.92191" lon="12.8022817"><ele>337.0</ele><time>2026-04-20T09:05:54.832Z</time></trkpt><trkpt lat="37.9217633" lon="12.8023017"><ele>337.0</ele><time>2026-04-20T09:05:55.83Z</time></trkpt><trkpt lat="37.9216083" lon="12.802325"><ele>337.0</ele><time>2026-04-20T09:05:56.83Z</time></trkpt><trkpt lat="37.9214383" lon="12.8023467"><ele>338.0</ele><time>2026-04-20T09:05:57.831Z</time></trkpt><trkpt lat="37.9212533" lon="12.8023733"><ele>339.0</ele><time>2026-04-20T09:05:58.828Z</time></trkpt><trkpt lat="37.9210683" lon="12.8023983"><ele>340.0</ele><time>2026-04-20T09:05:59.828Z</time></trkpt><trkpt lat="37.9208933" lon="12.8024217"><ele>341.0</ele><time>2026-04-20T09:06:00.828Z</time></trkpt><trkpt lat="37.9207333" lon="12.8024417"><ele>342.0</ele><time>2026-04-20T09:06:01.831Z</time></trkpt><trkpt lat="37.9205717" lon="12.8024567"><ele>343.0</ele><time>2026-04-20T09:06:02.832Z</time></trkpt><trkpt lat="37.9204033" lon="12.8024667"><ele>343.0</ele><time>2026-04-20T09:06:03.832Z</time></trkpt><trkpt lat="37.92023" lon="12.8024717"><ele>343.0</ele><time>2026-04-20T09:06:04.83Z</time></trkpt><trkpt lat="37.9200617" lon="12.8024717"><ele>343.0</ele><time>2026-04-20T09:06:05.831Z</time></trkpt><trkpt lat="37.9198933" lon="12.8024733"><ele>343.66666666666663</ele><time>2026-04-20T09:06:06.829Z</time></trkpt><trkpt lat="37.9197217" lon="12.8024817"><ele>344.3333333333333</ele><time>2026-04-20T09:06:07.829Z</time></trkpt><trkpt lat="37.9195617" lon="12.8025017"><ele>345.0</ele><time>2026-04-20T09:06:08.831Z</time></trkpt><trkpt lat="37.9194117" lon="12.8025267"><ele>345.0</ele><time>2026-04-20T09:06:09.829Z</time></trkpt><trkpt lat="37.9192633" lon="12.8025583"><ele>345.0</ele><time>2026-04-20T09:06:10.833Z</time></trkpt><trkpt lat="37.9191183" lon="12.8025933"><ele>345.0</ele><time>2026-04-20T09:06:11.83Z</time></trkpt><trkpt lat="37.918985" lon="12.8026283"><ele>345.0</ele><time>2026-04-20T09:06:12.827Z</time></trkpt><trkpt lat="37.918865" lon="12.80266"><ele>344.75</ele><time>2026-04-20T09:06:13.83Z</time></trkpt><trkpt lat="37.91875" lon="12.8026883"><ele>344.5</ele><time>2026-04-20T09:06:14.831Z</time></trkpt><trkpt lat="37.9186233" lon="12.8027233"><ele>344.25</ele><time>2026-04-20T09:06:15.832Z</time></trkpt><trkpt lat="37.9184767" lon="12.802765"><ele>344.0</ele><time>2026-04-20T09:06:16.831Z</time></trkpt><trkpt lat="37.91831" lon="12.8028083"><ele>344.0</ele><time>2026-04-20T09:06:17.83Z</time></trkpt><trkpt lat="37.9181333" lon="12.802855"><ele>344.0</ele><time>2026-04-20T09:06:18.832Z</time></trkpt><trkpt lat="37.9179383" lon="12.8029017"><ele>344.0</ele><time>2026-04-20T09:06:19.828Z</time></trkpt><trkpt lat="37.917735" lon="12.80295"><ele>345.6666666666667</ele><time>2026-04-20T09:06:20.835Z</time></trkpt><trkpt lat="37.9175367" lon="12.8029967"><ele>347.3333333333333</ele><time>2026-04-20T09:06:21.828Z</time></trkpt><trkpt lat="37.9173583" lon="12.80304"><ele>349.0</ele><time>2026-04-20T09:06:22.83Z</time></trkpt><trkpt lat="37.9171917" lon="12.8030817"><ele>349.0</ele><time>2026-04-20T09:06:23.829Z</time></trkpt><trkpt lat="37.917035" lon="12.8031183"><ele>349.0</ele><time>2026-04-20T09:06:24.83Z</time></trkpt><trkpt lat="37.916875" lon="12.8031433"><ele>349.0</ele><time>2026-04-20T09:06:25.83Z</time></trkpt><trkpt lat="37.9167083" lon="12.80315"><ele>349.3333333333333</ele><time>2026-04-20T09:06:26.833Z</time></trkpt><trkpt lat="37.916535" lon="12.803135"><ele>349.6666666666667</ele><time>2026-04-20T09:06:27.834Z</time></trkpt><trkpt lat="37.9163633" lon="12.8031117"><ele>350.0</ele><time>2026-04-20T09:06:28.832Z</time></trkpt><trkpt lat="37.91619" lon="12.8030917"><ele>350.0</ele><time>2026-04-20T09:06:29.83Z</time></trkpt><trkpt lat="37.91602" lon="12.8030767"><ele>350.0</ele><time>2026-04-20T09:06:30.83Z</time></trkpt><trkpt lat="37.9158517" lon="12.8030667"><ele>350.0</ele><time>2026-04-20T09:06:31.829Z</time></trkpt><trkpt lat="37.9156833" lon="12.8030733"><ele>350.0</ele><time>2026-04-20T09:06:32.829Z</time></trkpt><trkpt lat="37.91551" lon="12.8031017"><ele>350.0</ele><time>2026-04-20T09:06:33.827Z</time></trkpt><trkpt lat="37.9153233" lon="12.8031467"><ele>350.0</ele><time>2026-04-20T09:06:34.83Z</time></trkpt><trkpt lat="37.91513" lon="12.8032033"><ele>350.6666666666667</ele><time>2026-04-20T09:06:35.829Z</time></trkpt><trkpt lat="37.9149333" lon="12.8032733"><ele>351.3333333333333</ele><time>2026-04-20T09:06:36.831Z</time></trkpt><trkpt lat="37.9147317" lon="12.8033533"><ele>352.0</ele><time>2026-04-20T09:06:37.829Z</time></trkpt><trkpt lat="37.9145283" lon="12.8034417"><ele>354.0</ele><time>2026-04-20T09:06:38.831Z</time></trkpt><trkpt lat="37.914325" lon="12.8035417"><ele>356.0</ele><time>2026-04-20T09:06:39.83Z</time></trkpt><trkpt lat="37.9141233" lon="12.8036483"><ele>358.0</ele><time>2026-04-20T09:06:40.832Z</time></trkpt><trkpt lat="37.9139217" lon="12.80376"><ele>358.0</ele><time>2026-04-20T09:06:41.833Z</time></trkpt><trkpt lat="37.9137217" lon="12.80387"><ele>358.0</ele><time>2026-04-20T09:06:42.831Z</time></trkpt><trkpt lat="37.9135217" lon="12.80398"><ele>358.0</ele><time>2026-04-20T09:06:43.83Z</time></trkpt><trkpt lat="37.91332" lon="12.8040933"><ele>358.0</ele><time>2026-04-20T09:06:44.832Z</time></trkpt><trkpt lat="37.9131183" lon="12.804205"><ele>358.0</ele><time>2026-04-20T09:06:45.828Z</time></trkpt><trkpt lat="37.912925" lon="12.80431"><ele>358.0</ele><time>2026-04-20T09:06:46.828Z</time></trkpt><trkpt lat="37.9127417" lon="12.8044083"><ele>359.66666666666663</ele><time>2026-04-20T09:06:47.829Z</time></trkpt><trkpt lat="37.9125733" lon="12.8045017"><ele>361.3333333333333</ele><time>2026-04-20T09:06:48.828Z</time></trkpt><trkpt lat="37.912415" lon="12.8045933"><ele>363.0</ele><time>2026-04-20T09:06:49.831Z</time></trkpt><trkpt lat="37.9122633" lon="12.8046817"><ele>364.3333333333333</ele><time>2026-04-20T09:06:50.826Z</time></trkpt><trkpt lat="37.9121117" lon="12.8047717"><ele>365.66666666666663</ele><time>2026-04-20T09:06:51.829Z</time></trkpt><trkpt lat="37.9119583" lon="12.8048567"><ele>367.0</ele><time>2026-04-20T09:06:52.832Z</time></trkpt><trkpt lat="37.9118083" lon="12.8049317"><ele>367.5</ele><time>2026-04-20T09:06:53.829Z</time></trkpt><trkpt lat="37.9116717" lon="12.8049967"><ele>368.0</ele><time>2026-04-20T09:06:54.831Z</time></trkpt><trkpt lat="37.911545" lon="12.8050467"><ele>368.5</ele><time>2026-04-20T09:06:55.828Z</time></trkpt><trkpt lat="37.911425" lon="12.80508"><ele>369.0</ele><time>2026-04-20T09:06:56.832Z</time></trkpt><trkpt lat="37.9112983" lon="12.80511"><ele>369.0</ele><time>2026-04-20T09:06:57.828Z</time></trkpt><trkpt lat="37.9111617" lon="12.8051417"><ele>369.0</ele><time>2026-04-20T09:06:58.831Z</time></trkpt><trkpt lat="37.91102" lon="12.80517"><ele>369.0</ele><time>2026-04-20T09:06:59.829Z</time></trkpt><trkpt lat="37.9108817" lon="12.8051983"><ele>369.0</ele><time>2026-04-20T09:07:00.83Z</time></trkpt><trkpt lat="37.910755" lon="12.805225"><ele>370.79999999999995</ele><time>2026-04-20T09:07:01.83Z</time></trkpt><trkpt lat="37.9106383" lon="12.8052467"><ele>372.59999999999997</ele><time>2026-04-20T09:07:02.832Z</time></trkpt><trkpt lat="37.9105333" lon="12.8052617"><ele>374.4</ele><time>2026-04-20T09:07:03.83Z</time></trkpt><trkpt lat="37.9104367" lon="12.805275"><ele>376.2</ele><time>2026-04-20T09:07:04.829Z</time></trkpt><trkpt lat="37.91034" lon="12.80529"><ele>378.0</ele><time>2026-04-20T09:07:05.832Z</time></trkpt><trkpt lat="37.9102367" lon="12.805305"><ele>378.0</ele><time>2026-04-20T09:07:06.831Z</time></trkpt><trkpt lat="37.9101217" lon="12.80531"><ele>378.0</ele><time>2026-04-20T09:07:07.833Z</time></trkpt><trkpt lat="37.9099917" lon="12.8053017"><ele>378.0</ele><time>2026-04-20T09:07:08.831Z</time></trkpt><trkpt lat="37.9098433" lon="12.8052733"><ele>378.0</ele><time>2026-04-20T09:07:09.828Z</time></trkpt><trkpt lat="37.9096783" lon="12.805235"><ele>377.3333333333333</ele><time>2026-04-20T09:07:10.833Z</time></trkpt><trkpt lat="37.909495" lon="12.8051917"><ele>376.66666666666663</ele><time>2026-04-20T09:07:11.833Z</time></trkpt><trkpt lat="37.90931" lon="12.8051483"><ele>376.0</ele><time>2026-04-20T09:07:12.83Z</time></trkpt><trkpt lat="37.909135" lon="12.8051067"><ele>378.66666666666663</ele><time>2026-04-20T09:07:13.831Z</time></trkpt><trkpt lat="37.9089683" lon="12.8050667"><ele>381.3333333333333</ele><time>2026-04-20T09:07:14.829Z</time></trkpt><trkpt lat="37.9088117" lon="12.805025"><ele>384.0</ele><time>2026-04-20T09:07:15.83Z</time></trkpt><trkpt lat="37.9086667" lon="12.8049883"><ele>384.0</ele><time>2026-04-20T09:07:16.831Z</time></trkpt><trkpt lat="37.908535" lon="12.8049533"><ele>384.0</ele><time>2026-04-20T09:07:17.832Z</time></trkpt><trkpt lat="37.9084133" lon="12.80492"><ele>384.0</ele><time>2026-04-20T09:07:18.833Z</time></trkpt><trkpt lat="37.908305" lon="12.80489"><ele>384.0</ele><time>2026-04-20T09:07:19.831Z</time></trkpt><trkpt lat="37.90821" lon="12.8048633"><ele>384.4285714285714</ele><time>2026-04-20T09:07:20.831Z</time></trkpt><trkpt lat="37.9081283" lon="12.8048383"><ele>384.85714285714283</ele><time>2026-04-20T09:07:21.833Z</time></trkpt><trkpt lat="37.9080617" lon="12.80482"><ele>385.2857142857143</ele><time>2026-04-20T09:07:22.832Z</time></trkpt><trkpt lat="37.9079867" lon="12.8047917"><ele>385.71428571428567</ele><time>2026-04-20T09:07:24.83Z</time></trkpt><trkpt lat="37.9079017" lon="12.80483"><ele>386.14285714285717</ele><time>2026-04-20T09:07:27.834Z</time></trkpt><trkpt lat="37.90786" lon="12.80489"><ele>386.57142857142856</ele><time>2026-04-20T09:07:28.832Z</time></trkpt><trkpt lat="37.9078267" lon="12.80496"><ele>387.0</ele><time>2026-04-20T09:07:29.831Z</time></trkpt><trkpt lat="37.9077883" lon="12.8050367"><ele>387.0</ele><time>2026-04-20T09:07:30.834Z</time></trkpt><trkpt lat="37.9077367" lon="12.8051283"><ele>387.0</ele><time>2026-04-20T09:07:31.831Z</time></trkpt><trkpt lat="37.907665" lon="12.8052317"><ele>387.0</ele><time>2026-04-20T09:07:32.83Z</time></trkpt><trkpt lat="37.9075883" lon="12.8053233"><ele>387.0</ele><time>2026-04-20T09:07:33.832Z</time></trkpt><trkpt lat="37.90752" lon="12.8053933"><ele>387.0</ele><time>2026-04-20T09:07:34.831Z</time></trkpt><trkpt lat="37.9074617" lon="12.80545"><ele>387.0</ele><time>2026-04-20T09:07:35.831Z</time></trkpt><trkpt lat="37.9074133" lon="12.8055083"><ele>387.0</ele><time>2026-04-20T09:07:37.829Z</time></trkpt><trkpt lat="37.907375" lon="12.8055783"><ele>387.0</ele><time>2026-04-20T09:07:39.835Z</time></trkpt><trkpt lat="37.9073333" lon="12.8056533"><ele>387.0</ele><time>2026-04-20T09:07:40.83Z</time></trkpt><trkpt lat="37.9072783" lon="12.8057483"><ele>387.0</ele><time>2026-04-20T09:07:41.833Z</time></trkpt><trkpt lat="37.907185" lon="12.8058717"><ele>387.0</ele><time>2026-04-20T09:07:42.831Z</time></trkpt><trkpt lat="37.9070767" lon="12.806015"><ele>387.0</ele><time>2026-04-20T09:07:43.836Z</time></trkpt><trkpt lat="37.9069633" lon="12.8061633"><ele>387.0</ele><time>2026-04-20T09:07:44.835Z</time></trkpt><trkpt lat="37.9068583" lon="12.8063033"><ele>387.0</ele><time>2026-04-20T09:07:45.834Z</time></trkpt><trkpt lat="37.9067667" lon="12.806425"><ele>387.0</ele><time>2026-04-20T09:07:46.831Z</time></trkpt><trkpt lat="37.9066867" lon="12.8065283"><ele>387.6666666666667</ele><time>2026-04-20T09:07:47.831Z</time></trkpt><trkpt lat="37.9066267" lon="12.8066167"><ele>388.33333333333337</ele><time>2026-04-20T09:07:48.83Z</time></trkpt><trkpt lat="37.9065817" lon="12.8067033"><ele>389.0</ele><time>2026-04-20T09:07:49.828Z</time></trkpt><trkpt lat="37.9065767" lon="12.8068033"><ele>389.6666666666667</ele><time>2026-04-20T09:07:50.829Z</time></trkpt><trkpt lat="37.9065967" lon="12.806895"><ele>390.33333333333337</ele><time>2026-04-20T09:07:51.83Z</time></trkpt><trkpt lat="37.9066533" lon="12.8069633"><ele>391.0</ele><time>2026-04-20T09:07:52.83Z</time></trkpt><trkpt lat="37.90675" lon="12.8069817"><ele>390.0</ele><time>2026-04-20T09:07:53.831Z</time></trkpt><trkpt lat="37.906875" lon="12.8069533"><ele>389.0</ele><time>2026-04-20T09:07:54.83Z</time></trkpt><trkpt lat="37.9070083" lon="12.8069033"><ele>388.0</ele><time>2026-04-20T09:07:55.83Z</time></trkpt><trkpt lat="37.9071433" lon="12.80685"><ele>387.0</ele><time>2026-04-20T09:07:56.832Z</time></trkpt><trkpt lat="37.90725" lon="12.8068167"><ele>387.0</ele><time>2026-04-20T09:07:57.828Z</time></trkpt><trkpt lat="37.9073233" lon="12.8068083"><ele>387.0</ele><time>2026-04-20T09:07:58.829Z</time></trkpt><trkpt lat="37.9074083" lon="12.8068317"><ele>387.0</ele><time>2026-04-20T09:08:00.835Z</time></trkpt><trkpt lat="37.9074783" lon="12.8068217"><ele>387.0</ele><time>2026-04-20T09:08:04.832Z</time></trkpt><trkpt lat="37.9073967" lon="12.8067583"><ele>387.0</ele><time>2026-04-20T09:08:07.834Z</time></trkpt><trkpt lat="37.9073017" lon="12.80677"><ele>387.0</ele><time>2026-04-20T09:08:08.83Z</time></trkpt><trkpt lat="37.907145" lon="12.80681"><ele>385.25</ele><time>2026-04-20T09:08:09.831Z</time></trkpt><trkpt lat="37.907" lon="12.806855"><ele>383.5</ele><time>2026-04-20T09:08:10.829Z</time></trkpt><trkpt lat="37.9068533" lon="12.8069283"><ele>381.75</ele><time>2026-04-20T09:08:11.829Z</time></trkpt><trkpt lat="37.9067483" lon="12.80691"><ele>380.0</ele><time>2026-04-20T09:08:12.828Z</time></trkpt><trkpt lat="37.90667" lon="12.8069017"><ele>380.0</ele><time>2026-04-20T09:08:13.828Z</time></trkpt><trkpt lat="37.9066067" lon="12.80686"><ele>380.0</ele><time>2026-04-20T09:08:14.829Z</time></trkpt><trkpt lat="37.906575" lon="12.8067817"><ele>380.0</ele><time>2026-04-20T09:08:15.828Z</time></trkpt><trkpt lat="37.9065883" lon="12.806685"><ele>380.0</ele><time>2026-04-20T09:08:16.83Z</time></trkpt><trkpt lat="37.90665" lon="12.80658"><ele>380.0</ele><time>2026-04-20T09:08:17.829Z</time></trkpt><trkpt lat="37.9067733" lon="12.8064367"><ele>382.33333333333337</ele><time>2026-04-20T09:08:18.829Z</time></trkpt><trkpt lat="37.9069117" lon="12.8062667"><ele>384.6666666666667</ele><time>2026-04-20T09:08:19.829Z</time></trkpt><trkpt lat="37.9070717" lon="12.8060583"><ele>387.0</ele><time>2026-04-20T09:08:20.832Z</time></trkpt><trkpt lat="37.9072367" lon="12.8058317"><ele>388.66666666666663</ele><time>2026-04-20T09:08:21.831Z</time></trkpt><trkpt lat="37.90739" lon="12.805625"><ele>390.3333333333333</ele><time>2026-04-20T09:08:22.831Z</time></trkpt><trkpt lat="37.9075217" lon="12.8054433"><ele>392.0</ele><time>2026-04-20T09:08:23.828Z</time></trkpt><trkpt lat="37.907645" lon="12.8052617"><ele>390.3333333333333</ele><time>2026-04-20T09:08:24.829Z</time></trkpt><trkpt lat="37.9077683" lon="12.8050617"><ele>388.66666666666663</ele><time>2026-04-20T09:08:25.829Z</time></trkpt><trkpt lat="37.9078967" lon="12.8048333"><ele>387.0</ele><time>2026-04-20T09:08:26.829Z</time></trkpt><trkpt lat="37.9080317" lon="12.804585"><ele>386.5</ele><time>2026-04-20T09:08:27.83Z</time></trkpt><trkpt lat="37.9081833" lon="12.80431"><ele>386.0</ele><time>2026-04-20T09:08:28.827Z</time></trkpt><trkpt lat="37.908345" lon="12.8040267"><ele>381.0</ele><time>2026-04-20T09:08:29.828Z</time></trkpt><trkpt lat="37.9085083" lon="12.8037417"><ele>376.0</ele><time>2026-04-20T09:08:30.828Z</time></trkpt><trkpt lat="37.9086633" lon="12.8034667"><ele>374.5</ele><time>2026-04-20T09:08:31.828Z</time></trkpt><trkpt lat="37.9088117" lon="12.8032033"><ele>373.0</ele><time>2026-04-20T09:08:32.831Z</time></trkpt><trkpt lat="37.9089533" lon="12.8029517"><ele>373.0</ele><time>2026-04-20T09:08:33.829Z</time></trkpt><trkpt lat="37.9090867" lon="12.8027083"><ele>373.0</ele><time>2026-04-20T09:08:34.831Z</time></trkpt><trkpt lat="37.9092183" lon="12.802475"><ele>369.3333333333333</ele><time>2026-04-20T09:08:35.827Z</time></trkpt><trkpt lat="37.9093433" lon="12.80225"><ele>365.6666666666667</ele><time>2026-04-20T09:08:36.834Z</time></trkpt><trkpt lat="37.9094667" lon="12.8020367"><ele>362.0</ele><time>2026-04-20T09:08:37.833Z</time></trkpt><trkpt lat="37.9095833" lon="12.801835"><ele>362.33333333333337</ele><time>2026-04-20T09:08:38.831Z</time></trkpt><trkpt lat="37.90969" lon="12.801645"><ele>362.6666666666667</ele><time>2026-04-20T09:08:39.837Z</time></trkpt><trkpt lat="37.90979" lon="12.80147"><ele>363.0</ele><time>2026-04-20T09:08:40.834Z</time></trkpt><trkpt lat="37.9098833" lon="12.8013067"><ele>363.0</ele><time>2026-04-20T09:08:41.834Z</time></trkpt><trkpt lat="37.9099667" lon="12.8011633"><ele>363.0</ele><time>2026-04-20T09:08:42.833Z</time></trkpt><trkpt lat="37.9100433" lon="12.8010233"><ele>363.0</ele><time>2026-04-20T09:08:43.831Z</time></trkpt><trkpt lat="37.91012" lon="12.800875"><ele>363.0</ele><time>2026-04-20T09:08:44.832Z</time></trkpt><trkpt lat="37.9102" lon="12.8007283"><ele>361.0</ele><time>2026-04-20T09:08:45.834Z</time></trkpt><trkpt lat="37.9102833" lon="12.8005817"><ele>359.0</ele><time>2026-04-20T09:08:46.833Z</time></trkpt><trkpt lat="37.910365" lon="12.80044"><ele>357.0</ele><time>2026-04-20T09:08:47.832Z</time></trkpt><trkpt lat="37.9104383" lon="12.800305"><ele>355.0</ele><time>2026-04-20T09:08:48.832Z</time></trkpt><trkpt lat="37.91051" lon="12.8001717"><ele>355.25</ele><time>2026-04-20T09:08:49.832Z</time></trkpt><trkpt lat="37.910585" lon="12.8000367"><ele>355.5</ele><time>2026-04-20T09:08:50.834Z</time></trkpt><trkpt lat="37.9106633" lon="12.799895"><ele>355.75</ele><time>2026-04-20T09:08:51.83Z</time></trkpt><trkpt lat="37.910755" lon="12.7997183"><ele>356.0</ele><time>2026-04-20T09:08:52.927Z</time></trkpt><trkpt lat="37.9108633" lon="12.7995"><ele>352.0</ele><time>2026-04-20T09:08:53.833Z</time></trkpt><trkpt lat="37.9109817" lon="12.7992517"><ele>348.0</ele><time>2026-04-20T09:08:54.826Z</time></trkpt><trkpt lat="37.9111033" lon="12.7989883"><ele>348.0</ele><time>2026-04-20T09:08:55.831Z</time></trkpt><trkpt lat="37.9112167" lon="12.79871"><ele>348.0</ele><time>2026-04-20T09:08:56.832Z</time></trkpt><trkpt lat="37.9113233" lon="12.7984233"><ele>347.0</ele><time>2026-04-20T09:08:57.831Z</time></trkpt><trkpt lat="37.911425" lon="12.7981367"><ele>346.0</ele><time>2026-04-20T09:08:58.831Z</time></trkpt><trkpt lat="37.911525" lon="12.7978583"><ele>345.0</ele><time>2026-04-20T09:08:59.826Z</time></trkpt><trkpt lat="37.9116233" lon="12.7975817"><ele>344.0</ele><time>2026-04-20T09:09:00.829Z</time></trkpt><trkpt lat="37.9117217" lon="12.7973067"><ele>340.5</ele><time>2026-04-20T09:09:01.83Z</time></trkpt><trkpt lat="37.9118167" lon="12.7970233"><ele>337.0</ele><time>2026-04-20T09:09:02.83Z</time></trkpt><trkpt lat="37.9119133" lon="12.79673"><ele>337.0</ele><time>2026-04-20T09:09:03.833Z</time></trkpt><trkpt lat="37.912015" lon="12.7964283"><ele>337.0</ele><time>2026-04-20T09:09:04.832Z</time></trkpt><trkpt lat="37.9121267" lon="12.7961233"><ele>334.5</ele><time>2026-04-20T09:09:05.832Z</time></trkpt><trkpt lat="37.9122433" lon="12.79581"><ele>332.0</ele><time>2026-04-20T09:09:06.833Z</time></trkpt><trkpt lat="37.912365" lon="12.79549"><ele>332.5</ele><time>2026-04-20T09:09:07.834Z</time></trkpt><trkpt lat="37.91249" lon="12.7951617"><ele>333.0</ele><time>2026-04-20T09:09:08.836Z</time></trkpt><trkpt lat="37.912615" lon="12.7948317"><ele>330.0</ele><time>2026-04-20T09:09:09.835Z</time></trkpt><trkpt lat="37.9127417" lon="12.7945017"><ele>327.0</ele><time>2026-04-20T09:09:10.826Z</time></trkpt><trkpt lat="37.9128633" lon="12.794175"><ele>326.5</ele><time>2026-04-20T09:09:11.831Z</time></trkpt><trkpt lat="37.912985" lon="12.7938483"><ele>326.0</ele><time>2026-04-20T09:09:12.831Z</time></trkpt><trkpt lat="37.9131083" lon="12.7935233"><ele>327.0</ele><time>2026-04-20T09:09:13.83Z</time></trkpt><trkpt lat="37.9132267" lon="12.7932"><ele>328.0</ele><time>2026-04-20T09:09:14.832Z</time></trkpt><trkpt lat="37.9133467" lon="12.7928783"><ele>324.5</ele><time>2026-04-20T09:09:15.829Z</time></trkpt><trkpt lat="37.9134633" lon="12.7925583"><ele>321.0</ele><time>2026-04-20T09:09:16.831Z</time></trkpt><trkpt lat="37.9135817" lon="12.79224"><ele>321.0</ele><time>2026-04-20T09:09:17.832Z</time></trkpt><trkpt lat="37.913705" lon="12.7919217"><ele>321.0</ele><time>2026-04-20T09:09:18.83Z</time></trkpt><trkpt lat="37.9138267" lon="12.7916067"><ele>321.0</ele><time>2026-04-20T09:09:19.831Z</time></trkpt><trkpt lat="37.9139467" lon="12.79129"><ele>321.0</ele><time>2026-04-20T09:09:20.827Z</time></trkpt><trkpt lat="37.9140633" lon="12.7909733"><ele>320.5</ele><time>2026-04-20T09:09:21.829Z</time></trkpt><trkpt lat="37.9141767" lon="12.7906567"><ele>320.0</ele><time>2026-04-20T09:09:22.832Z</time></trkpt><trkpt lat="37.9142933" lon="12.79034"><ele>317.0</ele><time>2026-04-20T09:09:23.831Z</time></trkpt><trkpt lat="37.9144067" lon="12.79003"><ele>314.0</ele><time>2026-04-20T09:09:24.833Z</time></trkpt><trkpt lat="37.9145183" lon="12.78973"><ele>314.0</ele><time>2026-04-20T09:09:25.828Z</time></trkpt><trkpt lat="37.9146233" lon="12.7894467"><ele>314.0</ele><time>2026-04-20T09:09:26.827Z</time></trkpt><trkpt lat="37.9147183" lon="12.7891867"><ele>314.33333333333337</ele><time>2026-04-20T09:09:27.828Z</time></trkpt><trkpt lat="37.9147983" lon="12.7889433"><ele>314.6666666666667</ele><time>2026-04-20T09:09:28.829Z</time></trkpt><trkpt lat="37.9148667" lon="12.7887"><ele>315.0</ele><time>2026-04-20T09:09:29.831Z</time></trkpt><trkpt lat="37.9149283" lon="12.7884533"><ele>315.0</ele><time>2026-04-20T09:09:30.832Z</time></trkpt><trkpt lat="37.9149867" lon="12.788195"><ele>315.0</ele><time>2026-04-20T09:09:31.83Z</time></trkpt><trkpt lat="37.9150367" lon="12.7879333"><ele>315.0</ele><time>2026-04-20T09:09:32.833Z</time></trkpt><trkpt lat="37.915085" lon="12.78768"><ele>312.6666666666667</ele><time>2026-04-20T09:09:33.832Z</time></trkpt><trkpt lat="37.9151317" lon="12.7874317"><ele>310.33333333333337</ele><time>2026-04-20T09:09:34.83Z</time></trkpt><trkpt lat="37.9151767" lon="12.78719"><ele>308.0</ele><time>2026-04-20T09:09:35.832Z</time></trkpt><trkpt lat="37.91522" lon="12.7869483"><ele>307.6666666666667</ele><time>2026-04-20T09:09:36.828Z</time></trkpt><trkpt lat="37.915265" lon="12.786705"><ele>307.3333333333333</ele><time>2026-04-20T09:09:37.831Z</time></trkpt><trkpt lat="37.9153117" lon="12.78646"><ele>307.0</ele><time>2026-04-20T09:09:38.83Z</time></trkpt><trkpt lat="37.915355" lon="12.7862267"><ele>306.3333333333333</ele><time>2026-04-20T09:09:39.829Z</time></trkpt><trkpt lat="37.9153967" lon="12.7860017"><ele>305.6666666666667</ele><time>2026-04-20T09:09:40.83Z</time></trkpt><trkpt lat="37.9154383" lon="12.78576"><ele>305.0</ele><time>2026-04-20T09:09:41.83Z</time></trkpt><trkpt lat="37.9154833" lon="12.7854883"><ele>305.0</ele><time>2026-04-20T09:09:42.831Z</time></trkpt><trkpt lat="37.9155367" lon="12.7852067"><ele>305.0</ele><time>2026-04-20T09:09:43.832Z</time></trkpt><trkpt lat="37.9155933" lon="12.7849233"><ele>303.5</ele><time>2026-04-20T09:09:44.833Z</time></trkpt><trkpt lat="37.9156483" lon="12.784635"><ele>302.0</ele><time>2026-04-20T09:09:45.831Z</time></trkpt><trkpt lat="37.9157" lon="12.7843567"><ele>302.33333333333337</ele><time>2026-04-20T09:09:46.829Z</time></trkpt><trkpt lat="37.9157483" lon="12.784095"><ele>302.6666666666667</ele><time>2026-04-20T09:09:47.832Z</time></trkpt><trkpt lat="37.9157933" lon="12.78384"><ele>303.0</ele><time>2026-04-20T09:09:48.832Z</time></trkpt><trkpt lat="37.9158283" lon="12.78359"><ele>302.0</ele><time>2026-04-20T09:09:49.83Z</time></trkpt><trkpt lat="37.915855" lon="12.7833533"><ele>301.0</ele><time>2026-04-20T09:09:50.831Z</time></trkpt><trkpt lat="37.9158783" lon="12.7831283"><ele>300.0</ele><time>2026-04-20T09:09:51.828Z</time></trkpt><trkpt lat="37.915895" lon="12.7829167"><ele>300.0</ele><time>2026-04-20T09:09:52.833Z</time></trkpt><trkpt lat="37.9158983" lon="12.7827133"><ele>300.0</ele><time>2026-04-20T09:09:53.835Z</time></trkpt><trkpt lat="37.9158767" lon="12.782505"><ele>300.0</ele><time>2026-04-20T09:09:54.835Z</time></trkpt><trkpt lat="37.915825" lon="12.7822833"><ele>299.3333333333333</ele><time>2026-04-20T09:09:55.831Z</time></trkpt><trkpt lat="37.9157467" lon="12.78205"><ele>298.66666666666663</ele><time>2026-04-20T09:09:56.835Z</time></trkpt><trkpt lat="37.9156483" lon="12.781815"><ele>298.0</ele><time>2026-04-20T09:09:57.83Z</time></trkpt><trkpt lat="37.9155467" lon="12.7815833"><ele>296.66666666666663</ele><time>2026-04-20T09:09:58.83Z</time></trkpt><trkpt lat="37.9154583" lon="12.781355"><ele>295.3333333333333</ele><time>2026-04-20T09:09:59.83Z</time></trkpt><trkpt lat="37.915385" lon="12.781125"><ele>294.0</ele><time>2026-04-20T09:10:00.83Z</time></trkpt><trkpt lat="37.91533" lon="12.78088"><ele>292.0</ele><time>2026-04-20T09:10:01.83Z</time></trkpt><trkpt lat="37.9152883" lon="12.7806167"><ele>290.0</ele><time>2026-04-20T09:10:02.831Z</time></trkpt><trkpt lat="37.91527" lon="12.7803317"><ele>288.0</ele><time>2026-04-20T09:10:03.83Z</time></trkpt><trkpt lat="37.9152733" lon="12.7800233"><ele>287.5</ele><time>2026-04-20T09:10:04.831Z</time></trkpt><trkpt lat="37.915295" lon="12.7796967"><ele>287.0</ele><time>2026-04-20T09:10:05.835Z</time></trkpt><trkpt lat="37.9153267" lon="12.77935"><ele>286.5</ele><time>2026-04-20T09:10:06.836Z</time></trkpt><trkpt lat="37.9153567" lon="12.7789767"><ele>286.0</ele><time>2026-04-20T09:10:07.833Z</time></trkpt><trkpt lat="37.915385" lon="12.77858"><ele>284.0</ele><time>2026-04-20T09:10:08.832Z</time></trkpt><trkpt lat="37.915415" lon="12.77818"><ele>282.0</ele><time>2026-04-20T09:10:09.834Z</time></trkpt><trkpt lat="37.915445" lon="12.7778017"><ele>281.0</ele><time>2026-04-20T09:10:10.832Z</time></trkpt><trkpt lat="37.915475" lon="12.7774483"><ele>280.0</ele><time>2026-04-20T09:10:11.834Z</time></trkpt><trkpt lat="37.9155033" lon="12.7771133"><ele>279.0</ele><time>2026-04-20T09:10:12.83Z</time></trkpt><trkpt lat="37.9155283" lon="12.776795"><ele>278.0</ele><time>2026-04-20T09:10:13.827Z</time></trkpt><trkpt lat="37.9155517" lon="12.7764917"><ele>278.0</ele><time>2026-04-20T09:10:14.831Z</time></trkpt><trkpt lat="37.9155717" lon="12.7762017"><ele>278.0</ele><time>2026-04-20T09:10:15.831Z</time></trkpt><trkpt lat="37.9155917" lon="12.77592"><ele>277.33333333333337</ele><time>2026-04-20T09:10:16.83Z</time></trkpt><trkpt lat="37.9156133" lon="12.775645"><ele>276.6666666666667</ele><time>2026-04-20T09:10:17.831Z</time></trkpt><trkpt lat="37.915635" lon="12.7753717"><ele>276.0</ele><time>2026-04-20T09:10:18.829Z</time></trkpt><trkpt lat="37.915655" lon="12.7751067"><ele>275.6666666666667</ele><time>2026-04-20T09:10:19.83Z</time></trkpt><trkpt lat="37.9156717" lon="12.7748533"><ele>275.33333333333337</ele><time>2026-04-20T09:10:20.828Z</time></trkpt><trkpt lat="37.9156933" lon="12.7746033"><ele>275.0</ele><time>2026-04-20T09:10:21.827Z</time></trkpt><trkpt lat="37.915725" lon="12.77435"><ele>273.33333333333337</ele><time>2026-04-20T09:10:22.831Z</time></trkpt><trkpt lat="37.915775" lon="12.7740933"><ele>271.6666666666667</ele><time>2026-04-20T09:10:23.831Z</time></trkpt><trkpt lat="37.9158467" lon="12.773835"><ele>270.0</ele><time>2026-04-20T09:10:24.829Z</time></trkpt><trkpt lat="37.9159433" lon="12.77357"><ele>268.0</ele><time>2026-04-20T09:10:25.83Z</time></trkpt><trkpt lat="37.9160583" lon="12.773305"><ele>266.0</ele><time>2026-04-20T09:10:26.832Z</time></trkpt><trkpt lat="37.9161817" lon="12.7730433"><ele>266.0</ele><time>2026-04-20T09:10:27.83Z</time></trkpt><trkpt lat="37.9162983" lon="12.7727917"><ele>266.0</ele><time>2026-04-20T09:10:28.83Z</time></trkpt><trkpt lat="37.9164067" lon="12.77254"><ele>265.5</ele><time>2026-04-20T09:10:29.83Z</time></trkpt><trkpt lat="37.9165067" lon="12.77228"><ele>265.0</ele><time>2026-04-20T09:10:30.831Z</time></trkpt><trkpt lat="37.9166" lon="12.772005"><ele>265.0</ele><time>2026-04-20T09:10:31.83Z</time></trkpt><trkpt lat="37.9166867" lon="12.7717167"><ele>265.0</ele><time>2026-04-20T09:10:32.833Z</time></trkpt><trkpt lat="37.9167683" lon="12.77143"><ele>264.66666666666663</ele><time>2026-04-20T09:10:33.833Z</time></trkpt><trkpt lat="37.916845" lon="12.77116"><ele>264.3333333333333</ele><time>2026-04-20T09:10:34.83Z</time></trkpt><trkpt lat="37.9169183" lon="12.7709067"><ele>264.0</ele><time>2026-04-20T09:10:35.831Z</time></trkpt><trkpt lat="37.9169967" lon="12.770675"><ele>263.3333333333333</ele><time>2026-04-20T09:10:36.83Z</time></trkpt><trkpt lat="37.91708" lon="12.7704667"><ele>262.66666666666663</ele><time>2026-04-20T09:10:37.832Z</time></trkpt><trkpt lat="37.9171783" lon="12.7702767"><ele>262.0</ele><time>2026-04-20T09:10:38.833Z</time></trkpt><trkpt lat="37.917295" lon="12.7700967"><ele>262.0</ele><time>2026-04-20T09:10:39.833Z</time></trkpt><trkpt lat="37.9174367" lon="12.769925"><ele>262.0</ele><time>2026-04-20T09:10:40.832Z</time></trkpt><trkpt lat="37.9176" lon="12.7697617"><ele>262.0</ele><time>2026-04-20T09:10:41.834Z</time></trkpt><trkpt lat="37.9177833" lon="12.7696033"><ele>261.5</ele><time>2026-04-20T09:10:42.83Z</time></trkpt><trkpt lat="37.9179767" lon="12.7694533"><ele>261.0</ele><time>2026-04-20T09:10:43.828Z</time></trkpt><trkpt lat="37.918175" lon="12.7692983"><ele>261.0</ele><time>2026-04-20T09:10:44.832Z</time></trkpt><trkpt lat="37.9183767" lon="12.7691333"><ele>261.0</ele><time>2026-04-20T09:10:45.831Z</time></trkpt><trkpt lat="37.9185833" lon="12.7689633"><ele>260.5</ele><time>2026-04-20T09:10:46.83Z</time></trkpt><trkpt lat="37.9187917" lon="12.768795"><ele>260.0</ele><time>2026-04-20T09:10:47.833Z</time></trkpt><trkpt lat="37.919" lon="12.7686217"><ele>260.5</ele><time>2026-04-20T09:10:48.829Z</time></trkpt><trkpt lat="37.919205" lon="12.768455"><ele>261.0</ele><time>2026-04-20T09:10:49.832Z</time></trkpt><trkpt lat="37.9193983" lon="12.7683"><ele>261.0</ele><time>2026-04-20T09:10:50.836Z</time></trkpt><trkpt lat="37.9195817" lon="12.7681517"><ele>261.0</ele><time>2026-04-20T09:10:51.834Z</time></trkpt><trkpt lat="37.9197583" lon="12.76801"><ele>261.0</ele><time>2026-04-20T09:10:52.83Z</time></trkpt><trkpt lat="37.91993" lon="12.76787"><ele>260.3333333333333</ele><time>2026-04-20T09:10:53.833Z</time></trkpt><trkpt lat="37.9201017" lon="12.7677267"><ele>259.66666666666663</ele><time>2026-04-20T09:10:54.833Z</time></trkpt><trkpt lat="37.9202717" lon="12.7675667"><ele>259.0</ele><time>2026-04-20T09:10:55.833Z</time></trkpt><trkpt lat="37.92044" lon="12.7673883"><ele>259.0</ele><time>2026-04-20T09:10:56.834Z</time></trkpt><trkpt lat="37.9206117" lon="12.7671883"><ele>259.0</ele><time>2026-04-20T09:10:57.832Z</time></trkpt><trkpt lat="37.9207867" lon="12.7669733"><ele>256.5</ele><time>2026-04-20T09:10:58.83Z</time></trkpt><trkpt lat="37.92096" lon="12.766745"><ele>254.0</ele><time>2026-04-20T09:10:59.831Z</time></trkpt><trkpt lat="37.921135" lon="12.7665133"><ele>254.0</ele><time>2026-04-20T09:11:00.831Z</time></trkpt><trkpt lat="37.9213117" lon="12.7662783"><ele>254.0</ele><time>2026-04-20T09:11:01.831Z</time></trkpt><trkpt lat="37.9214867" lon="12.766045"><ele>254.5</ele><time>2026-04-20T09:11:02.828Z</time></trkpt><trkpt lat="37.9216617" lon="12.765815"><ele>255.0</ele><time>2026-04-20T09:11:03.83Z</time></trkpt><trkpt lat="37.9218383" lon="12.7655833"><ele>254.0</ele><time>2026-04-20T09:11:04.829Z</time></trkpt><trkpt lat="37.922015" lon="12.7653517"><ele>253.0</ele><time>2026-04-20T09:11:05.832Z</time></trkpt><trkpt lat="37.9221917" lon="12.7651183"><ele>252.5</ele><time>2026-04-20T09:11:06.831Z</time></trkpt><trkpt lat="37.9223667" lon="12.7648867"><ele>252.0</ele><time>2026-04-20T09:11:07.833Z</time></trkpt><trkpt lat="37.922545" lon="12.764655"><ele>251.5</ele><time>2026-04-20T09:11:08.833Z</time></trkpt><trkpt lat="37.9227233" lon="12.764425"><ele>251.0</ele><time>2026-04-20T09:11:09.838Z</time></trkpt><trkpt lat="37.9228933" lon="12.7642017"><ele>251.0</ele><time>2026-04-20T09:11:10.832Z</time></trkpt><trkpt lat="37.9230517" lon="12.7639917"><ele>251.0</ele><time>2026-04-20T09:11:11.833Z</time></trkpt><trkpt lat="37.9231933" lon="12.7638017"><ele>251.0</ele><time>2026-04-20T09:11:12.833Z</time></trkpt><trkpt lat="37.9233183" lon="12.7636267"><ele>250.0</ele><time>2026-04-20T09:11:13.834Z</time></trkpt><trkpt lat="37.9234283" lon="12.763445"><ele>249.0</ele><time>2026-04-20T09:11:14.833Z</time></trkpt><trkpt lat="37.923525" lon="12.7632383"><ele>248.0</ele><time>2026-04-20T09:11:15.83Z</time></trkpt><trkpt lat="37.923615" lon="12.7630067"><ele>248.0</ele><time>2026-04-20T09:11:16.829Z</time></trkpt><trkpt lat="37.9236983" lon="12.76275"><ele>248.0</ele><time>2026-04-20T09:11:17.832Z</time></trkpt><trkpt lat="37.9237767" lon="12.762485"><ele>248.0</ele><time>2026-04-20T09:11:18.834Z</time></trkpt><trkpt lat="37.923855" lon="12.7622183"><ele>248.0</ele><time>2026-04-20T09:11:19.833Z</time></trkpt><trkpt lat="37.9239333" lon="12.7619483"><ele>248.0</ele><time>2026-04-20T09:11:20.833Z</time></trkpt><trkpt lat="37.9240133" lon="12.7616683"><ele>247.5</ele><time>2026-04-20T09:11:21.831Z</time></trkpt><trkpt lat="37.9240967" lon="12.7613817"><ele>247.0</ele><time>2026-04-20T09:11:22.829Z</time></trkpt><trkpt lat="37.9241767" lon="12.761095"><ele>245.5</ele><time>2026-04-20T09:11:23.834Z</time></trkpt><trkpt lat="37.924255" lon="12.76081"><ele>244.0</ele><time>2026-04-20T09:11:24.834Z</time></trkpt><trkpt lat="37.9243333" lon="12.760525"><ele>244.0</ele><time>2026-04-20T09:11:25.834Z</time></trkpt><trkpt lat="37.9244117" lon="12.76024"><ele>244.0</ele><time>2026-04-20T09:11:26.832Z</time></trkpt><trkpt lat="37.9244917" lon="12.7599517"><ele>243.5</ele><time>2026-04-20T09:11:27.831Z</time></trkpt><trkpt lat="37.924575" lon="12.75966"><ele>243.0</ele><time>2026-04-20T09:11:28.829Z</time></trkpt><trkpt lat="37.92466" lon="12.75936"><ele>242.5</ele><time>2026-04-20T09:11:29.831Z</time></trkpt><trkpt lat="37.924745" lon="12.759055"><ele>242.0</ele><time>2026-04-20T09:11:30.83Z</time></trkpt><trkpt lat="37.9248317" lon="12.7587467"><ele>241.0</ele><time>2026-04-20T09:11:31.829Z</time></trkpt><trkpt lat="37.92491" lon="12.7584333"><ele>240.0</ele><time>2026-04-20T09:11:32.832Z</time></trkpt><trkpt lat="37.9249817" lon="12.758115"><ele>240.0</ele><time>2026-04-20T09:11:33.832Z</time></trkpt><trkpt lat="37.9250467" lon="12.7577883"><ele>240.0</ele><time>2026-04-20T09:11:34.831Z</time></trkpt><trkpt lat="37.9251067" lon="12.7574517"><ele>240.0</ele><time>2026-04-20T09:11:35.829Z</time></trkpt><trkpt lat="37.9251617" lon="12.7571117"><ele>240.0</ele><time>2026-04-20T09:11:36.83Z</time></trkpt><trkpt lat="37.925215" lon="12.7567717"><ele>238.0</ele><time>2026-04-20T09:11:37.832Z</time></trkpt><trkpt lat="37.9252667" lon="12.756435"><ele>236.0</ele><time>2026-04-20T09:11:38.829Z</time></trkpt><trkpt lat="37.9253233" lon="12.7561"><ele>236.5</ele><time>2026-04-20T09:11:39.828Z</time></trkpt><trkpt lat="37.92538" lon="12.75576"><ele>237.0</ele><time>2026-04-20T09:11:40.831Z</time></trkpt><trkpt lat="37.9254317" lon="12.75542"><ele>236.0</ele><time>2026-04-20T09:11:41.831Z</time></trkpt><trkpt lat="37.92549" lon="12.7550683"><ele>235.0</ele><time>2026-04-20T09:11:42.832Z</time></trkpt><trkpt lat="37.925545" lon="12.75471"><ele>233.5</ele><time>2026-04-20T09:11:43.829Z</time></trkpt><trkpt lat="37.9256" lon="12.754345"><ele>232.0</ele><time>2026-04-20T09:11:44.829Z</time></trkpt><trkpt lat="37.925655" lon="12.7539883"><ele>232.0</ele><time>2026-04-20T09:11:45.828Z</time></trkpt><trkpt lat="37.92571" lon="12.7536417"><ele>232.0</ele><time>2026-04-20T09:11:46.828Z</time></trkpt><trkpt lat="37.9257683" lon="12.7533083"><ele>231.5</ele><time>2026-04-20T09:11:47.827Z</time></trkpt><trkpt lat="37.9258317" lon="12.752985"><ele>231.0</ele><time>2026-04-20T09:11:48.831Z</time></trkpt><trkpt lat="37.925905" lon="12.7526733"><ele>229.5</ele><time>2026-04-20T09:11:49.832Z</time></trkpt><trkpt lat="37.9259883" lon="12.752365"><ele>228.0</ele><time>2026-04-20T09:11:50.83Z</time></trkpt><trkpt lat="37.9260683" lon="12.7520667"><ele>226.0</ele><time>2026-04-20T09:11:51.83Z</time></trkpt><trkpt lat="37.92615" lon="12.7517767"><ele>224.0</ele><time>2026-04-20T09:11:52.83Z</time></trkpt><trkpt lat="37.92623" lon="12.7515"><ele>224.0</ele><time>2026-04-20T09:11:53.828Z</time></trkpt><trkpt lat="37.9263083" lon="12.7512367"><ele>224.0</ele><time>2026-04-20T09:11:54.831Z</time></trkpt><trkpt lat="37.9263833" lon="12.7509883"><ele>224.0</ele><time>2026-04-20T09:11:55.831Z</time></trkpt><trkpt lat="37.9264617" lon="12.750755"><ele>224.0</ele><time>2026-04-20T09:11:56.834Z</time></trkpt><trkpt lat="37.92655" lon="12.7505367"><ele>224.0</ele><time>2026-04-20T09:11:57.829Z</time></trkpt><trkpt lat="37.926655" lon="12.750335"><ele>224.0</ele><time>2026-04-20T09:11:58.831Z</time></trkpt><trkpt lat="37.92678" lon="12.75014"><ele>222.33333333333334</ele><time>2026-04-20T09:11:59.832Z</time></trkpt><trkpt lat="37.9269283" lon="12.7499517"><ele>220.66666666666669</ele><time>2026-04-20T09:12:00.83Z</time></trkpt><trkpt lat="37.9271017" lon="12.7497583"><ele>219.0</ele><time>2026-04-20T09:12:01.831Z</time></trkpt><trkpt lat="37.92729" lon="12.7495617"><ele>218.5</ele><time>2026-04-20T09:12:02.83Z</time></trkpt><trkpt lat="37.9274717" lon="12.7493633"><ele>218.0</ele><time>2026-04-20T09:12:03.831Z</time></trkpt><trkpt lat="37.9276417" lon="12.74918"><ele>218.66666666666669</ele><time>2026-04-20T09:12:04.83Z</time></trkpt><trkpt lat="37.9277967" lon="12.7490067"><ele>219.33333333333331</ele><time>2026-04-20T09:12:05.83Z</time></trkpt><trkpt lat="37.9279417" lon="12.74884"><ele>220.0</ele><time>2026-04-20T09:12:06.827Z</time></trkpt><trkpt lat="37.9280783" lon="12.7486783"><ele>219.66666666666666</ele><time>2026-04-20T09:12:07.83Z</time></trkpt><trkpt lat="37.928205" lon="12.748505"><ele>219.33333333333331</ele><time>2026-04-20T09:12:08.833Z</time></trkpt><trkpt lat="37.9283233" lon="12.7483167"><ele>219.0</ele><time>2026-04-20T09:12:09.833Z</time></trkpt><trkpt lat="37.9284383" lon="12.748115"><ele>219.66666666666669</ele><time>2026-04-20T09:12:10.834Z</time></trkpt><trkpt lat="37.92855" lon="12.7479017"><ele>220.33333333333334</ele><time>2026-04-20T09:12:11.831Z</time></trkpt><trkpt lat="37.928655" lon="12.7476783"><ele>221.0</ele><time>2026-04-20T09:12:12.832Z</time></trkpt><trkpt lat="37.9287583" lon="12.7474483"><ele>221.0</ele><time>2026-04-20T09:12:13.833Z</time></trkpt><trkpt lat="37.9288583" lon="12.747225"><ele>221.0</ele><time>2026-04-20T09:12:14.833Z</time></trkpt><trkpt lat="37.9289533" lon="12.7470167"><ele>221.0</ele><time>2026-04-20T09:12:15.833Z</time></trkpt><trkpt lat="37.9290383" lon="12.7468183"><ele>221.0</ele><time>2026-04-20T09:12:16.831Z</time></trkpt><trkpt lat="37.9291083" lon="12.746615"><ele>221.0</ele><time>2026-04-20T09:12:17.831Z</time></trkpt><trkpt lat="37.9291617" lon="12.746395"><ele>221.0</ele><time>2026-04-20T09:12:18.831Z</time></trkpt><trkpt lat="37.92919" lon="12.7461567"><ele>221.33333333333334</ele><time>2026-04-20T09:12:19.828Z</time></trkpt><trkpt lat="37.9291967" lon="12.7458983"><ele>221.66666666666669</ele><time>2026-04-20T09:12:20.832Z</time></trkpt><trkpt lat="37.9291867" lon="12.7456267"><ele>222.0</ele><time>2026-04-20T09:12:21.826Z</time></trkpt><trkpt lat="37.9291633" lon="12.745345"><ele>223.5</ele><time>2026-04-20T09:12:22.829Z</time></trkpt><trkpt lat="37.9291333" lon="12.745055"><ele>225.0</ele><time>2026-04-20T09:12:23.832Z</time></trkpt><trkpt lat="37.9291033" lon="12.7447567"><ele>225.0</ele><time>2026-04-20T09:12:24.829Z</time></trkpt><trkpt lat="37.9290717" lon="12.744455"><ele>225.0</ele><time>2026-04-20T09:12:25.83Z</time></trkpt><trkpt lat="37.9290433" lon="12.7441567"><ele>226.66666666666669</ele><time>2026-04-20T09:12:26.832Z</time></trkpt><trkpt lat="37.9290217" lon="12.7438767"><ele>228.33333333333334</ele><time>2026-04-20T09:12:27.831Z</time></trkpt><trkpt lat="37.9290017" lon="12.7436167"><ele>230.0</ele><time>2026-04-20T09:12:28.83Z</time></trkpt><trkpt lat="37.9289883" lon="12.7433633"><ele>230.33333333333334</ele><time>2026-04-20T09:12:29.833Z</time></trkpt><trkpt lat="37.928985" lon="12.743115"><ele>230.66666666666669</ele><time>2026-04-20T09:12:30.83Z</time></trkpt><trkpt lat="37.9289883" lon="12.74286"><ele>231.0</ele><time>2026-04-20T09:12:31.832Z</time></trkpt><trkpt lat="37.929" lon="12.7426"><ele>231.0</ele><time>2026-04-20T09:12:32.831Z</time></trkpt><trkpt lat="37.929015" lon="12.7423333"><ele>231.0</ele><time>2026-04-20T09:12:33.831Z</time></trkpt><trkpt lat="37.92903" lon="12.742065"><ele>231.0</ele><time>2026-04-20T09:12:34.83Z</time></trkpt><trkpt lat="37.929045" lon="12.741805"><ele>229.66666666666669</ele><time>2026-04-20T09:12:35.829Z</time></trkpt><trkpt lat="37.9290633" lon="12.7415517"><ele>228.33333333333334</ele><time>2026-04-20T09:12:36.833Z</time></trkpt><trkpt lat="37.929085" lon="12.7412983"><ele>227.0</ele><time>2026-04-20T09:12:37.828Z</time></trkpt><trkpt lat="37.9291183" lon="12.7410417"><ele>225.0</ele><time>2026-04-20T09:12:38.833Z</time></trkpt><trkpt lat="37.92916" lon="12.7407817"><ele>223.0</ele><time>2026-04-20T09:12:39.832Z</time></trkpt><trkpt lat="37.929215" lon="12.74051"><ele>221.0</ele><time>2026-04-20T09:12:40.828Z</time></trkpt><trkpt lat="37.9292783" lon="12.7402217"><ele>215.0</ele><time>2026-04-20T09:12:41.828Z</time></trkpt><trkpt lat="37.9293467" lon="12.7399167"><ele>209.0</ele><time>2026-04-20T09:12:42.829Z</time></trkpt><trkpt lat="37.9294167" lon="12.7396067"><ele>207.5</ele><time>2026-04-20T09:12:43.829Z</time></trkpt><trkpt lat="37.9294867" lon="12.7393017"><ele>206.0</ele><time>2026-04-20T09:12:44.832Z</time></trkpt><trkpt lat="37.9295583" lon="12.7390083"><ele>206.0</ele><time>2026-04-20T09:12:45.83Z</time></trkpt><trkpt lat="37.9296267" lon="12.7387267"><ele>206.0</ele><time>2026-04-20T09:12:46.828Z</time></trkpt><trkpt lat="37.9296983" lon="12.73846"><ele>205.0</ele><time>2026-04-20T09:12:47.827Z</time></trkpt><trkpt lat="37.9297767" lon="12.738205"><ele>204.0</ele><time>2026-04-20T09:12:48.831Z</time></trkpt><trkpt lat="37.929855" lon="12.737955"><ele>203.0</ele><time>2026-04-20T09:12:49.831Z</time></trkpt><trkpt lat="37.9299383" lon="12.737715"><ele>202.0</ele><time>2026-04-20T09:12:50.827Z</time></trkpt><trkpt lat="37.9300283" lon="12.73748"><ele>201.0</ele><time>2026-04-20T09:12:51.827Z</time></trkpt><trkpt lat="37.9301317" lon="12.73725"><ele>200.0</ele><time>2026-04-20T09:12:52.831Z</time></trkpt><trkpt lat="37.9302533" lon="12.7370183"><ele>197.5</ele><time>2026-04-20T09:12:53.831Z</time></trkpt><trkpt lat="37.930395" lon="12.736785"><ele>195.0</ele><time>2026-04-20T09:12:54.829Z</time></trkpt><trkpt lat="37.930555" lon="12.7365433"><ele>195.0</ele><time>2026-04-20T09:12:55.829Z</time></trkpt><trkpt lat="37.930725" lon="12.7362933"><ele>195.0</ele><time>2026-04-20T09:12:56.832Z</time></trkpt><trkpt lat="37.930895" lon="12.7360383"><ele>192.0</ele><time>2026-04-20T09:12:57.828Z</time></trkpt><trkpt lat="37.931065" lon="12.7357833"><ele>189.0</ele><time>2026-04-20T09:12:58.834Z</time></trkpt><trkpt lat="37.93123" lon="12.7355283"><ele>189.0</ele><time>2026-04-20T09:12:59.832Z</time></trkpt><trkpt lat="37.9313917" lon="12.7352817"><ele>189.0</ele><time>2026-04-20T09:13:00.829Z</time></trkpt><trkpt lat="37.9315433" lon="12.735045"><ele>190.0</ele><time>2026-04-20T09:13:01.834Z</time></trkpt><trkpt lat="37.9316833" lon="12.7348233"><ele>191.0</ele><time>2026-04-20T09:13:02.829Z</time></trkpt><trkpt lat="37.9318017" lon="12.7346117"><ele>192.0</ele><time>2026-04-20T09:13:03.832Z</time></trkpt><trkpt lat="37.9319067" lon="12.7343983"><ele>189.33333333333334</ele><time>2026-04-20T09:13:04.829Z</time></trkpt><trkpt lat="37.932" lon="12.7341717"><ele>186.66666666666669</ele><time>2026-04-20T09:13:05.83Z</time></trkpt><trkpt lat="37.9320883" lon="12.73393"><ele>184.0</ele><time>2026-04-20T09:13:06.83Z</time></trkpt><trkpt lat="37.9321667" lon="12.7336883"><ele>183.66666666666669</ele><time>2026-04-20T09:13:07.828Z</time></trkpt><trkpt lat="37.93224" lon="12.7334583"><ele>183.33333333333334</ele><time>2026-04-20T09:13:08.829Z</time></trkpt><trkpt lat="37.93231" lon="12.73324"><ele>183.0</ele><time>2026-04-20T09:13:09.831Z</time></trkpt><trkpt lat="37.9323767" lon="12.7330333"><ele>183.0</ele><time>2026-04-20T09:13:10.83Z</time></trkpt><trkpt lat="37.9324333" lon="12.7328383"><ele>183.0</ele><time>2026-04-20T09:13:11.829Z</time></trkpt><trkpt lat="37.93247" lon="12.7326433"><ele>183.0</ele><time>2026-04-20T09:13:12.832Z</time></trkpt><trkpt lat="37.932485" lon="12.73244"><ele>182.33333333333334</ele><time>2026-04-20T09:13:13.833Z</time></trkpt><trkpt lat="37.932475" lon="12.7322217"><ele>181.66666666666669</ele><time>2026-04-20T09:13:14.834Z</time></trkpt><trkpt lat="37.9324433" lon="12.7319917"><ele>181.0</ele><time>2026-04-20T09:13:15.829Z</time></trkpt><trkpt lat="37.9323983" lon="12.73176"><ele>179.66666666666669</ele><time>2026-04-20T09:13:16.835Z</time></trkpt><trkpt lat="37.9323617" lon="12.7315333"><ele>178.33333333333334</ele><time>2026-04-20T09:13:17.833Z</time></trkpt><trkpt lat="37.9323467" lon="12.73131"><ele>177.0</ele><time>2026-04-20T09:13:18.828Z</time></trkpt><trkpt lat="37.9323467" lon="12.7310783"><ele>176.0</ele><time>2026-04-20T09:13:19.83Z</time></trkpt><trkpt lat="37.9323567" lon="12.7308317"><ele>175.0</ele><time>2026-04-20T09:13:20.828Z</time></trkpt><trkpt lat="37.9323783" lon="12.73057"><ele>174.0</ele><time>2026-04-20T09:13:21.831Z</time></trkpt><trkpt lat="37.9324133" lon="12.730295"><ele>172.5</ele><time>2026-04-20T09:13:22.83Z</time></trkpt><trkpt lat="37.93246" lon="12.7300067"><ele>171.0</ele><time>2026-04-20T09:13:23.832Z</time></trkpt><trkpt lat="37.9325117" lon="12.729705"><ele>168.5</ele><time>2026-04-20T09:13:24.831Z</time></trkpt><trkpt lat="37.9325633" lon="12.7293883"><ele>166.0</ele><time>2026-04-20T09:13:25.827Z</time></trkpt><trkpt lat="37.9326133" lon="12.7290567"><ele>166.0</ele><time>2026-04-20T09:13:26.835Z</time></trkpt><trkpt lat="37.9326617" lon="12.7287133"><ele>166.0</ele><time>2026-04-20T09:13:27.829Z</time></trkpt><trkpt lat="37.9327117" lon="12.7283633"><ele>165.0</ele><time>2026-04-20T09:13:28.831Z</time></trkpt><trkpt lat="37.9327583" lon="12.728005"><ele>164.0</ele><time>2026-04-20T09:13:29.83Z</time></trkpt><trkpt lat="37.9328083" lon="12.7276417"><ele>163.5</ele><time>2026-04-20T09:13:30.828Z</time></trkpt><trkpt lat="37.9328583" lon="12.727275"><ele>163.0</ele><time>2026-04-20T09:13:31.831Z</time></trkpt><trkpt lat="37.932905" lon="12.7269017"><ele>162.5</ele><time>2026-04-20T09:13:32.828Z</time></trkpt><trkpt lat="37.9329567" lon="12.7265233"><ele>162.0</ele><time>2026-04-20T09:13:33.833Z</time></trkpt><trkpt lat="37.93301" lon="12.7261433"><ele>162.0</ele><time>2026-04-20T09:13:34.83Z</time></trkpt><trkpt lat="37.9330617" lon="12.7257617"><ele>162.0</ele><time>2026-04-20T09:13:35.827Z</time></trkpt><trkpt lat="37.9331133" lon="12.7253783"><ele>163.0</ele><time>2026-04-20T09:13:36.83Z</time></trkpt><trkpt lat="37.9331633" lon="12.7250083"><ele>164.0</ele><time>2026-04-20T09:13:37.83Z</time></trkpt><trkpt lat="37.93321" lon="12.7246583"><ele>164.0</ele><time>2026-04-20T09:13:38.831Z</time></trkpt><trkpt lat="37.9332533" lon="12.7243333"><ele>164.0</ele><time>2026-04-20T09:13:39.828Z</time></trkpt><trkpt lat="37.9332983" lon="12.7240333"><ele>164.0</ele><time>2026-04-20T09:13:40.829Z</time></trkpt><trkpt lat="37.9333483" lon="12.7237633"><ele>164.0</ele><time>2026-04-20T09:13:41.832Z</time></trkpt><trkpt lat="37.9334117" lon="12.7235083"><ele>164.0</ele><time>2026-04-20T09:13:42.83Z</time></trkpt><trkpt lat="37.9334933" lon="12.7232567"><ele>165.5</ele><time>2026-04-20T09:13:43.833Z</time></trkpt><trkpt lat="37.9335867" lon="12.7229983"><ele>167.0</ele><time>2026-04-20T09:13:44.83Z</time></trkpt><trkpt lat="37.933695" lon="12.72273"><ele>164.0</ele><time>2026-04-20T09:13:45.83Z</time></trkpt><trkpt lat="37.93381" lon="12.7224633"><ele>161.0</ele><time>2026-04-20T09:13:46.829Z</time></trkpt><trkpt lat="37.933925" lon="12.7222117"><ele>161.0</ele><time>2026-04-20T09:13:47.829Z</time></trkpt><trkpt lat="37.9340267" lon="12.7219783"><ele>161.0</ele><time>2026-04-20T09:13:48.83Z</time></trkpt><trkpt lat="37.9341183" lon="12.721765"><ele>161.0</ele><time>2026-04-20T09:13:49.83Z</time></trkpt><trkpt lat="37.9342" lon="12.7215767"><ele>161.5</ele><time>2026-04-20T09:13:50.832Z</time></trkpt><trkpt lat="37.9342717" lon="12.7214067"><ele>162.0</ele><time>2026-04-20T09:13:51.829Z</time></trkpt><trkpt lat="37.9343367" lon="12.7212517"><ele>162.5</ele><time>2026-04-20T09:13:52.828Z</time></trkpt><trkpt lat="37.9344" lon="12.72111"><ele>163.0</ele><time>2026-04-20T09:13:53.829Z</time></trkpt><trkpt lat="37.9344633" lon="12.7209733"><ele>163.0</ele><time>2026-04-20T09:13:54.83Z</time></trkpt><trkpt lat="37.9345233" lon="12.7208383"><ele>163.0</ele><time>2026-04-20T09:13:55.829Z</time></trkpt><trkpt lat="37.934585" lon="12.7207"><ele>163.0</ele><time>2026-04-20T09:13:56.831Z</time></trkpt><trkpt lat="37.9346467" lon="12.7205617"><ele>163.0</ele><time>2026-04-20T09:13:57.831Z</time></trkpt><trkpt lat="37.934705" lon="12.7204283"><ele>163.0</ele><time>2026-04-20T09:13:58.829Z</time></trkpt><trkpt lat="37.9347633" lon="12.7202917"><ele>163.0</ele><time>2026-04-20T09:13:59.831Z</time></trkpt><trkpt lat="37.93482" lon="12.7201567"><ele>163.0</ele><time>2026-04-20T09:14:00.83Z</time></trkpt><trkpt lat="37.9348783" lon="12.7200167"><ele>163.0</ele><time>2026-04-20T09:14:01.832Z</time></trkpt><trkpt lat="37.9349417" lon="12.719855"><ele>163.0</ele><time>2026-04-20T09:14:02.829Z</time></trkpt><trkpt lat="37.9350233" lon="12.7196517"><ele>163.0</ele><time>2026-04-20T09:14:03.828Z</time></trkpt><trkpt lat="37.9351217" lon="12.7194217"><ele>163.0</ele><time>2026-04-20T09:14:04.829Z</time></trkpt><trkpt lat="37.935255" lon="12.7191583"><ele>161.5</ele><time>2026-04-20T09:14:05.828Z</time></trkpt><trkpt lat="37.9353967" lon="12.718855"><ele>160.0</ele><time>2026-04-20T09:14:06.828Z</time></trkpt><trkpt lat="37.9355417" lon="12.7185217"><ele>158.5</ele><time>2026-04-20T09:14:07.83Z</time></trkpt><trkpt lat="37.9356883" lon="12.7182017"><ele>157.0</ele><time>2026-04-20T09:14:08.828Z</time></trkpt><trkpt lat="37.9358183" lon="12.7179217"><ele>155.0</ele><time>2026-04-20T09:14:09.83Z</time></trkpt><trkpt lat="37.93594" lon="12.7176717"><ele>153.0</ele><time>2026-04-20T09:14:10.83Z</time></trkpt><trkpt lat="37.9360517" lon="12.717445"><ele>151.0</ele><time>2026-04-20T09:14:11.832Z</time></trkpt><trkpt lat="37.9361567" lon="12.717245"><ele>151.0</ele><time>2026-04-20T09:14:12.829Z</time></trkpt><trkpt lat="37.9362483" lon="12.7170683"><ele>151.0</ele><time>2026-04-20T09:14:13.828Z</time></trkpt><trkpt lat="37.936325" lon="12.7169"><ele>151.0</ele><time>2026-04-20T09:14:14.829Z</time></trkpt><trkpt lat="37.9363833" lon="12.7167083"><ele>149.66666666666669</ele><time>2026-04-20T09:14:15.832Z</time></trkpt><trkpt lat="37.9364217" lon="12.7164933"><ele>148.33333333333334</ele><time>2026-04-20T09:14:16.834Z</time></trkpt><trkpt lat="37.9364367" lon="12.7162533"><ele>147.0</ele><time>2026-04-20T09:14:17.832Z</time></trkpt><trkpt lat="37.9364333" lon="12.7160083"><ele>145.66666666666666</ele><time>2026-04-20T09:14:18.845Z</time></trkpt><trkpt lat="37.9364317" lon="12.7157733"><ele>144.33333333333331</ele><time>2026-04-20T09:14:19.83Z</time></trkpt><trkpt lat="37.9364417" lon="12.7155483"><ele>143.0</ele><time>2026-04-20T09:14:20.836Z</time></trkpt><trkpt lat="37.9364733" lon="12.7153217"><ele>142.66666666666666</ele><time>2026-04-20T09:14:21.831Z</time></trkpt><trkpt lat="37.9365367" lon="12.7150933"><ele>142.33333333333334</ele><time>2026-04-20T09:14:22.828Z</time></trkpt><trkpt lat="37.9366333" lon="12.7148567"><ele>142.0</ele><time>2026-04-20T09:14:23.828Z</time></trkpt><trkpt lat="37.93676" lon="12.71461"><ele>139.5</ele><time>2026-04-20T09:14:24.83Z</time></trkpt><trkpt lat="37.9369133" lon="12.7143617"><ele>137.0</ele><time>2026-04-20T09:14:25.829Z</time></trkpt><trkpt lat="37.9370767" lon="12.7141067"><ele>137.0</ele><time>2026-04-20T09:14:26.832Z</time></trkpt><trkpt lat="37.9372483" lon="12.71384"><ele>137.0</ele><time>2026-04-20T09:14:27.83Z</time></trkpt><trkpt lat="37.9374217" lon="12.71357"><ele>137.0</ele><time>2026-04-20T09:14:28.829Z</time></trkpt><trkpt lat="37.9375867" lon="12.71331"><ele>137.0</ele><time>2026-04-20T09:14:29.832Z</time></trkpt><trkpt lat="37.93774" lon="12.7130533"><ele>137.0</ele><time>2026-04-20T09:14:30.83Z</time></trkpt><trkpt lat="37.937885" lon="12.7127933"><ele>137.0</ele><time>2026-04-20T09:14:31.829Z</time></trkpt><trkpt lat="37.9380183" lon="12.7125233"><ele>138.5</ele><time>2026-04-20T09:14:32.834Z</time></trkpt><trkpt lat="37.9381433" lon="12.71224"><ele>140.0</ele><time>2026-04-20T09:14:33.829Z</time></trkpt><trkpt lat="37.9382617" lon="12.7119467"><ele>140.5</ele><time>2026-04-20T09:14:34.828Z</time></trkpt><trkpt lat="37.9383767" lon="12.7116417"><ele>141.0</ele><time>2026-04-20T09:14:35.831Z</time></trkpt><trkpt lat="37.93849" lon="12.7113267"><ele>141.0</ele><time>2026-04-20T09:14:36.828Z</time></trkpt><trkpt lat="37.9386083" lon="12.711"><ele>141.0</ele><time>2026-04-20T09:14:37.832Z</time></trkpt><trkpt lat="37.93873" lon="12.7106667"><ele>141.0</ele><time>2026-04-20T09:14:38.828Z</time></trkpt><trkpt lat="37.938855" lon="12.710325"><ele>141.0</ele><time>2026-04-20T09:14:39.83Z</time></trkpt><trkpt lat="37.938985" lon="12.70997"><ele>141.5</ele><time>2026-04-20T09:14:40.83Z</time></trkpt><trkpt lat="37.9391167" lon="12.7096117"><ele>142.0</ele><time>2026-04-20T09:14:41.833Z</time></trkpt><trkpt lat="37.9392483" lon="12.7092567"><ele>144.0</ele><time>2026-04-20T09:14:42.831Z</time></trkpt><trkpt lat="37.9393767" lon="12.7089017"><ele>146.0</ele><time>2026-04-20T09:14:43.827Z</time></trkpt><trkpt lat="37.9395033" lon="12.7085467"><ele>147.5</ele><time>2026-04-20T09:14:44.831Z</time></trkpt><trkpt lat="37.9396317" lon="12.7081917"><ele>149.0</ele><time>2026-04-20T09:14:45.831Z</time></trkpt><trkpt lat="37.93976" lon="12.7078367"><ele>149.0</ele><time>2026-04-20T09:14:46.827Z</time></trkpt><trkpt lat="37.9398883" lon="12.7074833"><ele>149.0</ele><time>2026-04-20T09:14:47.831Z</time></trkpt><trkpt lat="37.94002" lon="12.7071333"><ele>151.5</ele><time>2026-04-20T09:14:48.832Z</time></trkpt><trkpt lat="37.94015" lon="12.7067867"><ele>154.0</ele><time>2026-04-20T09:14:49.83Z</time></trkpt><trkpt lat="37.9402783" lon="12.7064417"><ele>154.0</ele><time>2026-04-20T09:14:50.829Z</time></trkpt><trkpt lat="37.940405" lon="12.7060983"><ele>154.0</ele><time>2026-04-20T09:14:51.83Z</time></trkpt><trkpt lat="37.9405317" lon="12.7057567"><ele>151.5</ele><time>2026-04-20T09:14:52.834Z</time></trkpt><trkpt lat="37.940655" lon="12.705415"><ele>149.0</ele><time>2026-04-20T09:14:53.83Z</time></trkpt><trkpt lat="37.94078" lon="12.7050733"><ele>148.0</ele><time>2026-04-20T09:14:54.83Z</time></trkpt><trkpt lat="37.9409083" lon="12.7047317"><ele>147.0</ele><time>2026-04-20T09:14:55.831Z</time></trkpt><trkpt lat="37.941035" lon="12.7043883"><ele>146.0</ele><time>2026-04-20T09:14:56.832Z</time></trkpt><trkpt lat="37.9411633" lon="12.704045"><ele>145.0</ele><time>2026-04-20T09:14:57.83Z</time></trkpt><trkpt lat="37.9412917" lon="12.7036967"><ele>143.5</ele><time>2026-04-20T09:14:58.83Z</time></trkpt><trkpt lat="37.94142" lon="12.7033467"><ele>142.0</ele><time>2026-04-20T09:14:59.831Z</time></trkpt><trkpt lat="37.9415483" lon="12.7029933"><ele>142.5</ele><time>2026-04-20T09:15:00.832Z</time></trkpt><trkpt lat="37.9416733" lon="12.7026467"><ele>143.0</ele><time>2026-04-20T09:15:01.83Z</time></trkpt><trkpt lat="37.9417967" lon="12.7023067"><ele>144.0</ele><time>2026-04-20T09:15:02.834Z</time></trkpt><trkpt lat="37.941915" lon="12.70198"><ele>145.0</ele><time>2026-04-20T09:15:03.835Z</time></trkpt><trkpt lat="37.9420283" lon="12.7016717"><ele>147.0</ele><time>2026-04-20T09:15:04.831Z</time></trkpt><trkpt lat="37.9421367" lon="12.70138"><ele>149.0</ele><time>2026-04-20T09:15:05.833Z</time></trkpt><trkpt lat="37.9422417" lon="12.701095"><ele>150.0</ele><time>2026-04-20T09:15:06.832Z</time></trkpt><trkpt lat="37.9423517" lon="12.7008033"><ele>151.0</ele><time>2026-04-20T09:15:07.831Z</time></trkpt><trkpt lat="37.9424633" lon="12.7005"><ele>152.5</ele><time>2026-04-20T09:15:08.831Z</time></trkpt><trkpt lat="37.9425783" lon="12.7001883"><ele>154.0</ele><time>2026-04-20T09:15:09.828Z</time></trkpt><trkpt lat="37.9426983" lon="12.6998733"><ele>154.0</ele><time>2026-04-20T09:15:10.83Z</time></trkpt><trkpt lat="37.9428117" lon="12.6995667"><ele>154.0</ele><time>2026-04-20T09:15:11.83Z</time></trkpt><trkpt lat="37.9429183" lon="12.6992783"><ele>155.0</ele><time>2026-04-20T09:15:12.83Z</time></trkpt><trkpt lat="37.9430167" lon="12.6990133"><ele>156.0</ele><time>2026-04-20T09:15:13.83Z</time></trkpt><trkpt lat="37.9431117" lon="12.6987683"><ele>157.0</ele><time>2026-04-20T09:15:14.832Z</time></trkpt><trkpt lat="37.943205" lon="12.698545"><ele>158.33333333333334</ele><time>2026-04-20T09:15:15.832Z</time></trkpt><trkpt lat="37.9433083" lon="12.6983417"><ele>159.66666666666666</ele><time>2026-04-20T09:15:16.832Z</time></trkpt><trkpt lat="37.943425" lon="12.6981467"><ele>161.0</ele><time>2026-04-20T09:15:17.831Z</time></trkpt><trkpt lat="37.943555" lon="12.69795"><ele>161.66666666666666</ele><time>2026-04-20T09:15:18.834Z</time></trkpt><trkpt lat="37.943695" lon="12.6977483"><ele>162.33333333333334</ele><time>2026-04-20T09:15:19.829Z</time></trkpt><trkpt lat="37.9438433" lon="12.6975417"><ele>163.0</ele><time>2026-04-20T09:15:20.834Z</time></trkpt><trkpt lat="37.9439883" lon="12.697345"><ele>163.0</ele><time>2026-04-20T09:15:21.833Z</time></trkpt><trkpt lat="37.9441267" lon="12.69716"><ele>163.0</ele><time>2026-04-20T09:15:22.832Z</time></trkpt><trkpt lat="37.9442583" lon="12.696985"><ele>163.0</ele><time>2026-04-20T09:15:23.832Z</time></trkpt><trkpt lat="37.9443767" lon="12.6968233"><ele>163.4</ele><time>2026-04-20T09:15:24.833Z</time></trkpt><trkpt lat="37.9444717" lon="12.6966917"><ele>163.8</ele><time>2026-04-20T09:15:25.829Z</time></trkpt><trkpt lat="37.9445467" lon="12.6965917"><ele>164.2</ele><time>2026-04-20T09:15:26.834Z</time></trkpt><trkpt lat="37.944595" lon="12.6965217"><ele>164.6</ele><time>2026-04-20T09:15:27.828Z</time></trkpt><trkpt lat="37.9446283" lon="12.696415"><ele>165.0</ele><time>2026-04-20T09:15:29.832Z</time></trkpt><trkpt lat="37.9445467" lon="12.69634"><ele>165.0</ele><time>2026-04-20T09:15:31.831Z</time></trkpt><trkpt lat="37.9444633" lon="12.69628"><ele>165.0</ele><time>2026-04-20T09:15:32.831Z</time></trkpt><trkpt lat="37.944365" lon="12.6961833"><ele>165.0</ele><time>2026-04-20T09:15:33.83Z</time></trkpt><trkpt lat="37.9442683" lon="12.6960733"><ele>165.0</ele><time>2026-04-20T09:15:34.83Z</time></trkpt><trkpt lat="37.94419" lon="12.6959683"><ele>163.8</ele><time>2026-04-20T09:15:35.83Z</time></trkpt><trkpt lat="37.9441317" lon="12.6958733"><ele>162.6</ele><time>2026-04-20T09:15:36.827Z</time></trkpt><trkpt lat="37.9440883" lon="12.6957817"><ele>161.4</ele><time>2026-04-20T09:15:37.828Z</time></trkpt><trkpt lat="37.944045" lon="12.6956683"><ele>160.2</ele><time>2026-04-20T09:15:38.828Z</time></trkpt><trkpt lat="37.9439833" lon="12.6955117"><ele>159.0</ele><time>2026-04-20T09:15:39.831Z</time></trkpt><trkpt lat="37.9439067" lon="12.6953217"><ele>157.66666666666666</ele><time>2026-04-20T09:15:40.83Z</time></trkpt><trkpt lat="37.9438217" lon="12.6950983"><ele>156.33333333333331</ele><time>2026-04-20T09:15:41.827Z</time></trkpt><trkpt lat="37.9437317" lon="12.6948467"><ele>155.0</ele><time>2026-04-20T09:15:42.829Z</time></trkpt><trkpt lat="37.9436367" lon="12.6945817"><ele>154.66666666666666</ele><time>2026-04-20T09:15:43.83Z</time></trkpt><trkpt lat="37.943545" lon="12.6943217"><ele>154.33333333333334</ele><time>2026-04-20T09:15:44.83Z</time></trkpt><trkpt lat="37.9434617" lon="12.6940833"><ele>154.0</ele><time>2026-04-20T09:15:45.829Z</time></trkpt><trkpt lat="37.9433867" lon="12.6938617"><ele>154.66666666666669</ele><time>2026-04-20T09:15:46.831Z</time></trkpt><trkpt lat="37.943315" lon="12.693665"><ele>155.33333333333334</ele><time>2026-04-20T09:15:47.831Z</time></trkpt><trkpt lat="37.943245" lon="12.693485"><ele>156.0</ele><time>2026-04-20T09:15:48.83Z</time></trkpt><trkpt lat="37.9431683" lon="12.6933167"><ele>157.0</ele><time>2026-04-20T09:15:49.831Z</time></trkpt><trkpt lat="37.9430783" lon="12.6931667"><ele>158.0</ele><time>2026-04-20T09:15:50.83Z</time></trkpt><trkpt lat="37.942835" lon="12.6928767"><ele>158.0</ele><time>2026-04-20T09:15:52.833Z</time></trkpt><trkpt lat="37.94268" lon="12.6927283"><ele>158.0</ele><time>2026-04-20T09:15:53.832Z</time></trkpt><trkpt lat="37.9425233" lon="12.6925883"><ele>158.0</ele><time>2026-04-20T09:15:54.833Z</time></trkpt><trkpt lat="37.9423817" lon="12.69246"><ele>158.33333333333331</ele><time>2026-04-20T09:15:55.827Z</time></trkpt><trkpt lat="37.942255" lon="12.692335"><ele>158.66666666666666</ele><time>2026-04-20T09:15:56.828Z</time></trkpt><trkpt lat="37.9421383" lon="12.6922067"><ele>159.0</ele><time>2026-04-20T09:15:57.832Z</time></trkpt><trkpt lat="37.94205" lon="12.6920533"><ele>158.0</ele><time>2026-04-20T09:15:58.831Z</time></trkpt><trkpt lat="37.941985" lon="12.6918817"><ele>157.0</ele><time>2026-04-20T09:15:59.833Z</time></trkpt><trkpt lat="37.9419417" lon="12.6916917"><ele>156.0</ele><time>2026-04-20T09:16:00.831Z</time></trkpt><trkpt lat="37.94192" lon="12.69148"><ele>156.0</ele><time>2026-04-20T09:16:01.831Z</time></trkpt><trkpt lat="37.9419167" lon="12.69124"><ele>156.0</ele><time>2026-04-20T09:16:02.834Z</time></trkpt><trkpt lat="37.9419267" lon="12.6909767"><ele>156.0</ele><time>2026-04-20T09:16:03.829Z</time></trkpt><trkpt lat="37.9419383" lon="12.6906933"><ele>156.33333333333334</ele><time>2026-04-20T09:16:04.83Z</time></trkpt><trkpt lat="37.941945" lon="12.6904083"><ele>156.66666666666669</ele><time>2026-04-20T09:16:05.834Z</time></trkpt><trkpt lat="37.9419517" lon="12.6901533"><ele>157.0</ele><time>2026-04-20T09:16:06.831Z</time></trkpt><trkpt lat="37.9419733" lon="12.68992"><ele>157.0</ele><time>2026-04-20T09:16:07.833Z</time></trkpt><trkpt lat="37.9420117" lon="12.6896867"><ele>157.0</ele><time>2026-04-20T09:16:08.836Z</time></trkpt><trkpt lat="37.9420667" lon="12.6894467"><ele>157.0</ele><time>2026-04-20T09:16:09.831Z</time></trkpt><trkpt lat="37.9421117" lon="12.6891967"><ele>158.33333333333334</ele><time>2026-04-20T09:16:10.832Z</time></trkpt><trkpt lat="37.9421383" lon="12.6889267"><ele>159.66666666666666</ele><time>2026-04-20T09:16:11.83Z</time></trkpt><trkpt lat="37.94215" lon="12.6886367"><ele>161.0</ele><time>2026-04-20T09:16:12.832Z</time></trkpt><trkpt lat="37.94216" lon="12.6883283"><ele>161.5</ele><time>2026-04-20T09:16:13.831Z</time></trkpt><trkpt lat="37.942175" lon="12.6880017"><ele>162.0</ele><time>2026-04-20T09:16:14.832Z</time></trkpt><trkpt lat="37.9421883" lon="12.6876567"><ele>161.0</ele><time>2026-04-20T09:16:15.831Z</time></trkpt><trkpt lat="37.9422" lon="12.6873133"><ele>160.0</ele><time>2026-04-20T09:16:16.833Z</time></trkpt><trkpt lat="37.94221" lon="12.6869767"><ele>160.5</ele><time>2026-04-20T09:16:17.831Z</time></trkpt><trkpt lat="37.9422217" lon="12.68666"><ele>161.0</ele><time>2026-04-20T09:16:18.833Z</time></trkpt><trkpt lat="37.9422317" lon="12.686365"><ele>161.33333333333331</ele><time>2026-04-20T09:16:19.835Z</time></trkpt><trkpt lat="37.94224" lon="12.6860917"><ele>161.66666666666666</ele><time>2026-04-20T09:16:20.841Z</time></trkpt><trkpt lat="37.9422483" lon="12.685835"><ele>162.0</ele><time>2026-04-20T09:16:21.842Z</time></trkpt><trkpt lat="37.942255" lon="12.6855933"><ele>162.0</ele><time>2026-04-20T09:16:22.835Z</time></trkpt><trkpt lat="37.94226" lon="12.68536"><ele>162.0</ele><time>2026-04-20T09:16:23.834Z</time></trkpt><trkpt lat="37.942265" lon="12.6851367"><ele>162.0</ele><time>2026-04-20T09:16:24.837Z</time></trkpt><trkpt lat="37.9422717" lon="12.6849233"><ele>162.0</ele><time>2026-04-20T09:16:25.829Z</time></trkpt><trkpt lat="37.9422767" lon="12.6847217"><ele>162.0</ele><time>2026-04-20T09:16:26.834Z</time></trkpt><trkpt lat="37.9422817" lon="12.6845333"><ele>162.0</ele><time>2026-04-20T09:16:27.829Z</time></trkpt><trkpt lat="37.9422933" lon="12.6843567"><ele>162.0</ele><time>2026-04-20T09:16:28.832Z</time></trkpt><trkpt lat="37.94231" lon="12.6841883"><ele>161.25</ele><time>2026-04-20T09:16:29.829Z</time></trkpt><trkpt lat="37.9423417" lon="12.6840217"><ele>160.5</ele><time>2026-04-20T09:16:30.83Z</time></trkpt><trkpt lat="37.9423967" lon="12.683855"><ele>159.75</ele><time>2026-04-20T09:16:31.832Z</time></trkpt><trkpt lat="37.9424767" lon="12.6836967"><ele>159.0</ele><time>2026-04-20T09:16:32.832Z</time></trkpt><trkpt lat="37.942575" lon="12.683545"><ele>157.0</ele><time>2026-04-20T09:16:33.828Z</time></trkpt><trkpt lat="37.9426867" lon="12.6834133"><ele>155.0</ele><time>2026-04-20T09:16:34.83Z</time></trkpt><trkpt lat="37.9427917" lon="12.6832933"><ele>153.0</ele><time>2026-04-20T09:16:35.83Z</time></trkpt><trkpt lat="37.94289" lon="12.6831633"><ele>151.0</ele><time>2026-04-20T09:16:36.829Z</time></trkpt><trkpt lat="37.9429783" lon="12.68302"><ele>151.0</ele><time>2026-04-20T09:16:37.829Z</time></trkpt><trkpt lat="37.9430483" lon="12.6828617"><ele>151.0</ele><time>2026-04-20T09:16:38.83Z</time></trkpt><trkpt lat="37.9431" lon="12.6826917"><ele>151.0</ele><time>2026-04-20T09:16:39.831Z</time></trkpt><trkpt lat="37.9431317" lon="12.6825083"><ele>151.0</ele><time>2026-04-20T09:16:40.83Z</time></trkpt><trkpt lat="37.9431467" lon="12.6823117"><ele>150.0</ele><time>2026-04-20T09:16:41.831Z</time></trkpt><trkpt lat="37.9431483" lon="12.6820917"><ele>149.0</ele><time>2026-04-20T09:16:42.828Z</time></trkpt><trkpt lat="37.9431383" lon="12.6818517"><ele>148.0</ele><time>2026-04-20T09:16:43.828Z</time></trkpt><trkpt lat="37.943125" lon="12.6815917"><ele>147.0</ele><time>2026-04-20T09:16:44.83Z</time></trkpt><trkpt lat="37.9431167" lon="12.6813267"><ele>146.0</ele><time>2026-04-20T09:16:45.83Z</time></trkpt><trkpt lat="37.9431083" lon="12.68108"><ele>145.0</ele><time>2026-04-20T09:16:46.83Z</time></trkpt><trkpt lat="37.9431017" lon="12.6808633"><ele>145.0</ele><time>2026-04-20T09:16:47.83Z</time></trkpt><trkpt lat="37.9430917" lon="12.6806667"><ele>145.0</ele><time>2026-04-20T09:16:48.829Z</time></trkpt><trkpt lat="37.94307" lon="12.6804817"><ele>145.0</ele><time>2026-04-20T09:16:49.83Z</time></trkpt><trkpt lat="37.9430233" lon="12.6802933"><ele>143.66666666666669</ele><time>2026-04-20T09:16:50.834Z</time></trkpt><trkpt lat="37.9429483" lon="12.6800983"><ele>142.33333333333334</ele><time>2026-04-20T09:16:51.834Z</time></trkpt><trkpt lat="37.9428517" lon="12.6798917"><ele>141.0</ele><time>2026-04-20T09:16:52.833Z</time></trkpt><trkpt lat="37.9427417" lon="12.6796667"><ele>141.0</ele><time>2026-04-20T09:16:53.831Z</time></trkpt><trkpt lat="37.9426317" lon="12.6794317"><ele>141.0</ele><time>2026-04-20T09:16:54.832Z</time></trkpt><trkpt lat="37.9424167" lon="12.678935"><ele>141.0</ele><time>2026-04-20T09:16:56.834Z</time></trkpt><trkpt lat="37.9423117" lon="12.6786767"><ele>141.0</ele><time>2026-04-20T09:16:57.832Z</time></trkpt><trkpt lat="37.9422083" lon="12.6784133"><ele>139.0</ele><time>2026-04-20T09:16:58.833Z</time></trkpt><trkpt lat="37.9421033" lon="12.6781417"><ele>137.0</ele><time>2026-04-20T09:16:59.83Z</time></trkpt><trkpt lat="37.941995" lon="12.6778667"><ele>136.0</ele><time>2026-04-20T09:17:00.829Z</time></trkpt><trkpt lat="37.941885" lon="12.6775867"><ele>135.0</ele><time>2026-04-20T09:17:01.834Z</time></trkpt><trkpt lat="37.941775" lon="12.6773033"><ele>135.5</ele><time>2026-04-20T09:17:02.833Z</time></trkpt><trkpt lat="37.941665" lon="12.67702"><ele>136.0</ele><time>2026-04-20T09:17:03.829Z</time></trkpt><trkpt lat="37.941555" lon="12.676735"><ele>134.5</ele><time>2026-04-20T09:17:04.832Z</time></trkpt><trkpt lat="37.941445" lon="12.67645"><ele>133.0</ele><time>2026-04-20T09:17:05.827Z</time></trkpt><trkpt lat="37.9413383" lon="12.67617"><ele>134.0</ele><time>2026-04-20T09:17:06.831Z</time></trkpt><trkpt lat="37.9412383" lon="12.6759067"><ele>135.0</ele><time>2026-04-20T09:17:07.833Z</time></trkpt><trkpt lat="37.94114" lon="12.6756583"><ele>135.0</ele><time>2026-04-20T09:17:08.833Z</time></trkpt><trkpt lat="37.9410533" lon="12.675425"><ele>135.0</ele><time>2026-04-20T09:17:09.833Z</time></trkpt><trkpt lat="37.9409667" lon="12.6752083"><ele>135.0</ele><time>2026-04-20T09:17:10.831Z</time></trkpt><trkpt lat="37.9408783" lon="12.67501"><ele>135.0</ele><time>2026-04-20T09:17:11.831Z</time></trkpt><trkpt lat="37.94078" lon="12.6748283"><ele>135.0</ele><time>2026-04-20T09:17:12.833Z</time></trkpt><trkpt lat="37.9406617" lon="12.67466"><ele>135.0</ele><time>2026-04-20T09:17:13.832Z</time></trkpt><trkpt lat="37.940525" lon="12.674505"><ele>135.0</ele><time>2026-04-20T09:17:14.832Z</time></trkpt><trkpt lat="37.9403717" lon="12.6743567"><ele>135.0</ele><time>2026-04-20T09:17:15.83Z</time></trkpt><trkpt lat="37.9402083" lon="12.6742033"><ele>135.0</ele><time>2026-04-20T09:17:16.831Z</time></trkpt><trkpt lat="37.9400367" lon="12.6740467"><ele>134.33333333333334</ele><time>2026-04-20T09:17:17.831Z</time></trkpt><trkpt lat="37.9398583" lon="12.673885"><ele>133.66666666666669</ele><time>2026-04-20T09:17:18.828Z</time></trkpt><trkpt lat="37.9396767" lon="12.6737167"><ele>133.0</ele><time>2026-04-20T09:17:19.833Z</time></trkpt><trkpt lat="37.93949" lon="12.673545"><ele>134.5</ele><time>2026-04-20T09:17:20.831Z</time></trkpt><trkpt lat="37.9393033" lon="12.6733717"><ele>136.0</ele><time>2026-04-20T09:17:21.834Z</time></trkpt><trkpt lat="37.9391167" lon="12.6731983"><ele>136.0</ele><time>2026-04-20T09:17:22.834Z</time></trkpt><trkpt lat="37.9389333" lon="12.6730283"><ele>136.0</ele><time>2026-04-20T09:17:23.834Z</time></trkpt><trkpt lat="37.9387617" lon="12.6728683"><ele>136.0</ele><time>2026-04-20T09:17:24.836Z</time></trkpt><trkpt lat="37.9386017" lon="12.6727183"><ele>136.33333333333334</ele><time>2026-04-20T09:17:25.838Z</time></trkpt><trkpt lat="37.938455" lon="12.67258"><ele>136.66666666666666</ele><time>2026-04-20T09:17:26.841Z</time></trkpt><trkpt lat="37.938315" lon="12.6724467"><ele>137.0</ele><time>2026-04-20T09:17:27.83Z</time></trkpt><trkpt lat="37.9381833" lon="12.6723217"><ele>137.0</ele><time>2026-04-20T09:17:28.831Z</time></trkpt><trkpt lat="37.9380567" lon="12.672205"><ele>137.0</ele><time>2026-04-20T09:17:29.829Z</time></trkpt><trkpt lat="37.937935" lon="12.6720917"><ele>137.0</ele><time>2026-04-20T09:17:30.832Z</time></trkpt><trkpt lat="37.9378083" lon="12.6719767"><ele>137.33333333333331</ele><time>2026-04-20T09:17:31.829Z</time></trkpt><trkpt lat="37.9376767" lon="12.6718583"><ele>137.66666666666666</ele><time>2026-04-20T09:17:32.833Z</time></trkpt><trkpt lat="37.9375367" lon="12.6717267"><ele>138.0</ele><time>2026-04-20T09:17:33.829Z</time></trkpt><trkpt lat="37.9373883" lon="12.6715783"><ele>138.0</ele><time>2026-04-20T09:17:34.834Z</time></trkpt><trkpt lat="37.937235" lon="12.67141"><ele>138.0</ele><time>2026-04-20T09:17:35.829Z</time></trkpt><trkpt lat="37.9370717" lon="12.6712233"><ele>138.0</ele><time>2026-04-20T09:17:36.831Z</time></trkpt><trkpt lat="37.9369033" lon="12.67103"><ele>140.0</ele><time>2026-04-20T09:17:37.828Z</time></trkpt><trkpt lat="37.936735" lon="12.6708317"><ele>142.0</ele><time>2026-04-20T09:17:38.832Z</time></trkpt><trkpt lat="37.9365517" lon="12.670625"><ele>142.0</ele><time>2026-04-20T09:17:39.832Z</time></trkpt><trkpt lat="37.9363683" lon="12.670415"><ele>142.0</ele><time>2026-04-20T09:17:40.829Z</time></trkpt><trkpt lat="37.9362" lon="12.6702083"><ele>144.0</ele><time>2026-04-20T09:17:41.828Z</time></trkpt><trkpt lat="37.9360517" lon="12.67001"><ele>146.0</ele><time>2026-04-20T09:17:42.829Z</time></trkpt><trkpt lat="37.9359233" lon="12.669815"><ele>148.0</ele><time>2026-04-20T09:17:43.834Z</time></trkpt><trkpt lat="37.9358133" lon="12.669625"><ele>150.33333333333334</ele><time>2026-04-20T09:17:44.829Z</time></trkpt><trkpt lat="37.93572" lon="12.6694333"><ele>152.66666666666666</ele><time>2026-04-20T09:17:45.829Z</time></trkpt><trkpt lat="37.9356467" lon="12.66924"><ele>155.0</ele><time>2026-04-20T09:17:46.83Z</time></trkpt><trkpt lat="37.9355833" lon="12.669035"><ele>155.0</ele><time>2026-04-20T09:17:47.833Z</time></trkpt><trkpt lat="37.9355283" lon="12.6688183"><ele>155.0</ele><time>2026-04-20T09:17:48.833Z</time></trkpt><trkpt lat="37.9354717" lon="12.6686017"><ele>155.0</ele><time>2026-04-20T09:17:49.832Z</time></trkpt><trkpt lat="37.9354133" lon="12.6683967"><ele>155.33333333333331</ele><time>2026-04-20T09:17:50.829Z</time></trkpt><trkpt lat="37.935345" lon="12.6682083"><ele>155.66666666666666</ele><time>2026-04-20T09:17:51.83Z</time></trkpt><trkpt lat="37.93527" lon="12.6680217"><ele>156.0</ele><time>2026-04-20T09:17:52.835Z</time></trkpt><trkpt lat="37.9351917" lon="12.667835"><ele>155.75</ele><time>2026-04-20T09:17:53.833Z</time></trkpt><trkpt lat="37.935115" lon="12.6676583"><ele>155.5</ele><time>2026-04-20T09:17:54.831Z</time></trkpt><trkpt lat="37.935045" lon="12.6675017"><ele>155.25</ele><time>2026-04-20T09:17:55.827Z</time></trkpt><trkpt lat="37.934975" lon="12.6673633"><ele>155.0</ele><time>2026-04-20T09:17:56.832Z</time></trkpt><trkpt lat="37.9348933" lon="12.667245"><ele>154.5</ele><time>2026-04-20T09:17:57.832Z</time></trkpt><trkpt lat="37.9347917" lon="12.6671483"><ele>154.0</ele><time>2026-04-20T09:17:58.83Z</time></trkpt><trkpt lat="37.934665" lon="12.66707"><ele>153.5</ele><time>2026-04-20T09:17:59.832Z</time></trkpt><trkpt lat="37.9345083" lon="12.6670083"><ele>153.0</ele><time>2026-04-20T09:18:00.831Z</time></trkpt><trkpt lat="37.9343333" lon="12.6669567"><ele>150.33333333333334</ele><time>2026-04-20T09:18:01.829Z</time></trkpt><trkpt lat="37.9341367" lon="12.6668983"><ele>147.66666666666669</ele><time>2026-04-20T09:18:02.834Z</time></trkpt><trkpt lat="37.9339217" lon="12.6668283"><ele>145.0</ele><time>2026-04-20T09:18:03.83Z</time></trkpt><trkpt lat="37.9336933" lon="12.666755"><ele>145.0</ele><time>2026-04-20T09:18:04.833Z</time></trkpt><trkpt lat="37.9334417" lon="12.6666783"><ele>145.0</ele><time>2026-04-20T09:18:05.828Z</time></trkpt><trkpt lat="37.9331733" lon="12.6665983"><ele>140.5</ele><time>2026-04-20T09:18:06.831Z</time></trkpt><trkpt lat="37.9329" lon="12.6665183"><ele>136.0</ele><time>2026-04-20T09:18:07.83Z</time></trkpt><trkpt lat="37.9326417" lon="12.6664433"><ele>135.0</ele><time>2026-04-20T09:18:08.831Z</time></trkpt><trkpt lat="37.9323983" lon="12.6663733"><ele>134.0</ele><time>2026-04-20T09:18:09.829Z</time></trkpt><trkpt lat="37.9321683" lon="12.6663083"><ele>134.0</ele><time>2026-04-20T09:18:10.833Z</time></trkpt><trkpt lat="37.9319417" lon="12.6662417"><ele>134.0</ele><time>2026-04-20T09:18:11.832Z</time></trkpt><trkpt lat="37.9317167" lon="12.6661717"><ele>133.5</ele><time>2026-04-20T09:18:12.834Z</time></trkpt><trkpt lat="37.93149" lon="12.6661033"><ele>133.0</ele><time>2026-04-20T09:18:13.831Z</time></trkpt><trkpt lat="37.9312717" lon="12.6660433"><ele>133.0</ele><time>2026-04-20T09:18:14.834Z</time></trkpt><trkpt lat="37.9310683" lon="12.665985"><ele>133.0</ele><time>2026-04-20T09:18:15.828Z</time></trkpt><trkpt lat="37.93088" lon="12.665925"><ele>133.0</ele><time>2026-04-20T09:18:16.827Z</time></trkpt><trkpt lat="37.9306933" lon="12.6658533"><ele>133.66666666666669</ele><time>2026-04-20T09:18:17.83Z</time></trkpt><trkpt lat="37.930505" lon="12.6657683"><ele>134.33333333333334</ele><time>2026-04-20T09:18:18.827Z</time></trkpt><trkpt lat="37.9303183" lon="12.6656617"><ele>135.0</ele><time>2026-04-20T09:18:19.831Z</time></trkpt><trkpt lat="37.9301317" lon="12.6655367"><ele>134.66666666666666</ele><time>2026-04-20T09:18:20.832Z</time></trkpt><trkpt lat="37.92996" lon="12.6654117"><ele>134.33333333333331</ele><time>2026-04-20T09:18:21.83Z</time></trkpt><trkpt lat="37.9298117" lon="12.66529"><ele>134.0</ele><time>2026-04-20T09:18:22.834Z</time></trkpt><trkpt lat="37.9296783" lon="12.665165"><ele>136.0</ele><time>2026-04-20T09:18:23.835Z</time></trkpt><trkpt lat="37.9295533" lon="12.665025"><ele>138.0</ele><time>2026-04-20T09:18:24.834Z</time></trkpt><trkpt lat="37.92943" lon="12.6648717"><ele>140.0</ele><time>2026-04-20T09:18:25.834Z</time></trkpt><trkpt lat="37.9293033" lon="12.6647083"><ele>139.33333333333331</ele><time>2026-04-20T09:18:26.835Z</time></trkpt><trkpt lat="37.9291667" lon="12.6645367"><ele>138.66666666666666</ele><time>2026-04-20T09:18:27.835Z</time></trkpt><trkpt lat="37.92902" lon="12.6643567"><ele>138.0</ele><time>2026-04-20T09:18:28.829Z</time></trkpt><trkpt lat="37.9288683" lon="12.6641767"><ele>137.66666666666666</ele><time>2026-04-20T09:18:29.829Z</time></trkpt><trkpt lat="37.9287167" lon="12.6639967"><ele>137.33333333333331</ele><time>2026-04-20T09:18:30.833Z</time></trkpt><trkpt lat="37.9285583" lon="12.6638267"><ele>137.0</ele><time>2026-04-20T09:18:31.832Z</time></trkpt><trkpt lat="37.9283883" lon="12.6636667"><ele>134.5</ele><time>2026-04-20T09:18:32.831Z</time></trkpt><trkpt lat="37.9282" lon="12.66352"><ele>132.0</ele><time>2026-04-20T09:18:33.831Z</time></trkpt><trkpt lat="37.927985" lon="12.66338"><ele>132.0</ele><time>2026-04-20T09:18:34.83Z</time></trkpt><trkpt lat="37.9277533" lon="12.6632417"><ele>132.0</ele><time>2026-04-20T09:18:35.834Z</time></trkpt><trkpt lat="37.92751" lon="12.6631017"><ele>130.5</ele><time>2026-04-20T09:18:36.832Z</time></trkpt><trkpt lat="37.9272517" lon="12.6629567"><ele>129.0</ele><time>2026-04-20T09:18:37.833Z</time></trkpt><trkpt lat="37.92698" lon="12.6628"><ele>126.0</ele><time>2026-04-20T09:18:38.833Z</time></trkpt><trkpt lat="37.9266917" lon="12.6626333"><ele>123.0</ele><time>2026-04-20T09:18:39.831Z</time></trkpt><trkpt lat="37.9264033" lon="12.6624667"><ele>123.0</ele><time>2026-04-20T09:18:40.832Z</time></trkpt><trkpt lat="37.92613" lon="12.6623083"><ele>123.0</ele><time>2026-04-20T09:18:41.83Z</time></trkpt><trkpt lat="37.9258767" lon="12.66216"><ele>122.5</ele><time>2026-04-20T09:18:42.829Z</time></trkpt><trkpt lat="37.925635" lon="12.6620233"><ele>122.0</ele><time>2026-04-20T09:18:43.835Z</time></trkpt><trkpt lat="37.9254067" lon="12.6618933"><ele>121.33333333333333</ele><time>2026-04-20T09:18:44.832Z</time></trkpt><trkpt lat="37.9251933" lon="12.6617733"><ele>120.66666666666666</ele><time>2026-04-20T09:18:45.832Z</time></trkpt><trkpt lat="37.9249967" lon="12.66166"><ele>120.0</ele><time>2026-04-20T09:18:46.832Z</time></trkpt><trkpt lat="37.924815" lon="12.6615567"><ele>119.33333333333334</ele><time>2026-04-20T09:18:47.832Z</time></trkpt><trkpt lat="37.9246467" lon="12.66146"><ele>118.66666666666667</ele><time>2026-04-20T09:18:48.831Z</time></trkpt><trkpt lat="37.9244917" lon="12.661365"><ele>118.0</ele><time>2026-04-20T09:18:49.831Z</time></trkpt><trkpt lat="37.92435" lon="12.661265"><ele>118.66666666666667</ele><time>2026-04-20T09:18:50.829Z</time></trkpt><trkpt lat="37.9242083" lon="12.6611383"><ele>119.33333333333334</ele><time>2026-04-20T09:18:51.832Z</time></trkpt><trkpt lat="37.9240633" lon="12.6609833"><ele>120.0</ele><time>2026-04-20T09:18:52.833Z</time></trkpt><trkpt lat="37.9239117" lon="12.6607983"><ele>118.0</ele><time>2026-04-20T09:18:53.831Z</time></trkpt><trkpt lat="37.9237517" lon="12.6605933"><ele>116.0</ele><time>2026-04-20T09:18:54.828Z</time></trkpt><trkpt lat="37.9235833" lon="12.66038"><ele>116.5</ele><time>2026-04-20T09:18:55.831Z</time></trkpt><trkpt lat="37.9234033" lon="12.6601517"><ele>117.0</ele><time>2026-04-20T09:18:56.831Z</time></trkpt><trkpt lat="37.9232133" lon="12.6599083"><ele>115.0</ele><time>2026-04-20T09:18:57.832Z</time></trkpt><trkpt lat="37.9230183" lon="12.6596583"><ele>113.0</ele><time>2026-04-20T09:18:58.832Z</time></trkpt><trkpt lat="37.922835" lon="12.6594267"><ele>112.33333333333333</ele><time>2026-04-20T09:18:59.831Z</time></trkpt><trkpt lat="37.9226817" lon="12.6592267"><ele>111.66666666666666</ele><time>2026-04-20T09:19:00.829Z</time></trkpt><trkpt lat="37.92255" lon="12.6590567"><ele>111.0</ele><time>2026-04-20T09:19:01.832Z</time></trkpt><trkpt lat="37.9224367" lon="12.6589117"><ele>110.19999999999999</ele><time>2026-04-20T09:19:02.833Z</time></trkpt><trkpt lat="37.92234" lon="12.6587833"><ele>109.39999999999999</ele><time>2026-04-20T09:19:03.831Z</time></trkpt><trkpt lat="37.92226" lon="12.6586767"><ele>108.6</ele><time>2026-04-20T09:19:04.834Z</time></trkpt><trkpt lat="37.92219" lon="12.6585867"><ele>107.8</ele><time>2026-04-20T09:19:05.83Z</time></trkpt><trkpt lat="37.922125" lon="12.6585033"><ele>107.0</ele><time>2026-04-20T09:19:06.834Z</time></trkpt><trkpt lat="37.9220667" lon="12.65843"><ele>106.99999999999999</ele><time>2026-04-20T09:19:07.831Z</time></trkpt><trkpt lat="37.9220133" lon="12.6583617"><ele>107.0</ele><time>2026-04-20T09:19:08.834Z</time></trkpt><trkpt lat="37.9219667" lon="12.6583067"><ele>107.0</ele><time>2026-04-20T09:19:09.831Z</time></trkpt><trkpt lat="37.921905" lon="12.65823"><ele>107.0</ele><time>2026-04-20T09:19:11.836Z</time></trkpt><trkpt lat="37.9218317" lon="12.658185"><ele>106.99999999999999</ele><time>2026-04-20T09:19:15.832Z</time></trkpt><trkpt lat="37.9217467" lon="12.658285"><ele>107.0</ele><time>2026-04-20T09:19:17.829Z</time></trkpt><trkpt lat="37.9216967" lon="12.6584033"><ele>107.0</ele><time>2026-04-20T09:19:18.829Z</time></trkpt><trkpt lat="37.9216417" lon="12.658555"><ele>107.0</ele><time>2026-04-20T09:19:19.828Z</time></trkpt><trkpt lat="37.9215433" lon="12.658745"><ele>107.0</ele><time>2026-04-20T09:19:20.829Z</time></trkpt><trkpt lat="37.9213933" lon="12.6589633"><ele>107.0</ele><time>2026-04-20T09:19:21.831Z</time></trkpt><trkpt lat="37.9212033" lon="12.65922"><ele>107.0</ele><time>2026-04-20T09:19:22.832Z</time></trkpt><trkpt lat="37.9209983" lon="12.6595033"><ele>105.5</ele><time>2026-04-20T09:19:23.832Z</time></trkpt><trkpt lat="37.9208083" lon="12.6597633"><ele>104.0</ele><time>2026-04-20T09:19:24.828Z</time></trkpt><trkpt lat="37.92064" lon="12.6599983"><ele>104.0</ele><time>2026-04-20T09:19:25.829Z</time></trkpt><trkpt lat="37.9204817" lon="12.6602317"><ele>104.0</ele><time>2026-04-20T09:19:26.835Z</time></trkpt><trkpt lat="37.920325" lon="12.6604733"><ele>105.0</ele><time>2026-04-20T09:19:27.835Z</time></trkpt><trkpt lat="37.92017" lon="12.6607317"><ele>106.0</ele><time>2026-04-20T09:19:28.834Z</time></trkpt><trkpt lat="37.920015" lon="12.661"><ele>105.5</ele><time>2026-04-20T09:19:29.835Z</time></trkpt><trkpt lat="37.9198583" lon="12.6612717"><ele>105.0</ele><time>2026-04-20T09:19:30.835Z</time></trkpt><trkpt lat="37.9197" lon="12.6615483"><ele>105.0</ele><time>2026-04-20T09:19:31.834Z</time></trkpt><trkpt lat="37.91955" lon="12.6618167"><ele>105.0</ele><time>2026-04-20T09:19:32.836Z</time></trkpt><trkpt lat="37.919405" lon="12.6620733"><ele>105.0</ele><time>2026-04-20T09:19:33.835Z</time></trkpt><trkpt lat="37.9192617" lon="12.6623267"><ele>105.0</ele><time>2026-04-20T09:19:34.83Z</time></trkpt><trkpt lat="37.9191183" lon="12.6625783"><ele>103.5</ele><time>2026-04-20T09:19:35.835Z</time></trkpt><trkpt lat="37.9189783" lon="12.6628317"><ele>102.0</ele><time>2026-04-20T09:19:36.831Z</time></trkpt><trkpt lat="37.918835" lon="12.66309"><ele>102.0</ele><time>2026-04-20T09:19:37.833Z</time></trkpt><trkpt lat="37.91869" lon="12.6633483"><ele>102.0</ele><time>2026-04-20T09:19:38.833Z</time></trkpt><trkpt lat="37.91854" lon="12.6636117"><ele>102.0</ele><time>2026-04-20T09:19:39.832Z</time></trkpt><trkpt lat="37.918385" lon="12.66388"><ele>102.0</ele><time>2026-04-20T09:19:40.832Z</time></trkpt><trkpt lat="37.918225" lon="12.6641617"><ele>103.0</ele><time>2026-04-20T09:19:41.833Z</time></trkpt><trkpt lat="37.9180633" lon="12.6644483"><ele>104.0</ele><time>2026-04-20T09:19:42.833Z</time></trkpt><trkpt lat="37.9179017" lon="12.664735"><ele>104.0</ele><time>2026-04-20T09:19:43.831Z</time></trkpt><trkpt lat="37.91774" lon="12.6650183"><ele>104.0</ele><time>2026-04-20T09:19:44.835Z</time></trkpt><trkpt lat="37.91758" lon="12.6653017"><ele>100.5</ele><time>2026-04-20T09:19:45.832Z</time></trkpt><trkpt lat="37.917425" lon="12.6655767"><ele>97.0</ele><time>2026-04-20T09:19:46.833Z</time></trkpt><trkpt lat="37.9172783" lon="12.665835"><ele>97.0</ele><time>2026-04-20T09:19:47.832Z</time></trkpt><trkpt lat="37.9171383" lon="12.66608"><ele>97.0</ele><time>2026-04-20T09:19:48.828Z</time></trkpt><trkpt lat="37.9170017" lon="12.6663217"><ele>97.5</ele><time>2026-04-20T09:19:49.831Z</time></trkpt><trkpt lat="37.9168633" lon="12.6665683"><ele>98.0</ele><time>2026-04-20T09:19:50.83Z</time></trkpt><trkpt lat="37.9167167" lon="12.666825"><ele>97.5</ele><time>2026-04-20T09:19:51.831Z</time></trkpt><trkpt lat="37.916565" lon="12.6670967"><ele>97.0</ele><time>2026-04-20T09:19:52.828Z</time></trkpt><trkpt lat="37.91641" lon="12.6673717"><ele>97.0</ele><time>2026-04-20T09:19:53.827Z</time></trkpt><trkpt lat="37.91626" lon="12.667635"><ele>97.0</ele><time>2026-04-20T09:19:54.833Z</time></trkpt><trkpt lat="37.9161217" lon="12.6678817"><ele>96.66666666666667</ele><time>2026-04-20T09:19:55.83Z</time></trkpt><trkpt lat="37.9159917" lon="12.66812"><ele>96.33333333333334</ele><time>2026-04-20T09:19:56.828Z</time></trkpt><trkpt lat="37.9158667" lon="12.6683467"><ele>96.0</ele><time>2026-04-20T09:19:57.828Z</time></trkpt><trkpt lat="37.91575" lon="12.668565"><ele>96.66666666666666</ele><time>2026-04-20T09:19:58.828Z</time></trkpt><trkpt lat="37.915625" lon="12.66877"><ele>97.33333333333333</ele><time>2026-04-20T09:19:59.83Z</time></trkpt><trkpt lat="37.9154817" lon="12.6689567"><ele>98.0</ele><time>2026-04-20T09:20:00.829Z</time></trkpt><trkpt lat="37.9153133" lon="12.6691333"><ele>98.0</ele><time>2026-04-20T09:20:01.828Z</time></trkpt><trkpt lat="37.9151217" lon="12.66931"><ele>98.0</ele><time>2026-04-20T09:20:02.833Z</time></trkpt><trkpt lat="37.9149133" lon="12.669485"><ele>98.0</ele><time>2026-04-20T09:20:03.831Z</time></trkpt><trkpt lat="37.914695" lon="12.6696683"><ele>98.0</ele><time>2026-04-20T09:20:04.833Z</time></trkpt><trkpt lat="37.91447" lon="12.6698567"><ele>98.0</ele><time>2026-04-20T09:20:05.83Z</time></trkpt><trkpt lat="37.9142433" lon="12.670045"><ele>98.0</ele><time>2026-04-20T09:20:06.831Z</time></trkpt><trkpt lat="37.91402" lon="12.67023"><ele>97.5</ele><time>2026-04-20T09:20:07.831Z</time></trkpt><trkpt lat="37.9138117" lon="12.6704083"><ele>97.0</ele><time>2026-04-20T09:20:08.828Z</time></trkpt><trkpt lat="37.9136183" lon="12.670575"><ele>97.0</ele><time>2026-04-20T09:20:09.832Z</time></trkpt><trkpt lat="37.913435" lon="12.6707333"><ele>97.0</ele><time>2026-04-20T09:20:10.83Z</time></trkpt><trkpt lat="37.9132533" lon="12.6708933"><ele>97.0</ele><time>2026-04-20T09:20:11.827Z</time></trkpt><trkpt lat="37.913075" lon="12.6710417"><ele>103.33333333333334</ele><time>2026-04-20T09:20:12.831Z</time></trkpt><trkpt lat="37.9129" lon="12.6711667"><ele>109.66666666666666</ele><time>2026-04-20T09:20:13.83Z</time></trkpt><trkpt lat="37.91272" lon="12.6712583"><ele>116.0</ele><time>2026-04-20T09:20:14.832Z</time></trkpt><trkpt lat="37.91253" lon="12.67133"><ele>117.0</ele><time>2026-04-20T09:20:15.831Z</time></trkpt><trkpt lat="37.912335" lon="12.6713733"><ele>118.0</ele><time>2026-04-20T09:20:16.827Z</time></trkpt><trkpt lat="37.9121583" lon="12.67141"><ele>119.0</ele><time>2026-04-20T09:20:17.831Z</time></trkpt><trkpt lat="37.912005" lon="12.6714533"><ele>119.0</ele><time>2026-04-20T09:20:18.83Z</time></trkpt><trkpt lat="37.911875" lon="12.6715167"><ele>119.0</ele><time>2026-04-20T09:20:19.831Z</time></trkpt><trkpt lat="37.9117667" lon="12.671605"><ele>119.0</ele><time>2026-04-20T09:20:20.834Z</time></trkpt><trkpt lat="37.9116683" lon="12.6717333"><ele>119.0</ele><time>2026-04-20T09:20:21.834Z</time></trkpt><trkpt lat="37.9115767" lon="12.6718933"><ele>121.25</ele><time>2026-04-20T09:20:22.832Z</time></trkpt><trkpt lat="37.9114933" lon="12.672055"><ele>123.5</ele><time>2026-04-20T09:20:23.832Z</time></trkpt><trkpt lat="37.91141" lon="12.6721867"><ele>125.75</ele><time>2026-04-20T09:20:24.835Z</time></trkpt><trkpt lat="37.91131" lon="12.6722917"><ele>128.0</ele><time>2026-04-20T09:20:25.834Z</time></trkpt><trkpt lat="37.9111883" lon="12.6723767"><ele>128.0</ele><time>2026-04-20T09:20:26.834Z</time></trkpt><trkpt lat="37.9110433" lon="12.6724567"><ele>128.0</ele><time>2026-04-20T09:20:27.833Z</time></trkpt><trkpt lat="37.910875" lon="12.672535"><ele>128.0</ele><time>2026-04-20T09:20:28.835Z</time></trkpt><trkpt lat="37.9106833" lon="12.6726183"><ele>127.33333333333333</ele><time>2026-04-20T09:20:29.83Z</time></trkpt><trkpt lat="37.91048" lon="12.672705"><ele>126.66666666666666</ele><time>2026-04-20T09:20:30.832Z</time></trkpt><trkpt lat="37.9102867" lon="12.6727867"><ele>126.0</ele><time>2026-04-20T09:20:31.832Z</time></trkpt><trkpt lat="37.9101067" lon="12.6728583"><ele>126.0</ele><time>2026-04-20T09:20:32.832Z</time></trkpt><trkpt lat="37.9099433" lon="12.6729267"><ele>126.0</ele><time>2026-04-20T09:20:33.833Z</time></trkpt><trkpt lat="37.9097967" lon="12.673"><ele>126.0</ele><time>2026-04-20T09:20:34.834Z</time></trkpt><trkpt lat="37.90966" lon="12.67309"><ele>126.0</ele><time>2026-04-20T09:20:35.832Z</time></trkpt><trkpt lat="37.9095267" lon="12.6732083"><ele>126.0</ele><time>2026-04-20T09:20:36.834Z</time></trkpt><trkpt lat="37.90939" lon="12.6733633"><ele>126.0</ele><time>2026-04-20T09:20:37.835Z</time></trkpt><trkpt lat="37.909245" lon="12.6735483"><ele>125.5</ele><time>2026-04-20T09:20:38.832Z</time></trkpt><trkpt lat="37.9090783" lon="12.67376"><ele>125.0</ele><time>2026-04-20T09:20:39.833Z</time></trkpt><trkpt lat="37.9089033" lon="12.67398"><ele>125.0</ele><time>2026-04-20T09:20:40.83Z</time></trkpt><trkpt lat="37.9087417" lon="12.6741833"><ele>125.0</ele><time>2026-04-20T09:20:41.828Z</time></trkpt><trkpt lat="37.9086033" lon="12.674365"><ele>125.0</ele><time>2026-04-20T09:20:42.832Z</time></trkpt><trkpt lat="37.908475" lon="12.6745283"><ele>124.66666666666666</ele><time>2026-04-20T09:20:43.831Z</time></trkpt><trkpt lat="37.90834" lon="12.674675"><ele>124.33333333333334</ele><time>2026-04-20T09:20:44.831Z</time></trkpt><trkpt lat="37.9081817" lon="12.6748033"><ele>124.0</ele><time>2026-04-20T09:20:45.83Z</time></trkpt><trkpt lat="37.9079917" lon="12.67491"><ele>124.0</ele><time>2026-04-20T09:20:46.83Z</time></trkpt><trkpt lat="37.9077733" lon="12.675"><ele>124.0</ele><time>2026-04-20T09:20:47.83Z</time></trkpt><trkpt lat="37.9075383" lon="12.6750833"><ele>124.0</ele><time>2026-04-20T09:20:48.831Z</time></trkpt><trkpt lat="37.9072883" lon="12.675175"><ele>124.0</ele><time>2026-04-20T09:20:49.834Z</time></trkpt><trkpt lat="37.90702" lon="12.6752933"><ele>124.0</ele><time>2026-04-20T09:20:50.837Z</time></trkpt><trkpt lat="37.90675" lon="12.675435"><ele>124.0</ele><time>2026-04-20T09:20:51.834Z</time></trkpt><trkpt lat="37.9064967" lon="12.675585"><ele>125.0</ele><time>2026-04-20T09:20:52.834Z</time></trkpt><trkpt lat="37.90627" lon="12.6757333"><ele>126.0</ele><time>2026-04-20T09:20:53.832Z</time></trkpt><trkpt lat="37.9060617" lon="12.6758683"><ele>128.0</ele><time>2026-04-20T09:20:54.832Z</time></trkpt><trkpt lat="37.9058717" lon="12.6759933"><ele>130.0</ele><time>2026-04-20T09:20:55.828Z</time></trkpt><trkpt lat="37.9056967" lon="12.6761067"><ele>132.0</ele><time>2026-04-20T09:20:56.833Z</time></trkpt><trkpt lat="37.9055383" lon="12.6762117"><ele>133.0</ele><time>2026-04-20T09:20:57.836Z</time></trkpt><trkpt lat="37.905395" lon="12.6763183"><ele>134.0</ele><time>2026-04-20T09:20:58.832Z</time></trkpt><trkpt lat="37.9052583" lon="12.6764467"><ele>135.0</ele><time>2026-04-20T09:20:59.827Z</time></trkpt><trkpt lat="37.905135" lon="12.6765883"><ele>135.66666666666666</ele><time>2026-04-20T09:21:00.83Z</time></trkpt><trkpt lat="37.905025" lon="12.6767283"><ele>136.33333333333331</ele><time>2026-04-20T09:21:01.831Z</time></trkpt><trkpt lat="37.9049283" lon="12.67687"><ele>137.0</ele><time>2026-04-20T09:21:02.832Z</time></trkpt><trkpt lat="37.9048433" lon="12.6770333"><ele>137.66666666666666</ele><time>2026-04-20T09:21:03.83Z</time></trkpt><trkpt lat="37.904775" lon="12.6772217"><ele>138.33333333333334</ele><time>2026-04-20T09:21:04.831Z</time></trkpt><trkpt lat="37.9047183" lon="12.6774417"><ele>139.0</ele><time>2026-04-20T09:21:05.831Z</time></trkpt><trkpt lat="37.9046617" lon="12.6776833"><ele>139.5</ele><time>2026-04-20T09:21:06.833Z</time></trkpt><trkpt lat="37.9046" lon="12.677955"><ele>140.0</ele><time>2026-04-20T09:21:07.832Z</time></trkpt><trkpt lat="37.9045283" lon="12.6782517"><ele>140.0</ele><time>2026-04-20T09:21:08.832Z</time></trkpt><trkpt lat="37.9044567" lon="12.6785467"><ele>140.0</ele><time>2026-04-20T09:21:09.831Z</time></trkpt><trkpt lat="37.9043867" lon="12.6788167"><ele>141.0</ele><time>2026-04-20T09:21:10.828Z</time></trkpt><trkpt lat="37.9043167" lon="12.67907"><ele>142.0</ele><time>2026-04-20T09:21:11.831Z</time></trkpt><trkpt lat="37.904235" lon="12.67932"><ele>143.0</ele><time>2026-04-20T09:21:12.83Z</time></trkpt><trkpt lat="37.9041283" lon="12.6795683"><ele>139.0</ele><time>2026-04-20T09:21:13.83Z</time></trkpt><trkpt lat="37.9039917" lon="12.6798167"><ele>135.0</ele><time>2026-04-20T09:21:14.831Z</time></trkpt><trkpt lat="37.9038333" lon="12.6800683"><ele>136.0</ele><time>2026-04-20T09:21:15.829Z</time></trkpt><trkpt lat="37.9036667" lon="12.680325"><ele>137.0</ele><time>2026-04-20T09:21:16.83Z</time></trkpt><trkpt lat="37.9035067" lon="12.6805767"><ele>136.5</ele><time>2026-04-20T09:21:17.829Z</time></trkpt><trkpt lat="37.9033583" lon="12.6808083"><ele>136.0</ele><time>2026-04-20T09:21:18.827Z</time></trkpt><trkpt lat="37.9032167" lon="12.68102"><ele>139.0</ele><time>2026-04-20T09:21:19.831Z</time></trkpt><trkpt lat="37.9030817" lon="12.6812067"><ele>142.0</ele><time>2026-04-20T09:21:20.832Z</time></trkpt><trkpt lat="37.9029533" lon="12.6813667"><ele>145.0</ele><time>2026-04-20T09:21:21.833Z</time></trkpt><trkpt lat="37.9028317" lon="12.6815083"><ele>145.0</ele><time>2026-04-20T09:21:22.83Z</time></trkpt><trkpt lat="37.9027183" lon="12.6816467"><ele>145.0</ele><time>2026-04-20T09:21:23.83Z</time></trkpt><trkpt lat="37.90262" lon="12.681795"><ele>145.0</ele><time>2026-04-20T09:21:24.831Z</time></trkpt><trkpt lat="37.90254" lon="12.681955"><ele>145.0</ele><time>2026-04-20T09:21:25.829Z</time></trkpt><trkpt lat="37.9024767" lon="12.682125"><ele>145.0</ele><time>2026-04-20T09:21:26.833Z</time></trkpt><trkpt lat="37.90243" lon="12.6823033"><ele>145.0</ele><time>2026-04-20T09:21:27.831Z</time></trkpt><trkpt lat="37.9023967" lon="12.682495"><ele>145.0</ele><time>2026-04-20T09:21:28.831Z</time></trkpt><trkpt lat="37.9023667" lon="12.6827033"><ele>145.0</ele><time>2026-04-20T09:21:29.827Z</time></trkpt><trkpt lat="37.902335" lon="12.6829233"><ele>145.0</ele><time>2026-04-20T09:21:30.828Z</time></trkpt><trkpt lat="37.902305" lon="12.6831333"><ele>145.75</ele><time>2026-04-20T09:21:31.827Z</time></trkpt><trkpt lat="37.9022783" lon="12.6833167"><ele>146.5</ele><time>2026-04-20T09:21:32.832Z</time></trkpt><trkpt lat="37.902255" lon="12.683475"><ele>147.25</ele><time>2026-04-20T09:21:33.832Z</time></trkpt><trkpt lat="37.9022317" lon="12.6836117"><ele>148.0</ele><time>2026-04-20T09:21:34.833Z</time></trkpt><trkpt lat="37.9021983" lon="12.6837267"><ele>148.25</ele><time>2026-04-20T09:21:35.828Z</time></trkpt><trkpt lat="37.9021417" lon="12.6838267"><ele>148.5</ele><time>2026-04-20T09:21:36.831Z</time></trkpt><trkpt lat="37.90205" lon="12.6839217"><ele>148.75</ele><time>2026-04-20T09:21:37.832Z</time></trkpt><trkpt lat="37.9019233" lon="12.684015"><ele>149.0</ele><time>2026-04-20T09:21:38.831Z</time></trkpt><trkpt lat="37.9017717" lon="12.68411"><ele>149.33333333333331</ele><time>2026-04-20T09:21:39.833Z</time></trkpt><trkpt lat="37.9015983" lon="12.6842017"><ele>149.66666666666666</ele><time>2026-04-20T09:21:40.831Z</time></trkpt><trkpt lat="37.901435" lon="12.6842817"><ele>150.0</ele><time>2026-04-20T09:21:41.832Z</time></trkpt><trkpt lat="37.9012867" lon="12.6843433"><ele>150.0</ele><time>2026-04-20T09:21:42.832Z</time></trkpt><trkpt lat="37.9011417" lon="12.6843817"><ele>150.0</ele><time>2026-04-20T09:21:43.83Z</time></trkpt><trkpt lat="37.900995" lon="12.6844"><ele>150.0</ele><time>2026-04-20T09:21:44.832Z</time></trkpt><trkpt lat="37.9008467" lon="12.6843983"><ele>150.0</ele><time>2026-04-20T09:21:45.833Z</time></trkpt><trkpt lat="37.90069" lon="12.6843767"><ele>151.5</ele><time>2026-04-20T09:21:46.829Z</time></trkpt><trkpt lat="37.9005333" lon="12.6843417"><ele>153.0</ele><time>2026-04-20T09:21:47.832Z</time></trkpt><trkpt lat="37.9003967" lon="12.684315"><ele>154.5</ele><time>2026-04-20T09:21:48.831Z</time></trkpt><trkpt lat="37.9002667" lon="12.684315"><ele>156.0</ele><time>2026-04-20T09:21:49.832Z</time></trkpt><trkpt lat="37.9001317" lon="12.6843533"><ele>160.0</ele><time>2026-04-20T09:21:50.833Z</time></trkpt><trkpt lat="37.8999867" lon="12.68443"><ele>164.0</ele><time>2026-04-20T09:21:51.833Z</time></trkpt><trkpt lat="37.8998283" lon="12.68454"><ele>168.0</ele><time>2026-04-20T09:21:52.832Z</time></trkpt><trkpt lat="37.8996533" lon="12.68467"><ele>168.0</ele><time>2026-04-20T09:21:53.833Z</time></trkpt><trkpt lat="37.8994817" lon="12.6847967"><ele>168.0</ele><time>2026-04-20T09:21:54.833Z</time></trkpt><trkpt lat="37.8993283" lon="12.684915"><ele>168.0</ele><time>2026-04-20T09:21:55.832Z</time></trkpt><trkpt lat="37.8991883" lon="12.6850167"><ele>168.66666666666666</ele><time>2026-04-20T09:21:56.831Z</time></trkpt><trkpt lat="37.8990517" lon="12.6851067"><ele>169.33333333333331</ele><time>2026-04-20T09:21:57.83Z</time></trkpt><trkpt lat="37.8989067" lon="12.6851833"><ele>170.0</ele><time>2026-04-20T09:21:58.83Z</time></trkpt><trkpt lat="37.898745" lon="12.6852483"><ele>173.0</ele><time>2026-04-20T09:21:59.83Z</time></trkpt><trkpt lat="37.89857" lon="12.6853117"><ele>176.0</ele><time>2026-04-20T09:22:00.831Z</time></trkpt><trkpt lat="37.8983883" lon="12.6853717"><ele>179.0</ele><time>2026-04-20T09:22:01.832Z</time></trkpt><trkpt lat="37.898195" lon="12.6854317"><ele>179.66666666666666</ele><time>2026-04-20T09:22:02.828Z</time></trkpt><trkpt lat="37.8979933" lon="12.6855033"><ele>180.33333333333334</ele><time>2026-04-20T09:22:03.831Z</time></trkpt><trkpt lat="37.8977917" lon="12.6855817"><ele>181.0</ele><time>2026-04-20T09:22:04.83Z</time></trkpt><trkpt lat="37.8975967" lon="12.6856567"><ele>181.0</ele><time>2026-04-20T09:22:05.831Z</time></trkpt><trkpt lat="37.89741" lon="12.6857267"><ele>181.0</ele><time>2026-04-20T09:22:06.831Z</time></trkpt><trkpt lat="37.897225" lon="12.6857867"><ele>181.0</ele><time>2026-04-20T09:22:07.828Z</time></trkpt><trkpt lat="37.8970367" lon="12.685835"><ele>181.0</ele><time>2026-04-20T09:22:08.831Z</time></trkpt><trkpt lat="37.8968433" lon="12.685865"><ele>181.0</ele><time>2026-04-20T09:22:09.83Z</time></trkpt><trkpt lat="37.8966433" lon="12.68588"><ele>181.0</ele><time>2026-04-20T09:22:10.83Z</time></trkpt><trkpt lat="37.89645" lon="12.6858883"><ele>182.33333333333334</ele><time>2026-04-20T09:22:11.831Z</time></trkpt><trkpt lat="37.89627" lon="12.685895"><ele>183.66666666666666</ele><time>2026-04-20T09:22:12.829Z</time></trkpt><trkpt lat="37.8961083" lon="12.6859"><ele>185.0</ele><time>2026-04-20T09:22:13.829Z</time></trkpt><trkpt lat="37.8959583" lon="12.6858983"><ele>186.66666666666666</ele><time>2026-04-20T09:22:14.833Z</time></trkpt><trkpt lat="37.8958067" lon="12.685885"><ele>188.33333333333334</ele><time>2026-04-20T09:22:15.832Z</time></trkpt><trkpt lat="37.895645" lon="12.6858583"><ele>190.0</ele><time>2026-04-20T09:22:16.831Z</time></trkpt><trkpt lat="37.8954767" lon="12.6858183"><ele>190.0</ele><time>2026-04-20T09:22:17.831Z</time></trkpt><trkpt lat="37.8953" lon="12.6857617"><ele>190.0</ele><time>2026-04-20T09:22:18.83Z</time></trkpt><trkpt lat="37.8951167" lon="12.6856967"><ele>190.0</ele><time>2026-04-20T09:22:19.828Z</time></trkpt><trkpt lat="37.8949433" lon="12.6856333"><ele>191.0</ele><time>2026-04-20T09:22:20.828Z</time></trkpt><trkpt lat="37.8947867" lon="12.6855783"><ele>192.0</ele><time>2026-04-20T09:22:21.833Z</time></trkpt><trkpt lat="37.894645" lon="12.6855317"><ele>193.0</ele><time>2026-04-20T09:22:22.829Z</time></trkpt><trkpt lat="37.8945217" lon="12.6854917"><ele>194.0</ele><time>2026-04-20T09:22:23.831Z</time></trkpt><trkpt lat="37.8944117" lon="12.6854583"><ele>194.0</ele><time>2026-04-20T09:22:24.832Z</time></trkpt><trkpt lat="37.8943067" lon="12.685435"><ele>194.0</ele><time>2026-04-20T09:22:25.832Z</time></trkpt><trkpt lat="37.8941983" lon="12.6854317"><ele>194.0</ele><time>2026-04-20T09:22:26.833Z</time></trkpt><trkpt lat="37.8940917" lon="12.68546"><ele>194.0</ele><time>2026-04-20T09:22:27.827Z</time></trkpt><trkpt lat="37.8939217" lon="12.6856017"><ele>193.75</ele><time>2026-04-20T09:22:29.829Z</time></trkpt><trkpt lat="37.893855" lon="12.6857267"><ele>193.5</ele><time>2026-04-20T09:22:30.829Z</time></trkpt><trkpt lat="37.8937917" lon="12.685875"><ele>193.25</ele><time>2026-04-20T09:22:31.829Z</time></trkpt><trkpt lat="37.89373" lon="12.68605"><ele>193.0</ele><time>2026-04-20T09:22:32.83Z</time></trkpt><trkpt lat="37.8936617" lon="12.6862533"><ele>195.33333333333331</ele><time>2026-04-20T09:22:33.833Z</time></trkpt><trkpt lat="37.8935833" lon="12.6864783"><ele>197.66666666666669</ele><time>2026-04-20T09:22:34.831Z</time></trkpt><trkpt lat="37.8935117" lon="12.6866933"><ele>200.0</ele><time>2026-04-20T09:22:35.83Z</time></trkpt><trkpt lat="37.8934483" lon="12.6868917"><ele>197.5</ele><time>2026-04-20T09:22:36.83Z</time></trkpt><trkpt lat="37.8933933" lon="12.6870767"><ele>195.0</ele><time>2026-04-20T09:22:37.828Z</time></trkpt><trkpt lat="37.893345" lon="12.6872467"><ele>192.5</ele><time>2026-04-20T09:22:38.831Z</time></trkpt><trkpt lat="37.8933067" lon="12.6874033"><ele>190.0</ele><time>2026-04-20T09:22:39.83Z</time></trkpt><trkpt lat="37.8932667" lon="12.6875483"><ele>190.0</ele><time>2026-04-20T09:22:40.834Z</time></trkpt><trkpt lat="37.8932283" lon="12.687695"><ele>190.0</ele><time>2026-04-20T09:22:41.831Z</time></trkpt><trkpt lat="37.893195" lon="12.68785"><ele>190.0</ele><time>2026-04-20T09:22:42.828Z</time></trkpt><trkpt lat="37.89317" lon="12.6880167"><ele>190.0</ele><time>2026-04-20T09:22:43.831Z</time></trkpt><trkpt lat="37.8931467" lon="12.6881983"><ele>189.33333333333334</ele><time>2026-04-20T09:22:44.829Z</time></trkpt><trkpt lat="37.89311" lon="12.688405"><ele>188.66666666666666</ele><time>2026-04-20T09:22:45.829Z</time></trkpt><trkpt lat="37.8930633" lon="12.6886233"><ele>188.0</ele><time>2026-04-20T09:22:46.83Z</time></trkpt><trkpt lat="37.8930183" lon="12.6888217"><ele>187.75</ele><time>2026-04-20T09:22:47.831Z</time></trkpt><trkpt lat="37.8929767" lon="12.689"><ele>187.5</ele><time>2026-04-20T09:22:48.833Z</time></trkpt><trkpt lat="37.8929433" lon="12.6891717"><ele>187.25</ele><time>2026-04-20T09:22:49.833Z</time></trkpt><trkpt lat="37.8929133" lon="12.6893417"><ele>187.0</ele><time>2026-04-20T09:22:50.834Z</time></trkpt><trkpt lat="37.8928883" lon="12.6895117"><ele>187.0</ele><time>2026-04-20T09:22:51.834Z</time></trkpt><trkpt lat="37.8928583" lon="12.6896917"><ele>187.0</ele><time>2026-04-20T09:22:52.837Z</time></trkpt><trkpt lat="37.8928217" lon="12.6898733"><ele>187.0</ele><time>2026-04-20T09:22:53.836Z</time></trkpt><trkpt lat="37.8927867" lon="12.6900483"><ele>187.0</ele><time>2026-04-20T09:22:54.836Z</time></trkpt><trkpt lat="37.892755" lon="12.6902117"><ele>186.2</ele><time>2026-04-20T09:22:55.834Z</time></trkpt><trkpt lat="37.89272" lon="12.690355"><ele>185.39999999999998</ele><time>2026-04-20T09:22:56.837Z</time></trkpt><trkpt lat="37.8926717" lon="12.690475"><ele>184.60000000000002</ele><time>2026-04-20T09:22:57.833Z</time></trkpt><trkpt lat="37.8926067" lon="12.6905733"><ele>183.8</ele><time>2026-04-20T09:22:58.831Z</time></trkpt><trkpt lat="37.8925283" lon="12.6906417"><ele>183.0</ele><time>2026-04-20T09:22:59.831Z</time></trkpt><trkpt lat="37.8924367" lon="12.6906717"><ele>182.0</ele><time>2026-04-20T09:23:00.833Z</time></trkpt><trkpt lat="37.89234" lon="12.69067"><ele>181.0</ele><time>2026-04-20T09:23:01.83Z</time></trkpt><trkpt lat="37.8922467" lon="12.690635"><ele>180.0</ele><time>2026-04-20T09:23:02.831Z</time></trkpt><trkpt lat="37.8921517" lon="12.690565"><ele>179.0</ele><time>2026-04-20T09:23:03.831Z</time></trkpt><trkpt lat="37.89204" lon="12.6904667"><ele>178.0</ele><time>2026-04-20T09:23:04.83Z</time></trkpt><trkpt lat="37.891925" lon="12.6903633"><ele>178.0</ele><time>2026-04-20T09:23:05.832Z</time></trkpt><trkpt lat="37.8918" lon="12.690275"><ele>178.0</ele><time>2026-04-20T09:23:06.828Z</time></trkpt><trkpt lat="37.8916617" lon="12.6902183"><ele>178.0</ele><time>2026-04-20T09:23:07.832Z</time></trkpt><trkpt lat="37.8915167" lon="12.69019"><ele>178.0</ele><time>2026-04-20T09:23:08.832Z</time></trkpt><trkpt lat="37.8913717" lon="12.6901917"><ele>177.0</ele><time>2026-04-20T09:23:09.829Z</time></trkpt><trkpt lat="37.891225" lon="12.690225"><ele>176.0</ele><time>2026-04-20T09:23:10.829Z</time></trkpt><trkpt lat="37.89107" lon="12.6903"><ele>175.0</ele><time>2026-04-20T09:23:11.831Z</time></trkpt><trkpt lat="37.8909017" lon="12.6904067"><ele>178.66666666666669</ele><time>2026-04-20T09:23:12.829Z</time></trkpt><trkpt lat="37.890735" lon="12.690525"><ele>182.33333333333334</ele><time>2026-04-20T09:23:13.832Z</time></trkpt><trkpt lat="37.8905733" lon="12.6906317"><ele>186.0</ele><time>2026-04-20T09:23:14.831Z</time></trkpt><trkpt lat="37.8904233" lon="12.6907217"><ele>186.0</ele><time>2026-04-20T09:23:15.829Z</time></trkpt><trkpt lat="37.890285" lon="12.690795"><ele>186.0</ele><time>2026-04-20T09:23:16.829Z</time></trkpt><trkpt lat="37.8901433" lon="12.6908683"><ele>186.0</ele><time>2026-04-20T09:23:17.831Z</time></trkpt><trkpt lat="37.8899917" lon="12.6909417"><ele>186.33333333333334</ele><time>2026-04-20T09:23:18.831Z</time></trkpt><trkpt lat="37.889825" lon="12.6910183"><ele>186.66666666666669</ele><time>2026-04-20T09:23:19.831Z</time></trkpt><trkpt lat="37.88964" lon="12.691105"><ele>187.0</ele><time>2026-04-20T09:23:20.829Z</time></trkpt><trkpt lat="37.889445" lon="12.6911967"><ele>185.0</ele><time>2026-04-20T09:23:21.831Z</time></trkpt><trkpt lat="37.889255" lon="12.6912883"><ele>183.0</ele><time>2026-04-20T09:23:22.833Z</time></trkpt><trkpt lat="37.8890733" lon="12.6913767"><ele>181.0</ele><time>2026-04-20T09:23:23.829Z</time></trkpt><trkpt lat="37.8888867" lon="12.6914667"><ele>181.0</ele><time>2026-04-20T09:23:24.83Z</time></trkpt><trkpt lat="37.88869" lon="12.6915617"><ele>181.0</ele><time>2026-04-20T09:23:25.827Z</time></trkpt><trkpt lat="37.8884833" lon="12.69166"><ele>181.0</ele><time>2026-04-20T09:23:26.832Z</time></trkpt><trkpt lat="37.8882867" lon="12.6917533"><ele>179.0</ele><time>2026-04-20T09:23:27.831Z</time></trkpt><trkpt lat="37.8881033" lon="12.69184"><ele>177.0</ele><time>2026-04-20T09:23:28.83Z</time></trkpt><trkpt lat="37.88793" lon="12.6919217"><ele>175.0</ele><time>2026-04-20T09:23:29.831Z</time></trkpt><trkpt lat="37.8877667" lon="12.6919983"><ele>174.0</ele><time>2026-04-20T09:23:30.83Z</time></trkpt><trkpt lat="37.8876083" lon="12.6920717"><ele>173.0</ele><time>2026-04-20T09:23:31.83Z</time></trkpt><trkpt lat="37.88746" lon="12.6921433"><ele>172.0</ele><time>2026-04-20T09:23:32.831Z</time></trkpt><trkpt lat="37.8873183" lon="12.69222"><ele>169.5</ele><time>2026-04-20T09:23:33.83Z</time></trkpt><trkpt lat="37.8871917" lon="12.6923133"><ele>167.0</ele><time>2026-04-20T09:23:34.832Z</time></trkpt><trkpt lat="37.887085" lon="12.6924183"><ele>164.5</ele><time>2026-04-20T09:23:35.828Z</time></trkpt><trkpt lat="37.8870017" lon="12.69253"><ele>162.0</ele><time>2026-04-20T09:23:36.831Z</time></trkpt><trkpt lat="37.88694" lon="12.6926533"><ele>162.25</ele><time>2026-04-20T09:23:37.831Z</time></trkpt><trkpt lat="37.8868933" lon="12.6928033"><ele>162.5</ele><time>2026-04-20T09:23:38.831Z</time></trkpt><trkpt lat="37.8868583" lon="12.6929633"><ele>162.75</ele><time>2026-04-20T09:23:39.83Z</time></trkpt><trkpt lat="37.8868267" lon="12.69311"><ele>163.0</ele><time>2026-04-20T09:23:40.829Z</time></trkpt><trkpt lat="37.8867817" lon="12.69322"><ele>162.8</ele><time>2026-04-20T09:23:41.833Z</time></trkpt><trkpt lat="37.886715" lon="12.6932967"><ele>162.60000000000002</ele><time>2026-04-20T09:23:42.832Z</time></trkpt><trkpt lat="37.88663" lon="12.6933433"><ele>162.39999999999998</ele><time>2026-04-20T09:23:43.832Z</time></trkpt><trkpt lat="37.8865233" lon="12.6933383"><ele>162.2</ele><time>2026-04-20T09:23:44.832Z</time></trkpt><trkpt lat="37.8864067" lon="12.693295"><ele>162.0</ele><time>2026-04-20T09:23:45.83Z</time></trkpt><trkpt lat="37.886275" lon="12.6932167"><ele>162.0</ele><time>2026-04-20T09:23:46.83Z</time></trkpt><trkpt lat="37.886135" lon="12.6931217"><ele>162.0</ele><time>2026-04-20T09:23:47.828Z</time></trkpt><trkpt lat="37.8859867" lon="12.6930233"><ele>162.0</ele><time>2026-04-20T09:23:48.827Z</time></trkpt><trkpt lat="37.8858383" lon="12.69293"><ele>164.0</ele><time>2026-04-20T09:23:49.831Z</time></trkpt><trkpt lat="37.88569" lon="12.6928417"><ele>166.0</ele><time>2026-04-20T09:23:50.832Z</time></trkpt><trkpt lat="37.8855333" lon="12.6927667"><ele>168.0</ele><time>2026-04-20T09:23:51.831Z</time></trkpt><trkpt lat="37.8853533" lon="12.6927083"><ele>164.66666666666666</ele><time>2026-04-20T09:23:52.829Z</time></trkpt><trkpt lat="37.8851583" lon="12.6926633"><ele>161.33333333333331</ele><time>2026-04-20T09:23:53.83Z</time></trkpt><trkpt lat="37.88496" lon="12.6926233"><ele>158.0</ele><time>2026-04-20T09:23:54.834Z</time></trkpt><trkpt lat="37.8847733" lon="12.6925833"><ele>158.0</ele><time>2026-04-20T09:23:55.833Z</time></trkpt><trkpt lat="37.88461" lon="12.6925483"><ele>158.0</ele><time>2026-04-20T09:23:56.836Z</time></trkpt><trkpt lat="37.8844667" lon="12.6925283"><ele>158.0</ele><time>2026-04-20T09:23:57.832Z</time></trkpt><trkpt lat="37.8843317" lon="12.6925317"><ele>158.0</ele><time>2026-04-20T09:23:58.838Z</time></trkpt><trkpt lat="37.8842017" lon="12.6925567"><ele>157.5</ele><time>2026-04-20T09:23:59.834Z</time></trkpt><trkpt lat="37.8840833" lon="12.6926"><ele>157.0</ele><time>2026-04-20T09:24:00.834Z</time></trkpt><trkpt lat="37.88397" lon="12.69266"><ele>156.5</ele><time>2026-04-20T09:24:01.831Z</time></trkpt><trkpt lat="37.8838583" lon="12.692735"><ele>156.0</ele><time>2026-04-20T09:24:02.829Z</time></trkpt><trkpt lat="37.8837367" lon="12.6928233"><ele>157.0</ele><time>2026-04-20T09:24:03.831Z</time></trkpt><trkpt lat="37.8836083" lon="12.6929283"><ele>158.0</ele><time>2026-04-20T09:24:04.833Z</time></trkpt><trkpt lat="37.8834733" lon="12.6930433"><ele>159.0</ele><time>2026-04-20T09:24:05.829Z</time></trkpt><trkpt lat="37.8833367" lon="12.693175"><ele>159.0</ele><time>2026-04-20T09:24:06.831Z</time></trkpt><trkpt lat="37.8832033" lon="12.693325"><ele>159.0</ele><time>2026-04-20T09:24:07.829Z</time></trkpt><trkpt lat="37.8830817" lon="12.6934783"><ele>159.0</ele><time>2026-04-20T09:24:08.829Z</time></trkpt><trkpt lat="37.882975" lon="12.6936217"><ele>159.66666666666666</ele><time>2026-04-20T09:24:09.829Z</time></trkpt><trkpt lat="37.8828767" lon="12.69377"><ele>160.33333333333331</ele><time>2026-04-20T09:24:10.83Z</time></trkpt><trkpt lat="37.8827883" lon="12.693935"><ele>161.0</ele><time>2026-04-20T09:24:11.83Z</time></trkpt><trkpt lat="37.8827017" lon="12.6941233"><ele>161.0</ele><time>2026-04-20T09:24:12.831Z</time></trkpt><trkpt lat="37.88262" lon="12.694335"><ele>161.0</ele><time>2026-04-20T09:24:13.83Z</time></trkpt><trkpt lat="37.88254" lon="12.6945567"><ele>161.0</ele><time>2026-04-20T09:24:14.83Z</time></trkpt><trkpt lat="37.8824583" lon="12.6947733"><ele>160.66666666666666</ele><time>2026-04-20T09:24:15.827Z</time></trkpt><trkpt lat="37.8823783" lon="12.6949883"><ele>160.33333333333334</ele><time>2026-04-20T09:24:16.832Z</time></trkpt><trkpt lat="37.8823033" lon="12.6951917"><ele>160.0</ele><time>2026-04-20T09:24:17.83Z</time></trkpt><trkpt lat="37.8822317" lon="12.69538"><ele>160.0</ele><time>2026-04-20T09:24:18.831Z</time></trkpt><trkpt lat="37.8821667" lon="12.69556"><ele>160.0</ele><time>2026-04-20T09:24:19.831Z</time></trkpt><trkpt lat="37.8821067" lon="12.695755"><ele>160.0</ele><time>2026-04-20T09:24:20.83Z</time></trkpt><trkpt lat="37.88206" lon="12.69597"><ele>160.0</ele><time>2026-04-20T09:24:21.83Z</time></trkpt><trkpt lat="37.8820267" lon="12.69619"><ele>160.0</ele><time>2026-04-20T09:24:22.83Z</time></trkpt><trkpt lat="37.881995" lon="12.696385"><ele>160.0</ele><time>2026-04-20T09:24:23.828Z</time></trkpt><trkpt lat="37.8819483" lon="12.6965617"><ele>160.0</ele><time>2026-04-20T09:24:24.832Z</time></trkpt><trkpt lat="37.8818817" lon="12.6967217"><ele>160.0</ele><time>2026-04-20T09:24:25.832Z</time></trkpt><trkpt lat="37.8817067" lon="12.6969867"><ele>160.0</ele><time>2026-04-20T09:24:27.832Z</time></trkpt><trkpt lat="37.881605" lon="12.6970883"><ele>158.66666666666669</ele><time>2026-04-20T09:24:28.827Z</time></trkpt><trkpt lat="37.8814783" lon="12.6971717"><ele>157.33333333333334</ele><time>2026-04-20T09:24:29.831Z</time></trkpt><trkpt lat="37.8813217" lon="12.6972383"><ele>156.0</ele><time>2026-04-20T09:24:30.83Z</time></trkpt><trkpt lat="37.8811467" lon="12.6972933"><ele>156.0</ele><time>2026-04-20T09:24:31.83Z</time></trkpt><trkpt lat="37.880975" lon="12.6973433"><ele>156.0</ele><time>2026-04-20T09:24:32.832Z</time></trkpt><trkpt lat="37.8808183" lon="12.6973967"><ele>156.0</ele><time>2026-04-20T09:24:33.831Z</time></trkpt><trkpt lat="37.8806783" lon="12.6974683"><ele>156.66666666666666</ele><time>2026-04-20T09:24:34.828Z</time></trkpt><trkpt lat="37.8805467" lon="12.6975683"><ele>157.33333333333331</ele><time>2026-04-20T09:24:35.831Z</time></trkpt><trkpt lat="37.88041" lon="12.697695"><ele>158.0</ele><time>2026-04-20T09:24:36.831Z</time></trkpt><trkpt lat="37.8802667" lon="12.6978517"><ele>158.0</ele><time>2026-04-20T09:24:37.835Z</time></trkpt><trkpt lat="37.8801183" lon="12.6980333"><ele>158.0</ele><time>2026-04-20T09:24:38.827Z</time></trkpt><trkpt lat="37.8799733" lon="12.6982167"><ele>158.0</ele><time>2026-04-20T09:24:39.83Z</time></trkpt><trkpt lat="37.8798283" lon="12.6983967"><ele>157.33333333333331</ele><time>2026-04-20T09:24:40.831Z</time></trkpt><trkpt lat="37.8796817" lon="12.6985833"><ele>156.66666666666666</ele><time>2026-04-20T09:24:41.83Z</time></trkpt><trkpt lat="37.8795317" lon="12.698775"><ele>156.0</ele><time>2026-04-20T09:24:42.834Z</time></trkpt><trkpt lat="37.8793867" lon="12.6989533"><ele>153.0</ele><time>2026-04-20T09:24:43.827Z</time></trkpt><trkpt lat="37.8792567" lon="12.6991117"><ele>150.0</ele><time>2026-04-20T09:24:44.833Z</time></trkpt><trkpt lat="37.8791333" lon="12.6992583"><ele>147.0</ele><time>2026-04-20T09:24:45.831Z</time></trkpt><trkpt lat="37.879005" lon="12.699405"><ele>148.0</ele><time>2026-04-20T09:24:46.831Z</time></trkpt><trkpt lat="37.8788667" lon="12.699555"><ele>149.0</ele><time>2026-04-20T09:24:47.83Z</time></trkpt><trkpt lat="37.87871" lon="12.6997067"><ele>150.0</ele><time>2026-04-20T09:24:48.83Z</time></trkpt><trkpt lat="37.8785367" lon="12.6998633"><ele>149.0</ele><time>2026-04-20T09:24:49.829Z</time></trkpt><trkpt lat="37.87836" lon="12.7000233"><ele>148.0</ele><time>2026-04-20T09:24:50.828Z</time></trkpt><trkpt lat="37.87819" lon="12.7001767"><ele>147.0</ele><time>2026-04-20T09:24:51.831Z</time></trkpt><trkpt lat="37.8780333" lon="12.7003217"><ele>147.0</ele><time>2026-04-20T09:24:52.832Z</time></trkpt><trkpt lat="37.8778883" lon="12.7004667"><ele>147.0</ele><time>2026-04-20T09:24:53.829Z</time></trkpt><trkpt lat="37.8777567" lon="12.7006283"><ele>147.0</ele><time>2026-04-20T09:24:54.828Z</time></trkpt><trkpt lat="37.8776283" lon="12.7008183"><ele>147.0</ele><time>2026-04-20T09:24:55.831Z</time></trkpt><trkpt lat="37.8775033" lon="12.7010367"><ele>147.0</ele><time>2026-04-20T09:24:56.836Z</time></trkpt><trkpt lat="37.87738" lon="12.701275"><ele>147.0</ele><time>2026-04-20T09:24:57.834Z</time></trkpt><trkpt lat="37.8772483" lon="12.7015317"><ele>147.0</ele><time>2026-04-20T09:24:58.831Z</time></trkpt><trkpt lat="37.8771067" lon="12.7017983"><ele>147.0</ele><time>2026-04-20T09:24:59.831Z</time></trkpt><trkpt lat="37.8769617" lon="12.7020733"><ele>147.0</ele><time>2026-04-20T09:25:00.838Z</time></trkpt><trkpt lat="37.8768217" lon="12.702335"><ele>147.0</ele><time>2026-04-20T09:25:01.837Z</time></trkpt><trkpt lat="37.87669" lon="12.7025767"><ele>148.0</ele><time>2026-04-20T09:25:02.835Z</time></trkpt><trkpt lat="37.87657" lon="12.70279"><ele>149.0</ele><time>2026-04-20T09:25:03.83Z</time></trkpt><trkpt lat="37.8764633" lon="12.702985"><ele>150.0</ele><time>2026-04-20T09:25:04.83Z</time></trkpt><trkpt lat="37.8763667" lon="12.703165"><ele>150.0</ele><time>2026-04-20T09:25:05.83Z</time></trkpt><trkpt lat="37.8762733" lon="12.70334"><ele>150.0</ele><time>2026-04-20T09:25:06.83Z</time></trkpt><trkpt lat="37.876185" lon="12.7035167"><ele>150.0</ele><time>2026-04-20T09:25:07.831Z</time></trkpt><trkpt lat="37.8760917" lon="12.703695"><ele>149.0</ele><time>2026-04-20T09:25:08.833Z</time></trkpt><trkpt lat="37.876" lon="12.703865"><ele>148.0</ele><time>2026-04-20T09:25:09.83Z</time></trkpt><trkpt lat="37.8759133" lon="12.7040233"><ele>147.0</ele><time>2026-04-20T09:25:10.83Z</time></trkpt><trkpt lat="37.875835" lon="12.7041733"><ele>147.0</ele><time>2026-04-20T09:25:11.831Z</time></trkpt><trkpt lat="37.875765" lon="12.7043217"><ele>147.0</ele><time>2026-04-20T09:25:12.832Z</time></trkpt><trkpt lat="37.8757167" lon="12.7044717"><ele>147.0</ele><time>2026-04-20T09:25:13.83Z</time></trkpt><trkpt lat="37.8757" lon="12.70462"><ele>147.0</ele><time>2026-04-20T09:25:14.827Z</time></trkpt><trkpt lat="37.8757183" lon="12.7047683"><ele>147.66666666666666</ele><time>2026-04-20T09:25:15.831Z</time></trkpt><trkpt lat="37.8757717" lon="12.7049217"><ele>148.33333333333331</ele><time>2026-04-20T09:25:16.827Z</time></trkpt><trkpt lat="37.87586" lon="12.7050783"><ele>149.0</ele><time>2026-04-20T09:25:17.834Z</time></trkpt><trkpt lat="37.8759833" lon="12.705245"><ele>150.0</ele><time>2026-04-20T09:25:18.832Z</time></trkpt><trkpt lat="37.8761267" lon="12.7054183"><ele>151.0</ele><time>2026-04-20T09:25:19.829Z</time></trkpt><trkpt lat="37.8762783" lon="12.7056"><ele>152.0</ele><time>2026-04-20T09:25:20.83Z</time></trkpt><trkpt lat="37.8764267" lon="12.7057817"><ele>152.0</ele><time>2026-04-20T09:25:21.83Z</time></trkpt><trkpt lat="37.8765633" lon="12.7059533"><ele>152.0</ele><time>2026-04-20T09:25:22.829Z</time></trkpt><trkpt lat="37.87669" lon="12.70613"><ele>152.0</ele><time>2026-04-20T09:25:23.832Z</time></trkpt><trkpt lat="37.8768117" lon="12.70633"><ele>153.0</ele><time>2026-04-20T09:25:24.831Z</time></trkpt><trkpt lat="37.876925" lon="12.7065433"><ele>154.0</ele><time>2026-04-20T09:25:25.829Z</time></trkpt><trkpt lat="37.8770267" lon="12.7067467"><ele>155.0</ele><time>2026-04-20T09:25:26.831Z</time></trkpt><trkpt lat="37.87712" lon="12.70693"><ele>156.33333333333331</ele><time>2026-04-20T09:25:27.831Z</time></trkpt><trkpt lat="37.8772" lon="12.7071033"><ele>157.66666666666666</ele><time>2026-04-20T09:25:28.83Z</time></trkpt><trkpt lat="37.8772667" lon="12.70728"><ele>159.0</ele><time>2026-04-20T09:25:29.832Z</time></trkpt><trkpt lat="37.8773133" lon="12.707475"><ele>159.0</ele><time>2026-04-20T09:25:30.831Z</time></trkpt><trkpt lat="37.8773467" lon="12.7076967"><ele>159.0</ele><time>2026-04-20T09:25:31.828Z</time></trkpt><trkpt lat="37.87737" lon="12.7079167"><ele>159.0</ele><time>2026-04-20T09:25:32.83Z</time></trkpt><trkpt lat="37.8773867" lon="12.7081083"><ele>159.0</ele><time>2026-04-20T09:25:33.828Z</time></trkpt><trkpt lat="37.8773967" lon="12.7082733"><ele>159.0</ele><time>2026-04-20T09:25:34.831Z</time></trkpt><trkpt lat="37.8773867" lon="12.708425"><ele>159.0</ele><time>2026-04-20T09:25:35.833Z</time></trkpt><trkpt lat="37.877345" lon="12.7085767"><ele>159.0</ele><time>2026-04-20T09:25:36.828Z</time></trkpt><trkpt lat="37.877275" lon="12.70874"><ele>159.0</ele><time>2026-04-20T09:25:37.831Z</time></trkpt><trkpt lat="37.8771767" lon="12.7089167"><ele>159.0</ele><time>2026-04-20T09:25:38.827Z</time></trkpt><trkpt lat="37.87707" lon="12.7091017"><ele>159.0</ele><time>2026-04-20T09:25:39.828Z</time></trkpt><trkpt lat="37.8769817" lon="12.70926"><ele>159.0</ele><time>2026-04-20T09:25:40.827Z</time></trkpt><trkpt lat="37.8769067" lon="12.709395"><ele>159.0</ele><time>2026-04-20T09:25:41.828Z</time></trkpt><trkpt lat="37.876835" lon="12.7095183"><ele>159.0</ele><time>2026-04-20T09:25:42.83Z</time></trkpt><trkpt lat="37.876745" lon="12.70961"><ele>159.0</ele><time>2026-04-20T09:25:43.831Z</time></trkpt><trkpt lat="37.87663" lon="12.7096817"><ele>159.33333333333334</ele><time>2026-04-20T09:25:44.829Z</time></trkpt><trkpt lat="37.8764833" lon="12.7097417"><ele>159.66666666666669</ele><time>2026-04-20T09:25:45.829Z</time></trkpt><trkpt lat="37.8763283" lon="12.7097933"><ele>160.0</ele><time>2026-04-20T09:25:46.833Z</time></trkpt><trkpt lat="37.8761933" lon="12.70985"><ele>160.0</ele><time>2026-04-20T09:25:47.831Z</time></trkpt><trkpt lat="37.8760817" lon="12.70993"><ele>160.0</ele><time>2026-04-20T09:25:48.828Z</time></trkpt><trkpt lat="37.875985" lon="12.71005"><ele>160.0</ele><time>2026-04-20T09:25:49.831Z</time></trkpt><trkpt lat="37.8758983" lon="12.7102217"><ele>160.0</ele><time>2026-04-20T09:25:50.829Z</time></trkpt><trkpt lat="37.875805" lon="12.7104417"><ele>161.0</ele><time>2026-04-20T09:25:51.828Z</time></trkpt><trkpt lat="37.8756983" lon="12.710695"><ele>162.0</ele><time>2026-04-20T09:25:52.831Z</time></trkpt><trkpt lat="37.8755767" lon="12.7109817"><ele>162.0</ele><time>2026-04-20T09:25:53.832Z</time></trkpt><trkpt lat="37.8754467" lon="12.7112867"><ele>162.0</ele><time>2026-04-20T09:25:54.827Z</time></trkpt><trkpt lat="37.875315" lon="12.7115967"><ele>162.0</ele><time>2026-04-20T09:25:55.831Z</time></trkpt><trkpt lat="37.8751867" lon="12.7118983"><ele>162.0</ele><time>2026-04-20T09:25:56.829Z</time></trkpt><trkpt lat="37.8750683" lon="12.7121867"><ele>162.0</ele><time>2026-04-20T09:25:57.831Z</time></trkpt><trkpt lat="37.874955" lon="12.7124533"><ele>162.0</ele><time>2026-04-20T09:25:58.832Z</time></trkpt><trkpt lat="37.8748467" lon="12.7127133"><ele>162.5</ele><time>2026-04-20T09:25:59.834Z</time></trkpt><trkpt lat="37.874735" lon="12.712975"><ele>163.0</ele><time>2026-04-20T09:26:00.836Z</time></trkpt><trkpt lat="37.8746267" lon="12.7132383"><ele>163.0</ele><time>2026-04-20T09:26:01.832Z</time></trkpt><trkpt lat="37.87452" lon="12.7134983"><ele>163.0</ele><time>2026-04-20T09:26:02.832Z</time></trkpt><trkpt lat="37.8744133" lon="12.71375"><ele>162.5</ele><time>2026-04-20T09:26:03.833Z</time></trkpt><trkpt lat="37.8743067" lon="12.7139983"><ele>162.0</ele><time>2026-04-20T09:26:04.827Z</time></trkpt><trkpt lat="37.8742" lon="12.7142533"><ele>164.5</ele><time>2026-04-20T09:26:05.831Z</time></trkpt><trkpt lat="37.87409" lon="12.714525"><ele>167.0</ele><time>2026-04-20T09:26:06.831Z</time></trkpt><trkpt lat="37.8739767" lon="12.71481"><ele>167.0</ele><time>2026-04-20T09:26:07.828Z</time></trkpt><trkpt lat="37.873855" lon="12.7150983"><ele>167.0</ele><time>2026-04-20T09:26:08.83Z</time></trkpt><trkpt lat="37.8737383" lon="12.71538"><ele>166.66666666666666</ele><time>2026-04-20T09:26:09.83Z</time></trkpt><trkpt lat="37.87363" lon="12.7156383"><ele>166.33333333333334</ele><time>2026-04-20T09:26:10.832Z</time></trkpt><trkpt lat="37.8735283" lon="12.7158767"><ele>166.0</ele><time>2026-04-20T09:26:11.833Z</time></trkpt><trkpt lat="37.8734367" lon="12.7160983"><ele>167.33333333333334</ele><time>2026-04-20T09:26:12.832Z</time></trkpt><trkpt lat="37.8733483" lon="12.7163033"><ele>168.66666666666666</ele><time>2026-04-20T09:26:13.83Z</time></trkpt><trkpt lat="37.873265" lon="12.7164883"><ele>170.0</ele><time>2026-04-20T09:26:14.831Z</time></trkpt><trkpt lat="37.873175" lon="12.716655"><ele>170.0</ele><time>2026-04-20T09:26:15.831Z</time></trkpt><trkpt lat="37.8730867" lon="12.7168033"><ele>170.0</ele><time>2026-04-20T09:26:16.83Z</time></trkpt><trkpt lat="37.873" lon="12.71693"><ele>170.0</ele><time>2026-04-20T09:26:17.831Z</time></trkpt><trkpt lat="37.87291" lon="12.7170317"><ele>170.0</ele><time>2026-04-20T09:26:18.832Z</time></trkpt><trkpt lat="37.8728067" lon="12.7171117"><ele>169.5</ele><time>2026-04-20T09:26:19.828Z</time></trkpt><trkpt lat="37.8726817" lon="12.7171683"><ele>169.0</ele><time>2026-04-20T09:26:20.832Z</time></trkpt><trkpt lat="37.8725583" lon="12.7172"><ele>168.5</ele><time>2026-04-20T09:26:21.83Z</time></trkpt><trkpt lat="37.872455" lon="12.7172467"><ele>168.0</ele><time>2026-04-20T09:26:22.831Z</time></trkpt><trkpt lat="37.872375" lon="12.71734"><ele>168.25</ele><time>2026-04-20T09:26:23.829Z</time></trkpt><trkpt lat="37.8723083" lon="12.7174833"><ele>168.5</ele><time>2026-04-20T09:26:24.828Z</time></trkpt><trkpt lat="37.8722583" lon="12.7176617"><ele>168.75</ele><time>2026-04-20T09:26:25.831Z</time></trkpt><trkpt lat="37.8722167" lon="12.7178633"><ele>169.0</ele><time>2026-04-20T09:26:26.832Z</time></trkpt><trkpt lat="37.8721633" lon="12.7180833"><ele>169.0</ele><time>2026-04-20T09:26:27.831Z</time></trkpt><trkpt lat="37.8721017" lon="12.7183167"><ele>169.0</ele><time>2026-04-20T09:26:28.83Z</time></trkpt><trkpt lat="37.8720417" lon="12.7185383"><ele>169.0</ele><time>2026-04-20T09:26:29.829Z</time></trkpt><trkpt lat="37.8719833" lon="12.7187367"><ele>169.75</ele><time>2026-04-20T09:26:30.831Z</time></trkpt><trkpt lat="37.8719283" lon="12.7189"><ele>170.5</ele><time>2026-04-20T09:26:31.833Z</time></trkpt><trkpt lat="37.8718717" lon="12.7190333"><ele>171.25</ele><time>2026-04-20T09:26:32.827Z</time></trkpt><trkpt lat="37.8717983" lon="12.71914"><ele>172.0</ele><time>2026-04-20T09:26:33.829Z</time></trkpt><trkpt lat="37.8716933" lon="12.7192317"><ele>172.0</ele><time>2026-04-20T09:26:34.83Z</time></trkpt><trkpt lat="37.8715533" lon="12.719315"><ele>172.0</ele><time>2026-04-20T09:26:35.832Z</time></trkpt><trkpt lat="37.8713833" lon="12.719405"><ele>172.0</ele><time>2026-04-20T09:26:36.83Z</time></trkpt><trkpt lat="37.8712017" lon="12.7195017"><ele>172.33333333333334</ele><time>2026-04-20T09:26:37.832Z</time></trkpt><trkpt lat="37.87102" lon="12.719605"><ele>172.66666666666666</ele><time>2026-04-20T09:26:38.834Z</time></trkpt><trkpt lat="37.8708467" lon="12.7197167"><ele>173.0</ele><time>2026-04-20T09:26:39.827Z</time></trkpt><trkpt lat="37.8706933" lon="12.7198467"><ele>173.0</ele><time>2026-04-20T09:26:40.83Z</time></trkpt><trkpt lat="37.870545" lon="12.7200017"><ele>173.0</ele><time>2026-04-20T09:26:41.829Z</time></trkpt><trkpt lat="37.8703917" lon="12.7201817"><ele>173.0</ele><time>2026-04-20T09:26:42.831Z</time></trkpt><trkpt lat="37.8702317" lon="12.720385"><ele>174.5</ele><time>2026-04-20T09:26:43.831Z</time></trkpt><trkpt lat="37.870065" lon="12.720605"><ele>176.0</ele><time>2026-04-20T09:26:44.832Z</time></trkpt><trkpt lat="37.869895" lon="12.7208283"><ele>176.5</ele><time>2026-04-20T09:26:45.831Z</time></trkpt><trkpt lat="37.8697117" lon="12.7210667"><ele>177.0</ele><time>2026-04-20T09:26:46.838Z</time></trkpt><trkpt lat="37.869525" lon="12.721305"><ele>177.0</ele><time>2026-04-20T09:26:47.833Z</time></trkpt><trkpt lat="37.8693517" lon="12.7215333"><ele>177.0</ele><time>2026-04-20T09:26:48.832Z</time></trkpt><trkpt lat="37.869195" lon="12.7217367"><ele>177.33333333333334</ele><time>2026-04-20T09:26:49.833Z</time></trkpt><trkpt lat="37.8690517" lon="12.7219233"><ele>177.66666666666669</ele><time>2026-04-20T09:26:50.833Z</time></trkpt><trkpt lat="37.8689217" lon="12.7220917"><ele>178.0</ele><time>2026-04-20T09:26:51.83Z</time></trkpt><trkpt lat="37.86881" lon="12.72226"><ele>178.0</ele><time>2026-04-20T09:26:52.831Z</time></trkpt><trkpt lat="37.8687167" lon="12.7224533"><ele>178.0</ele><time>2026-04-20T09:26:53.831Z</time></trkpt><trkpt lat="37.8686367" lon="12.722675"><ele>178.0</ele><time>2026-04-20T09:26:54.832Z</time></trkpt><trkpt lat="37.8685683" lon="12.7229117"><ele>178.66666666666669</ele><time>2026-04-20T09:26:55.831Z</time></trkpt><trkpt lat="37.8685133" lon="12.723135"><ele>179.33333333333334</ele><time>2026-04-20T09:26:56.831Z</time></trkpt><trkpt lat="37.8684683" lon="12.7233283"><ele>180.0</ele><time>2026-04-20T09:26:57.83Z</time></trkpt><trkpt lat="37.8684217" lon="12.7234883"><ele>181.25</ele><time>2026-04-20T09:26:58.832Z</time></trkpt><trkpt lat="37.8683633" lon="12.7236233"><ele>182.5</ele><time>2026-04-20T09:26:59.83Z</time></trkpt><trkpt lat="37.8682867" lon="12.723735"><ele>183.75</ele><time>2026-04-20T09:27:00.834Z</time></trkpt><trkpt lat="37.8681833" lon="12.7238317"><ele>185.0</ele><time>2026-04-20T09:27:01.836Z</time></trkpt><trkpt lat="37.868065" lon="12.723915"><ele>185.0</ele><time>2026-04-20T09:27:02.828Z</time></trkpt><trkpt lat="37.86796" lon="12.7239883"><ele>185.0</ele><time>2026-04-20T09:27:03.832Z</time></trkpt><trkpt lat="37.8678717" lon="12.724035"><ele>185.0</ele><time>2026-04-20T09:27:04.833Z</time></trkpt><trkpt lat="37.867795" lon="12.7240483"><ele>185.0</ele><time>2026-04-20T09:27:05.834Z</time></trkpt><trkpt lat="37.8677183" lon="12.724035"><ele>185.0</ele><time>2026-04-20T09:27:06.832Z</time></trkpt><trkpt lat="37.8676383" lon="12.723995"><ele>185.75</ele><time>2026-04-20T09:27:07.831Z</time></trkpt><trkpt lat="37.8675533" lon="12.723925"><ele>186.5</ele><time>2026-04-20T09:27:08.833Z</time></trkpt><trkpt lat="37.8674583" lon="12.7238117"><ele>187.25</ele><time>2026-04-20T09:27:09.831Z</time></trkpt><trkpt lat="37.8673517" lon="12.7236717"><ele>188.0</ele><time>2026-04-20T09:27:10.828Z</time></trkpt><trkpt lat="37.8672267" lon="12.7235067"><ele>188.0</ele><time>2026-04-20T09:27:11.83Z</time></trkpt><trkpt lat="37.8670833" lon="12.723315"><ele>188.0</ele><time>2026-04-20T09:27:12.832Z</time></trkpt><trkpt lat="37.8669383" lon="12.72311"><ele>188.0</ele><time>2026-04-20T09:27:13.831Z</time></trkpt><trkpt lat="37.8668017" lon="12.722905"><ele>188.0</ele><time>2026-04-20T09:27:14.835Z</time></trkpt><trkpt lat="37.8666683" lon="12.7227"><ele>188.0</ele><time>2026-04-20T09:27:15.83Z</time></trkpt><trkpt lat="37.8665383" lon="12.722495"><ele>188.0</ele><time>2026-04-20T09:27:16.828Z</time></trkpt><trkpt lat="37.8664067" lon="12.7222883"><ele>188.0</ele><time>2026-04-20T09:27:17.832Z</time></trkpt><trkpt lat="37.8662767" lon="12.7220817"><ele>188.0</ele><time>2026-04-20T09:27:18.831Z</time></trkpt><trkpt lat="37.8661467" lon="12.721875"><ele>188.0</ele><time>2026-04-20T09:27:19.83Z</time></trkpt><trkpt lat="37.8660167" lon="12.7216717"><ele>186.66666666666666</ele><time>2026-04-20T09:27:20.83Z</time></trkpt><trkpt lat="37.8658883" lon="12.7214683"><ele>185.33333333333334</ele><time>2026-04-20T09:27:21.83Z</time></trkpt><trkpt lat="37.8657633" lon="12.7212633"><ele>184.0</ele><time>2026-04-20T09:27:22.829Z</time></trkpt><trkpt lat="37.8656383" lon="12.721065"><ele>184.0</ele><time>2026-04-20T09:27:23.832Z</time></trkpt><trkpt lat="37.86552" lon="12.7208783"><ele>184.0</ele><time>2026-04-20T09:27:24.829Z</time></trkpt><trkpt lat="37.8654067" lon="12.7206983"><ele>184.0</ele><time>2026-04-20T09:27:25.831Z</time></trkpt><trkpt lat="37.8653017" lon="12.7205267"><ele>184.0</ele><time>2026-04-20T09:27:26.83Z</time></trkpt><trkpt lat="37.8652017" lon="12.7203683"><ele>184.0</ele><time>2026-04-20T09:27:27.833Z</time></trkpt><trkpt lat="37.8651117" lon="12.7202267"><ele>184.0</ele><time>2026-04-20T09:27:28.831Z</time></trkpt><trkpt lat="37.865025" lon="12.720085"><ele>184.0</ele><time>2026-04-20T09:27:29.828Z</time></trkpt><trkpt lat="37.86493" lon="12.71993"><ele>184.0</ele><time>2026-04-20T09:27:30.829Z</time></trkpt><trkpt lat="37.864825" lon="12.7197583"><ele>184.0</ele><time>2026-04-20T09:27:31.831Z</time></trkpt><trkpt lat="37.8647133" lon="12.71958"><ele>184.0</ele><time>2026-04-20T09:27:32.829Z</time></trkpt><trkpt lat="37.8645983" lon="12.7193933"><ele>184.0</ele><time>2026-04-20T09:27:33.832Z</time></trkpt><trkpt lat="37.86448" lon="12.719205"><ele>184.0</ele><time>2026-04-20T09:27:34.831Z</time></trkpt><trkpt lat="37.8643633" lon="12.71901"><ele>184.0</ele><time>2026-04-20T09:27:35.831Z</time></trkpt><trkpt lat="37.8642483" lon="12.7188117"><ele>186.0</ele><time>2026-04-20T09:27:36.827Z</time></trkpt><trkpt lat="37.8641383" lon="12.71861"><ele>188.0</ele><time>2026-04-20T09:27:37.829Z</time></trkpt><trkpt lat="37.86394" lon="12.7182367"><ele>189.0</ele><time>2026-04-20T09:27:39.83Z</time></trkpt><trkpt lat="37.86385" lon="12.7180583"><ele>190.0</ele><time>2026-04-20T09:27:40.829Z</time></trkpt><trkpt lat="37.86376" lon="12.7178867"><ele>191.0</ele><time>2026-04-20T09:27:41.829Z</time></trkpt><trkpt lat="37.8636783" lon="12.71773"><ele>191.33333333333331</ele><time>2026-04-20T09:27:42.828Z</time></trkpt><trkpt lat="37.863595" lon="12.7175733"><ele>191.66666666666666</ele><time>2026-04-20T09:27:43.828Z</time></trkpt><trkpt lat="37.8635033" lon="12.71741"><ele>192.0</ele><time>2026-04-20T09:27:44.828Z</time></trkpt><trkpt lat="37.8633817" lon="12.7172667"><ele>194.33333333333331</ele><time>2026-04-20T09:27:45.829Z</time></trkpt><trkpt lat="37.8632467" lon="12.717125"><ele>196.66666666666666</ele><time>2026-04-20T09:27:46.827Z</time></trkpt><trkpt lat="37.8631" lon="12.7169817"><ele>199.0</ele><time>2026-04-20T09:27:47.829Z</time></trkpt><trkpt lat="37.8629417" lon="12.7168183"><ele>199.33333333333331</ele><time>2026-04-20T09:27:48.832Z</time></trkpt><trkpt lat="37.8627733" lon="12.7166517"><ele>199.66666666666669</ele><time>2026-04-20T09:27:49.83Z</time></trkpt><trkpt lat="37.862595" lon="12.7164917"><ele>200.0</ele><time>2026-04-20T09:27:50.83Z</time></trkpt><trkpt lat="37.862415" lon="12.7163267"><ele>200.66666666666669</ele><time>2026-04-20T09:27:51.829Z</time></trkpt><trkpt lat="37.8622383" lon="12.7161583"><ele>201.33333333333331</ele><time>2026-04-20T09:27:52.828Z</time></trkpt><trkpt lat="37.8620617" lon="12.715995"><ele>202.0</ele><time>2026-04-20T09:27:53.829Z</time></trkpt><trkpt lat="37.8618833" lon="12.7158333"><ele>203.33333333333331</ele><time>2026-04-20T09:27:54.83Z</time></trkpt><trkpt lat="37.861705" lon="12.7156717"><ele>204.66666666666669</ele><time>2026-04-20T09:27:55.831Z</time></trkpt><trkpt lat="37.8615283" lon="12.7155117"><ele>206.0</ele><time>2026-04-20T09:27:56.836Z</time></trkpt><trkpt lat="37.8613533" lon="12.715355"><ele>206.0</ele><time>2026-04-20T09:27:57.83Z</time></trkpt><trkpt lat="37.86118" lon="12.7152083"><ele>206.0</ele><time>2026-04-20T09:27:58.831Z</time></trkpt><trkpt lat="37.8610017" lon="12.7150617"><ele>206.0</ele><time>2026-04-20T09:27:59.831Z</time></trkpt><trkpt lat="37.8608167" lon="12.7149233"><ele>207.33333333333334</ele><time>2026-04-20T09:28:00.829Z</time></trkpt><trkpt lat="37.860625" lon="12.7147867"><ele>208.66666666666669</ele><time>2026-04-20T09:28:01.828Z</time></trkpt><trkpt lat="37.86043" lon="12.7146483"><ele>210.0</ele><time>2026-04-20T09:28:02.829Z</time></trkpt><trkpt lat="37.8602383" lon="12.7145183"><ele>211.0</ele><time>2026-04-20T09:28:03.831Z</time></trkpt><trkpt lat="37.8600533" lon="12.7143933"><ele>212.0</ele><time>2026-04-20T09:28:04.828Z</time></trkpt><trkpt lat="37.8598667" lon="12.7142667"><ele>213.0</ele><time>2026-04-20T09:28:05.828Z</time></trkpt><trkpt lat="37.859675" lon="12.7141333"><ele>213.0</ele><time>2026-04-20T09:28:06.828Z</time></trkpt><trkpt lat="37.85948" lon="12.714"><ele>213.0</ele><time>2026-04-20T09:28:07.83Z</time></trkpt><trkpt lat="37.85928" lon="12.7138667"><ele>213.0</ele><time>2026-04-20T09:28:08.834Z</time></trkpt><trkpt lat="37.85909" lon="12.7137367"><ele>214.66666666666669</ele><time>2026-04-20T09:28:09.831Z</time></trkpt><trkpt lat="37.858905" lon="12.7136033"><ele>216.33333333333334</ele><time>2026-04-20T09:28:10.828Z</time></trkpt><trkpt lat="37.85872" lon="12.7134633"><ele>218.0</ele><time>2026-04-20T09:28:11.828Z</time></trkpt><trkpt lat="37.8585267" lon="12.71333"><ele>219.33333333333334</ele><time>2026-04-20T09:28:12.833Z</time></trkpt><trkpt lat="37.8583383" lon="12.7132017"><ele>220.66666666666669</ele><time>2026-04-20T09:28:13.829Z</time></trkpt><trkpt lat="37.8581633" lon="12.7130833"><ele>222.0</ele><time>2026-04-20T09:28:14.832Z</time></trkpt><trkpt lat="37.8580033" lon="12.7129767"><ele>222.0</ele><time>2026-04-20T09:28:15.832Z</time></trkpt><trkpt lat="37.8578617" lon="12.7128767"><ele>222.0</ele><time>2026-04-20T09:28:16.827Z</time></trkpt><trkpt lat="37.8577317" lon="12.7127833"><ele>222.0</ele><time>2026-04-20T09:28:17.828Z</time></trkpt><trkpt lat="37.8576067" lon="12.7127067"><ele>222.75</ele><time>2026-04-20T09:28:18.83Z</time></trkpt><trkpt lat="37.85748" lon="12.71265"><ele>223.5</ele><time>2026-04-20T09:28:19.831Z</time></trkpt><trkpt lat="37.8573517" lon="12.7126133"><ele>224.25</ele><time>2026-04-20T09:28:20.832Z</time></trkpt><trkpt lat="37.8572117" lon="12.7126033"><ele>225.0</ele><time>2026-04-20T09:28:21.832Z</time></trkpt><trkpt lat="37.8570617" lon="12.7126183"><ele>225.0</ele><time>2026-04-20T09:28:22.831Z</time></trkpt><trkpt lat="37.8569" lon="12.7126483"><ele>225.0</ele><time>2026-04-20T09:28:23.833Z</time></trkpt><trkpt lat="37.8567283" lon="12.71269"><ele>225.0</ele><time>2026-04-20T09:28:24.836Z</time></trkpt><trkpt lat="37.8565567" lon="12.7127333"><ele>224.0</ele><time>2026-04-20T09:28:25.838Z</time></trkpt><trkpt lat="37.8563967" lon="12.7127733"><ele>223.0</ele><time>2026-04-20T09:28:26.835Z</time></trkpt><trkpt lat="37.8562533" lon="12.7128117"><ele>222.0</ele><time>2026-04-20T09:28:27.841Z</time></trkpt><trkpt lat="37.8561233" lon="12.7128467"><ele>221.0</ele><time>2026-04-20T09:28:28.838Z</time></trkpt><trkpt lat="37.8560083" lon="12.71289"><ele>223.25</ele><time>2026-04-20T09:28:29.834Z</time></trkpt><trkpt lat="37.8559" lon="12.7129467"><ele>225.5</ele><time>2026-04-20T09:28:30.831Z</time></trkpt><trkpt lat="37.8557967" lon="12.71302"><ele>227.75</ele><time>2026-04-20T09:28:31.829Z</time></trkpt><trkpt lat="37.855695" lon="12.7131083"><ele>230.0</ele><time>2026-04-20T09:28:32.833Z</time></trkpt><trkpt lat="37.85559" lon="12.7132133"><ele>230.0</ele><time>2026-04-20T09:28:33.829Z</time></trkpt><trkpt lat="37.8554783" lon="12.713325"><ele>230.0</ele><time>2026-04-20T09:28:34.83Z</time></trkpt><trkpt lat="37.8553583" lon="12.7134433"><ele>230.0</ele><time>2026-04-20T09:28:35.83Z</time></trkpt><trkpt lat="37.855225" lon="12.7135733"><ele>231.66666666666669</ele><time>2026-04-20T09:28:36.831Z</time></trkpt><trkpt lat="37.85509" lon="12.7137117"><ele>233.33333333333331</ele><time>2026-04-20T09:28:37.832Z</time></trkpt><trkpt lat="37.8549633" lon="12.7138417"><ele>235.0</ele><time>2026-04-20T09:28:38.83Z</time></trkpt><trkpt lat="37.85485" lon="12.7139517"><ele>235.0</ele><time>2026-04-20T09:28:39.83Z</time></trkpt><trkpt lat="37.854745" lon="12.7140367"><ele>235.0</ele><time>2026-04-20T09:28:40.832Z</time></trkpt><trkpt lat="37.854645" lon="12.7140883"><ele>235.0</ele><time>2026-04-20T09:28:41.833Z</time></trkpt><trkpt lat="37.8545417" lon="12.71411"><ele>235.0</ele><time>2026-04-20T09:28:42.83Z</time></trkpt><trkpt lat="37.854425" lon="12.7140967"><ele>235.0</ele><time>2026-04-20T09:28:43.83Z</time></trkpt><trkpt lat="37.8542983" lon="12.7140617"><ele>235.0</ele><time>2026-04-20T09:28:44.829Z</time></trkpt><trkpt lat="37.85418" lon="12.7140133"><ele>235.0</ele><time>2026-04-20T09:28:45.831Z</time></trkpt><trkpt lat="37.854085" lon="12.7139583"><ele>235.0</ele><time>2026-04-20T09:28:46.829Z</time></trkpt><trkpt lat="37.8540033" lon="12.71389"><ele>236.2</ele><time>2026-04-20T09:28:47.831Z</time></trkpt><trkpt lat="37.8539433" lon="12.7137983"><ele>237.4</ele><time>2026-04-20T09:28:48.832Z</time></trkpt><trkpt lat="37.8539017" lon="12.7136867"><ele>238.60000000000002</ele><time>2026-04-20T09:28:49.829Z</time></trkpt><trkpt lat="37.85388" lon="12.7135517"><ele>239.8</ele><time>2026-04-20T09:28:50.832Z</time></trkpt><trkpt lat="37.853875" lon="12.7133883"><ele>241.0</ele><time>2026-04-20T09:28:51.83Z</time></trkpt><trkpt lat="37.8538817" lon="12.7131983"><ele>242.66666666666666</ele><time>2026-04-20T09:28:52.831Z</time></trkpt><trkpt lat="37.8538967" lon="12.7129833"><ele>244.33333333333331</ele><time>2026-04-20T09:28:53.831Z</time></trkpt><trkpt lat="37.8539067" lon="12.7127667"><ele>246.0</ele><time>2026-04-20T09:28:54.83Z</time></trkpt><trkpt lat="37.85392" lon="12.7125633"><ele>246.0</ele><time>2026-04-20T09:28:55.832Z</time></trkpt><trkpt lat="37.8539483" lon="12.71236"><ele>246.0</ele><time>2026-04-20T09:28:56.83Z</time></trkpt><trkpt lat="37.8539917" lon="12.712165"><ele>246.0</ele><time>2026-04-20T09:28:57.832Z</time></trkpt><trkpt lat="37.85404" lon="12.7119767"><ele>248.66666666666669</ele><time>2026-04-20T09:28:58.831Z</time></trkpt><trkpt lat="37.8540967" lon="12.7117867"><ele>251.33333333333334</ele><time>2026-04-20T09:28:59.831Z</time></trkpt><trkpt lat="37.8541633" lon="12.7115933"><ele>254.0</ele><time>2026-04-20T09:29:00.83Z</time></trkpt><trkpt lat="37.8542383" lon="12.7113917"><ele>254.66666666666669</ele><time>2026-04-20T09:29:01.829Z</time></trkpt><trkpt lat="37.85431" lon="12.7111833"><ele>255.33333333333331</ele><time>2026-04-20T09:29:02.831Z</time></trkpt><trkpt lat="37.8543733" lon="12.7109833"><ele>256.0</ele><time>2026-04-20T09:29:03.828Z</time></trkpt><trkpt lat="37.8544267" lon="12.7108033"><ele>256.0</ele><time>2026-04-20T09:29:04.827Z</time></trkpt><trkpt lat="37.8544717" lon="12.7106267"><ele>256.0</ele><time>2026-04-20T09:29:05.83Z</time></trkpt><trkpt lat="37.85451" lon="12.7104367"><ele>256.0</ele><time>2026-04-20T09:29:06.831Z</time></trkpt><trkpt lat="37.8545467" lon="12.71023"><ele>257.0</ele><time>2026-04-20T09:29:07.831Z</time></trkpt><trkpt lat="37.8545833" lon="12.7100233"><ele>258.0</ele><time>2026-04-20T09:29:08.827Z</time></trkpt><trkpt lat="37.8546133" lon="12.7098417"><ele>259.0</ele><time>2026-04-20T09:29:09.828Z</time></trkpt><trkpt lat="37.85464" lon="12.7096917"><ele>260.0</ele><time>2026-04-20T09:29:10.83Z</time></trkpt><trkpt lat="37.8546617" lon="12.7095717"><ele>260.0</ele><time>2026-04-20T09:29:11.83Z</time></trkpt><trkpt lat="37.8546817" lon="12.7094733"><ele>260.0</ele><time>2026-04-20T09:29:12.832Z</time></trkpt><trkpt lat="37.8547" lon="12.7093833"><ele>260.0</ele><time>2026-04-20T09:29:13.832Z</time></trkpt><trkpt lat="37.85472" lon="12.7092817"><ele>260.0</ele><time>2026-04-20T09:29:14.834Z</time></trkpt><trkpt lat="37.8547433" lon="12.7091383"><ele>260.0</ele><time>2026-04-20T09:29:15.831Z</time></trkpt><trkpt lat="37.8547733" lon="12.708965"><ele>263.0</ele><time>2026-04-20T09:29:16.832Z</time></trkpt><trkpt lat="37.8548067" lon="12.7087633"><ele>266.0</ele><time>2026-04-20T09:29:17.832Z</time></trkpt><trkpt lat="37.854845" lon="12.70854"><ele>269.0</ele><time>2026-04-20T09:29:18.831Z</time></trkpt><trkpt lat="37.85488" lon="12.7083217"><ele>270.5</ele><time>2026-04-20T09:29:19.828Z</time></trkpt><trkpt lat="37.8549133" lon="12.7081233"><ele>272.0</ele><time>2026-04-20T09:29:20.833Z</time></trkpt><trkpt lat="37.854945" lon="12.7079417"><ele>273.5</ele><time>2026-04-20T09:29:21.833Z</time></trkpt><trkpt lat="37.85497" lon="12.7077833"><ele>275.0</ele><time>2026-04-20T09:29:22.831Z</time></trkpt><trkpt lat="37.8549917" lon="12.7076517"><ele>276.0</ele><time>2026-04-20T09:29:23.832Z</time></trkpt><trkpt lat="37.85501" lon="12.7075317"><ele>277.0</ele><time>2026-04-20T09:29:24.836Z</time></trkpt><trkpt lat="37.85503" lon="12.7074133"><ele>278.0</ele><time>2026-04-20T09:29:25.834Z</time></trkpt><trkpt lat="37.8550583" lon="12.7072833"><ele>279.0</ele><time>2026-04-20T09:29:26.833Z</time></trkpt><trkpt lat="37.8551067" lon="12.7071417"><ele>280.0</ele><time>2026-04-20T09:29:27.837Z</time></trkpt><trkpt lat="37.85517" lon="12.7069867"><ele>283.3333333333333</ele><time>2026-04-20T09:29:28.835Z</time></trkpt><trkpt lat="37.8552467" lon="12.7068217"><ele>286.6666666666667</ele><time>2026-04-20T09:29:29.832Z</time></trkpt><trkpt lat="37.8553333" lon="12.706645"><ele>290.0</ele><time>2026-04-20T09:29:30.833Z</time></trkpt><trkpt lat="37.8554233" lon="12.7064667"><ele>290.0</ele><time>2026-04-20T09:29:31.83Z</time></trkpt><trkpt lat="37.8555033" lon="12.7063"><ele>290.0</ele><time>2026-04-20T09:29:32.834Z</time></trkpt><trkpt lat="37.85557" lon="12.7061567"><ele>290.0</ele><time>2026-04-20T09:29:33.83Z</time></trkpt><trkpt lat="37.85563" lon="12.7060317"><ele>290.0</ele><time>2026-04-20T09:29:34.831Z</time></trkpt><trkpt lat="37.8556917" lon="12.705915"><ele>288.25</ele><time>2026-04-20T09:29:35.828Z</time></trkpt><trkpt lat="37.8557717" lon="12.7057967"><ele>286.5</ele><time>2026-04-20T09:29:36.828Z</time></trkpt><trkpt lat="37.8558683" lon="12.7056783"><ele>284.75</ele><time>2026-04-20T09:29:37.828Z</time></trkpt><trkpt lat="37.8559783" lon="12.7055567"><ele>283.0</ele><time>2026-04-20T09:29:38.83Z</time></trkpt><trkpt lat="37.8561017" lon="12.7054283"><ele>284.3333333333333</ele><time>2026-04-20T09:29:39.829Z</time></trkpt><trkpt lat="37.8562333" lon="12.7052883"><ele>285.6666666666667</ele><time>2026-04-20T09:29:40.834Z</time></trkpt><trkpt lat="37.8563583" lon="12.70515"><ele>287.0</ele><time>2026-04-20T09:29:41.831Z</time></trkpt><trkpt lat="37.856465" lon="12.705015"><ele>287.0</ele><time>2026-04-20T09:29:42.83Z</time></trkpt><trkpt lat="37.8565483" lon="12.7048783"><ele>287.0</ele><time>2026-04-20T09:29:43.83Z</time></trkpt><trkpt lat="37.85661" lon="12.7047317"><ele>287.0</ele><time>2026-04-20T09:29:44.83Z</time></trkpt><trkpt lat="37.8566583" lon="12.7045717"><ele>287.0</ele><time>2026-04-20T09:29:45.829Z</time></trkpt><trkpt lat="37.8566933" lon="12.70438"><ele>288.6666666666667</ele><time>2026-04-20T09:29:46.834Z</time></trkpt><trkpt lat="37.856725" lon="12.70416"><ele>290.3333333333333</ele><time>2026-04-20T09:29:47.832Z</time></trkpt><trkpt lat="37.85676" lon="12.70392"><ele>292.0</ele><time>2026-04-20T09:29:48.831Z</time></trkpt><trkpt lat="37.8568" lon="12.7036617"><ele>289.5</ele><time>2026-04-20T09:29:49.834Z</time></trkpt><trkpt lat="37.8568417" lon="12.7033883"><ele>287.0</ele><time>2026-04-20T09:29:50.832Z</time></trkpt><trkpt lat="37.85689" lon="12.7031017"><ele>287.0</ele><time>2026-04-20T09:29:51.834Z</time></trkpt><trkpt lat="37.85694" lon="12.7028167"><ele>287.0</ele><time>2026-04-20T09:29:52.831Z</time></trkpt><trkpt lat="37.85699" lon="12.702545"><ele>284.6666666666667</ele><time>2026-04-20T09:29:53.832Z</time></trkpt><trkpt lat="37.8570383" lon="12.70229"><ele>282.3333333333333</ele><time>2026-04-20T09:29:54.833Z</time></trkpt><trkpt lat="37.8570833" lon="12.7020483"><ele>280.0</ele><time>2026-04-20T09:29:55.831Z</time></trkpt><trkpt lat="37.8571233" lon="12.7018183"><ele>277.66666666666663</ele><time>2026-04-20T09:29:56.828Z</time></trkpt><trkpt lat="37.8571633" lon="12.701595"><ele>275.3333333333333</ele><time>2026-04-20T09:29:57.832Z</time></trkpt><trkpt lat="37.8572067" lon="12.7013733"><ele>273.0</ele><time>2026-04-20T09:29:58.828Z</time></trkpt><trkpt lat="37.8572467" lon="12.701155"><ele>272.6666666666667</ele><time>2026-04-20T09:29:59.832Z</time></trkpt><trkpt lat="37.8572883" lon="12.7009367"><ele>272.33333333333337</ele><time>2026-04-20T09:30:00.833Z</time></trkpt><trkpt lat="37.8573333" lon="12.7007083"><ele>272.0</ele><time>2026-04-20T09:30:01.831Z</time></trkpt><trkpt lat="37.8573917" lon="12.7004867"><ele>272.0</ele><time>2026-04-20T09:30:02.83Z</time></trkpt><trkpt lat="37.8574417" lon="12.7002583"><ele>272.0</ele><time>2026-04-20T09:30:03.832Z</time></trkpt><trkpt lat="37.857475" lon="12.7000633"><ele>272.0</ele><time>2026-04-20T09:30:04.829Z</time></trkpt><trkpt lat="37.85751" lon="12.6998967"><ele>271.5</ele><time>2026-04-20T09:30:05.83Z</time></trkpt><trkpt lat="37.8575483" lon="12.699755"><ele>271.0</ele><time>2026-04-20T09:30:06.83Z</time></trkpt><trkpt lat="37.8576517" lon="12.6996383"><ele>270.5</ele><time>2026-04-20T09:30:07.83Z</time></trkpt><trkpt lat="37.8577617" lon="12.6995067"><ele>270.0</ele><time>2026-04-20T09:30:08.83Z</time></trkpt><trkpt lat="37.8578883" lon="12.69938"><ele>269.5</ele><time>2026-04-20T09:30:09.83Z</time></trkpt><trkpt lat="37.8580083" lon="12.699265"><ele>269.0</ele><time>2026-04-20T09:30:10.829Z</time></trkpt><trkpt lat="37.8581233" lon="12.6991683"><ele>268.5</ele><time>2026-04-20T09:30:11.83Z</time></trkpt><trkpt lat="37.8582183" lon="12.6990917"><ele>268.0</ele><time>2026-04-20T09:30:12.829Z</time></trkpt><trkpt lat="37.8583183" lon="12.6990467"><ele>268.0</ele><time>2026-04-20T09:30:13.828Z</time></trkpt><trkpt lat="37.858405" lon="12.6990183"><ele>268.0</ele><time>2026-04-20T09:30:14.83Z</time></trkpt><trkpt lat="37.8585" lon="12.6990183"><ele>268.0</ele><time>2026-04-20T09:30:15.833Z</time></trkpt><trkpt lat="37.8586117" lon="12.69907"><ele>268.0</ele><time>2026-04-20T09:30:16.829Z</time></trkpt><trkpt lat="37.85874" lon="12.699145"><ele>268.0</ele><time>2026-04-20T09:30:17.83Z</time></trkpt><trkpt lat="37.8588783" lon="12.6992133"><ele>267.75</ele><time>2026-04-20T09:30:18.834Z</time></trkpt><trkpt lat="37.85901" lon="12.6992533"><ele>267.5</ele><time>2026-04-20T09:30:19.833Z</time></trkpt><trkpt lat="37.8591383" lon="12.699265"><ele>267.25</ele><time>2026-04-20T09:30:20.834Z</time></trkpt><trkpt lat="37.8592767" lon="12.69925"><ele>267.0</ele><time>2026-04-20T09:30:21.834Z</time></trkpt><trkpt lat="37.8594183" lon="12.6992283"><ele>267.0</ele><time>2026-04-20T09:30:22.834Z</time></trkpt><trkpt lat="37.8595517" lon="12.6991983"><ele>267.0</ele><time>2026-04-20T09:30:23.832Z</time></trkpt><trkpt lat="37.8596683" lon="12.699165"><ele>267.0</ele><time>2026-04-20T09:30:24.835Z</time></trkpt><trkpt lat="37.8597733" lon="12.69912"><ele>267.0</ele><time>2026-04-20T09:30:25.833Z</time></trkpt><trkpt lat="37.859865" lon="12.69905"><ele>267.0</ele><time>2026-04-20T09:30:26.829Z</time></trkpt><trkpt lat="37.859945" lon="12.6989483"><ele>267.0</ele><time>2026-04-20T09:30:27.832Z</time></trkpt><trkpt lat="37.8600167" lon="12.69881"><ele>267.0</ele><time>2026-04-20T09:30:28.833Z</time></trkpt><trkpt lat="37.860085" lon="12.6986433"><ele>267.0</ele><time>2026-04-20T09:30:29.834Z</time></trkpt><trkpt lat="37.8601533" lon="12.6984467"><ele>263.6666666666667</ele><time>2026-04-20T09:30:30.834Z</time></trkpt><trkpt lat="37.8602283" lon="12.69823"><ele>260.33333333333337</ele><time>2026-04-20T09:30:31.833Z</time></trkpt><trkpt lat="37.860305" lon="12.6980067"><ele>257.0</ele><time>2026-04-20T09:30:32.832Z</time></trkpt><trkpt lat="37.8603867" lon="12.6977833"><ele>256.0</ele><time>2026-04-20T09:30:33.832Z</time></trkpt><trkpt lat="37.860465" lon="12.6975633"><ele>255.0</ele><time>2026-04-20T09:30:34.834Z</time></trkpt><trkpt lat="37.8605367" lon="12.69736"><ele>254.0</ele><time>2026-04-20T09:30:35.832Z</time></trkpt><trkpt lat="37.8605967" lon="12.6971733"><ele>254.0</ele><time>2026-04-20T09:30:36.836Z</time></trkpt><trkpt lat="37.8606433" lon="12.6969917"><ele>254.0</ele><time>2026-04-20T09:30:37.833Z</time></trkpt><trkpt lat="37.860675" lon="12.6967967"><ele>254.0</ele><time>2026-04-20T09:30:38.832Z</time></trkpt><trkpt lat="37.8606967" lon="12.6965783"><ele>253.66666666666669</ele><time>2026-04-20T09:30:39.832Z</time></trkpt><trkpt lat="37.8607133" lon="12.6963417"><ele>253.33333333333331</ele><time>2026-04-20T09:30:40.833Z</time></trkpt><trkpt lat="37.8607283" lon="12.6960883"><ele>253.0</ele><time>2026-04-20T09:30:41.831Z</time></trkpt><trkpt lat="37.8607467" lon="12.69583"><ele>251.0</ele><time>2026-04-20T09:30:42.83Z</time></trkpt><trkpt lat="37.8607633" lon="12.69558"><ele>249.0</ele><time>2026-04-20T09:30:43.833Z</time></trkpt><trkpt lat="37.8607783" lon="12.6953417"><ele>247.0</ele><time>2026-04-20T09:30:44.831Z</time></trkpt><trkpt lat="37.8607933" lon="12.69512"><ele>245.75</ele><time>2026-04-20T09:30:45.83Z</time></trkpt><trkpt lat="37.8608083" lon="12.694915"><ele>244.5</ele><time>2026-04-20T09:30:46.828Z</time></trkpt><trkpt lat="37.8608183" lon="12.6947333"><ele>243.25</ele><time>2026-04-20T09:30:47.829Z</time></trkpt><trkpt lat="37.8608117" lon="12.69457"><ele>242.0</ele><time>2026-04-20T09:30:48.831Z</time></trkpt><trkpt lat="37.8607833" lon="12.694415"><ele>241.75</ele><time>2026-04-20T09:30:49.834Z</time></trkpt><trkpt lat="37.860725" lon="12.6942617"><ele>241.5</ele><time>2026-04-20T09:30:50.833Z</time></trkpt><trkpt lat="37.8606417" lon="12.6941133"><ele>241.25</ele><time>2026-04-20T09:30:51.831Z</time></trkpt><trkpt lat="37.8605333" lon="12.6939583"><ele>241.0</ele><time>2026-04-20T09:30:52.831Z</time></trkpt><trkpt lat="37.8604083" lon="12.6937917"><ele>241.0</ele><time>2026-04-20T09:30:53.833Z</time></trkpt><trkpt lat="37.8602717" lon="12.69361"><ele>241.0</ele><time>2026-04-20T09:30:54.833Z</time></trkpt><trkpt lat="37.8601333" lon="12.6934183"><ele>241.0</ele><time>2026-04-20T09:30:55.837Z</time></trkpt><trkpt lat="37.8599967" lon="12.6932317"><ele>239.66666666666666</ele><time>2026-04-20T09:30:56.828Z</time></trkpt><trkpt lat="37.8598683" lon="12.6930583"><ele>238.33333333333331</ele><time>2026-04-20T09:30:57.833Z</time></trkpt><trkpt lat="37.8597417" lon="12.6929033"><ele>237.0</ele><time>2026-04-20T09:30:58.832Z</time></trkpt><trkpt lat="37.8596117" lon="12.6927683"><ele>237.0</ele><time>2026-04-20T09:30:59.828Z</time></trkpt><trkpt lat="37.8594667" lon="12.6926533"><ele>237.0</ele><time>2026-04-20T09:31:00.835Z</time></trkpt><trkpt lat="37.8592967" lon="12.6925483"><ele>237.0</ele><time>2026-04-20T09:31:01.829Z</time></trkpt><trkpt lat="37.85911" lon="12.692445"><ele>236.66666666666669</ele><time>2026-04-20T09:31:02.831Z</time></trkpt><trkpt lat="37.85891" lon="12.69234"><ele>236.33333333333334</ele><time>2026-04-20T09:31:03.83Z</time></trkpt><trkpt lat="37.858695" lon="12.6922283"><ele>236.0</ele><time>2026-04-20T09:31:04.831Z</time></trkpt><trkpt lat="37.8584733" lon="12.692115"><ele>236.0</ele><time>2026-04-20T09:31:05.832Z</time></trkpt><trkpt lat="37.8582467" lon="12.6920017"><ele>236.0</ele><time>2026-04-20T09:31:06.83Z</time></trkpt><trkpt lat="37.8580217" lon="12.6918867"><ele>236.0</ele><time>2026-04-20T09:31:07.832Z</time></trkpt><trkpt lat="37.8577967" lon="12.69177"><ele>236.0</ele><time>2026-04-20T09:31:08.831Z</time></trkpt><trkpt lat="37.8575767" lon="12.6916533"><ele>236.0</ele><time>2026-04-20T09:31:09.834Z</time></trkpt><trkpt lat="37.85736" lon="12.69154"><ele>236.0</ele><time>2026-04-20T09:31:10.829Z</time></trkpt><trkpt lat="37.8571483" lon="12.6914267"><ele>236.0</ele><time>2026-04-20T09:31:11.831Z</time></trkpt><trkpt lat="37.8569367" lon="12.6913167"><ele>236.0</ele><time>2026-04-20T09:31:12.829Z</time></trkpt><trkpt lat="37.8567267" lon="12.69121"><ele>234.0</ele><time>2026-04-20T09:31:13.829Z</time></trkpt><trkpt lat="37.8565167" lon="12.6911033"><ele>232.0</ele><time>2026-04-20T09:31:14.828Z</time></trkpt><trkpt lat="37.856305" lon="12.6909933"><ele>234.5</ele><time>2026-04-20T09:31:15.829Z</time></trkpt><trkpt lat="37.85609" lon="12.6908817"><ele>237.0</ele><time>2026-04-20T09:31:16.831Z</time></trkpt><trkpt lat="37.855875" lon="12.6907683"><ele>237.0</ele><time>2026-04-20T09:31:17.829Z</time></trkpt><trkpt lat="37.85566" lon="12.6906533"><ele>237.0</ele><time>2026-04-20T09:31:18.831Z</time></trkpt><trkpt lat="37.8554417" lon="12.6905367"><ele>237.0</ele><time>2026-04-20T09:31:19.83Z</time></trkpt><trkpt lat="37.8552233" lon="12.69042"><ele>237.0</ele><time>2026-04-20T09:31:20.828Z</time></trkpt><trkpt lat="37.8550033" lon="12.690305"><ele>239.0</ele><time>2026-04-20T09:31:21.829Z</time></trkpt><trkpt lat="37.8547933" lon="12.690195"><ele>241.0</ele><time>2026-04-20T09:31:22.831Z</time></trkpt><trkpt lat="37.8546" lon="12.6900883"><ele>243.0</ele><time>2026-04-20T09:31:23.831Z</time></trkpt><trkpt lat="37.854425" lon="12.689985"><ele>242.33333333333331</ele><time>2026-04-20T09:31:24.83Z</time></trkpt><trkpt lat="37.8542567" lon="12.689875"><ele>241.66666666666666</ele><time>2026-04-20T09:31:25.833Z</time></trkpt><trkpt lat="37.8540867" lon="12.6897467"><ele>241.0</ele><time>2026-04-20T09:31:26.835Z</time></trkpt><trkpt lat="37.8539083" lon="12.6896017"><ele>241.0</ele><time>2026-04-20T09:31:27.831Z</time></trkpt><trkpt lat="37.8537333" lon="12.6894533"><ele>241.0</ele><time>2026-04-20T09:31:28.831Z</time></trkpt><trkpt lat="37.8535683" lon="12.6893167"><ele>241.0</ele><time>2026-04-20T09:31:29.832Z</time></trkpt><trkpt lat="37.853415" lon="12.6891883"><ele>243.33333333333331</ele><time>2026-04-20T09:31:30.835Z</time></trkpt><trkpt lat="37.85327" lon="12.6890633"><ele>245.66666666666669</ele><time>2026-04-20T09:31:31.832Z</time></trkpt><trkpt lat="37.8531283" lon="12.6889367"><ele>248.0</ele><time>2026-04-20T09:31:32.831Z</time></trkpt><trkpt lat="37.8529833" lon="12.6887917"><ele>248.0</ele><time>2026-04-20T09:31:33.832Z</time></trkpt><trkpt lat="37.8528367" lon="12.6886283"><ele>248.0</ele><time>2026-04-20T09:31:34.829Z</time></trkpt><trkpt lat="37.852695" lon="12.6884617"><ele>248.0</ele><time>2026-04-20T09:31:35.829Z</time></trkpt><trkpt lat="37.852565" lon="12.688305"><ele>248.66666666666669</ele><time>2026-04-20T09:31:36.831Z</time></trkpt><trkpt lat="37.8524433" lon="12.68816"><ele>249.33333333333331</ele><time>2026-04-20T09:31:37.829Z</time></trkpt><trkpt lat="37.8523183" lon="12.6880117"><ele>250.0</ele><time>2026-04-20T09:31:38.831Z</time></trkpt><trkpt lat="37.8521867" lon="12.6878567"><ele>251.0</ele><time>2026-04-20T09:31:39.831Z</time></trkpt><trkpt lat="37.852055" lon="12.6876967"><ele>252.0</ele><time>2026-04-20T09:31:40.832Z</time></trkpt><trkpt lat="37.8519167" lon="12.687535"><ele>253.0</ele><time>2026-04-20T09:31:41.833Z</time></trkpt><trkpt lat="37.8517833" lon="12.6873767"><ele>253.0</ele><time>2026-04-20T09:31:42.831Z</time></trkpt><trkpt lat="37.8516583" lon="12.6872317"><ele>253.0</ele><time>2026-04-20T09:31:43.831Z</time></trkpt><trkpt lat="37.8515433" lon="12.6870967"><ele>253.0</ele><time>2026-04-20T09:31:44.832Z</time></trkpt><trkpt lat="37.8514433" lon="12.6869683"><ele>256.25</ele><time>2026-04-20T09:31:45.828Z</time></trkpt><trkpt lat="37.851355" lon="12.6868367"><ele>259.5</ele><time>2026-04-20T09:31:46.832Z</time></trkpt><trkpt lat="37.8512683" lon="12.6866917"><ele>262.75</ele><time>2026-04-20T09:31:47.83Z</time></trkpt><trkpt lat="37.85119" lon="12.68653"><ele>266.0</ele><time>2026-04-20T09:31:48.831Z</time></trkpt><trkpt lat="37.8511233" lon="12.6863767"><ele>266.0</ele><time>2026-04-20T09:31:49.83Z</time></trkpt><trkpt lat="37.8510667" lon="12.6862383"><ele>266.0</ele><time>2026-04-20T09:31:50.833Z</time></trkpt><trkpt lat="37.8510217" lon="12.6861083"><ele>266.0</ele><time>2026-04-20T09:31:51.832Z</time></trkpt><trkpt lat="37.850985" lon="12.68598"><ele>266.0</ele><time>2026-04-20T09:31:52.831Z</time></trkpt><trkpt lat="37.8509667" lon="12.685845"><ele>267.75</ele><time>2026-04-20T09:31:53.831Z</time></trkpt><trkpt lat="37.85097" lon="12.685695"><ele>269.5</ele><time>2026-04-20T09:31:54.833Z</time></trkpt><trkpt lat="37.8509883" lon="12.6855383"><ele>271.25</ele><time>2026-04-20T09:31:55.833Z</time></trkpt><trkpt lat="37.8510133" lon="12.685395"><ele>273.0</ele><time>2026-04-20T09:31:56.829Z</time></trkpt><trkpt lat="37.8510483" lon="12.6852683"><ele>270.5</ele><time>2026-04-20T09:31:57.833Z</time></trkpt><trkpt lat="37.851105" lon="12.6851483"><ele>268.0</ele><time>2026-04-20T09:31:58.83Z</time></trkpt><trkpt lat="37.8511833" lon="12.685025"><ele>265.5</ele><time>2026-04-20T09:31:59.829Z</time></trkpt><trkpt lat="37.8512833" lon="12.6848983"><ele>263.0</ele><time>2026-04-20T09:32:00.832Z</time></trkpt><trkpt lat="37.8513967" lon="12.6847667"><ele>263.0</ele><time>2026-04-20T09:32:01.83Z</time></trkpt><trkpt lat="37.851515" lon="12.6846267"><ele>263.0</ele><time>2026-04-20T09:32:02.832Z</time></trkpt><trkpt lat="37.8516383" lon="12.6844833"><ele>263.0</ele><time>2026-04-20T09:32:03.83Z</time></trkpt><trkpt lat="37.851755" lon="12.6843483"><ele>260.75</ele><time>2026-04-20T09:32:04.833Z</time></trkpt><trkpt lat="37.8518617" lon="12.6842267"><ele>258.5</ele><time>2026-04-20T09:32:05.834Z</time></trkpt><trkpt lat="37.8519583" lon="12.68412"><ele>256.25</ele><time>2026-04-20T09:32:06.832Z</time></trkpt><trkpt lat="37.8520517" lon="12.6840367"><ele>254.0</ele><time>2026-04-20T09:32:07.83Z</time></trkpt><trkpt lat="37.8521483" lon="12.6839817"><ele>254.0</ele><time>2026-04-20T09:32:08.833Z</time></trkpt><trkpt lat="37.8522517" lon="12.6839517"><ele>254.0</ele><time>2026-04-20T09:32:09.832Z</time></trkpt><trkpt lat="37.852365" lon="12.68395"><ele>254.0</ele><time>2026-04-20T09:32:10.828Z</time></trkpt><trkpt lat="37.8524917" lon="12.683975"><ele>254.0</ele><time>2026-04-20T09:32:11.831Z</time></trkpt><trkpt lat="37.8526233" lon="12.68401"><ele>254.5</ele><time>2026-04-20T09:32:12.83Z</time></trkpt><trkpt lat="37.852745" lon="12.68403"><ele>255.0</ele><time>2026-04-20T09:32:13.832Z</time></trkpt><trkpt lat="37.8528617" lon="12.6840267"><ele>255.5</ele><time>2026-04-20T09:32:14.831Z</time></trkpt><trkpt lat="37.8529733" lon="12.6839967"><ele>256.0</ele><time>2026-04-20T09:32:15.83Z</time></trkpt><trkpt lat="37.85307" lon="12.6839383"><ele>256.0</ele><time>2026-04-20T09:32:16.831Z</time></trkpt><trkpt lat="37.8531633" lon="12.6838417"><ele>256.0</ele><time>2026-04-20T09:32:17.83Z</time></trkpt><trkpt lat="37.8532483" lon="12.68373"><ele>256.0</ele><time>2026-04-20T09:32:18.832Z</time></trkpt><trkpt lat="37.85333" lon="12.6836283"><ele>256.0</ele><time>2026-04-20T09:32:19.831Z</time></trkpt><trkpt lat="37.8534233" lon="12.6835583"><ele>255.0</ele><time>2026-04-20T09:32:20.832Z</time></trkpt><trkpt lat="37.8535283" lon="12.683515"><ele>254.0</ele><time>2026-04-20T09:32:21.831Z</time></trkpt><trkpt lat="37.8536517" lon="12.6835033"><ele>253.0</ele><time>2026-04-20T09:32:22.833Z</time></trkpt><trkpt lat="37.8538" lon="12.6835283"><ele>252.0</ele><time>2026-04-20T09:32:23.828Z</time></trkpt><trkpt lat="37.8539733" lon="12.6835767"><ele>253.66666666666669</ele><time>2026-04-20T09:32:24.832Z</time></trkpt><trkpt lat="37.8541467" lon="12.6836233"><ele>255.33333333333334</ele><time>2026-04-20T09:32:25.827Z</time></trkpt><trkpt lat="37.854295" lon="12.6836567"><ele>257.0</ele><time>2026-04-20T09:32:26.83Z</time></trkpt><trkpt lat="37.854425" lon="12.68369"><ele>257.0</ele><time>2026-04-20T09:32:27.827Z</time></trkpt><trkpt lat="37.8545267" lon="12.6836933"><ele>257.0</ele><time>2026-04-20T09:32:28.827Z</time></trkpt><trkpt lat="37.8546133" lon="12.6836683"><ele>257.0</ele><time>2026-04-20T09:32:29.829Z</time></trkpt><trkpt lat="37.8546867" lon="12.6836017"><ele>257.0</ele><time>2026-04-20T09:32:30.829Z</time></trkpt><trkpt lat="37.8547467" lon="12.683515"><ele>257.0</ele><time>2026-04-20T09:32:31.828Z</time></trkpt><trkpt lat="37.8547783" lon="12.683395"><ele>257.0</ele><time>2026-04-20T09:32:32.829Z</time></trkpt><trkpt lat="37.8547933" lon="12.6832633"><ele>257.0</ele><time>2026-04-20T09:32:33.836Z</time></trkpt><trkpt lat="37.8547683" lon="12.6831233"><ele>257.0</ele><time>2026-04-20T09:32:34.83Z</time></trkpt><trkpt lat="37.8547217" lon="12.682985"><ele>257.0</ele><time>2026-04-20T09:32:35.832Z</time></trkpt><trkpt lat="37.8546617" lon="12.6828683"><ele>257.0</ele><time>2026-04-20T09:32:36.829Z</time></trkpt><trkpt lat="37.854585" lon="12.682765"><ele>256.0</ele><time>2026-04-20T09:32:37.832Z</time></trkpt><trkpt lat="37.8544733" lon="12.6826633"><ele>255.0</ele><time>2026-04-20T09:32:38.832Z</time></trkpt><trkpt lat="37.854335" lon="12.68256"><ele>254.0</ele><time>2026-04-20T09:32:39.831Z</time></trkpt><trkpt lat="37.854175" lon="12.682445"><ele>254.0</ele><time>2026-04-20T09:32:40.83Z</time></trkpt><trkpt lat="37.8540117" lon="12.6823283"><ele>254.0</ele><time>2026-04-20T09:32:41.834Z</time></trkpt><trkpt lat="37.8538733" lon="12.6822317"><ele>254.0</ele><time>2026-04-20T09:32:42.834Z</time></trkpt><trkpt lat="37.85376" lon="12.6821467"><ele>254.0</ele><time>2026-04-20T09:32:43.83Z</time></trkpt><trkpt lat="37.8536683" lon="12.6820567"><ele>254.0</ele><time>2026-04-20T09:32:44.828Z</time></trkpt><trkpt lat="37.8535967" lon="12.681945"><ele>254.0</ele><time>2026-04-20T09:32:45.83Z</time></trkpt><trkpt lat="37.8535417" lon="12.6817983"><ele>254.0</ele><time>2026-04-20T09:32:46.829Z</time></trkpt><trkpt lat="37.8534967" lon="12.68161"><ele>252.33333333333334</ele><time>2026-04-20T09:32:47.83Z</time></trkpt><trkpt lat="37.8534617" lon="12.6813883"><ele>250.66666666666669</ele><time>2026-04-20T09:32:48.832Z</time></trkpt><trkpt lat="37.8534267" lon="12.6811483"><ele>249.0</ele><time>2026-04-20T09:32:49.829Z</time></trkpt><trkpt lat="37.8533917" lon="12.6809"><ele>249.0</ele><time>2026-04-20T09:32:50.829Z</time></trkpt><trkpt lat="37.85336" lon="12.680645"><ele>249.0</ele><time>2026-04-20T09:32:51.831Z</time></trkpt><trkpt lat="37.853335" lon="12.680375"><ele>249.0</ele><time>2026-04-20T09:32:52.83Z</time></trkpt><trkpt lat="37.8533133" lon="12.6801083"><ele>249.0</ele><time>2026-04-20T09:32:53.832Z</time></trkpt><trkpt lat="37.853295" lon="12.67986"><ele>249.0</ele><time>2026-04-20T09:32:54.839Z</time></trkpt><trkpt lat="37.85328" lon="12.679635"><ele>249.0</ele><time>2026-04-20T09:32:55.835Z</time></trkpt><trkpt lat="37.8532683" lon="12.6794267"><ele>249.0</ele><time>2026-04-20T09:32:56.834Z</time></trkpt><trkpt lat="37.8532667" lon="12.6792267"><ele>249.0</ele><time>2026-04-20T09:32:57.835Z</time></trkpt><trkpt lat="37.8532817" lon="12.6790133"><ele>249.0</ele><time>2026-04-20T09:32:58.835Z</time></trkpt><trkpt lat="37.85331" lon="12.6787867"><ele>247.66666666666669</ele><time>2026-04-20T09:32:59.834Z</time></trkpt><trkpt lat="37.8533467" lon="12.6785683"><ele>246.33333333333334</ele><time>2026-04-20T09:33:00.827Z</time></trkpt><trkpt lat="37.853385" lon="12.67837"><ele>245.0</ele><time>2026-04-20T09:33:01.828Z</time></trkpt><trkpt lat="37.8534267" lon="12.6781833"><ele>246.33333333333334</ele><time>2026-04-20T09:33:02.827Z</time></trkpt><trkpt lat="37.8534817" lon="12.6779933"><ele>247.66666666666669</ele><time>2026-04-20T09:33:03.833Z</time></trkpt><trkpt lat="37.8535533" lon="12.67779"><ele>249.0</ele><time>2026-04-20T09:33:04.831Z</time></trkpt><trkpt lat="37.8536383" lon="12.6775733"><ele>249.0</ele><time>2026-04-20T09:33:05.83Z</time></trkpt><trkpt lat="37.8537283" lon="12.67734"><ele>249.0</ele><time>2026-04-20T09:33:06.828Z</time></trkpt><trkpt lat="37.853825" lon="12.6770917"><ele>249.0</ele><time>2026-04-20T09:33:07.83Z</time></trkpt><trkpt lat="37.853925" lon="12.67684"><ele>246.0</ele><time>2026-04-20T09:33:08.831Z</time></trkpt><trkpt lat="37.854025" lon="12.6765867"><ele>243.0</ele><time>2026-04-20T09:33:09.83Z</time></trkpt><trkpt lat="37.85412" lon="12.67634"><ele>240.0</ele><time>2026-04-20T09:33:10.828Z</time></trkpt><trkpt lat="37.8542117" lon="12.6761033"><ele>241.0</ele><time>2026-04-20T09:33:11.831Z</time></trkpt><trkpt lat="37.8542983" lon="12.67587"><ele>242.0</ele><time>2026-04-20T09:33:12.829Z</time></trkpt><trkpt lat="37.8543883" lon="12.6756317"><ele>243.0</ele><time>2026-04-20T09:33:13.831Z</time></trkpt><trkpt lat="37.8544817" lon="12.6753933"><ele>241.33333333333331</ele><time>2026-04-20T09:33:14.829Z</time></trkpt><trkpt lat="37.8545717" lon="12.6751667"><ele>239.66666666666666</ele><time>2026-04-20T09:33:15.831Z</time></trkpt><trkpt lat="37.8546617" lon="12.674945"><ele>238.0</ele><time>2026-04-20T09:33:16.832Z</time></trkpt><trkpt lat="37.8547517" lon="12.6747183"><ele>238.0</ele><time>2026-04-20T09:33:17.83Z</time></trkpt><trkpt lat="37.8548433" lon="12.674495"><ele>238.0</ele><time>2026-04-20T09:33:18.831Z</time></trkpt><trkpt lat="37.8549283" lon="12.6742867"><ele>238.0</ele><time>2026-04-20T09:33:19.831Z</time></trkpt><trkpt lat="37.8550083" lon="12.674095"><ele>238.75</ele><time>2026-04-20T09:33:20.834Z</time></trkpt><trkpt lat="37.8550817" lon="12.6739183"><ele>239.5</ele><time>2026-04-20T09:33:21.831Z</time></trkpt><trkpt lat="37.8551467" lon="12.67375"><ele>240.25</ele><time>2026-04-20T09:33:22.831Z</time></trkpt><trkpt lat="37.855195" lon="12.6735867"><ele>241.0</ele><time>2026-04-20T09:33:23.83Z</time></trkpt><trkpt lat="37.8552267" lon="12.6734133"><ele>241.0</ele><time>2026-04-20T09:33:24.832Z</time></trkpt><trkpt lat="37.8552367" lon="12.6732183"><ele>241.0</ele><time>2026-04-20T09:33:25.832Z</time></trkpt><trkpt lat="37.8552317" lon="12.6729967"><ele>241.0</ele><time>2026-04-20T09:33:26.832Z</time></trkpt><trkpt lat="37.8552217" lon="12.672755"><ele>239.0</ele><time>2026-04-20T09:33:27.831Z</time></trkpt><trkpt lat="37.85521" lon="12.6725"><ele>237.0</ele><time>2026-04-20T09:33:28.83Z</time></trkpt><trkpt lat="37.855195" lon="12.67224"><ele>235.0</ele><time>2026-04-20T09:33:29.833Z</time></trkpt><trkpt lat="37.8551833" lon="12.6719867"><ele>234.0</ele><time>2026-04-20T09:33:30.829Z</time></trkpt><trkpt lat="37.8551717" lon="12.6717517"><ele>233.0</ele><time>2026-04-20T09:33:31.83Z</time></trkpt><trkpt lat="37.8551633" lon="12.6715333"><ele>232.0</ele><time>2026-04-20T09:33:32.831Z</time></trkpt><trkpt lat="37.8551583" lon="12.6713333"><ele>232.0</ele><time>2026-04-20T09:33:33.829Z</time></trkpt><trkpt lat="37.8551533" lon="12.6711517"><ele>232.0</ele><time>2026-04-20T09:33:34.829Z</time></trkpt><trkpt lat="37.8551533" lon="12.67098"><ele>232.0</ele><time>2026-04-20T09:33:35.833Z</time></trkpt><trkpt lat="37.8551733" lon="12.67081"><ele>232.0</ele><time>2026-04-20T09:33:36.829Z</time></trkpt><trkpt lat="37.8552167" lon="12.6706283"><ele>230.0</ele><time>2026-04-20T09:33:37.832Z</time></trkpt><trkpt lat="37.8552817" lon="12.6704333"><ele>228.0</ele><time>2026-04-20T09:33:38.831Z</time></trkpt><trkpt lat="37.8553633" lon="12.670225"><ele>226.0</ele><time>2026-04-20T09:33:39.83Z</time></trkpt><trkpt lat="37.8554517" lon="12.67001"><ele>224.0</ele><time>2026-04-20T09:33:40.832Z</time></trkpt><trkpt lat="37.8555383" lon="12.6697983"><ele>222.0</ele><time>2026-04-20T09:33:41.833Z</time></trkpt><trkpt lat="37.8556267" lon="12.6696"><ele>220.0</ele><time>2026-04-20T09:33:42.832Z</time></trkpt><trkpt lat="37.855725" lon="12.6694117"><ele>220.0</ele><time>2026-04-20T09:33:43.833Z</time></trkpt><trkpt lat="37.8558333" lon="12.669225"><ele>220.0</ele><time>2026-04-20T09:33:44.835Z</time></trkpt><trkpt lat="37.8559483" lon="12.6690383"><ele>220.0</ele><time>2026-04-20T09:33:45.831Z</time></trkpt><trkpt lat="37.85606" lon="12.6688583"><ele>220.0</ele><time>2026-04-20T09:33:46.832Z</time></trkpt><trkpt lat="37.856165" lon="12.6686933"><ele>220.0</ele><time>2026-04-20T09:33:47.831Z</time></trkpt><trkpt lat="37.8562617" lon="12.66854"><ele>220.0</ele><time>2026-04-20T09:33:48.83Z</time></trkpt><trkpt lat="37.8563517" lon="12.668395"><ele>217.75</ele><time>2026-04-20T09:33:49.831Z</time></trkpt><trkpt lat="37.8564367" lon="12.6682617"><ele>215.5</ele><time>2026-04-20T09:33:50.829Z</time></trkpt><trkpt lat="37.856515" lon="12.6681383"><ele>213.25</ele><time>2026-04-20T09:33:51.833Z</time></trkpt><trkpt lat="37.856585" lon="12.6680317"><ele>211.0</ele><time>2026-04-20T09:33:52.831Z</time></trkpt><trkpt lat="37.8566433" lon="12.66794"><ele>210.99999999999997</ele><time>2026-04-20T09:33:53.829Z</time></trkpt><trkpt lat="37.85669" lon="12.6678633"><ele>211.0</ele><time>2026-04-20T09:33:54.83Z</time></trkpt><trkpt lat="37.8567517" lon="12.6677533"><ele>211.0</ele><time>2026-04-20T09:33:56.834Z</time></trkpt><trkpt lat="37.8567617" lon="12.667615"><ele>211.0</ele><time>2026-04-20T09:34:37.833Z</time></trkpt><trkpt lat="37.8567417" lon="12.6677167"><ele>210.99999999999997</ele><time>2026-04-20T09:34:56.833Z</time></trkpt><trkpt lat="37.8567267" lon="12.66763"><ele>211.0</ele><time>2026-04-20T09:36:09.83Z</time></trkpt><trkpt lat="37.8567267" lon="12.6674917"><ele>209.75</ele><time>2026-04-20T09:36:11.828Z</time></trkpt><trkpt lat="37.8567283" lon="12.6673883"><ele>208.5</ele><time>2026-04-20T09:36:12.828Z</time></trkpt><trkpt lat="37.8567317" lon="12.66726"><ele>207.25</ele><time>2026-04-20T09:36:13.83Z</time></trkpt><trkpt lat="37.8567383" lon="12.6671067"><ele>206.0</ele><time>2026-04-20T09:36:14.829Z</time></trkpt><trkpt lat="37.8567533" lon="12.666775"><ele>205.25</ele><time>2026-04-20T09:36:16.828Z</time></trkpt><trkpt lat="37.8567617" lon="12.6666083"><ele>204.5</ele><time>2026-04-20T09:36:17.827Z</time></trkpt><trkpt lat="37.85677" lon="12.666445"><ele>203.75</ele><time>2026-04-20T09:36:18.828Z</time></trkpt><trkpt lat="37.8567833" lon="12.666295"><ele>203.0</ele><time>2026-04-20T09:36:19.828Z</time></trkpt><trkpt lat="37.8567933" lon="12.666145"><ele>201.5</ele><time>2026-04-20T09:36:20.834Z</time></trkpt><trkpt lat="37.856815" lon="12.66599"><ele>200.0</ele><time>2026-04-20T09:36:21.83Z</time></trkpt><trkpt lat="37.8568483" lon="12.6658383"><ele>198.5</ele><time>2026-04-20T09:36:22.835Z</time></trkpt><trkpt lat="37.856885" lon="12.6657033"><ele>197.0</ele><time>2026-04-20T09:36:23.832Z</time></trkpt><trkpt lat="37.8569167" lon="12.66558"><ele>197.00000000000003</ele><time>2026-04-20T09:36:24.832Z</time></trkpt><trkpt lat="37.85693" lon="12.665475"><ele>197.0</ele><time>2026-04-20T09:36:25.833Z</time></trkpt><trkpt lat="37.85693" lon="12.6653817"><ele>197.0</ele><time>2026-04-20T09:36:26.832Z</time></trkpt><trkpt lat="37.8569183" lon="12.6652917"><ele>197.0</ele><time>2026-04-20T09:36:27.84Z</time></trkpt><trkpt lat="37.856885" lon="12.6652033"><ele>197.00000000000003</ele><time>2026-04-20T09:36:28.834Z</time></trkpt><trkpt lat="37.856835" lon="12.6651167"><ele>197.0</ele><time>2026-04-20T09:36:29.85Z</time></trkpt><trkpt lat="37.8567617" lon="12.665025"><ele>195.5</ele><time>2026-04-20T09:36:30.835Z</time></trkpt><trkpt lat="37.8566717" lon="12.6649333"><ele>194.0</ele><time>2026-04-20T09:36:31.841Z</time></trkpt><trkpt lat="37.8565633" lon="12.6648383"><ele>192.5</ele><time>2026-04-20T09:36:32.832Z</time></trkpt><trkpt lat="37.85645" lon="12.6647417"><ele>191.0</ele><time>2026-04-20T09:36:33.831Z</time></trkpt><trkpt lat="37.8563283" lon="12.6646433"><ele>191.0</ele><time>2026-04-20T09:36:34.834Z</time></trkpt><trkpt lat="37.85621" lon="12.6645467"><ele>191.0</ele><time>2026-04-20T09:36:35.832Z</time></trkpt><trkpt lat="37.8560967" lon="12.6644583"><ele>191.0</ele><time>2026-04-20T09:36:36.831Z</time></trkpt><trkpt lat="37.8559833" lon="12.664375"><ele>191.0</ele><time>2026-04-20T09:36:37.832Z</time></trkpt><trkpt lat="37.8558633" lon="12.66428"><ele>188.0</ele><time>2026-04-20T09:36:38.832Z</time></trkpt><trkpt lat="37.855735" lon="12.6641783"><ele>185.0</ele><time>2026-04-20T09:36:39.831Z</time></trkpt><trkpt lat="37.8555917" lon="12.6640717"><ele>182.0</ele><time>2026-04-20T09:36:40.832Z</time></trkpt><trkpt lat="37.8554367" lon="12.663965"><ele>182.0</ele><time>2026-04-20T09:36:41.833Z</time></trkpt><trkpt lat="37.8552783" lon="12.66386"><ele>182.0</ele><time>2026-04-20T09:36:42.833Z</time></trkpt><trkpt lat="37.85512" lon="12.6637583"><ele>182.0</ele><time>2026-04-20T09:36:43.829Z</time></trkpt><trkpt lat="37.8549717" lon="12.66366"><ele>180.33333333333331</ele><time>2026-04-20T09:36:44.827Z</time></trkpt><trkpt lat="37.8548283" lon="12.663565"><ele>178.66666666666666</ele><time>2026-04-20T09:36:45.832Z</time></trkpt><trkpt lat="37.8546883" lon="12.66347"><ele>177.0</ele><time>2026-04-20T09:36:46.833Z</time></trkpt><trkpt lat="37.8545433" lon="12.66337"><ele>177.0</ele><time>2026-04-20T09:36:47.835Z</time></trkpt><trkpt lat="37.85439" lon="12.663265"><ele>177.0</ele><time>2026-04-20T09:36:48.83Z</time></trkpt><trkpt lat="37.8542367" lon="12.6631617"><ele>177.0</ele><time>2026-04-20T09:36:49.829Z</time></trkpt><trkpt lat="37.8540883" lon="12.6630633"><ele>175.66666666666666</ele><time>2026-04-20T09:36:50.833Z</time></trkpt><trkpt lat="37.85394" lon="12.6629683"><ele>174.33333333333331</ele><time>2026-04-20T09:36:51.832Z</time></trkpt><trkpt lat="37.8537917" lon="12.66287"><ele>173.0</ele><time>2026-04-20T09:36:52.833Z</time></trkpt><trkpt lat="37.8536433" lon="12.6627733"><ele>172.33333333333331</ele><time>2026-04-20T09:36:53.83Z</time></trkpt><trkpt lat="37.8534983" lon="12.66269"><ele>171.66666666666666</ele><time>2026-04-20T09:36:54.829Z</time></trkpt><trkpt lat="37.8533467" lon="12.6626183"><ele>171.0</ele><time>2026-04-20T09:36:55.83Z</time></trkpt><trkpt lat="37.853185" lon="12.662555"><ele>169.33333333333334</ele><time>2026-04-20T09:36:56.829Z</time></trkpt><trkpt lat="37.8530133" lon="12.662505"><ele>167.66666666666669</ele><time>2026-04-20T09:36:57.827Z</time></trkpt><trkpt lat="37.8528367" lon="12.662465"><ele>166.0</ele><time>2026-04-20T09:36:58.828Z</time></trkpt><trkpt lat="37.8526617" lon="12.662425"><ele>164.66666666666669</ele><time>2026-04-20T09:36:59.837Z</time></trkpt><trkpt lat="37.8524933" lon="12.662385"><ele>163.33333333333334</ele><time>2026-04-20T09:37:00.836Z</time></trkpt><trkpt lat="37.8523383" lon="12.6623483"><ele>162.0</ele><time>2026-04-20T09:37:01.835Z</time></trkpt><trkpt lat="37.852195" lon="12.6623083"><ele>162.0</ele><time>2026-04-20T09:37:02.834Z</time></trkpt><trkpt lat="37.852065" lon="12.6622633"><ele>162.0</ele><time>2026-04-20T09:37:03.83Z</time></trkpt><trkpt lat="37.8519367" lon="12.6622133"><ele>162.0</ele><time>2026-04-20T09:37:04.829Z</time></trkpt><trkpt lat="37.8518" lon="12.66215"><ele>162.0</ele><time>2026-04-20T09:37:05.828Z</time></trkpt><trkpt lat="37.8516533" lon="12.6620767"><ele>162.33333333333334</ele><time>2026-04-20T09:37:06.836Z</time></trkpt><trkpt lat="37.8515067" lon="12.6619967"><ele>162.66666666666669</ele><time>2026-04-20T09:37:07.831Z</time></trkpt><trkpt lat="37.851365" lon="12.6619183"><ele>163.0</ele><time>2026-04-20T09:37:08.832Z</time></trkpt><trkpt lat="37.8512333" lon="12.6618483"><ele>163.0</ele><time>2026-04-20T09:37:09.83Z</time></trkpt><trkpt lat="37.8511117" lon="12.6617867"><ele>163.0</ele><time>2026-04-20T09:37:10.833Z</time></trkpt><trkpt lat="37.8509983" lon="12.6617267"><ele>163.0</ele><time>2026-04-20T09:37:11.829Z</time></trkpt><trkpt lat="37.8508917" lon="12.66167"><ele>163.0</ele><time>2026-04-20T09:37:12.83Z</time></trkpt><trkpt lat="37.8507883" lon="12.6616167"><ele>161.5</ele><time>2026-04-20T09:37:13.835Z</time></trkpt><trkpt lat="37.8506833" lon="12.6615633"><ele>160.0</ele><time>2026-04-20T09:37:14.829Z</time></trkpt><trkpt lat="37.850575" lon="12.6615133"><ele>158.5</ele><time>2026-04-20T09:37:15.837Z</time></trkpt><trkpt lat="37.8504567" lon="12.661465"><ele>157.0</ele><time>2026-04-20T09:37:16.832Z</time></trkpt><trkpt lat="37.850335" lon="12.66142"><ele>157.0</ele><time>2026-04-20T09:37:17.833Z</time></trkpt><trkpt lat="37.85021" lon="12.6613683"><ele>157.0</ele><time>2026-04-20T09:37:18.829Z</time></trkpt><trkpt lat="37.8500783" lon="12.6613117"><ele>157.0</ele><time>2026-04-20T09:37:19.829Z</time></trkpt><trkpt lat="37.849955" lon="12.6612583"><ele>157.0</ele><time>2026-04-20T09:37:20.829Z</time></trkpt><trkpt lat="37.8498417" lon="12.66121"><ele>156.6</ele><time>2026-04-20T09:37:21.83Z</time></trkpt><trkpt lat="37.84974" lon="12.6611667"><ele>156.2</ele><time>2026-04-20T09:37:22.832Z</time></trkpt><trkpt lat="37.8496517" lon="12.6611267"><ele>155.8</ele><time>2026-04-20T09:37:23.833Z</time></trkpt><trkpt lat="37.8495733" lon="12.661075"><ele>155.4</ele><time>2026-04-20T09:37:24.83Z</time></trkpt><trkpt lat="37.84951" lon="12.6610067"><ele>155.0</ele><time>2026-04-20T09:37:25.834Z</time></trkpt><trkpt lat="37.8494667" lon="12.6609233"><ele>153.6</ele><time>2026-04-20T09:37:26.835Z</time></trkpt><trkpt lat="37.84944" lon="12.6608367"><ele>152.2</ele><time>2026-04-20T09:37:27.834Z</time></trkpt><trkpt lat="37.8493867" lon="12.66071"><ele>150.8</ele><time>2026-04-20T09:37:29.835Z</time></trkpt><trkpt lat="37.8493367" lon="12.6606567"><ele>149.4</ele><time>2026-04-20T09:37:30.832Z</time></trkpt><trkpt lat="37.84926" lon="12.6605933"><ele>148.0</ele><time>2026-04-20T09:37:31.834Z</time></trkpt><trkpt lat="37.84917" lon="12.66052"><ele>147.75</ele><time>2026-04-20T09:37:32.846Z</time></trkpt><trkpt lat="37.8490733" lon="12.6604283"><ele>147.5</ele><time>2026-04-20T09:37:33.836Z</time></trkpt><trkpt lat="37.8489783" lon="12.660325"><ele>147.25</ele><time>2026-04-20T09:37:34.835Z</time></trkpt><trkpt lat="37.848875" lon="12.6602283"><ele>147.0</ele><time>2026-04-20T09:37:35.833Z</time></trkpt><trkpt lat="37.8487517" lon="12.6601533"><ele>146.33333333333334</ele><time>2026-04-20T09:37:36.834Z</time></trkpt><trkpt lat="37.8486067" lon="12.660105"><ele>145.66666666666669</ele><time>2026-04-20T09:37:37.832Z</time></trkpt><trkpt lat="37.8484483" lon="12.660075"><ele>145.0</ele><time>2026-04-20T09:37:38.835Z</time></trkpt><trkpt lat="37.8482817" lon="12.66005"><ele>145.0</ele><time>2026-04-20T09:37:39.835Z</time></trkpt><trkpt lat="37.8481217" lon="12.6600267"><ele>145.0</ele><time>2026-04-20T09:37:40.834Z</time></trkpt><trkpt lat="37.8479717" lon="12.6600117"><ele>145.0</ele><time>2026-04-20T09:37:41.835Z</time></trkpt><trkpt lat="37.8478283" lon="12.660015"><ele>145.0</ele><time>2026-04-20T09:37:42.834Z</time></trkpt><trkpt lat="37.8476833" lon="12.6600467"><ele>145.0</ele><time>2026-04-20T09:37:43.837Z</time></trkpt><trkpt lat="37.8475433" lon="12.66011"><ele>145.0</ele><time>2026-04-20T09:37:44.836Z</time></trkpt><trkpt lat="37.847405" lon="12.6602083"><ele>143.66666666666669</ele><time>2026-04-20T09:37:45.835Z</time></trkpt><trkpt lat="37.8472683" lon="12.6603433"><ele>142.33333333333334</ele><time>2026-04-20T09:37:46.837Z</time></trkpt><trkpt lat="37.847135" lon="12.660495"><ele>141.0</ele><time>2026-04-20T09:37:47.833Z</time></trkpt><trkpt lat="37.847005" lon="12.660635"><ele>141.0</ele><time>2026-04-20T09:37:48.832Z</time></trkpt><trkpt lat="37.8468717" lon="12.6607567"><ele>141.0</ele><time>2026-04-20T09:37:49.835Z</time></trkpt><trkpt lat="37.84673" lon="12.6608633"><ele>141.0</ele><time>2026-04-20T09:37:50.831Z</time></trkpt><trkpt lat="37.8465783" lon="12.6609683"><ele>140.0</ele><time>2026-04-20T09:37:51.835Z</time></trkpt><trkpt lat="37.8464167" lon="12.6610767"><ele>139.0</ele><time>2026-04-20T09:37:52.834Z</time></trkpt><trkpt lat="37.8462467" lon="12.6611933"><ele>138.0</ele><time>2026-04-20T09:37:53.834Z</time></trkpt><trkpt lat="37.846075" lon="12.66131"><ele>136.33333333333334</ele><time>2026-04-20T09:37:54.833Z</time></trkpt><trkpt lat="37.8459117" lon="12.66142"><ele>134.66666666666669</ele><time>2026-04-20T09:37:55.832Z</time></trkpt><trkpt lat="37.8457583" lon="12.6615217"><ele>133.0</ele><time>2026-04-20T09:37:56.833Z</time></trkpt><trkpt lat="37.8456067" lon="12.6616117"><ele>133.0</ele><time>2026-04-20T09:37:57.833Z</time></trkpt><trkpt lat="37.84545" lon="12.661685"><ele>133.0</ele><time>2026-04-20T09:37:58.832Z</time></trkpt><trkpt lat="37.84528" lon="12.6617467"><ele>133.0</ele><time>2026-04-20T09:37:59.834Z</time></trkpt><trkpt lat="37.8451083" lon="12.6617983"><ele>132.66666666666669</ele><time>2026-04-20T09:38:00.844Z</time></trkpt><trkpt lat="37.8449417" lon="12.661845"><ele>132.33333333333334</ele><time>2026-04-20T09:38:01.836Z</time></trkpt><trkpt lat="37.8447783" lon="12.66188"><ele>132.0</ele><time>2026-04-20T09:38:02.836Z</time></trkpt><trkpt lat="37.8446067" lon="12.6618983"><ele>132.0</ele><time>2026-04-20T09:38:03.834Z</time></trkpt><trkpt lat="37.8444217" lon="12.6618933"><ele>132.0</ele><time>2026-04-20T09:38:04.834Z</time></trkpt><trkpt lat="37.8442233" lon="12.66186"><ele>132.0</ele><time>2026-04-20T09:38:05.833Z</time></trkpt><trkpt lat="37.8440183" lon="12.661805"><ele>128.5</ele><time>2026-04-20T09:38:06.834Z</time></trkpt><trkpt lat="37.8438" lon="12.6617333"><ele>125.0</ele><time>2026-04-20T09:38:07.832Z</time></trkpt><trkpt lat="37.8435717" lon="12.6616583"><ele>122.5</ele><time>2026-04-20T09:38:08.832Z</time></trkpt><trkpt lat="37.8433383" lon="12.661585"><ele>120.0</ele><time>2026-04-20T09:38:09.834Z</time></trkpt><trkpt lat="37.8431083" lon="12.6615133"><ele>120.0</ele><time>2026-04-20T09:38:10.829Z</time></trkpt><trkpt lat="37.8428917" lon="12.6614467"><ele>120.0</ele><time>2026-04-20T09:38:11.833Z</time></trkpt><trkpt lat="37.8426817" lon="12.6613833"><ele>120.0</ele><time>2026-04-20T09:38:12.83Z</time></trkpt><trkpt lat="37.8424683" lon="12.6613333"><ele>120.0</ele><time>2026-04-20T09:38:13.83Z</time></trkpt><trkpt lat="37.8422517" lon="12.6612983"><ele>120.0</ele><time>2026-04-20T09:38:14.833Z</time></trkpt><trkpt lat="37.8420283" lon="12.6612783"><ele>120.0</ele><time>2026-04-20T09:38:15.832Z</time></trkpt><trkpt lat="37.8417983" lon="12.66127"><ele>120.0</ele><time>2026-04-20T09:38:16.83Z</time></trkpt><trkpt lat="37.8415617" lon="12.6612633"><ele>120.0</ele><time>2026-04-20T09:38:17.833Z</time></trkpt><trkpt lat="37.8413233" lon="12.6612567"><ele>120.0</ele><time>2026-04-20T09:38:18.83Z</time></trkpt><trkpt lat="37.841085" lon="12.66125"><ele>120.0</ele><time>2026-04-20T09:38:19.836Z</time></trkpt><trkpt lat="37.8408517" lon="12.6612467"><ele>121.0</ele><time>2026-04-20T09:38:20.832Z</time></trkpt><trkpt lat="37.8406183" lon="12.6612433"><ele>122.0</ele><time>2026-04-20T09:38:21.833Z</time></trkpt><trkpt lat="37.8403867" lon="12.6612383"><ele>122.0</ele><time>2026-04-20T09:38:22.83Z</time></trkpt><trkpt lat="37.8401567" lon="12.6612333"><ele>122.0</ele><time>2026-04-20T09:38:23.833Z</time></trkpt><trkpt lat="37.8399267" lon="12.6612333"><ele>123.0</ele><time>2026-04-20T09:38:24.834Z</time></trkpt><trkpt lat="37.8396983" lon="12.6612433"><ele>124.0</ele><time>2026-04-20T09:38:25.833Z</time></trkpt><trkpt lat="37.8394717" lon="12.6612633"><ele>124.0</ele><time>2026-04-20T09:38:26.83Z</time></trkpt><trkpt lat="37.839255" lon="12.6612917"><ele>124.0</ele><time>2026-04-20T09:38:27.831Z</time></trkpt><trkpt lat="37.839055" lon="12.661325"><ele>124.0</ele><time>2026-04-20T09:38:28.832Z</time></trkpt><trkpt lat="37.8388683" lon="12.6613583"><ele>124.0</ele><time>2026-04-20T09:38:29.832Z</time></trkpt><trkpt lat="37.8386883" lon="12.66139"><ele>124.0</ele><time>2026-04-20T09:38:30.832Z</time></trkpt><trkpt lat="37.8385067" lon="12.661425"><ele>124.0</ele><time>2026-04-20T09:38:31.833Z</time></trkpt><trkpt lat="37.83832" lon="12.6614583"><ele>124.66666666666667</ele><time>2026-04-20T09:38:32.833Z</time></trkpt><trkpt lat="37.8381317" lon="12.6614933"><ele>125.33333333333334</ele><time>2026-04-20T09:38:33.841Z</time></trkpt><trkpt lat="37.83794" lon="12.6615283"><ele>126.0</ele><time>2026-04-20T09:38:34.83Z</time></trkpt><trkpt lat="37.83775" lon="12.6615633"><ele>128.0</ele><time>2026-04-20T09:38:35.834Z</time></trkpt><trkpt lat="37.8375583" lon="12.6615983"><ele>130.0</ele><time>2026-04-20T09:38:36.829Z</time></trkpt><trkpt lat="37.8373667" lon="12.661635"><ele>132.0</ele><time>2026-04-20T09:38:37.832Z</time></trkpt><trkpt lat="37.8371717" lon="12.6616733"><ele>132.0</ele><time>2026-04-20T09:38:38.832Z</time></trkpt><trkpt lat="37.8369817" lon="12.6617117"><ele>132.0</ele><time>2026-04-20T09:38:39.835Z</time></trkpt><trkpt lat="37.8368067" lon="12.6617483"><ele>132.0</ele><time>2026-04-20T09:38:40.833Z</time></trkpt><trkpt lat="37.8366383" lon="12.661785"><ele>133.66666666666666</ele><time>2026-04-20T09:38:41.834Z</time></trkpt><trkpt lat="37.83647" lon="12.6618233"><ele>135.33333333333331</ele><time>2026-04-20T09:38:42.832Z</time></trkpt><trkpt lat="37.8362967" lon="12.6618667"><ele>137.0</ele><time>2026-04-20T09:38:43.839Z</time></trkpt><trkpt lat="37.8361183" lon="12.661915"><ele>136.66666666666666</ele><time>2026-04-20T09:38:44.833Z</time></trkpt><trkpt lat="37.8359417" lon="12.66197"><ele>136.33333333333334</ele><time>2026-04-20T09:38:45.836Z</time></trkpt><trkpt lat="37.835775" lon="12.6620333"><ele>136.0</ele><time>2026-04-20T09:38:46.828Z</time></trkpt><trkpt lat="37.83562" lon="12.6621033"><ele>136.0</ele><time>2026-04-20T09:38:47.832Z</time></trkpt><trkpt lat="37.8354667" lon="12.6621817"><ele>136.0</ele><time>2026-04-20T09:38:48.833Z</time></trkpt><trkpt lat="37.83531" lon="12.6622717"><ele>136.0</ele><time>2026-04-20T09:38:49.83Z</time></trkpt><trkpt lat="37.8351483" lon="12.66237"><ele>138.66666666666669</ele><time>2026-04-20T09:38:50.836Z</time></trkpt><trkpt lat="37.8349817" lon="12.6624817"><ele>141.33333333333334</ele><time>2026-04-20T09:38:51.837Z</time></trkpt><trkpt lat="37.8348083" lon="12.6626033"><ele>144.0</ele><time>2026-04-20T09:38:52.834Z</time></trkpt><trkpt lat="37.8346317" lon="12.6627367"><ele>144.33333333333334</ele><time>2026-04-20T09:38:53.83Z</time></trkpt><trkpt lat="37.83446" lon="12.66287"><ele>144.66666666666669</ele><time>2026-04-20T09:38:54.835Z</time></trkpt><trkpt lat="37.8342933" lon="12.6630017"><ele>145.0</ele><time>2026-04-20T09:38:55.834Z</time></trkpt><trkpt lat="37.83413" lon="12.6631317"><ele>145.0</ele><time>2026-04-20T09:38:56.834Z</time></trkpt><trkpt lat="37.8339667" lon="12.6632633"><ele>145.0</ele><time>2026-04-20T09:38:57.83Z</time></trkpt><trkpt lat="37.8338067" lon="12.6633917"><ele>145.0</ele><time>2026-04-20T09:38:58.833Z</time></trkpt><trkpt lat="37.833645" lon="12.66352"><ele>145.0</ele><time>2026-04-20T09:38:59.833Z</time></trkpt><trkpt lat="37.8334833" lon="12.6636467"><ele>145.0</ele><time>2026-04-20T09:39:00.832Z</time></trkpt><trkpt lat="37.8333217" lon="12.663775"><ele>145.0</ele><time>2026-04-20T09:39:01.833Z</time></trkpt><trkpt lat="37.8331583" lon="12.6639033"><ele>145.0</ele><time>2026-04-20T09:39:02.843Z</time></trkpt><trkpt lat="37.8329967" lon="12.66403"><ele>145.0</ele><time>2026-04-20T09:39:03.838Z</time></trkpt><trkpt lat="37.8328383" lon="12.6641583"><ele>145.0</ele><time>2026-04-20T09:39:04.834Z</time></trkpt><trkpt lat="37.8326783" lon="12.6642867"><ele>147.66666666666669</ele><time>2026-04-20T09:39:05.84Z</time></trkpt><trkpt lat="37.8325133" lon="12.6644167"><ele>150.33333333333334</ele><time>2026-04-20T09:39:06.835Z</time></trkpt><trkpt lat="37.8323433" lon="12.6645483"><ele>153.0</ele><time>2026-04-20T09:39:07.834Z</time></trkpt><trkpt lat="37.83217" lon="12.6646817"><ele>153.33333333333334</ele><time>2026-04-20T09:39:08.83Z</time></trkpt><trkpt lat="37.831995" lon="12.6648167"><ele>153.66666666666669</ele><time>2026-04-20T09:39:09.835Z</time></trkpt><trkpt lat="37.8318183" lon="12.6649517"><ele>154.0</ele><time>2026-04-20T09:39:10.832Z</time></trkpt><trkpt lat="37.8316417" lon="12.66509"><ele>154.66666666666669</ele><time>2026-04-20T09:39:11.831Z</time></trkpt><trkpt lat="37.8314633" lon="12.6652333"><ele>155.33333333333334</ele><time>2026-04-20T09:39:12.833Z</time></trkpt><trkpt lat="37.8312817" lon="12.66538"><ele>156.0</ele><time>2026-04-20T09:39:13.832Z</time></trkpt><trkpt lat="37.8310983" lon="12.6655267"><ele>155.66666666666666</ele><time>2026-04-20T09:39:14.836Z</time></trkpt><trkpt lat="37.830915" lon="12.6656733"><ele>155.33333333333331</ele><time>2026-04-20T09:39:15.832Z</time></trkpt><trkpt lat="37.8307333" lon="12.665815"><ele>155.0</ele><time>2026-04-20T09:39:16.831Z</time></trkpt><trkpt lat="37.83056" lon="12.66595"><ele>155.0</ele><time>2026-04-20T09:39:17.833Z</time></trkpt><trkpt lat="37.8304017" lon="12.666075"><ele>155.0</ele><time>2026-04-20T09:39:18.835Z</time></trkpt><trkpt lat="37.8302517" lon="12.666195"><ele>155.0</ele><time>2026-04-20T09:39:19.832Z</time></trkpt><trkpt lat="37.830105" lon="12.6663117"><ele>157.0</ele><time>2026-04-20T09:39:20.834Z</time></trkpt><trkpt lat="37.8299517" lon="12.6664267"><ele>159.0</ele><time>2026-04-20T09:39:21.833Z</time></trkpt><trkpt lat="37.8297867" lon="12.6665383"><ele>161.0</ele><time>2026-04-20T09:39:22.834Z</time></trkpt><trkpt lat="37.8296067" lon="12.6666483"><ele>161.0</ele><time>2026-04-20T09:39:23.833Z</time></trkpt><trkpt lat="37.8294183" lon="12.6667567"><ele>161.0</ele><time>2026-04-20T09:39:24.835Z</time></trkpt><trkpt lat="37.829235" lon="12.666855"><ele>161.0</ele><time>2026-04-20T09:39:25.831Z</time></trkpt><trkpt lat="37.8290667" lon="12.6669367"><ele>162.33333333333331</ele><time>2026-04-20T09:39:26.833Z</time></trkpt><trkpt lat="37.8289067" lon="12.6670033"><ele>163.66666666666666</ele><time>2026-04-20T09:39:27.832Z</time></trkpt><trkpt lat="37.8287317" lon="12.6670583"><ele>165.0</ele><time>2026-04-20T09:39:28.833Z</time></trkpt><trkpt lat="37.8285417" lon="12.6671017"><ele>169.5</ele><time>2026-04-20T09:39:29.83Z</time></trkpt><trkpt lat="37.828145" lon="12.667185"><ele>174.0</ele><time>2026-04-20T09:39:31.841Z</time></trkpt><trkpt lat="37.827955" lon="12.6672217"><ele>174.0</ele><time>2026-04-20T09:39:32.833Z</time></trkpt><trkpt lat="37.82778" lon="12.6672517"><ele>174.0</ele><time>2026-04-20T09:39:33.832Z</time></trkpt><trkpt lat="37.8276167" lon="12.667275"><ele>174.0</ele><time>2026-04-20T09:39:34.837Z</time></trkpt><trkpt lat="37.8274633" lon="12.6672867"><ele>174.75</ele><time>2026-04-20T09:39:35.832Z</time></trkpt><trkpt lat="37.8273233" lon="12.6672867"><ele>175.5</ele><time>2026-04-20T09:39:36.833Z</time></trkpt><trkpt lat="37.8272017" lon="12.66728"><ele>176.25</ele><time>2026-04-20T09:39:37.832Z</time></trkpt><trkpt lat="37.8270917" lon="12.6672633"><ele>177.0</ele><time>2026-04-20T09:39:38.832Z</time></trkpt><trkpt lat="37.8269783" lon="12.6672383"><ele>177.0</ele><time>2026-04-20T09:39:39.83Z</time></trkpt><trkpt lat="37.8268517" lon="12.6672067"><ele>177.0</ele><time>2026-04-20T09:39:40.831Z</time></trkpt><trkpt lat="37.8267117" lon="12.6671683"><ele>177.0</ele><time>2026-04-20T09:39:41.829Z</time></trkpt><trkpt lat="37.8265617" lon="12.667125"><ele>177.0</ele><time>2026-04-20T09:39:42.828Z</time></trkpt><trkpt lat="37.8264083" lon="12.6670733"><ele>176.5</ele><time>2026-04-20T09:39:43.834Z</time></trkpt><trkpt lat="37.8262567" lon="12.66702"><ele>176.0</ele><time>2026-04-20T09:39:44.833Z</time></trkpt><trkpt lat="37.826115" lon="12.66697"><ele>175.5</ele><time>2026-04-20T09:39:45.836Z</time></trkpt><trkpt lat="37.8259767" lon="12.66692"><ele>175.0</ele><time>2026-04-20T09:39:46.833Z</time></trkpt><trkpt lat="37.8258383" lon="12.6668667"><ele>175.0</ele><time>2026-04-20T09:39:47.832Z</time></trkpt><trkpt lat="37.8257067" lon="12.6668117"><ele>175.0</ele><time>2026-04-20T09:39:48.835Z</time></trkpt><trkpt lat="37.825575" lon="12.6667617"><ele>175.0</ele><time>2026-04-20T09:39:49.853Z</time></trkpt><trkpt lat="37.82544" lon="12.6667133"><ele>175.0</ele><time>2026-04-20T09:39:50.836Z</time></trkpt><trkpt lat="37.8253183" lon="12.66667"><ele>175.0</ele><time>2026-04-20T09:39:51.836Z</time></trkpt><trkpt lat="37.8252217" lon="12.6666333"><ele>175.0</ele><time>2026-04-20T09:39:52.836Z</time></trkpt><trkpt lat="37.825155" lon="12.6666067"><ele>175.0</ele><time>2026-04-20T09:39:53.84Z</time></trkpt><trkpt lat="37.8250333" lon="12.6665883"><ele>175.0</ele><time>2026-04-20T09:39:55.834Z</time></trkpt><trkpt lat="37.8249633" lon="12.666585"><ele>175.0</ele><time>2026-04-20T09:39:56.837Z</time></trkpt><trkpt lat="37.824885" lon="12.6665783"><ele>175.0</ele><time>2026-04-20T09:39:57.836Z</time></trkpt><trkpt lat="37.8247983" lon="12.6665717"><ele>176.5</ele><time>2026-04-20T09:39:58.832Z</time></trkpt><trkpt lat="37.8246933" lon="12.66657"><ele>178.0</ele><time>2026-04-20T09:39:59.834Z</time></trkpt><trkpt lat="37.8245783" lon="12.6665783"><ele>179.5</ele><time>2026-04-20T09:40:00.835Z</time></trkpt><trkpt lat="37.8244567" lon="12.6666017"><ele>181.0</ele><time>2026-04-20T09:40:01.831Z</time></trkpt><trkpt lat="37.8243217" lon="12.66664"><ele>181.5</ele><time>2026-04-20T09:40:02.834Z</time></trkpt><trkpt lat="37.824185" lon="12.6666833"><ele>182.0</ele><time>2026-04-20T09:40:03.834Z</time></trkpt><trkpt lat="37.8240617" lon="12.6667233"><ele>182.5</ele><time>2026-04-20T09:40:04.835Z</time></trkpt><trkpt lat="37.8239517" lon="12.6667583"><ele>183.0</ele><time>2026-04-20T09:40:05.836Z</time></trkpt><trkpt lat="37.8238517" lon="12.6667867"><ele>183.0</ele><time>2026-04-20T09:40:06.837Z</time></trkpt><trkpt lat="37.8237617" lon="12.6668167"><ele>183.0</ele><time>2026-04-20T09:40:07.836Z</time></trkpt><trkpt lat="37.82369" lon="12.666845"><ele>183.0</ele><time>2026-04-20T09:40:08.837Z</time></trkpt><trkpt lat="37.8236167" lon="12.6668717"><ele>183.0</ele><time>2026-04-20T09:40:09.835Z</time></trkpt><trkpt lat="37.823535" lon="12.66689"><ele>183.0</ele><time>2026-04-20T09:40:10.834Z</time></trkpt><trkpt lat="37.82345" lon="12.6669017"><ele>183.0</ele><time>2026-04-20T09:40:11.833Z</time></trkpt><trkpt lat="37.82337" lon="12.6669"><ele>183.2</ele><time>2026-04-20T09:40:12.834Z</time></trkpt><trkpt lat="37.82329" lon="12.6668767"><ele>183.4</ele><time>2026-04-20T09:40:13.831Z</time></trkpt><trkpt lat="37.8232017" lon="12.666835"><ele>183.6</ele><time>2026-04-20T09:40:14.834Z</time></trkpt><trkpt lat="37.8231083" lon="12.666775"><ele>183.79999999999998</ele><time>2026-04-20T09:40:15.834Z</time></trkpt><trkpt lat="37.8230117" lon="12.666705"><ele>184.0</ele><time>2026-04-20T09:40:16.833Z</time></trkpt><trkpt lat="37.8229133" lon="12.6666233"><ele>184.0</ele><time>2026-04-20T09:40:17.834Z</time></trkpt><trkpt lat="37.8228167" lon="12.6665233"><ele>184.0</ele><time>2026-04-20T09:40:18.834Z</time></trkpt><trkpt lat="37.8227267" lon="12.6664167"><ele>184.0</ele><time>2026-04-20T09:40:19.832Z</time></trkpt><trkpt lat="37.82265" lon="12.6663117"><ele>184.0</ele><time>2026-04-20T09:40:20.829Z</time></trkpt><trkpt lat="37.8225917" lon="12.66621"><ele>184.2</ele><time>2026-04-20T09:40:21.834Z</time></trkpt><trkpt lat="37.8225517" lon="12.666105"><ele>184.39999999999998</ele><time>2026-04-20T09:40:22.832Z</time></trkpt><trkpt lat="37.8225283" lon="12.66599"><ele>184.6</ele><time>2026-04-20T09:40:23.833Z</time></trkpt><trkpt lat="37.8225133" lon="12.6658567"><ele>184.8</ele><time>2026-04-20T09:40:24.834Z</time></trkpt><trkpt lat="37.8225033" lon="12.6657067"><ele>185.0</ele><time>2026-04-20T09:40:25.829Z</time></trkpt><trkpt lat="37.8224917" lon="12.66554"><ele>185.0</ele><time>2026-04-20T09:40:26.83Z</time></trkpt><trkpt lat="37.8224683" lon="12.6653683"><ele>185.0</ele><time>2026-04-20T09:40:27.832Z</time></trkpt><trkpt lat="37.8224267" lon="12.6651967"><ele>185.0</ele><time>2026-04-20T09:40:28.835Z</time></trkpt><trkpt lat="37.8223733" lon="12.6650283"><ele>185.0</ele><time>2026-04-20T09:40:29.828Z</time></trkpt><trkpt lat="37.822315" lon="12.6648717"><ele>184.75</ele><time>2026-04-20T09:40:30.835Z</time></trkpt><trkpt lat="37.8222533" lon="12.6647367"><ele>184.5</ele><time>2026-04-20T09:40:31.831Z</time></trkpt><trkpt lat="37.8221867" lon="12.6646233"><ele>184.25</ele><time>2026-04-20T09:40:32.829Z</time></trkpt><trkpt lat="37.8221067" lon="12.664535"><ele>184.0</ele><time>2026-04-20T09:40:33.833Z</time></trkpt><trkpt lat="37.8220133" lon="12.66445"><ele>182.66666666666669</ele><time>2026-04-20T09:40:34.831Z</time></trkpt><trkpt lat="37.8218983" lon="12.664365"><ele>181.33333333333334</ele><time>2026-04-20T09:40:35.834Z</time></trkpt><trkpt lat="37.8217667" lon="12.6642767"><ele>180.0</ele><time>2026-04-20T09:40:36.831Z</time></trkpt><trkpt lat="37.821615" lon="12.6641867"><ele>182.5</ele><time>2026-04-20T09:40:37.835Z</time></trkpt><trkpt lat="37.8214633" lon="12.6641017"><ele>185.0</ele><time>2026-04-20T09:40:38.835Z</time></trkpt><trkpt lat="37.8213283" lon="12.6640233"><ele>187.5</ele><time>2026-04-20T09:40:39.834Z</time></trkpt><trkpt lat="37.82121" lon="12.6639517"><ele>190.0</ele><time>2026-04-20T09:40:40.831Z</time></trkpt><trkpt lat="37.8210967" lon="12.663895"><ele>190.0</ele><time>2026-04-20T09:40:41.829Z</time></trkpt><trkpt lat="37.82099" lon="12.6638633"><ele>190.0</ele><time>2026-04-20T09:40:42.837Z</time></trkpt><trkpt lat="37.8208833" lon="12.663865"><ele>190.0</ele><time>2026-04-20T09:40:43.832Z</time></trkpt><trkpt lat="37.8207767" lon="12.6639067"><ele>190.0</ele><time>2026-04-20T09:40:44.832Z</time></trkpt><trkpt lat="37.8206767" lon="12.6639833"><ele>190.0</ele><time>2026-04-20T09:40:45.834Z</time></trkpt><trkpt lat="37.8205833" lon="12.6640967"><ele>190.33333333333334</ele><time>2026-04-20T09:40:46.827Z</time></trkpt><trkpt lat="37.8204883" lon="12.6642467"><ele>190.66666666666666</ele><time>2026-04-20T09:40:47.834Z</time></trkpt><trkpt lat="37.8203783" lon="12.6644233"><ele>191.0</ele><time>2026-04-20T09:40:48.836Z</time></trkpt><trkpt lat="37.8202517" lon="12.6646283"><ele>190.5</ele><time>2026-04-20T09:40:49.838Z</time></trkpt><trkpt lat="37.8201133" lon="12.6648517"><ele>190.0</ele><time>2026-04-20T09:40:50.835Z</time></trkpt><trkpt lat="37.8199717" lon="12.6650867"><ele>193.0</ele><time>2026-04-20T09:40:51.833Z</time></trkpt><trkpt lat="37.8198233" lon="12.6653283"><ele>196.0</ele><time>2026-04-20T09:40:52.831Z</time></trkpt><trkpt lat="37.819675" lon="12.66557"><ele>196.0</ele><time>2026-04-20T09:40:53.84Z</time></trkpt><trkpt lat="37.8195333" lon="12.6658"><ele>196.0</ele><time>2026-04-20T09:40:54.838Z</time></trkpt><trkpt lat="37.8194" lon="12.6660133"><ele>196.0</ele><time>2026-04-20T09:40:55.839Z</time></trkpt><trkpt lat="37.819275" lon="12.666215"><ele>194.66666666666666</ele><time>2026-04-20T09:40:56.841Z</time></trkpt><trkpt lat="37.8191567" lon="12.6664033"><ele>193.33333333333331</ele><time>2026-04-20T09:40:57.835Z</time></trkpt><trkpt lat="37.819045" lon="12.6665833"><ele>192.0</ele><time>2026-04-20T09:40:58.835Z</time></trkpt><trkpt lat="37.818935" lon="12.66676"><ele>192.0</ele><time>2026-04-20T09:40:59.834Z</time></trkpt><trkpt lat="37.8188217" lon="12.66694"><ele>192.0</ele><time>2026-04-20T09:41:00.835Z</time></trkpt><trkpt lat="37.8187083" lon="12.6671167"><ele>192.0</ele><time>2026-04-20T09:41:01.835Z</time></trkpt><trkpt lat="37.818605" lon="12.6672833"><ele>191.0</ele><time>2026-04-20T09:41:02.834Z</time></trkpt><trkpt lat="37.8185083" lon="12.6674383"><ele>190.0</ele><time>2026-04-20T09:41:03.833Z</time></trkpt><trkpt lat="37.8184183" lon="12.6675867"><ele>189.0</ele><time>2026-04-20T09:41:04.838Z</time></trkpt><trkpt lat="37.8183267" lon="12.6677333"><ele>189.0</ele><time>2026-04-20T09:41:05.836Z</time></trkpt><trkpt lat="37.8182267" lon="12.6678917"><ele>189.0</ele><time>2026-04-20T09:41:06.838Z</time></trkpt><trkpt lat="37.8181183" lon="12.6680633"><ele>189.0</ele><time>2026-04-20T09:41:07.837Z</time></trkpt><trkpt lat="37.818005" lon="12.668245"><ele>189.0</ele><time>2026-04-20T09:41:08.841Z</time></trkpt><trkpt lat="37.81789" lon="12.6684317"><ele>189.0</ele><time>2026-04-20T09:41:09.836Z</time></trkpt><trkpt lat="37.81777" lon="12.668625"><ele>189.0</ele><time>2026-04-20T09:41:10.839Z</time></trkpt><trkpt lat="37.8176483" lon="12.6688233"><ele>188.33333333333334</ele><time>2026-04-20T09:41:11.839Z</time></trkpt><trkpt lat="37.81752" lon="12.66903"><ele>187.66666666666669</ele><time>2026-04-20T09:41:12.837Z</time></trkpt><trkpt lat="37.8173933" lon="12.669235"><ele>187.0</ele><time>2026-04-20T09:41:13.838Z</time></trkpt><trkpt lat="37.81727" lon="12.6694283"><ele>188.66666666666669</ele><time>2026-04-20T09:41:14.833Z</time></trkpt><trkpt lat="37.8171567" lon="12.6696083"><ele>190.33333333333334</ele><time>2026-04-20T09:41:15.834Z</time></trkpt><trkpt lat="37.8170517" lon="12.6697767"><ele>192.0</ele><time>2026-04-20T09:41:16.832Z</time></trkpt><trkpt lat="37.81695" lon="12.6699383"><ele>192.0</ele><time>2026-04-20T09:41:17.834Z</time></trkpt><trkpt lat="37.816855" lon="12.67009"><ele>192.0</ele><time>2026-04-20T09:41:18.834Z</time></trkpt><trkpt lat="37.8167633" lon="12.6702283"><ele>192.0</ele><time>2026-04-20T09:41:19.833Z</time></trkpt><trkpt lat="37.8166683" lon="12.6703467"><ele>192.0</ele><time>2026-04-20T09:41:20.829Z</time></trkpt><trkpt lat="37.816555" lon="12.6704533"><ele>194.33333333333331</ele><time>2026-04-20T09:41:21.83Z</time></trkpt><trkpt lat="37.8164233" lon="12.67055"><ele>196.66666666666666</ele><time>2026-04-20T09:41:22.833Z</time></trkpt><trkpt lat="37.816275" lon="12.67062"><ele>199.0</ele><time>2026-04-20T09:41:23.831Z</time></trkpt><trkpt lat="37.81611" lon="12.67066"><ele>198.0</ele><time>2026-04-20T09:41:24.833Z</time></trkpt><trkpt lat="37.8159217" lon="12.6706767"><ele>197.0</ele><time>2026-04-20T09:41:25.842Z</time></trkpt><trkpt lat="37.8157117" lon="12.6706817"><ele>196.0</ele><time>2026-04-20T09:41:26.831Z</time></trkpt><trkpt lat="37.8154917" lon="12.6706883"><ele>196.0</ele><time>2026-04-20T09:41:27.832Z</time></trkpt><trkpt lat="37.8152717" lon="12.6707017"><ele>196.0</ele><time>2026-04-20T09:41:28.833Z</time></trkpt><trkpt lat="37.8150617" lon="12.6707133"><ele>196.0</ele><time>2026-04-20T09:41:29.835Z</time></trkpt><trkpt lat="37.8148667" lon="12.67072"><ele>195.33333333333331</ele><time>2026-04-20T09:41:30.835Z</time></trkpt><trkpt lat="37.81468" lon="12.6707217"><ele>194.66666666666669</ele><time>2026-04-20T09:41:31.835Z</time></trkpt><trkpt lat="37.8145067" lon="12.6707083"><ele>194.0</ele><time>2026-04-20T09:41:32.837Z</time></trkpt><trkpt lat="37.81435" lon="12.6706833"><ele>193.66666666666669</ele><time>2026-04-20T09:41:33.838Z</time></trkpt><trkpt lat="37.8142033" lon="12.670645"><ele>193.33333333333331</ele><time>2026-04-20T09:41:34.835Z</time></trkpt><trkpt lat="37.81405" lon="12.67059"><ele>193.0</ele><time>2026-04-20T09:41:35.838Z</time></trkpt><trkpt lat="37.813885" lon="12.6705233"><ele>193.0</ele><time>2026-04-20T09:41:36.836Z</time></trkpt><trkpt lat="37.8135117" lon="12.6703483"><ele>193.0</ele><time>2026-04-20T09:41:38.83Z</time></trkpt><trkpt lat="37.81331" lon="12.6702517"><ele>192.33333333333331</ele><time>2026-04-20T09:41:39.834Z</time></trkpt><trkpt lat="37.8131067" lon="12.6701533"><ele>191.66666666666666</ele><time>2026-04-20T09:41:40.83Z</time></trkpt><trkpt lat="37.81291" lon="12.6700583"><ele>191.0</ele><time>2026-04-20T09:41:41.831Z</time></trkpt><trkpt lat="37.81272" lon="12.6699683"><ele>189.33333333333331</ele><time>2026-04-20T09:41:42.833Z</time></trkpt><trkpt lat="37.8125317" lon="12.6698783"><ele>187.66666666666666</ele><time>2026-04-20T09:41:43.832Z</time></trkpt><trkpt lat="37.812355" lon="12.669795"><ele>186.0</ele><time>2026-04-20T09:41:44.831Z</time></trkpt><trkpt lat="37.81219" lon="12.669715"><ele>186.0</ele><time>2026-04-20T09:41:45.829Z</time></trkpt><trkpt lat="37.81203" lon="12.6696367"><ele>186.0</ele><time>2026-04-20T09:41:46.832Z</time></trkpt><trkpt lat="37.8118717" lon="12.6695617"><ele>186.0</ele><time>2026-04-20T09:41:47.829Z</time></trkpt><trkpt lat="37.8117133" lon="12.6694833"><ele>187.33333333333334</ele><time>2026-04-20T09:41:48.833Z</time></trkpt><trkpt lat="37.811565" lon="12.6694083"><ele>188.66666666666669</ele><time>2026-04-20T09:41:49.828Z</time></trkpt><trkpt lat="37.8114267" lon="12.6693283"><ele>190.0</ele><time>2026-04-20T09:41:50.832Z</time></trkpt><trkpt lat="37.8112967" lon="12.6692333"><ele>190.0</ele><time>2026-04-20T09:41:51.832Z</time></trkpt><trkpt lat="37.8111683" lon="12.6691167"><ele>190.0</ele><time>2026-04-20T09:41:52.827Z</time></trkpt><trkpt lat="37.811045" lon="12.66899"><ele>190.0</ele><time>2026-04-20T09:41:53.832Z</time></trkpt><trkpt lat="37.8109317" lon="12.6688617"><ele>188.75</ele><time>2026-04-20T09:41:54.831Z</time></trkpt><trkpt lat="37.8108267" lon="12.668735"><ele>187.5</ele><time>2026-04-20T09:41:55.831Z</time></trkpt><trkpt lat="37.8107233" lon="12.66861"><ele>186.25</ele><time>2026-04-20T09:41:56.829Z</time></trkpt><trkpt lat="37.8106233" lon="12.6684883"><ele>185.0</ele><time>2026-04-20T09:41:57.828Z</time></trkpt><trkpt lat="37.8105233" lon="12.6683717"><ele>185.0</ele><time>2026-04-20T09:41:58.826Z</time></trkpt><trkpt lat="37.81043" lon="12.66826"><ele>185.0</ele><time>2026-04-20T09:41:59.827Z</time></trkpt><trkpt lat="37.8103317" lon="12.668155"><ele>185.0</ele><time>2026-04-20T09:42:00.83Z</time></trkpt><trkpt lat="37.81022" lon="12.6680633"><ele>185.0</ele><time>2026-04-20T09:42:01.827Z</time></trkpt><trkpt lat="37.8101033" lon="12.6679733"><ele>184.66666666666666</ele><time>2026-04-20T09:42:02.829Z</time></trkpt><trkpt lat="37.8099767" lon="12.6678783"><ele>184.33333333333334</ele><time>2026-04-20T09:42:03.826Z</time></trkpt><trkpt lat="37.8098383" lon="12.6677783"><ele>184.0</ele><time>2026-04-20T09:42:04.83Z</time></trkpt><trkpt lat="37.809695" lon="12.6676733"><ele>184.0</ele><time>2026-04-20T09:42:05.831Z</time></trkpt><trkpt lat="37.809545" lon="12.6675683"><ele>184.0</ele><time>2026-04-20T09:42:06.831Z</time></trkpt><trkpt lat="37.8093867" lon="12.6674683"><ele>184.0</ele><time>2026-04-20T09:42:07.834Z</time></trkpt><trkpt lat="37.8092183" lon="12.6673767"><ele>180.66666666666669</ele><time>2026-04-20T09:42:08.831Z</time></trkpt><trkpt lat="37.8090417" lon="12.6672917"><ele>177.33333333333334</ele><time>2026-04-20T09:42:09.838Z</time></trkpt><trkpt lat="37.8088533" lon="12.6672083"><ele>174.0</ele><time>2026-04-20T09:42:10.83Z</time></trkpt><trkpt lat="37.8086533" lon="12.667125"><ele>170.0</ele><time>2026-04-20T09:42:11.83Z</time></trkpt><trkpt lat="37.80844" lon="12.6670367"><ele>166.0</ele><time>2026-04-20T09:42:12.829Z</time></trkpt><trkpt lat="37.8082167" lon="12.666945"><ele>166.0</ele><time>2026-04-20T09:42:13.829Z</time></trkpt><trkpt lat="37.8080017" lon="12.6668567"><ele>166.0</ele><time>2026-04-20T09:42:14.83Z</time></trkpt><trkpt lat="37.807795" lon="12.66677"><ele>166.0</ele><time>2026-04-20T09:42:15.837Z</time></trkpt><trkpt lat="37.8076067" lon="12.6666883"><ele>166.0</ele><time>2026-04-20T09:42:16.831Z</time></trkpt><trkpt lat="37.8074367" lon="12.666615"><ele>166.0</ele><time>2026-04-20T09:42:17.833Z</time></trkpt><trkpt lat="37.8072767" lon="12.666545"><ele>166.0</ele><time>2026-04-20T09:42:18.832Z</time></trkpt><trkpt lat="37.8071217" lon="12.6664867"><ele>166.0</ele><time>2026-04-20T09:42:19.829Z</time></trkpt><trkpt lat="37.8069667" lon="12.66644"><ele>166.0</ele><time>2026-04-20T09:42:20.83Z</time></trkpt><trkpt lat="37.806805" lon="12.66641"><ele>166.0</ele><time>2026-04-20T09:42:21.833Z</time></trkpt><trkpt lat="37.8066333" lon="12.6663983"><ele>163.66666666666669</ele><time>2026-04-20T09:42:22.828Z</time></trkpt><trkpt lat="37.8064483" lon="12.66641"><ele>161.33333333333334</ele><time>2026-04-20T09:42:23.832Z</time></trkpt><trkpt lat="37.8062533" lon="12.6664417"><ele>159.0</ele><time>2026-04-20T09:42:24.829Z</time></trkpt><trkpt lat="37.8060517" lon="12.66649"><ele>157.5</ele><time>2026-04-20T09:42:25.83Z</time></trkpt><trkpt lat="37.805835" lon="12.6665517"><ele>156.0</ele><time>2026-04-20T09:42:26.829Z</time></trkpt><trkpt lat="37.805605" lon="12.66661"><ele>156.0</ele><time>2026-04-20T09:42:27.829Z</time></trkpt><trkpt lat="37.805385" lon="12.666665"><ele>156.0</ele><time>2026-04-20T09:42:28.828Z</time></trkpt><trkpt lat="37.80518" lon="12.6667183"><ele>156.0</ele><time>2026-04-20T09:42:29.828Z</time></trkpt><trkpt lat="37.804985" lon="12.6667717"><ele>155.0</ele><time>2026-04-20T09:42:30.835Z</time></trkpt><trkpt lat="37.8047983" lon="12.6668183"><ele>154.0</ele><time>2026-04-20T09:42:31.83Z</time></trkpt><trkpt lat="37.80462" lon="12.6668617"><ele>153.0</ele><time>2026-04-20T09:42:32.829Z</time></trkpt><trkpt lat="37.8044483" lon="12.6669033"><ele>150.66666666666666</ele><time>2026-04-20T09:42:33.827Z</time></trkpt><trkpt lat="37.8042833" lon="12.666945"><ele>148.33333333333331</ele><time>2026-04-20T09:42:34.832Z</time></trkpt><trkpt lat="37.8041333" lon="12.6669883"><ele>146.0</ele><time>2026-04-20T09:42:35.834Z</time></trkpt><trkpt lat="37.804" lon="12.667025"><ele>146.0</ele><time>2026-04-20T09:42:36.828Z</time></trkpt><trkpt lat="37.8038883" lon="12.66705"><ele>146.0</ele><time>2026-04-20T09:42:37.826Z</time></trkpt><trkpt lat="37.8037983" lon="12.66706"><ele>146.0</ele><time>2026-04-20T09:42:38.831Z</time></trkpt><trkpt lat="37.8037217" lon="12.66705"><ele>146.0</ele><time>2026-04-20T09:42:39.832Z</time></trkpt><trkpt lat="37.8036233" lon="12.6669817"><ele>146.0</ele><time>2026-04-20T09:42:41.832Z</time></trkpt><trkpt lat="37.80357" lon="12.666845"><ele>147.33333333333331</ele><time>2026-04-20T09:42:43.829Z</time></trkpt><trkpt lat="37.8035583" lon="12.6667033"><ele>148.66666666666666</ele><time>2026-04-20T09:42:44.831Z</time></trkpt><trkpt lat="37.8035533" lon="12.66651"><ele>150.0</ele><time>2026-04-20T09:42:45.827Z</time></trkpt><trkpt lat="37.80355" lon="12.6662433"><ele>150.0</ele><time>2026-04-20T09:42:46.831Z</time></trkpt><trkpt lat="37.8035433" lon="12.6659183"><ele>150.0</ele><time>2026-04-20T09:42:47.831Z</time></trkpt><trkpt lat="37.8035283" lon="12.6655383"><ele>150.0</ele><time>2026-04-20T09:42:48.831Z</time></trkpt><trkpt lat="37.8034983" lon="12.6651183"><ele>150.0</ele><time>2026-04-20T09:42:49.827Z</time></trkpt><trkpt lat="37.8034667" lon="12.664665"><ele>151.0</ele><time>2026-04-20T09:42:50.832Z</time></trkpt><trkpt lat="37.803435" lon="12.6641867"><ele>152.0</ele><time>2026-04-20T09:42:51.829Z</time></trkpt><trkpt lat="37.8034033" lon="12.6636867"><ele>152.0</ele><time>2026-04-20T09:42:52.829Z</time></trkpt><trkpt lat="37.80337" lon="12.6631733"><ele>152.0</ele><time>2026-04-20T09:42:53.83Z</time></trkpt><trkpt lat="37.803335" lon="12.6626433"><ele>152.0</ele><time>2026-04-20T09:42:54.832Z</time></trkpt><trkpt lat="37.8033" lon="12.66211"><ele>152.0</ele><time>2026-04-20T09:42:55.829Z</time></trkpt><trkpt lat="37.8032683" lon="12.6616017"><ele>152.0</ele><time>2026-04-20T09:42:56.831Z</time></trkpt><trkpt lat="37.80324" lon="12.6611333"><ele>152.0</ele><time>2026-04-20T09:42:57.83Z</time></trkpt><trkpt lat="37.8032117" lon="12.660695"><ele>152.0</ele><time>2026-04-20T09:42:58.831Z</time></trkpt><trkpt lat="37.8031867" lon="12.660285"><ele>152.0</ele><time>2026-04-20T09:42:59.831Z</time></trkpt><trkpt lat="37.8031633" lon="12.6598933"><ele>151.5</ele><time>2026-04-20T09:43:00.83Z</time></trkpt><trkpt lat="37.80314" lon="12.659515"><ele>151.0</ele><time>2026-04-20T09:43:01.83Z</time></trkpt><trkpt lat="37.8031167" lon="12.6591433"><ele>150.0</ele><time>2026-04-20T09:43:02.83Z</time></trkpt><trkpt lat="37.8030967" lon="12.658775"><ele>149.0</ele><time>2026-04-20T09:43:03.831Z</time></trkpt><trkpt lat="37.8030717" lon="12.65841"><ele>148.5</ele><time>2026-04-20T09:43:04.832Z</time></trkpt><trkpt lat="37.80305" lon="12.658045"><ele>148.0</ele><time>2026-04-20T09:43:05.828Z</time></trkpt><trkpt lat="37.8030283" lon="12.6576817"><ele>147.5</ele><time>2026-04-20T09:43:06.831Z</time></trkpt><trkpt lat="37.8030067" lon="12.6573183"><ele>147.0</ele><time>2026-04-20T09:43:07.832Z</time></trkpt><trkpt lat="37.802985" lon="12.6569567"><ele>148.0</ele><time>2026-04-20T09:43:08.833Z</time></trkpt><trkpt lat="37.8029617" lon="12.656595"><ele>149.0</ele><time>2026-04-20T09:43:09.83Z</time></trkpt><trkpt lat="37.8029417" lon="12.6562333"><ele>148.5</ele><time>2026-04-20T09:43:10.828Z</time></trkpt><trkpt lat="37.8029167" lon="12.6558717"><ele>148.0</ele><time>2026-04-20T09:43:11.831Z</time></trkpt><trkpt lat="37.802895" lon="12.6555117"><ele>147.5</ele><time>2026-04-20T09:43:12.831Z</time></trkpt><trkpt lat="37.80287" lon="12.65515"><ele>147.0</ele><time>2026-04-20T09:43:13.832Z</time></trkpt><trkpt lat="37.8028467" lon="12.6547883"><ele>147.0</ele><time>2026-04-20T09:43:14.831Z</time></trkpt><trkpt lat="37.802825" lon="12.6544267"><ele>147.0</ele><time>2026-04-20T09:43:15.828Z</time></trkpt><trkpt lat="37.8028017" lon="12.6540617"><ele>147.0</ele><time>2026-04-20T09:43:16.832Z</time></trkpt><trkpt lat="37.8027767" lon="12.653695"><ele>147.0</ele><time>2026-04-20T09:43:17.834Z</time></trkpt><trkpt lat="37.8027533" lon="12.6533283"><ele>147.0</ele><time>2026-04-20T09:43:18.833Z</time></trkpt><trkpt lat="37.8027283" lon="12.65296"><ele>147.0</ele><time>2026-04-20T09:43:19.831Z</time></trkpt><trkpt lat="37.802705" lon="12.6525933"><ele>146.5</ele><time>2026-04-20T09:43:20.834Z</time></trkpt><trkpt lat="37.8026817" lon="12.652225"><ele>146.0</ele><time>2026-04-20T09:43:21.832Z</time></trkpt><trkpt lat="37.8026567" lon="12.6518583"><ele>144.0</ele><time>2026-04-20T09:43:22.828Z</time></trkpt><trkpt lat="37.8026333" lon="12.6514917"><ele>142.0</ele><time>2026-04-20T09:43:23.83Z</time></trkpt><trkpt lat="37.80261" lon="12.651125"><ele>142.0</ele><time>2026-04-20T09:43:24.83Z</time></trkpt><trkpt lat="37.8025867" lon="12.65076"><ele>142.0</ele><time>2026-04-20T09:43:25.83Z</time></trkpt><trkpt lat="37.802565" lon="12.650395"><ele>142.5</ele><time>2026-04-20T09:43:26.83Z</time></trkpt><trkpt lat="37.8025417" lon="12.6500317"><ele>143.0</ele><time>2026-04-20T09:43:27.828Z</time></trkpt><trkpt lat="37.8025167" lon="12.6496667"><ele>143.0</ele><time>2026-04-20T09:43:28.829Z</time></trkpt><trkpt lat="37.8024933" lon="12.649305"><ele>143.0</ele><time>2026-04-20T09:43:29.831Z</time></trkpt><trkpt lat="37.8024717" lon="12.648945"><ele>143.0</ele><time>2026-04-20T09:43:30.831Z</time></trkpt><trkpt lat="37.80245" lon="12.6485867"><ele>143.0</ele><time>2026-04-20T09:43:31.829Z</time></trkpt><trkpt lat="37.80243" lon="12.6482317"><ele>143.0</ele><time>2026-04-20T09:43:32.843Z</time></trkpt><trkpt lat="37.8024083" lon="12.64788"><ele>143.0</ele><time>2026-04-20T09:43:33.831Z</time></trkpt><trkpt lat="37.8023867" lon="12.647525"><ele>143.0</ele><time>2026-04-20T09:43:34.831Z</time></trkpt><trkpt lat="37.8023617" lon="12.6471683"><ele>143.0</ele><time>2026-04-20T09:43:35.832Z</time></trkpt><trkpt lat="37.80234" lon="12.6468067"><ele>143.5</ele><time>2026-04-20T09:43:36.832Z</time></trkpt><trkpt lat="37.802315" lon="12.646445"><ele>144.0</ele><time>2026-04-20T09:43:37.833Z</time></trkpt><trkpt lat="37.8022917" lon="12.64608"><ele>144.5</ele><time>2026-04-20T09:43:38.831Z</time></trkpt><trkpt lat="37.8022683" lon="12.645715"><ele>145.0</ele><time>2026-04-20T09:43:39.831Z</time></trkpt><trkpt lat="37.802245" lon="12.6453483"><ele>144.5</ele><time>2026-04-20T09:43:40.831Z</time></trkpt><trkpt lat="37.8022217" lon="12.6449833"><ele>144.0</ele><time>2026-04-20T09:43:41.832Z</time></trkpt><trkpt lat="37.8022" lon="12.6446133"><ele>144.5</ele><time>2026-04-20T09:43:42.828Z</time></trkpt><trkpt lat="37.8021767" lon="12.644245"><ele>145.0</ele><time>2026-04-20T09:43:43.83Z</time></trkpt><trkpt lat="37.8021533" lon="12.643875"><ele>144.0</ele><time>2026-04-20T09:43:44.832Z</time></trkpt><trkpt lat="37.80213" lon="12.6435033"><ele>143.0</ele><time>2026-04-20T09:43:45.831Z</time></trkpt><trkpt lat="37.80211" lon="12.6431317"><ele>143.5</ele><time>2026-04-20T09:43:46.829Z</time></trkpt><trkpt lat="37.80209" lon="12.6427583"><ele>144.0</ele><time>2026-04-20T09:43:47.83Z</time></trkpt><trkpt lat="37.8020683" lon="12.6423883"><ele>144.0</ele><time>2026-04-20T09:43:48.83Z</time></trkpt><trkpt lat="37.802045" lon="12.642015"><ele>144.0</ele><time>2026-04-20T09:43:49.832Z</time></trkpt><trkpt lat="37.80202" lon="12.6416417"><ele>144.5</ele><time>2026-04-20T09:43:50.834Z</time></trkpt><trkpt lat="37.8019933" lon="12.6412683"><ele>145.0</ele><time>2026-04-20T09:43:51.83Z</time></trkpt><trkpt lat="37.80197" lon="12.6408983"><ele>143.5</ele><time>2026-04-20T09:43:52.83Z</time></trkpt><trkpt lat="37.8019483" lon="12.6405417"><ele>142.0</ele><time>2026-04-20T09:43:53.83Z</time></trkpt><trkpt lat="37.80193" lon="12.6402033"><ele>142.0</ele><time>2026-04-20T09:43:54.833Z</time></trkpt><trkpt lat="37.8019117" lon="12.6398733"><ele>142.0</ele><time>2026-04-20T09:43:55.83Z</time></trkpt><trkpt lat="37.8018917" lon="12.63955"><ele>141.5</ele><time>2026-04-20T09:43:56.832Z</time></trkpt><trkpt lat="37.8018717" lon="12.6392317"><ele>141.0</ele><time>2026-04-20T09:43:57.832Z</time></trkpt><trkpt lat="37.8018467" lon="12.638925"><ele>140.5</ele><time>2026-04-20T09:43:58.831Z</time></trkpt><trkpt lat="37.8018133" lon="12.6386233"><ele>140.0</ele><time>2026-04-20T09:43:59.83Z</time></trkpt><trkpt lat="37.8017717" lon="12.6383233"><ele>140.0</ele><time>2026-04-20T09:44:00.831Z</time></trkpt><trkpt lat="37.80172" lon="12.6380333"><ele>140.0</ele><time>2026-04-20T09:44:01.831Z</time></trkpt><trkpt lat="37.801655" lon="12.6377467"><ele>138.0</ele><time>2026-04-20T09:44:02.831Z</time></trkpt><trkpt lat="37.8015783" lon="12.6374617"><ele>136.0</ele><time>2026-04-20T09:44:03.828Z</time></trkpt><trkpt lat="37.8014917" lon="12.6371733"><ele>133.0</ele><time>2026-04-20T09:44:04.829Z</time></trkpt><trkpt lat="37.8013967" lon="12.6368867"><ele>130.0</ele><time>2026-04-20T09:44:05.832Z</time></trkpt><trkpt lat="37.801295" lon="12.6365983"><ele>130.0</ele><time>2026-04-20T09:44:06.832Z</time></trkpt><trkpt lat="37.801195" lon="12.6363133"><ele>130.0</ele><time>2026-04-20T09:44:07.828Z</time></trkpt><trkpt lat="37.801095" lon="12.636035"><ele>130.0</ele><time>2026-04-20T09:44:08.83Z</time></trkpt><trkpt lat="37.8009917" lon="12.635765"><ele>130.0</ele><time>2026-04-20T09:44:09.833Z</time></trkpt><trkpt lat="37.8008767" lon="12.6355"><ele>127.5</ele><time>2026-04-20T09:44:10.831Z</time></trkpt><trkpt lat="37.80075" lon="12.6352417"><ele>125.0</ele><time>2026-04-20T09:44:11.831Z</time></trkpt><trkpt lat="37.8006133" lon="12.6349917"><ele>125.0</ele><time>2026-04-20T09:44:12.831Z</time></trkpt><trkpt lat="37.8004733" lon="12.634755"><ele>125.0</ele><time>2026-04-20T09:44:13.832Z</time></trkpt><trkpt lat="37.80033" lon="12.6345317"><ele>125.0</ele><time>2026-04-20T09:44:14.832Z</time></trkpt><trkpt lat="37.8001933" lon="12.63432"><ele>125.0</ele><time>2026-04-20T09:44:15.832Z</time></trkpt><trkpt lat="37.80007" lon="12.6341117"><ele>125.0</ele><time>2026-04-20T09:44:16.827Z</time></trkpt><trkpt lat="37.7999617" lon="12.6339067"><ele>125.0</ele><time>2026-04-20T09:44:17.827Z</time></trkpt><trkpt lat="37.7998667" lon="12.6337017"><ele>125.0</ele><time>2026-04-20T09:44:18.832Z</time></trkpt><trkpt lat="37.7997783" lon="12.6335017"><ele>125.0</ele><time>2026-04-20T09:44:19.83Z</time></trkpt><trkpt lat="37.7996983" lon="12.6333067"><ele>122.33333333333333</ele><time>2026-04-20T09:44:20.831Z</time></trkpt><trkpt lat="37.7996267" lon="12.6331133"><ele>119.66666666666666</ele><time>2026-04-20T09:44:21.829Z</time></trkpt><trkpt lat="37.7995633" lon="12.632915"><ele>117.0</ele><time>2026-04-20T09:44:22.834Z</time></trkpt><trkpt lat="37.799505" lon="12.6327133"><ele>115.33333333333334</ele><time>2026-04-20T09:44:23.834Z</time></trkpt><trkpt lat="37.799455" lon="12.632505"><ele>113.66666666666667</ele><time>2026-04-20T09:44:24.83Z</time></trkpt><trkpt lat="37.79941" lon="12.6323017"><ele>112.0</ele><time>2026-04-20T09:44:25.83Z</time></trkpt><trkpt lat="37.7993733" lon="12.6321"><ele>112.0</ele><time>2026-04-20T09:44:26.831Z</time></trkpt><trkpt lat="37.7993417" lon="12.6318967"><ele>112.0</ele><time>2026-04-20T09:44:27.831Z</time></trkpt><trkpt lat="37.799315" lon="12.6316867"><ele>112.0</ele><time>2026-04-20T09:44:28.831Z</time></trkpt><trkpt lat="37.7992917" lon="12.6314733"><ele>112.0</ele><time>2026-04-20T09:44:29.832Z</time></trkpt><trkpt lat="37.7992783" lon="12.63126"><ele>112.0</ele><time>2026-04-20T09:44:30.829Z</time></trkpt><trkpt lat="37.79927" lon="12.6310467"><ele>112.0</ele><time>2026-04-20T09:44:31.832Z</time></trkpt><trkpt lat="37.7992667" lon="12.6308417"><ele>111.5</ele><time>2026-04-20T09:44:32.832Z</time></trkpt><trkpt lat="37.7992683" lon="12.6306517"><ele>111.0</ele><time>2026-04-20T09:44:33.831Z</time></trkpt><trkpt lat="37.799275" lon="12.6304717"><ele>110.5</ele><time>2026-04-20T09:44:34.835Z</time></trkpt><trkpt lat="37.799285" lon="12.6303017"><ele>110.0</ele><time>2026-04-20T09:44:35.833Z</time></trkpt><trkpt lat="37.799295" lon="12.63014"><ele>109.75</ele><time>2026-04-20T09:44:36.838Z</time></trkpt><trkpt lat="37.7993083" lon="12.629975"><ele>109.5</ele><time>2026-04-20T09:44:37.833Z</time></trkpt><trkpt lat="37.79932" lon="12.6297983"><ele>109.25</ele><time>2026-04-20T09:44:38.834Z</time></trkpt><trkpt lat="37.7993317" lon="12.6296083"><ele>109.0</ele><time>2026-04-20T09:44:39.837Z</time></trkpt><trkpt lat="37.7993433" lon="12.6294083"><ele>109.0</ele><time>2026-04-20T09:44:40.832Z</time></trkpt><trkpt lat="37.799355" lon="12.6291967"><ele>109.0</ele><time>2026-04-20T09:44:41.829Z</time></trkpt><trkpt lat="37.7993683" lon="12.6289733"><ele>109.0</ele><time>2026-04-20T09:44:42.836Z</time></trkpt><trkpt lat="37.799385" lon="12.6287433"><ele>108.66666666666667</ele><time>2026-04-20T09:44:43.83Z</time></trkpt><trkpt lat="37.7994017" lon="12.6285067"><ele>108.33333333333334</ele><time>2026-04-20T09:44:44.83Z</time></trkpt><trkpt lat="37.7994217" lon="12.6282617"><ele>108.0</ele><time>2026-04-20T09:44:45.834Z</time></trkpt><trkpt lat="37.7994483" lon="12.6280033"><ele>107.0</ele><time>2026-04-20T09:44:46.827Z</time></trkpt><trkpt lat="37.7994667" lon="12.6277367"><ele>106.0</ele><time>2026-04-20T09:44:47.828Z</time></trkpt><trkpt lat="37.7994833" lon="12.62746"><ele>105.0</ele><time>2026-04-20T09:44:48.829Z</time></trkpt><trkpt lat="37.7995033" lon="12.62718"><ele>105.5</ele><time>2026-04-20T09:44:49.833Z</time></trkpt><trkpt lat="37.799525" lon="12.626895"><ele>106.0</ele><time>2026-04-20T09:44:50.831Z</time></trkpt><trkpt lat="37.7995533" lon="12.6266017"><ele>106.0</ele><time>2026-04-20T09:44:51.832Z</time></trkpt><trkpt lat="37.7995917" lon="12.6263033"><ele>106.0</ele><time>2026-04-20T09:44:52.83Z</time></trkpt><trkpt lat="37.7996417" lon="12.626"><ele>107.5</ele><time>2026-04-20T09:44:53.829Z</time></trkpt><trkpt lat="37.799705" lon="12.625695"><ele>109.0</ele><time>2026-04-20T09:44:54.831Z</time></trkpt><trkpt lat="37.7997817" lon="12.625395"><ele>109.0</ele><time>2026-04-20T09:44:55.83Z</time></trkpt><trkpt lat="37.7998733" lon="12.6251017"><ele>109.0</ele><time>2026-04-20T09:44:56.833Z</time></trkpt><trkpt lat="37.7999783" lon="12.6248167"><ele>109.0</ele><time>2026-04-20T09:44:57.829Z</time></trkpt><trkpt lat="37.8000933" lon="12.624535"><ele>109.0</ele><time>2026-04-20T09:44:58.828Z</time></trkpt><trkpt lat="37.8002183" lon="12.6242567"><ele>106.0</ele><time>2026-04-20T09:44:59.829Z</time></trkpt><trkpt lat="37.8003517" lon="12.6239817"><ele>103.0</ele><time>2026-04-20T09:45:00.83Z</time></trkpt><trkpt lat="37.8004933" lon="12.6237083"><ele>101.5</ele><time>2026-04-20T09:45:01.828Z</time></trkpt><trkpt lat="37.8006367" lon="12.6234367"><ele>100.0</ele><time>2026-04-20T09:45:02.828Z</time></trkpt><trkpt lat="37.8007767" lon="12.6231683"><ele>100.0</ele><time>2026-04-20T09:45:03.829Z</time></trkpt><trkpt lat="37.800915" lon="12.622905"><ele>100.0</ele><time>2026-04-20T09:45:04.83Z</time></trkpt><trkpt lat="37.801045" lon="12.62266"><ele>99.66666666666667</ele><time>2026-04-20T09:45:05.833Z</time></trkpt><trkpt lat="37.80117" lon="12.6224283"><ele>99.33333333333334</ele><time>2026-04-20T09:45:06.83Z</time></trkpt><trkpt lat="37.8012867" lon="12.6222"><ele>99.0</ele><time>2026-04-20T09:45:07.827Z</time></trkpt><trkpt lat="37.8013983" lon="12.6219667"><ele>99.66666666666666</ele><time>2026-04-20T09:45:08.83Z</time></trkpt><trkpt lat="37.801505" lon="12.6217267"><ele>100.33333333333333</ele><time>2026-04-20T09:45:09.832Z</time></trkpt><trkpt lat="37.8015983" lon="12.6214717"><ele>101.0</ele><time>2026-04-20T09:45:10.827Z</time></trkpt><trkpt lat="37.8016767" lon="12.6212067"><ele>101.5</ele><time>2026-04-20T09:45:11.831Z</time></trkpt><trkpt lat="37.8017433" lon="12.6209317"><ele>102.0</ele><time>2026-04-20T09:45:12.83Z</time></trkpt><trkpt lat="37.8017883" lon="12.62065"><ele>102.0</ele><time>2026-04-20T09:45:13.832Z</time></trkpt><trkpt lat="37.8018183" lon="12.6203633"><ele>102.0</ele><time>2026-04-20T09:45:14.83Z</time></trkpt><trkpt lat="37.801835" lon="12.6200717"><ele>99.5</ele><time>2026-04-20T09:45:15.831Z</time></trkpt><trkpt lat="37.801835" lon="12.619775"><ele>97.0</ele><time>2026-04-20T09:45:16.832Z</time></trkpt><trkpt lat="37.8018133" lon="12.6194783"><ele>94.5</ele><time>2026-04-20T09:45:17.829Z</time></trkpt><trkpt lat="37.8017767" lon="12.61918"><ele>92.0</ele><time>2026-04-20T09:45:18.828Z</time></trkpt><trkpt lat="37.8017267" lon="12.61888"><ele>90.0</ele><time>2026-04-20T09:45:19.831Z</time></trkpt><trkpt lat="37.8016667" lon="12.6185783"><ele>88.0</ele><time>2026-04-20T09:45:20.829Z</time></trkpt><trkpt lat="37.8016" lon="12.6182767"><ele>88.0</ele><time>2026-04-20T09:45:21.829Z</time></trkpt><trkpt lat="37.8015333" lon="12.6179733"><ele>88.0</ele><time>2026-04-20T09:45:22.831Z</time></trkpt><trkpt lat="37.8014717" lon="12.6176683"><ele>85.5</ele><time>2026-04-20T09:45:23.83Z</time></trkpt><trkpt lat="37.80142" lon="12.61736"><ele>83.0</ele><time>2026-04-20T09:45:24.831Z</time></trkpt><trkpt lat="37.8013767" lon="12.6170483"><ele>81.5</ele><time>2026-04-20T09:45:25.833Z</time></trkpt><trkpt lat="37.801345" lon="12.616735"><ele>80.0</ele><time>2026-04-20T09:45:26.835Z</time></trkpt><trkpt lat="37.8013267" lon="12.6164217"><ele>80.0</ele><time>2026-04-20T09:45:27.83Z</time></trkpt><trkpt lat="37.801325" lon="12.616105"><ele>80.0</ele><time>2026-04-20T09:45:28.831Z</time></trkpt><trkpt lat="37.8013433" lon="12.6157867"><ele>80.0</ele><time>2026-04-20T09:45:29.827Z</time></trkpt><trkpt lat="37.801375" lon="12.6154633"><ele>80.0</ele><time>2026-04-20T09:45:30.83Z</time></trkpt><trkpt lat="37.8014133" lon="12.6151383"><ele>79.0</ele><time>2026-04-20T09:45:31.829Z</time></trkpt><trkpt lat="37.8014533" lon="12.6148067"><ele>78.0</ele><time>2026-04-20T09:45:32.831Z</time></trkpt><trkpt lat="37.80149" lon="12.6144717"><ele>77.0</ele><time>2026-04-20T09:45:33.83Z</time></trkpt><trkpt lat="37.8015283" lon="12.6141367"><ele>76.0</ele><time>2026-04-20T09:45:34.83Z</time></trkpt><trkpt lat="37.8015683" lon="12.6138017"><ele>75.0</ele><time>2026-04-20T09:45:35.831Z</time></trkpt><trkpt lat="37.80161" lon="12.6134667"><ele>74.0</ele><time>2026-04-20T09:45:36.83Z</time></trkpt><trkpt lat="37.8016467" lon="12.61313"><ele>73.0</ele><time>2026-04-20T09:45:37.832Z</time></trkpt><trkpt lat="37.801685" lon="12.6127917"><ele>72.0</ele><time>2026-04-20T09:45:38.834Z</time></trkpt><trkpt lat="37.8017217" lon="12.6124517"><ele>72.0</ele><time>2026-04-20T09:45:39.833Z</time></trkpt><trkpt lat="37.80176" lon="12.6121133"><ele>72.0</ele><time>2026-04-20T09:45:40.834Z</time></trkpt><trkpt lat="37.8018017" lon="12.61178"><ele>71.0</ele><time>2026-04-20T09:45:41.835Z</time></trkpt><trkpt lat="37.8018417" lon="12.6114467"><ele>70.0</ele><time>2026-04-20T09:45:42.831Z</time></trkpt><trkpt lat="37.8018783" lon="12.611115"><ele>69.5</ele><time>2026-04-20T09:45:43.829Z</time></trkpt><trkpt lat="37.8019167" lon="12.610785"><ele>69.0</ele><time>2026-04-20T09:45:44.832Z</time></trkpt><trkpt lat="37.801955" lon="12.6104517"><ele>69.5</ele><time>2026-04-20T09:45:45.832Z</time></trkpt><trkpt lat="37.801995" lon="12.6101133"><ele>70.0</ele><time>2026-04-20T09:45:46.831Z</time></trkpt><trkpt lat="37.8020333" lon="12.60977"><ele>70.5</ele><time>2026-04-20T09:45:47.829Z</time></trkpt><trkpt lat="37.8020767" lon="12.6094217"><ele>71.0</ele><time>2026-04-20T09:45:48.83Z</time></trkpt><trkpt lat="37.8021167" lon="12.6090633"><ele>71.0</ele><time>2026-04-20T09:45:49.831Z</time></trkpt><trkpt lat="37.8021583" lon="12.6086917"><ele>71.0</ele><time>2026-04-20T09:45:50.834Z</time></trkpt><trkpt lat="37.8022017" lon="12.6083067"><ele>70.5</ele><time>2026-04-20T09:45:51.831Z</time></trkpt><trkpt lat="37.8022433" lon="12.6079117"><ele>70.0</ele><time>2026-04-20T09:45:52.831Z</time></trkpt><trkpt lat="37.80229" lon="12.6075067"><ele>69.0</ele><time>2026-04-20T09:45:53.832Z</time></trkpt><trkpt lat="37.8023383" lon="12.6070933"><ele>68.0</ele><time>2026-04-20T09:45:54.83Z</time></trkpt><trkpt lat="37.80239" lon="12.606675"><ele>67.0</ele><time>2026-04-20T09:45:55.832Z</time></trkpt><trkpt lat="37.8024417" lon="12.6062467"><ele>66.0</ele><time>2026-04-20T09:45:56.83Z</time></trkpt><trkpt lat="37.802495" lon="12.6058117"><ele>65.5</ele><time>2026-04-20T09:45:57.833Z</time></trkpt><trkpt lat="37.8025483" lon="12.6053667"><ele>65.0</ele><time>2026-04-20T09:45:58.832Z</time></trkpt><trkpt lat="37.8026017" lon="12.6049183"><ele>66.0</ele><time>2026-04-20T09:45:59.83Z</time></trkpt><trkpt lat="37.8026567" lon="12.6044617"><ele>67.0</ele><time>2026-04-20T09:46:00.831Z</time></trkpt><trkpt lat="37.8027117" lon="12.604"><ele>67.0</ele><time>2026-04-20T09:46:01.831Z</time></trkpt><trkpt lat="37.802765" lon="12.6035433"><ele>67.0</ele><time>2026-04-20T09:46:02.833Z</time></trkpt><trkpt lat="37.8028133" lon="12.6031117"><ele>66.0</ele><time>2026-04-20T09:46:03.834Z</time></trkpt><trkpt lat="37.8028583" lon="12.6027133"><ele>65.0</ele><time>2026-04-20T09:46:04.832Z</time></trkpt><trkpt lat="37.8029033" lon="12.6023417"><ele>64.5</ele><time>2026-04-20T09:46:05.831Z</time></trkpt><trkpt lat="37.8029433" lon="12.6019917"><ele>64.0</ele><time>2026-04-20T09:46:06.831Z</time></trkpt><trkpt lat="37.8029817" lon="12.6016617"><ele>64.0</ele><time>2026-04-20T09:46:07.829Z</time></trkpt><trkpt lat="37.8030167" lon="12.6013533"><ele>64.0</ele><time>2026-04-20T09:46:08.832Z</time></trkpt><trkpt lat="37.8030483" lon="12.6010667"><ele>65.5</ele><time>2026-04-20T09:46:09.83Z</time></trkpt><trkpt lat="37.80308" lon="12.6007883"><ele>67.0</ele><time>2026-04-20T09:46:10.83Z</time></trkpt><trkpt lat="37.8031133" lon="12.6005017"><ele>66.5</ele><time>2026-04-20T09:46:11.83Z</time></trkpt><trkpt lat="37.8031467" lon="12.600205"><ele>66.0</ele><time>2026-04-20T09:46:12.831Z</time></trkpt><trkpt lat="37.8031817" lon="12.59989"><ele>66.0</ele><time>2026-04-20T09:46:13.833Z</time></trkpt><trkpt lat="37.803225" lon="12.599565"><ele>66.0</ele><time>2026-04-20T09:46:14.832Z</time></trkpt><trkpt lat="37.8032683" lon="12.5992283"><ele>66.5</ele><time>2026-04-20T09:46:15.83Z</time></trkpt><trkpt lat="37.8033117" lon="12.59888"><ele>67.0</ele><time>2026-04-20T09:46:16.831Z</time></trkpt><trkpt lat="37.803355" lon="12.5985233"><ele>67.0</ele><time>2026-04-20T09:46:17.831Z</time></trkpt><trkpt lat="37.8033983" lon="12.5981583"><ele>67.0</ele><time>2026-04-20T09:46:18.83Z</time></trkpt><trkpt lat="37.80344" lon="12.5977783"><ele>66.0</ele><time>2026-04-20T09:46:19.831Z</time></trkpt><trkpt lat="37.803485" lon="12.5973967"><ele>65.0</ele><time>2026-04-20T09:46:20.832Z</time></trkpt><trkpt lat="37.80353" lon="12.5970183"><ele>65.5</ele><time>2026-04-20T09:46:21.83Z</time></trkpt><trkpt lat="37.803575" lon="12.5966383"><ele>66.0</ele><time>2026-04-20T09:46:22.832Z</time></trkpt><trkpt lat="37.80362" lon="12.59626"><ele>66.5</ele><time>2026-04-20T09:46:23.833Z</time></trkpt><trkpt lat="37.8036633" lon="12.5958917"><ele>67.0</ele><time>2026-04-20T09:46:24.831Z</time></trkpt><trkpt lat="37.8037067" lon="12.5955433"><ele>68.0</ele><time>2026-04-20T09:46:25.831Z</time></trkpt><trkpt lat="37.8037467" lon="12.5952183"><ele>69.0</ele><time>2026-04-20T09:46:26.836Z</time></trkpt><trkpt lat="37.8037833" lon="12.594915"><ele>69.0</ele><time>2026-04-20T09:46:27.831Z</time></trkpt><trkpt lat="37.8038133" lon="12.5946217"><ele>69.0</ele><time>2026-04-20T09:46:28.836Z</time></trkpt><trkpt lat="37.8038333" lon="12.5943267"><ele>71.0</ele><time>2026-04-20T09:46:29.833Z</time></trkpt><trkpt lat="37.80384" lon="12.59402"><ele>73.0</ele><time>2026-04-20T09:46:30.832Z</time></trkpt><trkpt lat="37.8038367" lon="12.5937033"><ele>74.5</ele><time>2026-04-20T09:46:31.831Z</time></trkpt><trkpt lat="37.803815" lon="12.5933767"><ele>76.0</ele><time>2026-04-20T09:46:32.83Z</time></trkpt><trkpt lat="37.80378" lon="12.59305"><ele>76.0</ele><time>2026-04-20T09:46:33.83Z</time></trkpt><trkpt lat="37.8037283" lon="12.5927267"><ele>76.0</ele><time>2026-04-20T09:46:34.829Z</time></trkpt><trkpt lat="37.803665" lon="12.5924083"><ele>76.0</ele><time>2026-04-20T09:46:35.831Z</time></trkpt><trkpt lat="37.8035833" lon="12.5920933"><ele>76.0</ele><time>2026-04-20T09:46:36.831Z</time></trkpt><trkpt lat="37.8034833" lon="12.5917767"><ele>78.5</ele><time>2026-04-20T09:46:37.829Z</time></trkpt><trkpt lat="37.8033667" lon="12.5914567"><ele>81.0</ele><time>2026-04-20T09:46:38.83Z</time></trkpt><trkpt lat="37.80324" lon="12.5911383"><ele>81.0</ele><time>2026-04-20T09:46:39.832Z</time></trkpt><trkpt lat="37.803105" lon="12.5908233"><ele>81.0</ele><time>2026-04-20T09:46:40.834Z</time></trkpt><trkpt lat="37.8029717" lon="12.5905067"><ele>82.0</ele><time>2026-04-20T09:46:41.835Z</time></trkpt><trkpt lat="37.8028367" lon="12.59019"><ele>83.0</ele><time>2026-04-20T09:46:42.829Z</time></trkpt><trkpt lat="37.8027017" lon="12.5898717"><ele>83.5</ele><time>2026-04-20T09:46:43.837Z</time></trkpt><trkpt lat="37.8025633" lon="12.58955"><ele>84.0</ele><time>2026-04-20T09:46:44.837Z</time></trkpt><trkpt lat="37.8024267" lon="12.58923"><ele>84.5</ele><time>2026-04-20T09:46:45.829Z</time></trkpt><trkpt lat="37.8022867" lon="12.5889083"><ele>85.0</ele><time>2026-04-20T09:46:46.83Z</time></trkpt><trkpt lat="37.8021433" lon="12.5885867"><ele>85.0</ele><time>2026-04-20T09:46:47.832Z</time></trkpt><trkpt lat="37.802" lon="12.5882633"><ele>85.0</ele><time>2026-04-20T09:46:48.833Z</time></trkpt><trkpt lat="37.8018617" lon="12.5879383"><ele>85.0</ele><time>2026-04-20T09:46:49.832Z</time></trkpt><trkpt lat="37.8017267" lon="12.5876233"><ele>85.0</ele><time>2026-04-20T09:46:50.831Z</time></trkpt><trkpt lat="37.8015983" lon="12.5873283"><ele>85.0</ele><time>2026-04-20T09:46:51.831Z</time></trkpt><trkpt lat="37.80148" lon="12.5870567"><ele>85.0</ele><time>2026-04-20T09:46:52.832Z</time></trkpt><trkpt lat="37.8013717" lon="12.5868033"><ele>86.0</ele><time>2026-04-20T09:46:53.832Z</time></trkpt><trkpt lat="37.801275" lon="12.58657"><ele>87.0</ele><time>2026-04-20T09:46:54.832Z</time></trkpt><trkpt lat="37.8011833" lon="12.5863533"><ele>88.0</ele><time>2026-04-20T09:46:55.831Z</time></trkpt><trkpt lat="37.8011" lon="12.5861583"><ele>88.66666666666666</ele><time>2026-04-20T09:46:56.831Z</time></trkpt><trkpt lat="37.8010183" lon="12.5859667"><ele>89.33333333333333</ele><time>2026-04-20T09:46:57.83Z</time></trkpt><trkpt lat="37.800925" lon="12.5857617"><ele>90.0</ele><time>2026-04-20T09:46:58.829Z</time></trkpt><trkpt lat="37.800815" lon="12.585535"><ele>89.0</ele><time>2026-04-20T09:46:59.833Z</time></trkpt><trkpt lat="37.8006933" lon="12.5852833"><ele>88.0</ele><time>2026-04-20T09:47:00.833Z</time></trkpt><trkpt lat="37.800565" lon="12.5850117"><ele>88.0</ele><time>2026-04-20T09:47:01.831Z</time></trkpt><trkpt lat="37.8004367" lon="12.58474"><ele>88.0</ele><time>2026-04-20T09:47:02.832Z</time></trkpt><trkpt lat="37.8003083" lon="12.5844683"><ele>87.0</ele><time>2026-04-20T09:47:03.83Z</time></trkpt><trkpt lat="37.8001733" lon="12.5841917"><ele>86.0</ele><time>2026-04-20T09:47:04.829Z</time></trkpt><trkpt lat="37.8000333" lon="12.5839117"><ele>86.5</ele><time>2026-04-20T09:47:05.83Z</time></trkpt><trkpt lat="37.7998917" lon="12.5836367"><ele>87.0</ele><time>2026-04-20T09:47:06.833Z</time></trkpt><trkpt lat="37.799755" lon="12.5833683"><ele>87.0</ele><time>2026-04-20T09:47:07.831Z</time></trkpt><trkpt lat="37.7996267" lon="12.583105"><ele>87.0</ele><time>2026-04-20T09:47:08.829Z</time></trkpt><trkpt lat="37.7995083" lon="12.5828317"><ele>87.0</ele><time>2026-04-20T09:47:09.831Z</time></trkpt><trkpt lat="37.7994033" lon="12.5825417"><ele>87.0</ele><time>2026-04-20T09:47:10.829Z</time></trkpt><trkpt lat="37.799315" lon="12.5822317"><ele>88.5</ele><time>2026-04-20T09:47:11.83Z</time></trkpt><trkpt lat="37.799245" lon="12.5819033"><ele>90.0</ele><time>2026-04-20T09:47:12.833Z</time></trkpt><trkpt lat="37.7992" lon="12.5815567"><ele>90.0</ele><time>2026-04-20T09:47:13.832Z</time></trkpt><trkpt lat="37.7991767" lon="12.5811933"><ele>90.0</ele><time>2026-04-20T09:47:14.833Z</time></trkpt><trkpt lat="37.7991733" lon="12.58082"><ele>90.5</ele><time>2026-04-20T09:47:15.832Z</time></trkpt><trkpt lat="37.79918" lon="12.580445"><ele>91.0</ele><time>2026-04-20T09:47:16.833Z</time></trkpt><trkpt lat="37.799185" lon="12.5800717"><ele>91.0</ele><time>2026-04-20T09:47:17.831Z</time></trkpt><trkpt lat="37.7991883" lon="12.5796983"><ele>91.0</ele><time>2026-04-20T09:47:18.832Z</time></trkpt><trkpt lat="37.7991933" lon="12.579325"><ele>91.5</ele><time>2026-04-20T09:47:19.831Z</time></trkpt><trkpt lat="37.7991967" lon="12.57895"><ele>92.0</ele><time>2026-04-20T09:47:20.831Z</time></trkpt><trkpt lat="37.7991983" lon="12.5785733"><ele>92.5</ele><time>2026-04-20T09:47:21.829Z</time></trkpt><trkpt lat="37.7992017" lon="12.5781967"><ele>93.0</ele><time>2026-04-20T09:47:22.832Z</time></trkpt><trkpt lat="37.7992067" lon="12.57782"><ele>94.0</ele><time>2026-04-20T09:47:23.832Z</time></trkpt><trkpt lat="37.7992083" lon="12.5774433"><ele>95.0</ele><time>2026-04-20T09:47:24.831Z</time></trkpt><trkpt lat="37.79921" lon="12.577065"><ele>95.0</ele><time>2026-04-20T09:47:25.827Z</time></trkpt><trkpt lat="37.7992117" lon="12.5766883"><ele>95.0</ele><time>2026-04-20T09:47:26.829Z</time></trkpt><trkpt lat="37.799215" lon="12.57631"><ele>95.5</ele><time>2026-04-20T09:47:27.831Z</time></trkpt><trkpt lat="37.7992167" lon="12.5759283"><ele>96.0</ele><time>2026-04-20T09:47:28.834Z</time></trkpt><trkpt lat="37.7992183" lon="12.575545"><ele>95.5</ele><time>2026-04-20T09:47:29.835Z</time></trkpt><trkpt lat="37.7992167" lon="12.5751617"><ele>95.0</ele><time>2026-04-20T09:47:30.833Z</time></trkpt><trkpt lat="37.7992183" lon="12.5747833"><ele>96.0</ele><time>2026-04-20T09:47:31.83Z</time></trkpt><trkpt lat="37.7992267" lon="12.5744133"><ele>97.0</ele><time>2026-04-20T09:47:32.832Z</time></trkpt><trkpt lat="37.7992467" lon="12.5740467"><ele>97.5</ele><time>2026-04-20T09:47:33.832Z</time></trkpt><trkpt lat="37.7992767" lon="12.573685"><ele>98.0</ele><time>2026-04-20T09:47:34.829Z</time></trkpt><trkpt lat="37.799325" lon="12.57333"><ele>98.5</ele><time>2026-04-20T09:47:35.832Z</time></trkpt><trkpt lat="37.7993967" lon="12.572985"><ele>99.0</ele><time>2026-04-20T09:47:36.83Z</time></trkpt><trkpt lat="37.7994917" lon="12.5726483"><ele>99.0</ele><time>2026-04-20T09:47:37.831Z</time></trkpt><trkpt lat="37.7996017" lon="12.5723167"><ele>99.0</ele><time>2026-04-20T09:47:38.828Z</time></trkpt><trkpt lat="37.79972" lon="12.571995"><ele>102.5</ele><time>2026-04-20T09:47:39.833Z</time></trkpt><trkpt lat="37.7998333" lon="12.5716833"><ele>106.0</ele><time>2026-04-20T09:47:40.83Z</time></trkpt><trkpt lat="37.7999383" lon="12.5713833"><ele>110.0</ele><time>2026-04-20T09:47:41.836Z</time></trkpt><trkpt lat="37.800035" lon="12.5710867"><ele>114.0</ele><time>2026-04-20T09:47:42.835Z</time></trkpt><trkpt lat="37.8001233" lon="12.5707833"><ele>113.5</ele><time>2026-04-20T09:47:43.833Z</time></trkpt><trkpt lat="37.800205" lon="12.570475"><ele>113.0</ele><time>2026-04-20T09:47:44.839Z</time></trkpt><trkpt lat="37.8002783" lon="12.5701633"><ele>113.0</ele><time>2026-04-20T09:47:45.838Z</time></trkpt><trkpt lat="37.8003433" lon="12.56985"><ele>113.0</ele><time>2026-04-20T09:47:46.832Z</time></trkpt><trkpt lat="37.8004017" lon="12.5695333"><ele>115.0</ele><time>2026-04-20T09:47:47.828Z</time></trkpt><trkpt lat="37.80045" lon="12.5692117"><ele>117.0</ele><time>2026-04-20T09:47:48.831Z</time></trkpt><trkpt lat="37.8004917" lon="12.5688883"><ele>115.5</ele><time>2026-04-20T09:47:49.829Z</time></trkpt><trkpt lat="37.8005217" lon="12.5685667"><ele>114.0</ele><time>2026-04-20T09:47:50.834Z</time></trkpt><trkpt lat="37.800535" lon="12.56825"><ele>114.0</ele><time>2026-04-20T09:47:51.83Z</time></trkpt><trkpt lat="37.800535" lon="12.5679317"><ele>114.0</ele><time>2026-04-20T09:47:52.831Z</time></trkpt><trkpt lat="37.8005183" lon="12.5676117"><ele>114.0</ele><time>2026-04-20T09:47:53.832Z</time></trkpt><trkpt lat="37.800485" lon="12.56729"><ele>114.0</ele><time>2026-04-20T09:47:54.831Z</time></trkpt><trkpt lat="37.800435" lon="12.566965"><ele>113.0</ele><time>2026-04-20T09:47:55.829Z</time></trkpt><trkpt lat="37.8003667" lon="12.56664"><ele>112.0</ele><time>2026-04-20T09:47:56.829Z</time></trkpt><trkpt lat="37.8002817" lon="12.5663217"><ele>111.5</ele><time>2026-04-20T09:47:57.831Z</time></trkpt><trkpt lat="37.8001783" lon="12.56601"><ele>111.0</ele><time>2026-04-20T09:47:58.832Z</time></trkpt><trkpt lat="37.80006" lon="12.565705"><ele>111.5</ele><time>2026-04-20T09:47:59.831Z</time></trkpt><trkpt lat="37.7999233" lon="12.5654067"><ele>112.0</ele><time>2026-04-20T09:48:00.832Z</time></trkpt><trkpt lat="37.799775" lon="12.56511"><ele>112.0</ele><time>2026-04-20T09:48:01.832Z</time></trkpt><trkpt lat="37.799615" lon="12.5648117"><ele>112.0</ele><time>2026-04-20T09:48:02.831Z</time></trkpt><trkpt lat="37.7994533" lon="12.5645233"><ele>111.5</ele><time>2026-04-20T09:48:03.83Z</time></trkpt><trkpt lat="37.7993033" lon="12.564255"><ele>111.0</ele><time>2026-04-20T09:48:04.828Z</time></trkpt><trkpt lat="37.7991667" lon="12.5640067"><ele>111.0</ele><time>2026-04-20T09:48:05.833Z</time></trkpt><trkpt lat="37.7990367" lon="12.5637733"><ele>111.0</ele><time>2026-04-20T09:48:06.831Z</time></trkpt><trkpt lat="37.7989167" lon="12.56355"><ele>111.0</ele><time>2026-04-20T09:48:07.832Z</time></trkpt><trkpt lat="37.7987967" lon="12.563335"><ele>112.33333333333334</ele><time>2026-04-20T09:48:08.831Z</time></trkpt><trkpt lat="37.7986817" lon="12.5631233"><ele>113.66666666666667</ele><time>2026-04-20T09:48:09.83Z</time></trkpt><trkpt lat="37.7985733" lon="12.5629083"><ele>115.0</ele><time>2026-04-20T09:48:10.83Z</time></trkpt><trkpt lat="37.7984733" lon="12.5626867"><ele>115.0</ele><time>2026-04-20T09:48:11.833Z</time></trkpt><trkpt lat="37.7983817" lon="12.5624617"><ele>115.0</ele><time>2026-04-20T09:48:12.832Z</time></trkpt><trkpt lat="37.798305" lon="12.5622367"><ele>115.0</ele><time>2026-04-20T09:48:13.831Z</time></trkpt><trkpt lat="37.7982433" lon="12.5620133"><ele>116.0</ele><time>2026-04-20T09:48:14.835Z</time></trkpt><trkpt lat="37.7981983" lon="12.5617917"><ele>117.0</ele><time>2026-04-20T09:48:15.83Z</time></trkpt><trkpt lat="37.7981667" lon="12.56157"><ele>118.0</ele><time>2026-04-20T09:48:16.834Z</time></trkpt><trkpt lat="37.7981483" lon="12.56135"><ele>119.0</ele><time>2026-04-20T09:48:17.831Z</time></trkpt><trkpt lat="37.7981433" lon="12.5611317"><ele>120.0</ele><time>2026-04-20T09:48:18.83Z</time></trkpt><trkpt lat="37.79815" lon="12.5609167"><ele>121.0</ele><time>2026-04-20T09:48:19.83Z</time></trkpt><trkpt lat="37.7981617" lon="12.560705"><ele>121.0</ele><time>2026-04-20T09:48:20.832Z</time></trkpt><trkpt lat="37.7981783" lon="12.5604983"><ele>121.0</ele><time>2026-04-20T09:48:21.832Z</time></trkpt><trkpt lat="37.7981967" lon="12.56029"><ele>121.0</ele><time>2026-04-20T09:48:22.831Z</time></trkpt><trkpt lat="37.7982167" lon="12.5600833"><ele>120.0</ele><time>2026-04-20T09:48:23.828Z</time></trkpt><trkpt lat="37.7982433" lon="12.5598733"><ele>119.0</ele><time>2026-04-20T09:48:24.83Z</time></trkpt><trkpt lat="37.7982783" lon="12.559665"><ele>118.0</ele><time>2026-04-20T09:48:25.831Z</time></trkpt><trkpt lat="37.79833" lon="12.559455"><ele>118.0</ele><time>2026-04-20T09:48:26.831Z</time></trkpt><trkpt lat="37.798395" lon="12.559245"><ele>118.0</ele><time>2026-04-20T09:48:27.831Z</time></trkpt><trkpt lat="37.7984733" lon="12.5590267"><ele>118.0</ele><time>2026-04-20T09:48:28.828Z</time></trkpt><trkpt lat="37.798565" lon="12.5587967"><ele>115.5</ele><time>2026-04-20T09:48:29.832Z</time></trkpt><trkpt lat="37.7986783" lon="12.5585517"><ele>113.0</ele><time>2026-04-20T09:48:30.831Z</time></trkpt><trkpt lat="37.7988167" lon="12.5582933"><ele>113.0</ele><time>2026-04-20T09:48:31.834Z</time></trkpt><trkpt lat="37.7989633" lon="12.5580317"><ele>113.0</ele><time>2026-04-20T09:48:32.836Z</time></trkpt><trkpt lat="37.7991133" lon="12.5577667"><ele>113.5</ele><time>2026-04-20T09:48:33.833Z</time></trkpt><trkpt lat="37.799255" lon="12.557485"><ele>114.0</ele><time>2026-04-20T09:48:34.831Z</time></trkpt><trkpt lat="37.7993833" lon="12.55719"><ele>112.5</ele><time>2026-04-20T09:48:35.831Z</time></trkpt><trkpt lat="37.7995033" lon="12.5568833"><ele>111.0</ele><time>2026-04-20T09:48:36.83Z</time></trkpt><trkpt lat="37.7996133" lon="12.5565683"><ele>111.0</ele><time>2026-04-20T09:48:37.831Z</time></trkpt><trkpt lat="37.79972" lon="12.5562517"><ele>111.0</ele><time>2026-04-20T09:48:38.832Z</time></trkpt><trkpt lat="37.799825" lon="12.55593"><ele>111.0</ele><time>2026-04-20T09:48:39.83Z</time></trkpt><trkpt lat="37.7999283" lon="12.55561"><ele>111.0</ele><time>2026-04-20T09:48:40.83Z</time></trkpt><trkpt lat="37.8000317" lon="12.5552933"><ele>110.0</ele><time>2026-04-20T09:48:41.831Z</time></trkpt><trkpt lat="37.8001367" lon="12.55498"><ele>109.0</ele><time>2026-04-20T09:48:42.829Z</time></trkpt><trkpt lat="37.8002433" lon="12.554665"><ele>111.5</ele><time>2026-04-20T09:48:43.834Z</time></trkpt><trkpt lat="37.80035" lon="12.55435"><ele>114.0</ele><time>2026-04-20T09:48:44.835Z</time></trkpt><trkpt lat="37.8004533" lon="12.5540417"><ele>114.0</ele><time>2026-04-20T09:48:45.833Z</time></trkpt><trkpt lat="37.8005517" lon="12.5537383"><ele>114.0</ele><time>2026-04-20T09:48:46.832Z</time></trkpt><trkpt lat="37.8006417" lon="12.5534383"><ele>114.0</ele><time>2026-04-20T09:48:47.832Z</time></trkpt><trkpt lat="37.8007267" lon="12.55313"><ele>114.0</ele><time>2026-04-20T09:48:48.832Z</time></trkpt><trkpt lat="37.8008083" lon="12.5528133"><ele>113.0</ele><time>2026-04-20T09:48:49.834Z</time></trkpt><trkpt lat="37.80089" lon="12.552485"><ele>112.0</ele><time>2026-04-20T09:48:50.832Z</time></trkpt><trkpt lat="37.800975" lon="12.5521483"><ele>113.0</ele><time>2026-04-20T09:48:51.832Z</time></trkpt><trkpt lat="37.8010617" lon="12.5518083"><ele>114.0</ele><time>2026-04-20T09:48:52.831Z</time></trkpt><trkpt lat="37.80115" lon="12.5514633"><ele>115.0</ele><time>2026-04-20T09:48:53.831Z</time></trkpt><trkpt lat="37.8012417" lon="12.551115"><ele>116.0</ele><time>2026-04-20T09:48:54.83Z</time></trkpt><trkpt lat="37.801335" lon="12.5507683"><ele>116.0</ele><time>2026-04-20T09:48:55.829Z</time></trkpt><trkpt lat="37.8014283" lon="12.5504217"><ele>116.0</ele><time>2026-04-20T09:48:56.831Z</time></trkpt><trkpt lat="37.8015217" lon="12.5500783"><ele>114.5</ele><time>2026-04-20T09:48:57.829Z</time></trkpt><trkpt lat="37.8016183" lon="12.5497367"><ele>113.0</ele><time>2026-04-20T09:48:58.833Z</time></trkpt><trkpt lat="37.80172" lon="12.5494"><ele>112.0</ele><time>2026-04-20T09:48:59.832Z</time></trkpt><trkpt lat="37.801825" lon="12.549065"><ele>111.0</ele><time>2026-04-20T09:49:00.831Z</time></trkpt><trkpt lat="37.8019333" lon="12.5487317"><ele>114.0</ele><time>2026-04-20T09:49:01.832Z</time></trkpt><trkpt lat="37.802045" lon="12.5484"><ele>117.0</ele><time>2026-04-20T09:49:02.832Z</time></trkpt><trkpt lat="37.80216" lon="12.54807"><ele>115.0</ele><time>2026-04-20T09:49:03.831Z</time></trkpt><trkpt lat="37.8022717" lon="12.5477467"><ele>113.0</ele><time>2026-04-20T09:49:04.832Z</time></trkpt><trkpt lat="37.8023767" lon="12.5474433"><ele>113.0</ele><time>2026-04-20T09:49:05.829Z</time></trkpt><trkpt lat="37.8024783" lon="12.5471533"><ele>113.0</ele><time>2026-04-20T09:49:06.83Z</time></trkpt><trkpt lat="37.8025783" lon="12.546865"><ele>112.5</ele><time>2026-04-20T09:49:07.829Z</time></trkpt><trkpt lat="37.802675" lon="12.5465717"><ele>112.0</ele><time>2026-04-20T09:49:08.832Z</time></trkpt><trkpt lat="37.8027717" lon="12.54627"><ele>111.0</ele><time>2026-04-20T09:49:09.831Z</time></trkpt><trkpt lat="37.80287" lon="12.54597"><ele>110.0</ele><time>2026-04-20T09:49:10.828Z</time></trkpt><trkpt lat="37.8029717" lon="12.5456733"><ele>110.0</ele><time>2026-04-20T09:49:11.828Z</time></trkpt><trkpt lat="37.8030717" lon="12.5453767"><ele>110.0</ele><time>2026-04-20T09:49:12.831Z</time></trkpt><trkpt lat="37.8031683" lon="12.545075"><ele>110.0</ele><time>2026-04-20T09:49:13.832Z</time></trkpt><trkpt lat="37.8032567" lon="12.5447633"><ele>110.0</ele><time>2026-04-20T09:49:14.832Z</time></trkpt><trkpt lat="37.8033383" lon="12.5444383"><ele>109.0</ele><time>2026-04-20T09:49:15.832Z</time></trkpt><trkpt lat="37.8034117" lon="12.5440967"><ele>108.0</ele><time>2026-04-20T09:49:16.83Z</time></trkpt><trkpt lat="37.8034817" lon="12.5437467"><ele>111.5</ele><time>2026-04-20T09:49:17.835Z</time></trkpt><trkpt lat="37.8035517" lon="12.543385"><ele>115.0</ele><time>2026-04-20T09:49:18.832Z</time></trkpt><trkpt lat="37.8036217" lon="12.5430133"><ele>114.0</ele><time>2026-04-20T09:49:19.833Z</time></trkpt><trkpt lat="37.8036917" lon="12.5426367"><ele>113.0</ele><time>2026-04-20T09:49:20.834Z</time></trkpt><trkpt lat="37.80376" lon="12.5422683"><ele>112.5</ele><time>2026-04-20T09:49:21.833Z</time></trkpt><trkpt lat="37.8038283" lon="12.5419067"><ele>112.0</ele><time>2026-04-20T09:49:22.833Z</time></trkpt><trkpt lat="37.803895" lon="12.5415567"><ele>112.0</ele><time>2026-04-20T09:49:23.831Z</time></trkpt><trkpt lat="37.8039567" lon="12.5412233"><ele>112.0</ele><time>2026-04-20T09:49:24.835Z</time></trkpt><trkpt lat="37.804015" lon="12.540905"><ele>112.5</ele><time>2026-04-20T09:49:25.834Z</time></trkpt><trkpt lat="37.8040733" lon="12.5406067"><ele>113.0</ele><time>2026-04-20T09:49:26.832Z</time></trkpt><trkpt lat="37.804125" lon="12.5403233"><ele>111.0</ele><time>2026-04-20T09:49:27.83Z</time></trkpt><trkpt lat="37.80417" lon="12.54004"><ele>109.0</ele><time>2026-04-20T09:49:28.833Z</time></trkpt><trkpt lat="37.8042017" lon="12.5397433"><ele>108.0</ele><time>2026-04-20T09:49:29.83Z</time></trkpt><trkpt lat="37.8042133" lon="12.5394267"><ele>107.0</ele><time>2026-04-20T09:49:30.831Z</time></trkpt><trkpt lat="37.8042017" lon="12.5391017"><ele>107.0</ele><time>2026-04-20T09:49:31.831Z</time></trkpt><trkpt lat="37.8041783" lon="12.5387683"><ele>107.0</ele><time>2026-04-20T09:49:32.836Z</time></trkpt><trkpt lat="37.8041533" lon="12.5384167"><ele>107.0</ele><time>2026-04-20T09:49:33.833Z</time></trkpt><trkpt lat="37.8041217" lon="12.5380467"><ele>107.0</ele><time>2026-04-20T09:49:34.833Z</time></trkpt><trkpt lat="37.8040883" lon="12.537665"><ele>107.0</ele><time>2026-04-20T09:49:35.833Z</time></trkpt><trkpt lat="37.8040533" lon="12.5372783"><ele>107.0</ele><time>2026-04-20T09:49:36.829Z</time></trkpt><trkpt lat="37.8040133" lon="12.536885"><ele>107.5</ele><time>2026-04-20T09:49:37.83Z</time></trkpt><trkpt lat="37.8039733" lon="12.5364917"><ele>108.0</ele><time>2026-04-20T09:49:38.834Z</time></trkpt><trkpt lat="37.8039367" lon="12.5361167"><ele>111.0</ele><time>2026-04-20T09:49:39.83Z</time></trkpt><trkpt lat="37.8039017" lon="12.53577"><ele>114.0</ele><time>2026-04-20T09:49:40.832Z</time></trkpt><trkpt lat="37.8038667" lon="12.5354417"><ele>117.5</ele><time>2026-04-20T09:49:41.829Z</time></trkpt><trkpt lat="37.8038317" lon="12.5351183"><ele>121.0</ele><time>2026-04-20T09:49:42.832Z</time></trkpt><trkpt lat="37.8038" lon="12.5348033"><ele>123.5</ele><time>2026-04-20T09:49:43.834Z</time></trkpt><trkpt lat="37.80377" lon="12.5345083"><ele>126.0</ele><time>2026-04-20T09:49:44.833Z</time></trkpt><trkpt lat="37.803745" lon="12.5342383"><ele>126.0</ele><time>2026-04-20T09:49:45.833Z</time></trkpt><trkpt lat="37.8037283" lon="12.533995"><ele>126.0</ele><time>2026-04-20T09:49:46.833Z</time></trkpt><trkpt lat="37.80373" lon="12.5337867"><ele>126.0</ele><time>2026-04-20T09:49:47.833Z</time></trkpt><trkpt lat="37.80376" lon="12.5336"><ele>126.33333333333334</ele><time>2026-04-20T09:49:48.833Z</time></trkpt><trkpt lat="37.8038183" lon="12.533415"><ele>126.66666666666667</ele><time>2026-04-20T09:49:49.834Z</time></trkpt><trkpt lat="37.803895" lon="12.5332233"><ele>127.0</ele><time>2026-04-20T09:49:50.835Z</time></trkpt><trkpt lat="37.803985" lon="12.53302"><ele>127.33333333333334</ele><time>2026-04-20T09:49:51.83Z</time></trkpt><trkpt lat="37.80408" lon="12.5328083"><ele>127.66666666666666</ele><time>2026-04-20T09:49:52.832Z</time></trkpt><trkpt lat="37.8041617" lon="12.5325983"><ele>128.0</ele><time>2026-04-20T09:49:53.831Z</time></trkpt><trkpt lat="37.80423" lon="12.5324033"><ele>128.0</ele><time>2026-04-20T09:49:54.829Z</time></trkpt><trkpt lat="37.8042867" lon="12.5322183"><ele>128.0</ele><time>2026-04-20T09:49:55.831Z</time></trkpt><trkpt lat="37.804335" lon="12.532035"><ele>128.0</ele><time>2026-04-20T09:49:56.831Z</time></trkpt><trkpt lat="37.8043783" lon="12.5318483"><ele>128.0</ele><time>2026-04-20T09:49:57.834Z</time></trkpt><trkpt lat="37.8044167" lon="12.53166"><ele>128.0</ele><time>2026-04-20T09:49:58.83Z</time></trkpt><trkpt lat="37.80445" lon="12.5314733"><ele>128.0</ele><time>2026-04-20T09:49:59.832Z</time></trkpt><trkpt lat="37.80448" lon="12.531295"><ele>128.0</ele><time>2026-04-20T09:50:00.831Z</time></trkpt><trkpt lat="37.80451" lon="12.53114"><ele>127.80000000000001</ele><time>2026-04-20T09:50:01.832Z</time></trkpt><trkpt lat="37.8045433" lon="12.531015"><ele>127.60000000000001</ele><time>2026-04-20T09:50:02.831Z</time></trkpt><trkpt lat="37.804585" lon="12.5309183"><ele>127.39999999999999</ele><time>2026-04-20T09:50:03.832Z</time></trkpt><trkpt lat="37.8046417" lon="12.5308267"><ele>127.19999999999999</ele><time>2026-04-20T09:50:04.831Z</time></trkpt><trkpt lat="37.804725" lon="12.5307183"><ele>127.0</ele><time>2026-04-20T09:50:05.83Z</time></trkpt><trkpt lat="37.804825" lon="12.53058"><ele>127.0</ele><time>2026-04-20T09:50:06.83Z</time></trkpt><trkpt lat="37.8049233" lon="12.5304217"><ele>127.0</ele><time>2026-04-20T09:50:07.829Z</time></trkpt><trkpt lat="37.8050183" lon="12.5302367"><ele>127.0</ele><time>2026-04-20T09:50:08.834Z</time></trkpt><trkpt lat="37.805105" lon="12.53003"><ele>127.0</ele><time>2026-04-20T09:50:09.833Z</time></trkpt><trkpt lat="37.80518" lon="12.52982"><ele>127.0</ele><time>2026-04-20T09:50:10.832Z</time></trkpt><trkpt lat="37.8052433" lon="12.529615"><ele>127.0</ele><time>2026-04-20T09:50:11.832Z</time></trkpt><trkpt lat="37.8053" lon="12.5294"><ele>127.0</ele><time>2026-04-20T09:50:12.831Z</time></trkpt><trkpt lat="37.8053483" lon="12.5291683"><ele>127.0</ele><time>2026-04-20T09:50:13.831Z</time></trkpt><trkpt lat="37.8053917" lon="12.52892"><ele>127.0</ele><time>2026-04-20T09:50:14.832Z</time></trkpt><trkpt lat="37.8054383" lon="12.5286683"><ele>126.33333333333334</ele><time>2026-04-20T09:50:15.832Z</time></trkpt><trkpt lat="37.8054983" lon="12.5284083"><ele>125.66666666666666</ele><time>2026-04-20T09:50:16.832Z</time></trkpt><trkpt lat="37.80557" lon="12.52815"><ele>125.0</ele><time>2026-04-20T09:50:17.829Z</time></trkpt><trkpt lat="37.80564" lon="12.5279083"><ele>124.66666666666666</ele><time>2026-04-20T09:50:18.834Z</time></trkpt><trkpt lat="37.8057083" lon="12.5276817"><ele>124.33333333333334</ele><time>2026-04-20T09:50:19.831Z</time></trkpt><trkpt lat="37.80577" lon="12.5274667"><ele>124.0</ele><time>2026-04-20T09:50:20.83Z</time></trkpt><trkpt lat="37.80582" lon="12.5272517"><ele>124.0</ele><time>2026-04-20T09:50:21.829Z</time></trkpt><trkpt lat="37.8058567" lon="12.527015"><ele>124.0</ele><time>2026-04-20T09:50:22.831Z</time></trkpt><trkpt lat="37.805885" lon="12.52675"><ele>124.0</ele><time>2026-04-20T09:50:23.834Z</time></trkpt><trkpt lat="37.80591" lon="12.52646"><ele>123.5</ele><time>2026-04-20T09:50:24.834Z</time></trkpt><trkpt lat="37.8059383" lon="12.52615"><ele>123.0</ele><time>2026-04-20T09:50:25.834Z</time></trkpt><trkpt lat="37.8059683" lon="12.5258467"><ele>122.66666666666666</ele><time>2026-04-20T09:50:26.831Z</time></trkpt><trkpt lat="37.8059967" lon="12.52556"><ele>122.33333333333333</ele><time>2026-04-20T09:50:27.831Z</time></trkpt><trkpt lat="37.80602" lon="12.5252833"><ele>122.0</ele><time>2026-04-20T09:50:28.832Z</time></trkpt><trkpt lat="37.8060417" lon="12.525005"><ele>121.66666666666666</ele><time>2026-04-20T09:50:29.833Z</time></trkpt><trkpt lat="37.806055" lon="12.524735"><ele>121.33333333333334</ele><time>2026-04-20T09:50:30.829Z</time></trkpt><trkpt lat="37.8060633" lon="12.524475"><ele>121.0</ele><time>2026-04-20T09:50:31.831Z</time></trkpt><trkpt lat="37.806065" lon="12.5242217"><ele>121.0</ele><time>2026-04-20T09:50:32.831Z</time></trkpt><trkpt lat="37.8060617" lon="12.5239833"><ele>121.0</ele><time>2026-04-20T09:50:33.83Z</time></trkpt><trkpt lat="37.806055" lon="12.52376"><ele>121.0</ele><time>2026-04-20T09:50:34.83Z</time></trkpt><trkpt lat="37.8060433" lon="12.5235517"><ele>121.33333333333334</ele><time>2026-04-20T09:50:35.83Z</time></trkpt><trkpt lat="37.8060217" lon="12.5233517"><ele>121.66666666666666</ele><time>2026-04-20T09:50:36.83Z</time></trkpt><trkpt lat="37.8059817" lon="12.5231433"><ele>122.0</ele><time>2026-04-20T09:50:37.836Z</time></trkpt><trkpt lat="37.805935" lon="12.52294"><ele>121.66666666666666</ele><time>2026-04-20T09:50:38.834Z</time></trkpt><trkpt lat="37.80589" lon="12.5227533"><ele>121.33333333333334</ele><time>2026-04-20T09:50:39.832Z</time></trkpt><trkpt lat="37.8058467" lon="12.5225733"><ele>121.0</ele><time>2026-04-20T09:50:40.831Z</time></trkpt><trkpt lat="37.805805" lon="12.52239"><ele>121.0</ele><time>2026-04-20T09:50:41.831Z</time></trkpt><trkpt lat="37.80577" lon="12.522205"><ele>121.0</ele><time>2026-04-20T09:50:42.831Z</time></trkpt><trkpt lat="37.8057467" lon="12.522015"><ele>121.0</ele><time>2026-04-20T09:50:43.829Z</time></trkpt><trkpt lat="37.8057383" lon="12.5218167"><ele>121.0</ele><time>2026-04-20T09:50:44.834Z</time></trkpt><trkpt lat="37.8057417" lon="12.52161"><ele>121.0</ele><time>2026-04-20T09:50:45.833Z</time></trkpt><trkpt lat="37.8057433" lon="12.5213933"><ele>121.0</ele><time>2026-04-20T09:50:46.83Z</time></trkpt><trkpt lat="37.8057417" lon="12.52118"><ele>121.0</ele><time>2026-04-20T09:50:47.829Z</time></trkpt><trkpt lat="37.80574" lon="12.5209783"><ele>121.0</ele><time>2026-04-20T09:50:48.835Z</time></trkpt><trkpt lat="37.8057383" lon="12.5207833"><ele>121.0</ele><time>2026-04-20T09:50:49.834Z</time></trkpt><trkpt lat="37.80574" lon="12.5205933"><ele>121.0</ele><time>2026-04-20T09:50:50.839Z</time></trkpt><trkpt lat="37.8057483" lon="12.5204133"><ele>121.0</ele><time>2026-04-20T09:50:51.834Z</time></trkpt><trkpt lat="37.805765" lon="12.5202367"><ele>121.0</ele><time>2026-04-20T09:50:52.833Z</time></trkpt><trkpt lat="37.8057917" lon="12.5200633"><ele>121.0</ele><time>2026-04-20T09:50:53.835Z</time></trkpt><trkpt lat="37.80583" lon="12.5198883"><ele>121.25</ele><time>2026-04-20T09:50:54.833Z</time></trkpt><trkpt lat="37.805875" lon="12.519715"><ele>121.5</ele><time>2026-04-20T09:50:55.833Z</time></trkpt><trkpt lat="37.80593" lon="12.519555"><ele>121.75</ele><time>2026-04-20T09:50:56.835Z</time></trkpt><trkpt lat="37.8059867" lon="12.51941"><ele>122.0</ele><time>2026-04-20T09:50:57.83Z</time></trkpt><trkpt lat="37.8060367" lon="12.5192883"><ele>122.16666666666666</ele><time>2026-04-20T09:50:58.83Z</time></trkpt><trkpt lat="37.806085" lon="12.519195"><ele>122.33333333333333</ele><time>2026-04-20T09:50:59.831Z</time></trkpt><trkpt lat="37.80615" lon="12.5191133"><ele>122.5</ele><time>2026-04-20T09:51:00.83Z</time></trkpt><trkpt lat="37.8062283" lon="12.5190417"><ele>122.66666666666666</ele><time>2026-04-20T09:51:01.831Z</time></trkpt><trkpt lat="37.8063083" lon="12.5189833"><ele>122.83333333333333</ele><time>2026-04-20T09:51:02.833Z</time></trkpt><trkpt lat="37.8063817" lon="12.5189417"><ele>123.0</ele><time>2026-04-20T09:51:03.834Z</time></trkpt><trkpt lat="37.8064633" lon="12.5188917"><ele>123.0</ele><time>2026-04-20T09:51:05.832Z</time></trkpt><trkpt lat="37.8064967" lon="12.5187933"><ele>123.00000000000001</ele><time>2026-04-20T09:51:07.828Z</time></trkpt><trkpt lat="37.8064983" lon="12.5187017"><ele>123.00000000000001</ele><time>2026-04-20T09:51:08.832Z</time></trkpt><trkpt lat="37.8064917" lon="12.5185867"><ele>123.0</ele><time>2026-04-20T09:51:09.829Z</time></trkpt><trkpt lat="37.80647" lon="12.5184333"><ele>123.0</ele><time>2026-04-20T09:51:10.833Z</time></trkpt><trkpt lat="37.8064367" lon="12.51824"><ele>123.33333333333334</ele><time>2026-04-20T09:51:11.831Z</time></trkpt><trkpt lat="37.8064067" lon="12.5180433"><ele>123.66666666666667</ele><time>2026-04-20T09:51:12.831Z</time></trkpt><trkpt lat="37.806385" lon="12.5178383"><ele>124.0</ele><time>2026-04-20T09:51:13.832Z</time></trkpt><trkpt lat="37.8063667" lon="12.5176267"><ele>122.66666666666667</ele><time>2026-04-20T09:51:14.831Z</time></trkpt><trkpt lat="37.8063483" lon="12.5174183"><ele>121.33333333333334</ele><time>2026-04-20T09:51:15.828Z</time></trkpt><trkpt lat="37.806325" lon="12.51721"><ele>120.0</ele><time>2026-04-20T09:51:16.833Z</time></trkpt><trkpt lat="37.806295" lon="12.5170017"><ele>119.66666666666666</ele><time>2026-04-20T09:51:17.831Z</time></trkpt><trkpt lat="37.8062583" lon="12.51679"><ele>119.33333333333333</ele><time>2026-04-20T09:51:18.831Z</time></trkpt><trkpt lat="37.8062133" lon="12.5165733"><ele>119.0</ele><time>2026-04-20T09:51:19.83Z</time></trkpt><trkpt lat="37.8061633" lon="12.51635"><ele>118.66666666666666</ele><time>2026-04-20T09:51:20.832Z</time></trkpt><trkpt lat="37.8061117" lon="12.516125"><ele>118.33333333333334</ele><time>2026-04-20T09:51:21.834Z</time></trkpt><trkpt lat="37.8060583" lon="12.5159067"><ele>118.0</ele><time>2026-04-20T09:51:22.833Z</time></trkpt><trkpt lat="37.8060033" lon="12.5156917"><ele>117.0</ele><time>2026-04-20T09:51:23.831Z</time></trkpt><trkpt lat="37.8059433" lon="12.5154767"><ele>116.0</ele><time>2026-04-20T09:51:24.833Z</time></trkpt><trkpt lat="37.80588" lon="12.5152617"><ele>115.0</ele><time>2026-04-20T09:51:25.83Z</time></trkpt><trkpt lat="37.8058117" lon="12.5150467"><ele>115.0</ele><time>2026-04-20T09:51:26.834Z</time></trkpt><trkpt lat="37.80574" lon="12.5148333"><ele>115.0</ele><time>2026-04-20T09:51:27.833Z</time></trkpt><trkpt lat="37.8056717" lon="12.5146217"><ele>115.0</ele><time>2026-04-20T09:51:28.831Z</time></trkpt><trkpt lat="37.8056083" lon="12.5144117"><ele>115.66666666666667</ele><time>2026-04-20T09:51:29.834Z</time></trkpt><trkpt lat="37.805545" lon="12.5142017"><ele>116.33333333333334</ele><time>2026-04-20T09:51:30.831Z</time></trkpt><trkpt lat="37.8054883" lon="12.5139883"><ele>117.0</ele><time>2026-04-20T09:51:31.831Z</time></trkpt><trkpt lat="37.8054383" lon="12.5137717"><ele>116.0</ele><time>2026-04-20T09:51:32.833Z</time></trkpt><trkpt lat="37.805395" lon="12.5135533"><ele>115.0</ele><time>2026-04-20T09:51:33.833Z</time></trkpt><trkpt lat="37.8053633" lon="12.5133367"><ele>114.0</ele><time>2026-04-20T09:51:34.831Z</time></trkpt><trkpt lat="37.80534" lon="12.5131217"><ele>113.66666666666666</ele><time>2026-04-20T09:51:35.832Z</time></trkpt><trkpt lat="37.8053267" lon="12.512905"><ele>113.33333333333333</ele><time>2026-04-20T09:51:36.831Z</time></trkpt><trkpt lat="37.8053183" lon="12.51268"><ele>113.0</ele><time>2026-04-20T09:51:37.83Z</time></trkpt><trkpt lat="37.8053067" lon="12.5124517"><ele>113.0</ele><time>2026-04-20T09:51:38.834Z</time></trkpt><trkpt lat="37.8052917" lon="12.5122217"><ele>113.0</ele><time>2026-04-20T09:51:39.836Z</time></trkpt><trkpt lat="37.8052767" lon="12.5119883"><ele>113.0</ele><time>2026-04-20T09:51:40.833Z</time></trkpt><trkpt lat="37.805265" lon="12.51175"><ele>112.66666666666666</ele><time>2026-04-20T09:51:41.831Z</time></trkpt><trkpt lat="37.8052517" lon="12.5115083"><ele>112.33333333333334</ele><time>2026-04-20T09:51:42.827Z</time></trkpt><trkpt lat="37.8052383" lon="12.5112767"><ele>112.0</ele><time>2026-04-20T09:51:43.831Z</time></trkpt><trkpt lat="37.805225" lon="12.5110567"><ele>113.0</ele><time>2026-04-20T09:51:44.833Z</time></trkpt><trkpt lat="37.80521" lon="12.51085"><ele>114.0</ele><time>2026-04-20T09:51:45.829Z</time></trkpt><trkpt lat="37.8052" lon="12.510655"><ele>115.0</ele><time>2026-04-20T09:51:46.83Z</time></trkpt><trkpt lat="37.8051933" lon="12.5104717"><ele>114.8</ele><time>2026-04-20T09:51:47.832Z</time></trkpt><trkpt lat="37.8051933" lon="12.5103017"><ele>114.6</ele><time>2026-04-20T09:51:48.83Z</time></trkpt><trkpt lat="37.805195" lon="12.51015"><ele>114.4</ele><time>2026-04-20T09:51:49.831Z</time></trkpt><trkpt lat="37.8051983" lon="12.51002"><ele>114.2</ele><time>2026-04-20T09:51:50.832Z</time></trkpt><trkpt lat="37.8052083" lon="12.5099167"><ele>114.0</ele><time>2026-04-20T09:51:51.837Z</time></trkpt><trkpt lat="37.805225" lon="12.5098367"><ele>114.0</ele><time>2026-04-20T09:51:52.837Z</time></trkpt><trkpt lat="37.8053167" lon="12.50979"><ele>114.0</ele><time>2026-04-20T09:51:54.835Z</time></trkpt><trkpt lat="37.8054" lon="12.5097917"><ele>114.0</ele><time>2026-04-20T09:51:55.838Z</time></trkpt><trkpt lat="37.805515" lon="12.5097933"><ele>114.0</ele><time>2026-04-20T09:51:56.837Z</time></trkpt><trkpt lat="37.8056483" lon="12.5097883"><ele>114.0</ele><time>2026-04-20T09:51:57.833Z</time></trkpt><trkpt lat="37.80578" lon="12.509775"><ele>114.0</ele><time>2026-04-20T09:51:58.833Z</time></trkpt><trkpt lat="37.805895" lon="12.5097567"><ele>114.0</ele><time>2026-04-20T09:51:59.832Z</time></trkpt><trkpt lat="37.8060017" lon="12.5097367"><ele>114.0</ele><time>2026-04-20T09:52:00.828Z</time></trkpt><trkpt lat="37.8060983" lon="12.5097133"><ele>114.0</ele><time>2026-04-20T09:52:01.832Z</time></trkpt><trkpt lat="37.8061867" lon="12.50969"><ele>114.0</ele><time>2026-04-20T09:52:02.832Z</time></trkpt><trkpt lat="37.80626" lon="12.5096717"><ele>114.2</ele><time>2026-04-20T09:52:03.833Z</time></trkpt><trkpt lat="37.806365" lon="12.5096833"><ele>114.4</ele><time>2026-04-20T09:52:05.832Z</time></trkpt><trkpt lat="37.8064783" lon="12.509655"><ele>114.6</ele><time>2026-04-20T09:52:07.827Z</time></trkpt><trkpt lat="37.80654" lon="12.5095967"><ele>114.8</ele><time>2026-04-20T09:52:08.83Z</time></trkpt><trkpt lat="37.8066133" lon="12.5095117"><ele>115.0</ele><time>2026-04-20T09:52:09.829Z</time></trkpt><trkpt lat="37.806695" lon="12.5094167"><ele>115.25</ele><time>2026-04-20T09:52:10.83Z</time></trkpt><trkpt lat="37.8067867" lon="12.5093267"><ele>115.5</ele><time>2026-04-20T09:52:11.83Z</time></trkpt><trkpt lat="37.8068767" lon="12.50924"><ele>115.75</ele><time>2026-04-20T09:52:12.832Z</time></trkpt><trkpt lat="37.80697" lon="12.50916"><ele>116.0</ele><time>2026-04-20T09:52:13.827Z</time></trkpt><trkpt lat="37.8070583" lon="12.50907"><ele>115.99999999999999</ele><time>2026-04-20T09:52:14.831Z</time></trkpt><trkpt lat="37.8071317" lon="12.508975"><ele>116.0</ele><time>2026-04-20T09:52:15.828Z</time></trkpt><trkpt lat="37.80719" lon="12.508885"><ele>116.0</ele><time>2026-04-20T09:52:16.828Z</time></trkpt><trkpt lat="37.8072417" lon="12.5088033"><ele>116.0</ele><time>2026-04-20T09:52:17.831Z</time></trkpt><trkpt lat="37.8072983" lon="12.5087283"><ele>115.99999999999999</ele><time>2026-04-20T09:52:18.829Z</time></trkpt><trkpt lat="37.807365" lon="12.5086583"><ele>116.0</ele><time>2026-04-20T09:52:19.831Z</time></trkpt><trkpt lat="37.80744" lon="12.508595"><ele>116.16666666666666</ele><time>2026-04-20T09:52:20.83Z</time></trkpt><trkpt lat="37.80752" lon="12.50854"><ele>116.33333333333333</ele><time>2026-04-20T09:52:21.83Z</time></trkpt><trkpt lat="37.8075917" lon="12.5084883"><ele>116.5</ele><time>2026-04-20T09:52:22.829Z</time></trkpt><trkpt lat="37.8076517" lon="12.5084267"><ele>116.66666666666666</ele><time>2026-04-20T09:52:23.828Z</time></trkpt><trkpt lat="37.8076933" lon="12.5083583"><ele>116.83333333333333</ele><time>2026-04-20T09:52:24.83Z</time></trkpt><trkpt lat="37.8077117" lon="12.5082717"><ele>117.0</ele><time>2026-04-20T09:52:25.831Z</time></trkpt><trkpt lat="37.80772" lon="12.5081683"><ele>115.25</ele><time>2026-04-20T09:52:26.831Z</time></trkpt><trkpt lat="37.80774" lon="12.5080533"><ele>113.5</ele><time>2026-04-20T09:52:27.831Z</time></trkpt><trkpt lat="37.807805" lon="12.5079267"><ele>111.75</ele><time>2026-04-20T09:52:28.827Z</time></trkpt><trkpt lat="37.8079017" lon="12.5078033"><ele>110.0</ele><time>2026-04-20T09:52:29.829Z</time></trkpt><trkpt lat="37.8080267" lon="12.5076867"><ele>109.33333333333333</ele><time>2026-04-20T09:52:30.831Z</time></trkpt><trkpt lat="37.8081717" lon="12.5075633"><ele>108.66666666666666</ele><time>2026-04-20T09:52:31.83Z</time></trkpt><trkpt lat="37.8083233" lon="12.5074233"><ele>108.0</ele><time>2026-04-20T09:52:32.833Z</time></trkpt><trkpt lat="37.8084617" lon="12.50728"><ele>108.33333333333334</ele><time>2026-04-20T09:52:33.828Z</time></trkpt><trkpt lat="37.8085867" lon="12.5071433"><ele>108.66666666666667</ele><time>2026-04-20T09:52:34.829Z</time></trkpt><trkpt lat="37.808705" lon="12.5070167"><ele>109.0</ele><time>2026-04-20T09:52:35.827Z</time></trkpt><trkpt lat="37.8088183" lon="12.5068967"><ele>108.6</ele><time>2026-04-20T09:52:36.829Z</time></trkpt><trkpt lat="37.8089167" lon="12.5067917"><ele>108.2</ele><time>2026-04-20T09:52:37.83Z</time></trkpt><trkpt lat="37.8090017" lon="12.5067"><ele>107.79999999999998</ele><time>2026-04-20T09:52:38.832Z</time></trkpt><trkpt lat="37.8090733" lon="12.5066217"><ele>107.39999999999999</ele><time>2026-04-20T09:52:39.83Z</time></trkpt><trkpt lat="37.8091333" lon="12.5065567"><ele>107.0</ele><time>2026-04-20T09:52:40.834Z</time></trkpt><trkpt lat="37.8092117" lon="12.5064783"><ele>107.0</ele><time>2026-04-20T09:52:42.83Z</time></trkpt><trkpt lat="37.8092217" lon="12.5063917"><ele>107.0</ele><time>2026-04-20T09:52:46.83Z</time></trkpt><trkpt lat="37.8091433" lon="12.5061933"><ele>107.0</ele><time>2026-04-20T09:52:48.83Z</time></trkpt><trkpt lat="37.8090667" lon="12.5060483"><ele>107.0</ele><time>2026-04-20T09:52:49.829Z</time></trkpt><trkpt lat="37.8089883" lon="12.50589"><ele>107.0</ele><time>2026-04-20T09:52:50.831Z</time></trkpt><trkpt lat="37.8089017" lon="12.50572"><ele>107.0</ele><time>2026-04-20T09:52:51.829Z</time></trkpt><trkpt lat="37.80881" lon="12.5055417"><ele>107.0</ele><time>2026-04-20T09:52:52.827Z</time></trkpt><trkpt lat="37.8087083" lon="12.5053567"><ele>106.66666666666666</ele><time>2026-04-20T09:52:53.829Z</time></trkpt><trkpt lat="37.8085933" lon="12.50517"><ele>106.33333333333334</ele><time>2026-04-20T09:52:54.837Z</time></trkpt><trkpt lat="37.8084833" lon="12.50496"><ele>106.0</ele><time>2026-04-20T09:52:55.833Z</time></trkpt><trkpt lat="37.8083733" lon="12.5047583"><ele>106.33333333333334</ele><time>2026-04-20T09:52:56.833Z</time></trkpt><trkpt lat="37.8082717" lon="12.5045733"><ele>106.66666666666666</ele><time>2026-04-20T09:52:57.831Z</time></trkpt><trkpt lat="37.8081767" lon="12.5044017"><ele>107.0</ele><time>2026-04-20T09:52:58.829Z</time></trkpt><trkpt lat="37.8080917" lon="12.5042517"><ele>107.0</ele><time>2026-04-20T09:52:59.83Z</time></trkpt><trkpt lat="37.8080183" lon="12.5041267"><ele>106.99999999999999</ele><time>2026-04-20T09:53:00.831Z</time></trkpt><trkpt lat="37.807965" lon="12.5040267"><ele>106.99999999999999</ele><time>2026-04-20T09:53:01.828Z</time></trkpt><trkpt lat="37.8079317" lon="12.503945"><ele>107.0</ele><time>2026-04-20T09:53:02.833Z</time></trkpt><trkpt lat="37.8079417" lon="12.5038267"><ele>107.0</ele><time>2026-04-20T09:53:04.828Z</time></trkpt><trkpt lat="37.8080467" lon="12.5036917"><ele>107.0</ele><time>2026-04-20T09:53:06.831Z</time></trkpt><trkpt lat="37.8081267" lon="12.503585"><ele>107.0</ele><time>2026-04-20T09:53:07.83Z</time></trkpt><trkpt lat="37.8082417" lon="12.503435"><ele>107.0</ele><time>2026-04-20T09:53:08.833Z</time></trkpt><trkpt lat="37.808345" lon="12.5032867"><ele>107.0</ele><time>2026-04-20T09:53:09.83Z</time></trkpt><trkpt lat="37.8084383" lon="12.50315"><ele>106.5</ele><time>2026-04-20T09:53:10.831Z</time></trkpt><trkpt lat="37.8085233" lon="12.5030317"><ele>106.0</ele><time>2026-04-20T09:53:11.829Z</time></trkpt><trkpt lat="37.8086017" lon="12.5029183"><ele>105.5</ele><time>2026-04-20T09:53:12.829Z</time></trkpt><trkpt lat="37.8086767" lon="12.5028"><ele>105.0</ele><time>2026-04-20T09:53:13.829Z</time></trkpt><trkpt lat="37.80875" lon="12.5026633"><ele>104.75</ele><time>2026-04-20T09:53:14.831Z</time></trkpt><trkpt lat="37.8088283" lon="12.5025067"><ele>104.5</ele><time>2026-04-20T09:53:15.827Z</time></trkpt><trkpt lat="37.8089033" lon="12.5023533"><ele>104.25</ele><time>2026-04-20T09:53:16.83Z</time></trkpt><trkpt lat="37.8089733" lon="12.5022067"><ele>104.0</ele><time>2026-04-20T09:53:17.831Z</time></trkpt><trkpt lat="37.8090317" lon="12.50207"><ele>102.5</ele><time>2026-04-20T09:53:18.831Z</time></trkpt><trkpt lat="37.8090733" lon="12.50193"><ele>101.0</ele><time>2026-04-20T09:53:19.83Z</time></trkpt><trkpt lat="37.809105" lon="12.50177"><ele>99.5</ele><time>2026-04-20T09:53:20.832Z</time></trkpt><trkpt lat="37.8091283" lon="12.5015983"><ele>98.0</ele><time>2026-04-20T09:53:21.834Z</time></trkpt><trkpt lat="37.8091483" lon="12.5014267"><ele>96.0</ele><time>2026-04-20T09:53:22.828Z</time></trkpt><trkpt lat="37.8091567" lon="12.5012483"><ele>94.0</ele><time>2026-04-20T09:53:23.833Z</time></trkpt><trkpt lat="37.8091483" lon="12.5010567"><ele>92.0</ele><time>2026-04-20T09:53:24.833Z</time></trkpt><trkpt lat="37.809125" lon="12.5008467"><ele>92.0</ele><time>2026-04-20T09:53:25.829Z</time></trkpt><trkpt lat="37.80908" lon="12.50061"><ele>92.0</ele><time>2026-04-20T09:53:26.83Z</time></trkpt><trkpt lat="37.8090283" lon="12.500365"><ele>92.0</ele><time>2026-04-20T09:53:27.83Z</time></trkpt><trkpt lat="37.8089783" lon="12.5001133"><ele>90.0</ele><time>2026-04-20T09:53:28.829Z</time></trkpt><trkpt lat="37.8089333" lon="12.4998583"><ele>88.0</ele><time>2026-04-20T09:53:29.828Z</time></trkpt><trkpt lat="37.8088967" lon="12.4996083"><ele>86.0</ele><time>2026-04-20T09:53:30.829Z</time></trkpt><trkpt lat="37.8088633" lon="12.4993683"><ele>83.33333333333334</ele><time>2026-04-20T09:53:31.827Z</time></trkpt><trkpt lat="37.8088333" lon="12.4991417"><ele>80.66666666666667</ele><time>2026-04-20T09:53:32.83Z</time></trkpt><trkpt lat="37.8088067" lon="12.498925"><ele>78.0</ele><time>2026-04-20T09:53:33.831Z</time></trkpt><trkpt lat="37.8087817" lon="12.4987167"><ele>77.0</ele><time>2026-04-20T09:53:34.829Z</time></trkpt><trkpt lat="37.8087617" lon="12.49852"><ele>76.0</ele><time>2026-04-20T09:53:35.831Z</time></trkpt><trkpt lat="37.80874" lon="12.4983383"><ele>75.0</ele><time>2026-04-20T09:53:36.831Z</time></trkpt><trkpt lat="37.8087017" lon="12.498165"><ele>74.0</ele><time>2026-04-20T09:53:37.83Z</time></trkpt><trkpt lat="37.8086383" lon="12.4979883"><ele>73.0</ele><time>2026-04-20T09:53:38.831Z</time></trkpt><trkpt lat="37.80855" lon="12.497805"><ele>72.0</ele><time>2026-04-20T09:53:39.83Z</time></trkpt><trkpt lat="37.80844" lon="12.497615"><ele>71.0</ele><time>2026-04-20T09:53:40.834Z</time></trkpt><trkpt lat="37.808325" lon="12.4974267"><ele>71.0</ele><time>2026-04-20T09:53:41.833Z</time></trkpt><trkpt lat="37.8082183" lon="12.4972467"><ele>71.0</ele><time>2026-04-20T09:53:42.833Z</time></trkpt><trkpt lat="37.8081183" lon="12.4970733"><ele>71.0</ele><time>2026-04-20T09:53:43.833Z</time></trkpt><trkpt lat="37.8080267" lon="12.496915"><ele>70.0</ele><time>2026-04-20T09:53:44.831Z</time></trkpt><trkpt lat="37.8079483" lon="12.496775"><ele>69.0</ele><time>2026-04-20T09:53:45.832Z</time></trkpt><trkpt lat="37.80789" lon="12.4966433"><ele>68.0</ele><time>2026-04-20T09:53:46.83Z</time></trkpt><trkpt lat="37.8078617" lon="12.4965117"><ele>67.0</ele><time>2026-04-20T09:53:47.831Z</time></trkpt><trkpt lat="37.8078683" lon="12.49638"><ele>66.5</ele><time>2026-04-20T09:53:48.831Z</time></trkpt><trkpt lat="37.807915" lon="12.4962483"><ele>66.0</ele><time>2026-04-20T09:53:49.829Z</time></trkpt><trkpt lat="37.8079933" lon="12.49612"><ele>65.5</ele><time>2026-04-20T09:53:50.834Z</time></trkpt><trkpt lat="37.8080833" lon="12.4959983"><ele>65.0</ele><time>2026-04-20T09:53:51.833Z</time></trkpt><trkpt lat="37.808155" lon="12.4958933"><ele>65.0</ele><time>2026-04-20T09:53:52.828Z</time></trkpt><trkpt lat="37.8081967" lon="12.49579"><ele>65.0</ele><time>2026-04-20T09:53:53.833Z</time></trkpt><trkpt lat="37.808215" lon="12.4956883"><ele>65.0</ele><time>2026-04-20T09:53:54.834Z</time></trkpt><trkpt lat="37.8081967" lon="12.49559"><ele>65.0</ele><time>2026-04-20T09:53:55.832Z</time></trkpt><trkpt lat="37.8081733" lon="12.4954867"><ele>65.0</ele><time>2026-04-20T09:53:56.835Z</time></trkpt><trkpt lat="37.8081733" lon="12.4953733"><ele>65.0</ele><time>2026-04-20T09:53:57.832Z</time></trkpt><trkpt lat="37.8082033" lon="12.4952633"><ele>64.0</ele><time>2026-04-20T09:53:58.83Z</time></trkpt><trkpt lat="37.8082667" lon="12.4951567"><ele>63.0</ele><time>2026-04-20T09:53:59.833Z</time></trkpt><trkpt lat="37.8083383" lon="12.4950533"><ele>62.0</ele><time>2026-04-20T09:54:00.833Z</time></trkpt><trkpt lat="37.808405" lon="12.4949567"><ele>61.0</ele><time>2026-04-20T09:54:01.827Z</time></trkpt><trkpt lat="37.8084567" lon="12.4948617"><ele>60.0</ele><time>2026-04-20T09:54:02.827Z</time></trkpt><trkpt lat="37.80848" lon="12.4947533"><ele>60.0</ele><time>2026-04-20T09:54:03.832Z</time></trkpt><trkpt lat="37.8084717" lon="12.49463"><ele>60.0</ele><time>2026-04-20T09:54:04.832Z</time></trkpt><trkpt lat="37.80843" lon="12.4945017"><ele>60.0</ele><time>2026-04-20T09:54:05.833Z</time></trkpt><trkpt lat="37.8083817" lon="12.4943783"><ele>60.0</ele><time>2026-04-20T09:54:06.833Z</time></trkpt><trkpt lat="37.808345" lon="12.49426"><ele>60.0</ele><time>2026-04-20T09:54:07.832Z</time></trkpt><trkpt lat="37.8083267" lon="12.4941467"><ele>59.25</ele><time>2026-04-20T09:54:08.83Z</time></trkpt><trkpt lat="37.808335" lon="12.494035"><ele>58.5</ele><time>2026-04-20T09:54:09.832Z</time></trkpt><trkpt lat="37.8083667" lon="12.4939167"><ele>57.75</ele><time>2026-04-20T09:54:10.83Z</time></trkpt><trkpt lat="37.8084433" lon="12.4937883"><ele>57.0</ele><time>2026-04-20T09:54:11.828Z</time></trkpt><trkpt lat="37.80854" lon="12.4936467"><ele>53.666666666666664</ele><time>2026-04-20T09:54:12.83Z</time></trkpt><trkpt lat="37.8086517" lon="12.4934917"><ele>50.33333333333333</ele><time>2026-04-20T09:54:13.828Z</time></trkpt><trkpt lat="37.8087717" lon="12.49333"><ele>47.0</ele><time>2026-04-20T09:54:14.831Z</time></trkpt><trkpt lat="37.8088867" lon="12.4931733"><ele>47.0</ele><time>2026-04-20T09:54:15.834Z</time></trkpt><trkpt lat="37.8089967" lon="12.4930283"><ele>47.0</ele><time>2026-04-20T09:54:16.83Z</time></trkpt><trkpt lat="37.8090983" lon="12.4928967"><ele>47.0</ele><time>2026-04-20T09:54:17.829Z</time></trkpt><trkpt lat="37.8091917" lon="12.49277"><ele>47.0</ele><time>2026-04-20T09:54:18.83Z</time></trkpt><trkpt lat="37.8092817" lon="12.492645"><ele>46.0</ele><time>2026-04-20T09:54:19.83Z</time></trkpt><trkpt lat="37.809375" lon="12.4925117"><ele>45.0</ele><time>2026-04-20T09:54:20.831Z</time></trkpt><trkpt lat="37.809475" lon="12.492365"><ele>44.0</ele><time>2026-04-20T09:54:21.83Z</time></trkpt><trkpt lat="37.8095833" lon="12.4922033"><ele>43.666666666666664</ele><time>2026-04-20T09:54:22.828Z</time></trkpt><trkpt lat="37.8096983" lon="12.492035"><ele>43.333333333333336</ele><time>2026-04-20T09:54:23.831Z</time></trkpt><trkpt lat="37.8098133" lon="12.491865"><ele>43.0</ele><time>2026-04-20T09:54:24.832Z</time></trkpt><trkpt lat="37.8099267" lon="12.4917"><ele>43.0</ele><time>2026-04-20T09:54:25.829Z</time></trkpt><trkpt lat="37.8100383" lon="12.49155"><ele>43.0</ele><time>2026-04-20T09:54:26.829Z</time></trkpt><trkpt lat="37.8101383" lon="12.4913967"><ele>43.0</ele><time>2026-04-20T09:54:27.829Z</time></trkpt><trkpt lat="37.8102217" lon="12.4912417"><ele>42.4</ele><time>2026-04-20T09:54:28.829Z</time></trkpt><trkpt lat="37.8103" lon="12.4911167"><ele>41.8</ele><time>2026-04-20T09:54:29.828Z</time></trkpt><trkpt lat="37.8103717" lon="12.49101"><ele>41.2</ele><time>2026-04-20T09:54:30.827Z</time></trkpt><trkpt lat="37.8104317" lon="12.49093"><ele>40.6</ele><time>2026-04-20T09:54:31.826Z</time></trkpt><trkpt lat="37.810495" lon="12.4908467"><ele>40.0</ele><time>2026-04-20T09:54:33.827Z</time></trkpt><trkpt lat="37.810475" lon="12.4907667"><ele>40.0</ele><time>2026-04-20T09:54:35.828Z</time></trkpt><trkpt lat="37.8104033" lon="12.490635"><ele>40.0</ele><time>2026-04-20T09:54:37.833Z</time></trkpt><trkpt lat="37.8103967" lon="12.49055"><ele>40.0</ele><time>2026-04-20T09:54:38.828Z</time></trkpt><trkpt lat="37.8104183" lon="12.4904433"><ele>40.0</ele><time>2026-04-20T09:54:39.831Z</time></trkpt><trkpt lat="37.8105067" lon="12.4902783"><ele>40.0</ele><time>2026-04-20T09:54:40.829Z</time></trkpt><trkpt lat="37.8106117" lon="12.490105"><ele>40.0</ele><time>2026-04-20T09:54:41.83Z</time></trkpt><trkpt lat="37.810715" lon="12.4899433"><ele>40.0</ele><time>2026-04-20T09:54:42.833Z</time></trkpt><trkpt lat="37.8108017" lon="12.4898033"><ele>40.0</ele><time>2026-04-20T09:54:43.831Z</time></trkpt><trkpt lat="37.8108633" lon="12.4896917"><ele>40.0</ele><time>2026-04-20T09:54:44.83Z</time></trkpt><trkpt lat="37.8109083" lon="12.4896117"><ele>39.75</ele><time>2026-04-20T09:54:45.83Z</time></trkpt><trkpt lat="37.8109617" lon="12.4895283"><ele>39.5</ele><time>2026-04-20T09:54:47.829Z</time></trkpt><trkpt lat="37.8109533" lon="12.4893833"><ele>39.25</ele><time>2026-04-20T09:54:56.828Z</time></trkpt><trkpt lat="37.8109117" lon="12.4892033"><ele>39.0</ele><time>2026-04-20T09:54:57.829Z</time></trkpt><trkpt lat="37.810855" lon="12.4889833"><ele>39.666666666666664</ele><time>2026-04-20T09:54:58.828Z</time></trkpt><trkpt lat="37.8107867" lon="12.4887333"><ele>40.33333333333333</ele><time>2026-04-20T09:54:59.829Z</time></trkpt><trkpt lat="37.81073" lon="12.4884917"><ele>41.0</ele><time>2026-04-20T09:55:00.829Z</time></trkpt><trkpt lat="37.8106833" lon="12.48827"><ele>41.0</ele><time>2026-04-20T09:55:01.834Z</time></trkpt><trkpt lat="37.81064" lon="12.4880733"><ele>41.0</ele><time>2026-04-20T09:55:02.835Z</time></trkpt><trkpt lat="37.8106067" lon="12.487875"><ele>41.0</ele><time>2026-04-20T09:55:03.832Z</time></trkpt><trkpt lat="37.8105717" lon="12.4876783"><ele>40.0</ele><time>2026-04-20T09:55:04.835Z</time></trkpt><trkpt lat="37.8105283" lon="12.4874833"><ele>39.0</ele><time>2026-04-20T09:55:05.831Z</time></trkpt><trkpt lat="37.81048" lon="12.4872883"><ele>38.0</ele><time>2026-04-20T09:55:06.83Z</time></trkpt><trkpt lat="37.8104317" lon="12.4870933"><ele>37.33333333333333</ele><time>2026-04-20T09:55:07.83Z</time></trkpt><trkpt lat="37.8103817" lon="12.4868967"><ele>36.666666666666664</ele><time>2026-04-20T09:55:08.829Z</time></trkpt><trkpt lat="37.8103283" lon="12.4866983"><ele>36.0</ele><time>2026-04-20T09:55:09.828Z</time></trkpt><trkpt lat="37.81027" lon="12.4865033"><ele>36.0</ele><time>2026-04-20T09:55:10.828Z</time></trkpt><trkpt lat="37.8102133" lon="12.486305"><ele>36.0</ele><time>2026-04-20T09:55:11.828Z</time></trkpt><trkpt lat="37.8101583" lon="12.486105"><ele>36.0</ele><time>2026-04-20T09:55:12.831Z</time></trkpt><trkpt lat="37.81011" lon="12.4859167"><ele>36.0</ele><time>2026-04-20T09:55:13.832Z</time></trkpt><trkpt lat="37.81007" lon="12.485735"><ele>36.0</ele><time>2026-04-20T09:55:14.832Z</time></trkpt><trkpt lat="37.8100383" lon="12.485555"><ele>36.0</ele><time>2026-04-20T09:55:15.828Z</time></trkpt><trkpt lat="37.81001" lon="12.4853683"><ele>36.0</ele><time>2026-04-20T09:55:16.83Z</time></trkpt><trkpt lat="37.80998" lon="12.4851767"><ele>36.0</ele><time>2026-04-20T09:55:17.829Z</time></trkpt><trkpt lat="37.8099517" lon="12.4849817"><ele>36.0</ele><time>2026-04-20T09:55:18.833Z</time></trkpt><trkpt lat="37.80993" lon="12.48479"><ele>36.0</ele><time>2026-04-20T09:55:19.832Z</time></trkpt><trkpt lat="37.8099117" lon="12.4846"><ele>35.75</ele><time>2026-04-20T09:55:20.834Z</time></trkpt><trkpt lat="37.8098833" lon="12.4844133"><ele>35.5</ele><time>2026-04-20T09:55:21.835Z</time></trkpt><trkpt lat="37.80984" lon="12.4842317"><ele>35.25</ele><time>2026-04-20T09:55:22.832Z</time></trkpt><trkpt lat="37.8097867" lon="12.48407"><ele>35.0</ele><time>2026-04-20T09:55:23.83Z</time></trkpt><trkpt lat="37.8097233" lon="12.4839183"><ele>35.0</ele><time>2026-04-20T09:55:24.83Z</time></trkpt><trkpt lat="37.80965" lon="12.48378"><ele>35.0</ele><time>2026-04-20T09:55:25.83Z</time></trkpt><trkpt lat="37.8095767" lon="12.4836417"><ele>35.0</ele><time>2026-04-20T09:55:26.83Z</time></trkpt><trkpt lat="37.8095067" lon="12.48351"><ele>35.0</ele><time>2026-04-20T09:55:27.83Z</time></trkpt><trkpt lat="37.8094383" lon="12.4833817"><ele>35.0</ele><time>2026-04-20T09:55:28.831Z</time></trkpt><trkpt lat="37.8093733" lon="12.4832483"><ele>35.0</ele><time>2026-04-20T09:55:29.832Z</time></trkpt><trkpt lat="37.809305" lon="12.4831067"><ele>35.0</ele><time>2026-04-20T09:55:30.831Z</time></trkpt><trkpt lat="37.8092317" lon="12.4829517"><ele>35.0</ele><time>2026-04-20T09:55:31.829Z</time></trkpt><trkpt lat="37.809155" lon="12.482795"><ele>35.5</ele><time>2026-04-20T09:55:32.83Z</time></trkpt><trkpt lat="37.8090783" lon="12.4826367"><ele>36.0</ele><time>2026-04-20T09:55:33.83Z</time></trkpt><trkpt lat="37.8090033" lon="12.4824767"><ele>36.5</ele><time>2026-04-20T09:55:34.83Z</time></trkpt><trkpt lat="37.8089317" lon="12.4823217"><ele>37.0</ele><time>2026-04-20T09:55:35.83Z</time></trkpt><trkpt lat="37.8088667" lon="12.48217"><ele>37.0</ele><time>2026-04-20T09:55:36.83Z</time></trkpt><trkpt lat="37.8088067" lon="12.4820267"><ele>37.0</ele><time>2026-04-20T09:55:37.83Z</time></trkpt><trkpt lat="37.8087483" lon="12.48189"><ele>37.0</ele><time>2026-04-20T09:55:38.83Z</time></trkpt><trkpt lat="37.8086917" lon="12.4817683"><ele>37.0</ele><time>2026-04-20T09:55:39.831Z</time></trkpt><trkpt lat="37.808635" lon="12.4816633"><ele>37.0</ele><time>2026-04-20T09:55:40.83Z</time></trkpt><trkpt lat="37.8085783" lon="12.4815783"><ele>37.0</ele><time>2026-04-20T09:55:41.83Z</time></trkpt><trkpt lat="37.8085317" lon="12.4815083"><ele>37.0</ele><time>2026-04-20T09:55:42.832Z</time></trkpt><trkpt lat="37.8085167" lon="12.4813967"><ele>37.0</ele><time>2026-04-20T09:55:44.831Z</time></trkpt><trkpt lat="37.8086183" lon="12.4813467"><ele>37.0</ele><time>2026-04-20T09:55:46.831Z</time></trkpt><trkpt lat="37.8087033" lon="12.48135"><ele>37.0</ele><time>2026-04-20T09:55:47.83Z</time></trkpt><trkpt lat="37.808785" lon="12.4813633"><ele>37.0</ele><time>2026-04-20T09:55:48.83Z</time></trkpt><trkpt lat="37.8088517" lon="12.4813783"><ele>37.0</ele><time>2026-04-20T09:55:49.831Z</time></trkpt><trkpt lat="37.808915" lon="12.48137"><ele>37.0</ele><time>2026-04-20T09:55:51.829Z</time></trkpt><trkpt lat="37.8089" lon="12.4812267"><ele>37.0</ele><time>2026-04-20T09:55:54.828Z</time></trkpt><trkpt lat="37.8088817" lon="12.4811483"><ele>37.0</ele><time>2026-04-20T09:55:55.828Z</time></trkpt><trkpt lat="37.8088583" lon="12.4810567"><ele>37.0</ele><time>2026-04-20T09:55:56.829Z</time></trkpt><trkpt lat="37.80884" lon="12.480965"><ele>36.142857142857146</ele><time>2026-04-20T09:55:57.832Z</time></trkpt><trkpt lat="37.8088283" lon="12.480875"><ele>35.285714285714285</ele><time>2026-04-20T09:55:58.829Z</time></trkpt><trkpt lat="37.8088183" lon="12.480785"><ele>34.42857142857143</ele><time>2026-04-20T09:55:59.828Z</time></trkpt><trkpt lat="37.8088183" lon="12.4806917"><ele>33.57142857142857</ele><time>2026-04-20T09:56:00.831Z</time></trkpt><trkpt lat="37.808835" lon="12.4806017"><ele>32.714285714285715</ele><time>2026-04-20T09:56:01.83Z</time></trkpt><trkpt lat="37.8088617" lon="12.4805133"><ele>31.857142857142858</ele><time>2026-04-20T09:56:02.829Z</time></trkpt><trkpt lat="37.80888" lon="12.4804317"><ele>31.0</ele><time>2026-04-20T09:56:03.827Z</time></trkpt><trkpt lat="37.8088917" lon="12.4803467"><ele>30.000000000000004</ele><time>2026-04-20T09:56:04.831Z</time></trkpt><trkpt lat="37.808895" lon="12.480255"><ele>29.0</ele><time>2026-04-20T09:56:05.829Z</time></trkpt><trkpt lat="37.808885" lon="12.4801533"><ele>28.0</ele><time>2026-04-20T09:56:06.828Z</time></trkpt><trkpt lat="37.8088733" lon="12.4800467"><ele>27.0</ele><time>2026-04-20T09:56:07.831Z</time></trkpt><trkpt lat="37.8088517" lon="12.479935"><ele>26.000000000000004</ele><time>2026-04-20T09:56:08.827Z</time></trkpt><trkpt lat="37.8088233" lon="12.4798233"><ele>25.0</ele><time>2026-04-20T09:56:09.83Z</time></trkpt><trkpt lat="37.80879" lon="12.4797083"><ele>24.4</ele><time>2026-04-20T09:56:10.83Z</time></trkpt><trkpt lat="37.80875" lon="12.4795867"><ele>23.8</ele><time>2026-04-20T09:56:11.833Z</time></trkpt><trkpt lat="37.8087083" lon="12.4794583"><ele>23.200000000000003</ele><time>2026-04-20T09:56:12.833Z</time></trkpt><trkpt lat="37.8086717" lon="12.4793383"><ele>22.6</ele><time>2026-04-20T09:56:13.832Z</time></trkpt><trkpt lat="37.8086367" lon="12.4792317"><ele>22.0</ele><time>2026-04-20T09:56:14.833Z</time></trkpt><trkpt lat="37.8086017" lon="12.4791333"><ele>22.0</ele><time>2026-04-20T09:56:15.834Z</time></trkpt><trkpt lat="37.8085683" lon="12.4790433"><ele>22.0</ele><time>2026-04-20T09:56:16.836Z</time></trkpt><trkpt lat="37.8085417" lon="12.4789583"><ele>22.0</ele><time>2026-04-20T09:56:17.834Z</time></trkpt><trkpt lat="37.8085183" lon="12.4788733"><ele>22.0</ele><time>2026-04-20T09:56:18.831Z</time></trkpt><trkpt lat="37.808505" lon="12.4787933"><ele>22.0</ele><time>2026-04-20T09:56:19.832Z</time></trkpt><trkpt lat="37.8085083" lon="12.4787083"><ele>22.0</ele><time>2026-04-20T09:56:20.835Z</time></trkpt><trkpt lat="37.8085267" lon="12.4786033"><ele>22.0</ele><time>2026-04-20T09:56:21.831Z</time></trkpt><trkpt lat="37.8085483" lon="12.4784633"><ele>21.666666666666664</ele><time>2026-04-20T09:56:22.833Z</time></trkpt><trkpt lat="37.8085617" lon="12.4782933"><ele>21.333333333333332</ele><time>2026-04-20T09:56:23.83Z</time></trkpt><trkpt lat="37.8085633" lon="12.47809"><ele>21.0</ele><time>2026-04-20T09:56:24.832Z</time></trkpt><trkpt lat="37.8085583" lon="12.477865"><ele>20.666666666666668</ele><time>2026-04-20T09:56:25.831Z</time></trkpt><trkpt lat="37.8085567" lon="12.4776467"><ele>20.333333333333336</ele><time>2026-04-20T09:56:26.833Z</time></trkpt><trkpt lat="37.808555" lon="12.4774467"><ele>20.0</ele><time>2026-04-20T09:56:27.832Z</time></trkpt><trkpt lat="37.808555" lon="12.4772633"><ele>19.8</ele><time>2026-04-20T09:56:28.833Z</time></trkpt><trkpt lat="37.8085533" lon="12.477095"><ele>19.6</ele><time>2026-04-20T09:56:29.831Z</time></trkpt><trkpt lat="37.80855" lon="12.4769433"><ele>19.4</ele><time>2026-04-20T09:56:30.834Z</time></trkpt><trkpt lat="37.8085517" lon="12.4768067"><ele>19.2</ele><time>2026-04-20T09:56:31.83Z</time></trkpt><trkpt lat="37.8085517" lon="12.4767"><ele>19.0</ele><time>2026-04-20T09:56:32.83Z</time></trkpt><trkpt lat="37.8085533" lon="12.4766167"><ele>19.0</ele><time>2026-04-20T09:56:33.828Z</time></trkpt><trkpt lat="37.8085717" lon="12.4765383"><ele>19.0</ele><time>2026-04-20T09:56:35.829Z</time></trkpt><trkpt lat="37.8086683" lon="12.4764983"><ele>19.0</ele><time>2026-04-20T09:56:37.828Z</time></trkpt><trkpt lat="37.8087433" lon="12.4764717"><ele>19.0</ele><time>2026-04-20T09:56:38.83Z</time></trkpt><trkpt lat="37.8088283" lon="12.47644"><ele>19.0</ele><time>2026-04-20T09:56:39.827Z</time></trkpt><trkpt lat="37.8089067" lon="12.47641"><ele>19.0</ele><time>2026-04-20T09:56:40.829Z</time></trkpt><trkpt lat="37.8089667" lon="12.476385"><ele>18.75</ele><time>2026-04-20T09:56:41.833Z</time></trkpt><trkpt lat="37.8089817" lon="12.476245"><ele>18.5</ele><time>2026-04-20T09:56:44.83Z</time></trkpt><trkpt lat="37.808935" lon="12.4760583"><ele>18.25</ele><time>2026-04-20T09:56:46.83Z</time></trkpt><trkpt lat="37.808915" lon="12.47593"><ele>18.0</ele><time>2026-04-20T09:56:47.83Z</time></trkpt><trkpt lat="37.8089017" lon="12.4757667"><ele>18.0</ele><time>2026-04-20T09:56:48.828Z</time></trkpt><trkpt lat="37.808885" lon="12.4755833"><ele>18.0</ele><time>2026-04-20T09:56:49.827Z</time></trkpt><trkpt lat="37.8088583" lon="12.4753983"><ele>18.0</ele><time>2026-04-20T09:56:50.829Z</time></trkpt><trkpt lat="37.8088367" lon="12.4752317"><ele>18.0</ele><time>2026-04-20T09:56:51.831Z</time></trkpt><trkpt lat="37.80882" lon="12.4750733"><ele>17.5</ele><time>2026-04-20T09:56:52.831Z</time></trkpt><trkpt lat="37.8087983" lon="12.4749167"><ele>17.0</ele><time>2026-04-20T09:56:53.828Z</time></trkpt><trkpt lat="37.8087733" lon="12.4747583"><ele>16.5</ele><time>2026-04-20T09:56:54.827Z</time></trkpt><trkpt lat="37.8087433" lon="12.4745933"><ele>16.0</ele><time>2026-04-20T09:56:55.828Z</time></trkpt><trkpt lat="37.80871" lon="12.4744233"><ele>16.0</ele><time>2026-04-20T09:56:56.831Z</time></trkpt><trkpt lat="37.8086767" lon="12.4742517"><ele>16.0</ele><time>2026-04-20T09:56:57.832Z</time></trkpt><trkpt lat="37.808645" lon="12.4740883"><ele>16.0</ele><time>2026-04-20T09:56:58.829Z</time></trkpt><trkpt lat="37.8086183" lon="12.473935"><ele>16.0</ele><time>2026-04-20T09:56:59.83Z</time></trkpt><trkpt lat="37.808595" lon="12.4737883"><ele>16.25</ele><time>2026-04-20T09:57:00.828Z</time></trkpt><trkpt lat="37.80857" lon="12.47364"><ele>16.5</ele><time>2026-04-20T09:57:01.833Z</time></trkpt><trkpt lat="37.808545" lon="12.4734917"><ele>16.75</ele><time>2026-04-20T09:57:02.834Z</time></trkpt><trkpt lat="37.8085233" lon="12.4733417"><ele>17.0</ele><time>2026-04-20T09:57:03.832Z</time></trkpt><trkpt lat="37.8084983" lon="12.4731867"><ele>17.75</ele><time>2026-04-20T09:57:04.831Z</time></trkpt><trkpt lat="37.8084733" lon="12.4730267"><ele>18.5</ele><time>2026-04-20T09:57:05.831Z</time></trkpt><trkpt lat="37.80845" lon="12.472865"><ele>19.25</ele><time>2026-04-20T09:57:06.829Z</time></trkpt><trkpt lat="37.8084217" lon="12.4727133"><ele>20.0</ele><time>2026-04-20T09:57:07.834Z</time></trkpt><trkpt lat="37.80839" lon="12.4725583"><ele>20.5</ele><time>2026-04-20T09:57:08.831Z</time></trkpt><trkpt lat="37.80836" lon="12.4723983"><ele>21.0</ele><time>2026-04-20T09:57:09.831Z</time></trkpt><trkpt lat="37.8083317" lon="12.4722383"><ele>21.5</ele><time>2026-04-20T09:57:10.832Z</time></trkpt><trkpt lat="37.808305" lon="12.47208"><ele>22.0</ele><time>2026-04-20T09:57:11.832Z</time></trkpt><trkpt lat="37.8082783" lon="12.4719267"><ele>22.25</ele><time>2026-04-20T09:57:12.83Z</time></trkpt><trkpt lat="37.8082583" lon="12.4717683"><ele>22.5</ele><time>2026-04-20T09:57:13.829Z</time></trkpt><trkpt lat="37.808235" lon="12.4716133"><ele>22.75</ele><time>2026-04-20T09:57:14.835Z</time></trkpt><trkpt lat="37.8082133" lon="12.4714683"><ele>23.0</ele><time>2026-04-20T09:57:15.831Z</time></trkpt><trkpt lat="37.8081867" lon="12.4713467"><ele>22.833333333333336</ele><time>2026-04-20T09:57:16.831Z</time></trkpt><trkpt lat="37.8081667" lon="12.4712517"><ele>22.666666666666668</ele><time>2026-04-20T09:57:17.829Z</time></trkpt><trkpt lat="37.80816" lon="12.4711683"><ele>22.5</ele><time>2026-04-20T09:57:18.828Z</time></trkpt><trkpt lat="37.8081567" lon="12.4710683"><ele>22.333333333333332</ele><time>2026-04-20T09:57:19.829Z</time></trkpt><trkpt lat="37.8081617" lon="12.4709417"><ele>22.166666666666664</ele><time>2026-04-20T09:57:20.829Z</time></trkpt><trkpt lat="37.8081767" lon="12.4707933"><ele>22.0</ele><time>2026-04-20T09:57:21.834Z</time></trkpt><trkpt lat="37.8081917" lon="12.4706483"><ele>22.0</ele><time>2026-04-20T09:57:22.83Z</time></trkpt><trkpt lat="37.8082017" lon="12.4705133"><ele>22.0</ele><time>2026-04-20T09:57:23.831Z</time></trkpt><trkpt lat="37.8082083" lon="12.4703917"><ele>22.0</ele><time>2026-04-20T09:57:24.831Z</time></trkpt><trkpt lat="37.808215" lon="12.4702733"><ele>22.0</ele><time>2026-04-20T09:57:25.833Z</time></trkpt><trkpt lat="37.8082133" lon="12.4701433"><ele>22.0</ele><time>2026-04-20T09:57:26.833Z</time></trkpt><trkpt lat="37.8082067" lon="12.470015"><ele>21.8</ele><time>2026-04-20T09:57:27.832Z</time></trkpt><trkpt lat="37.8081917" lon="12.4698867"><ele>21.6</ele><time>2026-04-20T09:57:28.832Z</time></trkpt><trkpt lat="37.8081717" lon="12.4697617"><ele>21.400000000000002</ele><time>2026-04-20T09:57:29.83Z</time></trkpt><trkpt lat="37.8081433" lon="12.469635"><ele>21.200000000000003</ele><time>2026-04-20T09:57:30.829Z</time></trkpt><trkpt lat="37.8080983" lon="12.4695017"><ele>21.0</ele><time>2026-04-20T09:57:31.828Z</time></trkpt><trkpt lat="37.80804" lon="12.469365"><ele>21.0</ele><time>2026-04-20T09:57:32.83Z</time></trkpt><trkpt lat="37.8079667" lon="12.469225"><ele>21.0</ele><time>2026-04-20T09:57:33.832Z</time></trkpt><trkpt lat="37.8078983" lon="12.469085"><ele>21.0</ele><time>2026-04-20T09:57:34.829Z</time></trkpt><trkpt lat="37.8078367" lon="12.46894"><ele>21.0</ele><time>2026-04-20T09:57:35.829Z</time></trkpt><trkpt lat="37.8077767" lon="12.4687833"><ele>21.0</ele><time>2026-04-20T09:57:36.827Z</time></trkpt><trkpt lat="37.80772" lon="12.4686183"><ele>21.0</ele><time>2026-04-20T09:57:37.829Z</time></trkpt><trkpt lat="37.8076583" lon="12.4684417"><ele>21.0</ele><time>2026-04-20T09:57:38.83Z</time></trkpt><trkpt lat="37.807595" lon="12.468255"><ele>21.0</ele><time>2026-04-20T09:57:39.83Z</time></trkpt><trkpt lat="37.8075367" lon="12.468075"><ele>21.0</ele><time>2026-04-20T09:57:40.83Z</time></trkpt><trkpt lat="37.807485" lon="12.46791"><ele>21.0</ele><time>2026-04-20T09:57:41.831Z</time></trkpt><trkpt lat="37.807435" lon="12.4677483"><ele>21.0</ele><time>2026-04-20T09:57:42.83Z</time></trkpt><trkpt lat="37.8073833" lon="12.4675867"><ele>21.0</ele><time>2026-04-20T09:57:43.833Z</time></trkpt><trkpt lat="37.807335" lon="12.4674383"><ele>21.0</ele><time>2026-04-20T09:57:44.835Z</time></trkpt><trkpt lat="37.8072917" lon="12.4673"><ele>21.0</ele><time>2026-04-20T09:57:45.831Z</time></trkpt><trkpt lat="37.8072533" lon="12.467175"><ele>21.0</ele><time>2026-04-20T09:57:46.832Z</time></trkpt><trkpt lat="37.8072183" lon="12.46706"><ele>21.0</ele><time>2026-04-20T09:57:47.832Z</time></trkpt><trkpt lat="37.8071867" lon="12.4669567"><ele>20.833333333333332</ele><time>2026-04-20T09:57:48.833Z</time></trkpt><trkpt lat="37.807145" lon="12.466765"><ele>20.666666666666668</ele><time>2026-04-20T09:57:50.834Z</time></trkpt><trkpt lat="37.807135" lon="12.4666783"><ele>20.5</ele><time>2026-04-20T09:57:51.83Z</time></trkpt><trkpt lat="37.80713" lon="12.4665917"><ele>20.333333333333336</ele><time>2026-04-20T09:57:52.83Z</time></trkpt><trkpt lat="37.8071267" lon="12.4665067"><ele>20.166666666666668</ele><time>2026-04-20T09:57:53.828Z</time></trkpt><trkpt lat="37.8071267" lon="12.4664267"><ele>20.0</ele><time>2026-04-20T09:57:54.828Z</time></trkpt><trkpt lat="37.8071283" lon="12.4662867"><ele>20.0</ele><time>2026-04-20T09:57:56.831Z</time></trkpt></trkseg></trk></gpx>